<?xml version="1.0" encoding="UTF-8" standalone="no" ?>
<gpx xmlns="http://www.topografix.com/GPX/1/1" xmlns:xsi="http://www.w3.org/2001/XMLSchema-instance" xsi:schemaLocation="http://www.topografix.com/GPX/1/1 http://www.topografix.com/GPX/1/1/gpx.xsd" version="1.1" creator="VisuGPX - https://www.visugpx.com">
  <metadata>
    <name>2017 fontainebleau light</name>
    <desc><![CDATA[la trace vttpassion77 simplifiée]]></desc>
  </metadata>
  <trk>
    <name><![CDATA[Tracé 001]]></name>
    <trkseg>
      <trkpt lat="48.46337" lon="2.66542">
        <ele>85</ele>
      </trkpt>
      <trkpt lat="48.46384" lon="2.66515">
        <ele>84</ele>
      </trkpt>
      <trkpt lat="48.46416" lon="2.66505">
        <ele>83.703125</ele>
      </trkpt>
      <trkpt lat="48.46443" lon="2.6607">
        <ele>82</ele>
      </trkpt>
      <trkpt lat="48.46279" lon="2.65706">
        <ele>84.9140625</ele>
      </trkpt>
      <trkpt lat="48.46268" lon="2.65702">
        <ele>91.2</ele>
        <time>2017-01-08T07:52:51Z</time>
      </trkpt>
      <trkpt lat="48.46268" lon="2.65684">
        <ele>91.2</ele>
        <time>2017-01-08T07:52:55Z</time>
      </trkpt>
      <trkpt lat="48.46268" lon="2.65653">
        <ele>91.2</ele>
        <time>2017-01-08T07:53:01Z</time>
      </trkpt>
      <trkpt lat="48.46267" lon="2.65625">
        <ele>91.2</ele>
        <time>2017-01-08T07:53:07Z</time>
      </trkpt>
      <trkpt lat="48.46265" lon="2.65596">
        <ele>91.2</ele>
        <time>2017-01-08T07:53:13Z</time>
      </trkpt>
      <trkpt lat="48.46266" lon="2.65574">
        <ele>91.2</ele>
        <time>2017-01-08T07:53:18Z</time>
      </trkpt>
      <trkpt lat="48.46267" lon="2.6556">
        <ele>91.2</ele>
        <time>2017-01-08T07:53:21Z</time>
      </trkpt>
      <trkpt lat="48.46269" lon="2.65552">
        <ele>91.2</ele>
        <time>2017-01-08T07:53:23Z</time>
      </trkpt>
      <trkpt lat="48.46271" lon="2.65533">
        <ele>91.6</ele>
        <time>2017-01-08T07:53:27Z</time>
      </trkpt>
      <trkpt lat="48.46272" lon="2.65528">
        <ele>92.4</ele>
        <time>2017-01-08T07:53:28Z</time>
      </trkpt>
      <trkpt lat="48.46273" lon="2.65523">
        <ele>92.8</ele>
        <time>2017-01-08T07:53:29Z</time>
      </trkpt>
      <trkpt lat="48.46274" lon="2.65519">
        <ele>93.2</ele>
        <time>2017-01-08T07:53:30Z</time>
      </trkpt>
      <trkpt lat="48.4628" lon="2.655">
        <ele>93.2</ele>
        <time>2017-01-08T07:53:34Z</time>
      </trkpt>
      <trkpt lat="48.46288" lon="2.65474">
        <ele>93.2</ele>
        <time>2017-01-08T07:53:40Z</time>
      </trkpt>
      <trkpt lat="48.46289" lon="2.6547">
        <ele>93.2</ele>
        <time>2017-01-08T07:53:41Z</time>
      </trkpt>
      <trkpt lat="48.46299" lon="2.65445">
        <ele>93.2</ele>
        <time>2017-01-08T07:53:46Z</time>
      </trkpt>
      <trkpt lat="48.46312" lon="2.65418">
        <ele>93.2</ele>
        <time>2017-01-08T07:53:52Z</time>
      </trkpt>
      <trkpt lat="48.46324" lon="2.65392">
        <ele>93.2</ele>
        <time>2017-01-08T07:53:58Z</time>
      </trkpt>
      <trkpt lat="48.4633" lon="2.65378">
        <ele>93.6</ele>
        <time>2017-01-08T07:54:01Z</time>
      </trkpt>
      <trkpt lat="48.46331" lon="2.65374">
        <ele>94</ele>
        <time>2017-01-08T07:54:02Z</time>
      </trkpt>
      <trkpt lat="48.46333" lon="2.65369">
        <ele>94.4</ele>
        <time>2017-01-08T07:54:03Z</time>
      </trkpt>
      <trkpt lat="48.46334" lon="2.65366">
        <ele>94.8</ele>
        <time>2017-01-08T07:54:04Z</time>
      </trkpt>
      <trkpt lat="48.46336" lon="2.65361">
        <ele>95.2</ele>
        <time>2017-01-08T07:54:05Z</time>
      </trkpt>
      <trkpt lat="48.46342" lon="2.65345">
        <ele>95.2</ele>
        <time>2017-01-08T07:54:09Z</time>
      </trkpt>
      <trkpt lat="48.46351" lon="2.6532">
        <ele>95.2</ele>
        <time>2017-01-08T07:54:14Z</time>
      </trkpt>
      <trkpt lat="48.46359" lon="2.65293">
        <ele>95.2</ele>
        <time>2017-01-08T07:54:20Z</time>
      </trkpt>
      <trkpt lat="48.46365" lon="2.6527">
        <ele>95.2</ele>
        <time>2017-01-08T07:54:25Z</time>
      </trkpt>
      <trkpt lat="48.46371" lon="2.65246">
        <ele>95.2</ele>
        <time>2017-01-08T07:54:30Z</time>
      </trkpt>
      <trkpt lat="48.46372" lon="2.65235">
        <ele>94.8</ele>
        <time>2017-01-08T07:54:32Z</time>
      </trkpt>
      <trkpt lat="48.46372" lon="2.6523">
        <ele>94.4</ele>
        <time>2017-01-08T07:54:33Z</time>
      </trkpt>
      <trkpt lat="48.46372" lon="2.65226">
        <ele>94</ele>
        <time>2017-01-08T07:54:34Z</time>
      </trkpt>
      <trkpt lat="48.46372" lon="2.65221">
        <ele>93.6</ele>
        <time>2017-01-08T07:54:35Z</time>
      </trkpt>
      <trkpt lat="48.46372" lon="2.65217">
        <ele>93.2</ele>
        <time>2017-01-08T07:54:36Z</time>
      </trkpt>
      <trkpt lat="48.46367" lon="2.6521">
        <ele>93.2</ele>
        <time>2017-01-08T07:54:40Z</time>
      </trkpt>
      <trkpt lat="48.4636" lon="2.65202">
        <ele>93.2</ele>
        <time>2017-01-08T07:54:44Z</time>
      </trkpt>
      <trkpt lat="48.46357" lon="2.65198">
        <ele>93.2</ele>
        <time>2017-01-08T07:54:46Z</time>
      </trkpt>
      <trkpt lat="48.46355" lon="2.65195">
        <ele>93.6</ele>
        <time>2017-01-08T07:54:47Z</time>
      </trkpt>
      <trkpt lat="48.46353" lon="2.65192">
        <ele>94</ele>
        <time>2017-01-08T07:54:48Z</time>
      </trkpt>
      <trkpt lat="48.46351" lon="2.65189">
        <ele>94.6</ele>
        <time>2017-01-08T07:54:49Z</time>
      </trkpt>
      <trkpt lat="48.46349" lon="2.65187">
        <ele>95</ele>
        <time>2017-01-08T07:54:50Z</time>
      </trkpt>
      <trkpt lat="48.46347" lon="2.65184">
        <ele>95.4</ele>
        <time>2017-01-08T07:54:51Z</time>
      </trkpt>
      <trkpt lat="48.46346" lon="2.65182">
        <ele>95.4</ele>
        <time>2017-01-08T07:54:52Z</time>
      </trkpt>
      <trkpt lat="48.46343" lon="2.65178">
        <ele>95.8</ele>
        <time>2017-01-08T07:54:54Z</time>
      </trkpt>
      <trkpt lat="48.46341" lon="2.65175">
        <ele>96.4</ele>
        <time>2017-01-08T07:54:55Z</time>
      </trkpt>
      <trkpt lat="48.4634" lon="2.65173">
        <ele>96.8</ele>
        <time>2017-01-08T07:54:56Z</time>
      </trkpt>
      <trkpt lat="48.46338" lon="2.65171">
        <ele>97.2</ele>
        <time>2017-01-08T07:54:57Z</time>
      </trkpt>
      <trkpt lat="48.46337" lon="2.6517">
        <ele>97.6</ele>
        <time>2017-01-08T07:54:58Z</time>
      </trkpt>
      <trkpt lat="48.46333" lon="2.65168">
        <ele>98</ele>
        <time>2017-01-08T07:55:00Z</time>
      </trkpt>
      <trkpt lat="48.46332" lon="2.65167">
        <ele>98.4</ele>
        <time>2017-01-08T07:55:01Z</time>
      </trkpt>
      <trkpt lat="48.4633" lon="2.65166">
        <ele>98.8</ele>
        <time>2017-01-08T07:55:02Z</time>
      </trkpt>
      <trkpt lat="48.46329" lon="2.65164">
        <ele>99.4</ele>
        <time>2017-01-08T07:55:03Z</time>
      </trkpt>
      <trkpt lat="48.46327" lon="2.65161">
        <ele>99.8</ele>
        <time>2017-01-08T07:55:04Z</time>
      </trkpt>
      <trkpt lat="48.46325" lon="2.6516">
        <ele>99.8</ele>
        <time>2017-01-08T07:55:05Z</time>
      </trkpt>
      <trkpt lat="48.46323" lon="2.65159">
        <ele>100.2</ele>
        <time>2017-01-08T07:55:06Z</time>
      </trkpt>
      <trkpt lat="48.46322" lon="2.65158">
        <ele>101</ele>
        <time>2017-01-08T07:55:07Z</time>
      </trkpt>
      <trkpt lat="48.4632" lon="2.65157">
        <ele>101.4</ele>
        <time>2017-01-08T07:55:08Z</time>
      </trkpt>
      <trkpt lat="48.46318" lon="2.65155">
        <ele>101.8</ele>
        <time>2017-01-08T07:55:09Z</time>
      </trkpt>
      <trkpt lat="48.46317" lon="2.65154">
        <ele>101.8</ele>
        <time>2017-01-08T07:55:10Z</time>
      </trkpt>
      <trkpt lat="48.46315" lon="2.65153">
        <ele>101.8</ele>
        <time>2017-01-08T07:55:11Z</time>
      </trkpt>
      <trkpt lat="48.46314" lon="2.65152">
        <ele>102.2</ele>
        <time>2017-01-08T07:55:12Z</time>
      </trkpt>
      <trkpt lat="48.46313" lon="2.6515">
        <ele>102.6</ele>
        <time>2017-01-08T07:55:13Z</time>
      </trkpt>
      <trkpt lat="48.46312" lon="2.65149">
        <ele>103</ele>
        <time>2017-01-08T07:55:14Z</time>
      </trkpt>
      <trkpt lat="48.46311" lon="2.65148">
        <ele>103.4</ele>
        <time>2017-01-08T07:55:15Z</time>
      </trkpt>
      <trkpt lat="48.4631" lon="2.65146">
        <ele>103.8</ele>
        <time>2017-01-08T07:55:16Z</time>
      </trkpt>
      <trkpt lat="48.46304" lon="2.65138">
        <ele>103.8</ele>
        <time>2017-01-08T07:55:20Z</time>
      </trkpt>
      <trkpt lat="48.46303" lon="2.65137">
        <ele>103.8</ele>
        <time>2017-01-08T07:55:21Z</time>
      </trkpt>
      <trkpt lat="48.46299" lon="2.65135">
        <ele>103.8</ele>
        <time>2017-01-08T07:55:23Z</time>
      </trkpt>
      <trkpt lat="48.46295" lon="2.65135">
        <ele>103.8</ele>
        <time>2017-01-08T07:55:25Z</time>
      </trkpt>
      <trkpt lat="48.46293" lon="2.65134">
        <ele>104.2</ele>
        <time>2017-01-08T07:55:26Z</time>
      </trkpt>
      <trkpt lat="48.46292" lon="2.65132">
        <ele>104.6</ele>
        <time>2017-01-08T07:55:27Z</time>
      </trkpt>
      <trkpt lat="48.4629" lon="2.6513">
        <ele>105</ele>
        <time>2017-01-08T07:55:28Z</time>
      </trkpt>
      <trkpt lat="48.46288" lon="2.65128">
        <ele>105.4</ele>
        <time>2017-01-08T07:55:29Z</time>
      </trkpt>
      <trkpt lat="48.46286" lon="2.65127">
        <ele>105.8</ele>
        <time>2017-01-08T07:55:30Z</time>
      </trkpt>
      <trkpt lat="48.46273" lon="2.65121">
        <ele>105.8</ele>
        <time>2017-01-08T07:55:35Z</time>
      </trkpt>
      <trkpt lat="48.46269" lon="2.65118">
        <ele>105.8</ele>
        <time>2017-01-08T07:55:37Z</time>
      </trkpt>
      <trkpt lat="48.46263" lon="2.65109">
        <ele>105.8</ele>
        <time>2017-01-08T07:55:40Z</time>
      </trkpt>
      <trkpt lat="48.46252" lon="2.65097">
        <ele>105.8</ele>
        <time>2017-01-08T07:55:44Z</time>
      </trkpt>
      <trkpt lat="48.46249" lon="2.65096">
        <ele>105.8</ele>
        <time>2017-01-08T07:55:45Z</time>
      </trkpt>
      <trkpt lat="48.46236" lon="2.65093">
        <ele>105.8</ele>
        <time>2017-01-08T07:55:49Z</time>
      </trkpt>
      <trkpt lat="48.46224" lon="2.65091">
        <ele>105.8</ele>
        <time>2017-01-08T07:55:54Z</time>
      </trkpt>
      <trkpt lat="48.46211" lon="2.65091">
        <ele>105.8</ele>
        <time>2017-01-08T07:55:58Z</time>
      </trkpt>
      <trkpt lat="48.46193" lon="2.6509">
        <ele>105.8</ele>
        <time>2017-01-08T07:56:04Z</time>
      </trkpt>
      <trkpt lat="48.4619" lon="2.65088">
        <ele>105.4</ele>
        <time>2017-01-08T07:56:05Z</time>
      </trkpt>
      <trkpt lat="48.46187" lon="2.65087">
        <ele>104.6</ele>
        <time>2017-01-08T07:56:06Z</time>
      </trkpt>
      <trkpt lat="48.46183" lon="2.65085">
        <ele>104</ele>
        <time>2017-01-08T07:56:07Z</time>
      </trkpt>
      <trkpt lat="48.46179" lon="2.65083">
        <ele>103.2</ele>
        <time>2017-01-08T07:56:08Z</time>
      </trkpt>
      <trkpt lat="48.46174" lon="2.6508">
        <ele>102.4</ele>
        <time>2017-01-08T07:56:09Z</time>
      </trkpt>
      <trkpt lat="48.4617" lon="2.65078">
        <ele>101.6</ele>
        <time>2017-01-08T07:56:10Z</time>
      </trkpt>
      <trkpt lat="48.46148" lon="2.65069">
        <ele>101.6</ele>
        <time>2017-01-08T07:56:15Z</time>
      </trkpt>
      <trkpt lat="48.46144" lon="2.65069">
        <ele>101.6</ele>
        <time>2017-01-08T07:56:16Z</time>
      </trkpt>
      <trkpt lat="48.46131" lon="2.65055">
        <ele>94.8046875</ele>
      </trkpt>
      <trkpt lat="48.46097" lon="2.65034">
        <ele>95.234375</ele>
      </trkpt>
      <trkpt lat="48.46042" lon="2.64972">
        <ele>97.59765625</ele>
      </trkpt>
      <trkpt lat="48.46" lon="2.64927">
        <ele>101.86328125</ele>
      </trkpt>
      <trkpt lat="48.45989" lon="2.64917">
        <ele>103.3125</ele>
      </trkpt>
      <trkpt lat="48.45907" lon="2.64808">
        <ele>122.21484375</ele>
      </trkpt>
      <trkpt lat="48.45844" lon="2.64841">
        <ele>123.5</ele>
      </trkpt>
      <trkpt lat="48.45828" lon="2.64823">
        <ele>125.9296875</ele>
      </trkpt>
      <trkpt lat="48.45794" lon="2.64837">
        <ele>127.1875</ele>
      </trkpt>
      <trkpt lat="48.45787" lon="2.6486">
        <ele>126.09375</ele>
      </trkpt>
      <trkpt lat="48.45813" lon="2.64952">
        <ele>122.30078125</ele>
      </trkpt>
      <trkpt lat="48.45857" lon="2.65042">
        <ele>119.25390625</ele>
      </trkpt>
      <trkpt lat="48.45864" lon="2.65108">
        <ele>119.125</ele>
      </trkpt>
      <trkpt lat="48.45846" lon="2.65135">
        <ele>122.55078125</ele>
      </trkpt>
      <trkpt lat="48.45779" lon="2.65174">
        <ele>125.43359375</ele>
      </trkpt>
      <trkpt lat="48.45764" lon="2.65219">
        <ele>123.6953125</ele>
      </trkpt>
      <trkpt lat="48.45755" lon="2.65266">
        <ele>123.71484375</ele>
      </trkpt>
      <trkpt lat="48.45782" lon="2.65307">
        <ele>123.3046875</ele>
      </trkpt>
      <trkpt lat="48.45811" lon="2.65346">
        <ele>125.16015625</ele>
      </trkpt>
      <trkpt lat="48.45895" lon="2.65334">
        <ele>122.9375</ele>
      </trkpt>
      <trkpt lat="48.45929" lon="2.65342">
        <ele>121.19921875</ele>
      </trkpt>
      <trkpt lat="48.45961" lon="2.65377">
        <ele>118.82421875</ele>
      </trkpt>
      <trkpt lat="48.45969" lon="2.654">
        <ele>137.6</ele>
        <time>2017-01-08T07:59:26Z</time>
      </trkpt>
      <trkpt lat="48.45969" lon="2.65401">
        <ele>137.6</ele>
        <time>2017-01-08T07:59:28Z</time>
      </trkpt>
      <trkpt lat="48.4597" lon="2.65407">
        <ele>137.6</ele>
        <time>2017-01-08T08:07:28Z</time>
      </trkpt>
      <trkpt lat="48.4597" lon="2.65412">
        <ele>137.6</ele>
        <time>2017-01-08T08:07:29Z</time>
      </trkpt>
      <trkpt lat="48.45966" lon="2.65434">
        <ele>137.6</ele>
        <time>2017-01-08T08:07:33Z</time>
      </trkpt>
      <trkpt lat="48.45963" lon="2.6545">
        <ele>137.6</ele>
        <time>2017-01-08T08:07:37Z</time>
      </trkpt>
      <trkpt lat="48.4596" lon="2.65465">
        <ele>137.6</ele>
        <time>2017-01-08T08:07:41Z</time>
      </trkpt>
      <trkpt lat="48.45955" lon="2.65485">
        <ele>137.6</ele>
        <time>2017-01-08T08:07:46Z</time>
      </trkpt>
      <trkpt lat="48.45953" lon="2.65503">
        <ele>137.6</ele>
        <time>2017-01-08T08:07:50Z</time>
      </trkpt>
      <trkpt lat="48.45947" lon="2.65527">
        <ele>137.6</ele>
        <time>2017-01-08T08:07:56Z</time>
      </trkpt>
      <trkpt lat="48.45943" lon="2.65548">
        <ele>137.6</ele>
        <time>2017-01-08T08:08:01Z</time>
      </trkpt>
      <trkpt lat="48.4594" lon="2.65556">
        <ele>137.6</ele>
        <time>2017-01-08T08:08:03Z</time>
      </trkpt>
      <trkpt lat="48.45936" lon="2.65571">
        <ele>137.6</ele>
        <time>2017-01-08T08:08:07Z</time>
      </trkpt>
      <trkpt lat="48.45932" lon="2.65586">
        <ele>137.6</ele>
        <time>2017-01-08T08:08:12Z</time>
      </trkpt>
      <trkpt lat="48.45929" lon="2.65602">
        <ele>137.6</ele>
        <time>2017-01-08T08:08:17Z</time>
      </trkpt>
      <trkpt lat="48.45928" lon="2.65606">
        <ele>136.8</ele>
        <time>2017-01-08T08:08:18Z</time>
      </trkpt>
      <trkpt lat="48.45927" lon="2.65611">
        <ele>136.4</ele>
        <time>2017-01-08T08:08:19Z</time>
      </trkpt>
      <trkpt lat="48.45926" lon="2.65615">
        <ele>136</ele>
        <time>2017-01-08T08:08:20Z</time>
      </trkpt>
      <trkpt lat="48.45924" lon="2.6562">
        <ele>135.6</ele>
        <time>2017-01-08T08:08:21Z</time>
      </trkpt>
      <trkpt lat="48.45923" lon="2.65625">
        <ele>135.6</ele>
        <time>2017-01-08T08:08:22Z</time>
      </trkpt>
      <trkpt lat="48.45917" lon="2.65641">
        <ele>135.6</ele>
        <time>2017-01-08T08:08:26Z</time>
      </trkpt>
      <trkpt lat="48.45908" lon="2.6566">
        <ele>135.6</ele>
        <time>2017-01-08T08:08:31Z</time>
      </trkpt>
      <trkpt lat="48.45902" lon="2.65673">
        <ele>135.6</ele>
        <time>2017-01-08T08:08:35Z</time>
      </trkpt>
      <trkpt lat="48.45893" lon="2.65683">
        <ele>135.6</ele>
        <time>2017-01-08T08:08:39Z</time>
      </trkpt>
      <trkpt lat="48.45891" lon="2.65685">
        <ele>135.6</ele>
        <time>2017-01-08T08:08:40Z</time>
      </trkpt>
      <trkpt lat="48.45885" lon="2.65698">
        <ele>135.6</ele>
        <time>2017-01-08T08:08:45Z</time>
      </trkpt>
      <trkpt lat="48.45884" lon="2.65701">
        <ele>135.6</ele>
        <time>2017-01-08T08:08:46Z</time>
      </trkpt>
      <trkpt lat="48.4588" lon="2.65709">
        <ele>135.6</ele>
        <time>2017-01-08T08:08:49Z</time>
      </trkpt>
      <trkpt lat="48.45879" lon="2.65714">
        <ele>135.6</ele>
        <time>2017-01-08T08:08:50Z</time>
      </trkpt>
      <trkpt lat="48.45872" lon="2.65737">
        <ele>135.6</ele>
        <time>2017-01-08T08:08:56Z</time>
      </trkpt>
      <trkpt lat="48.45865" lon="2.6576">
        <ele>135.6</ele>
        <time>2017-01-08T08:09:03Z</time>
      </trkpt>
      <trkpt lat="48.45863" lon="2.65769">
        <ele>135.6</ele>
        <time>2017-01-08T08:09:08Z</time>
      </trkpt>
      <trkpt lat="48.4586" lon="2.65779">
        <ele>135.6</ele>
        <time>2017-01-08T08:09:13Z</time>
      </trkpt>
      <trkpt lat="48.45856" lon="2.65786">
        <ele>135.6</ele>
        <time>2017-01-08T08:09:15Z</time>
      </trkpt>
      <trkpt lat="48.45852" lon="2.65792">
        <ele>135.2</ele>
        <time>2017-01-08T08:09:17Z</time>
      </trkpt>
      <trkpt lat="48.4585" lon="2.65796">
        <ele>134.8</ele>
        <time>2017-01-08T08:09:18Z</time>
      </trkpt>
      <trkpt lat="48.45848" lon="2.65801">
        <ele>134.4</ele>
        <time>2017-01-08T08:09:19Z</time>
      </trkpt>
      <trkpt lat="48.45847" lon="2.65806">
        <ele>134</ele>
        <time>2017-01-08T08:09:20Z</time>
      </trkpt>
      <trkpt lat="48.45845" lon="2.6581">
        <ele>133.6</ele>
        <time>2017-01-08T08:09:21Z</time>
      </trkpt>
      <trkpt lat="48.45843" lon="2.65814">
        <ele>133.2</ele>
        <time>2017-01-08T08:09:22Z</time>
      </trkpt>
      <trkpt lat="48.45841" lon="2.65816">
        <ele>132.8</ele>
        <time>2017-01-08T08:09:23Z</time>
      </trkpt>
      <trkpt lat="48.4584" lon="2.65817">
        <ele>132.4</ele>
        <time>2017-01-08T08:09:24Z</time>
      </trkpt>
      <trkpt lat="48.45839" lon="2.65817">
        <ele>131.8</ele>
        <time>2017-01-08T08:09:25Z</time>
      </trkpt>
      <trkpt lat="48.45838" lon="2.65817">
        <ele>131.4</ele>
        <time>2017-01-08T08:09:26Z</time>
      </trkpt>
      <trkpt lat="48.4583" lon="2.65814">
        <ele>131.4</ele>
        <time>2017-01-08T08:09:30Z</time>
      </trkpt>
      <trkpt lat="48.45822" lon="2.65807">
        <ele>131.4</ele>
        <time>2017-01-08T08:09:33Z</time>
      </trkpt>
      <trkpt lat="48.45812" lon="2.65795">
        <ele>131.4</ele>
        <time>2017-01-08T08:09:38Z</time>
      </trkpt>
      <trkpt lat="48.45811" lon="2.65793">
        <ele>131.4</ele>
        <time>2017-01-08T08:09:39Z</time>
      </trkpt>
      <trkpt lat="48.45804" lon="2.6579">
        <ele>131.4</ele>
        <time>2017-01-08T08:09:42Z</time>
      </trkpt>
      <trkpt lat="48.45802" lon="2.6579">
        <ele>131.4</ele>
        <time>2017-01-08T08:09:43Z</time>
      </trkpt>
      <trkpt lat="48.45799" lon="2.65789">
        <ele>131.4</ele>
        <time>2017-01-08T08:09:44Z</time>
      </trkpt>
      <trkpt lat="48.45792" lon="2.65794">
        <ele>131.4</ele>
        <time>2017-01-08T08:09:47Z</time>
      </trkpt>
      <trkpt lat="48.45787" lon="2.65798">
        <ele>131.4</ele>
        <time>2017-01-08T08:09:49Z</time>
      </trkpt>
      <trkpt lat="48.45782" lon="2.658">
        <ele>131.4</ele>
        <time>2017-01-08T08:09:51Z</time>
      </trkpt>
      <trkpt lat="48.4578" lon="2.65798">
        <ele>131.4</ele>
        <time>2017-01-08T08:09:52Z</time>
      </trkpt>
      <trkpt lat="48.45774" lon="2.65796">
        <ele>131.4</ele>
        <time>2017-01-08T08:09:55Z</time>
      </trkpt>
      <trkpt lat="48.45769" lon="2.65794">
        <ele>131.4</ele>
        <time>2017-01-08T08:09:57Z</time>
      </trkpt>
      <trkpt lat="48.45753" lon="2.65792">
        <ele>131.4</ele>
        <time>2017-01-08T08:10:03Z</time>
      </trkpt>
      <trkpt lat="48.45738" lon="2.65797">
        <ele>131.4</ele>
        <time>2017-01-08T08:10:08Z</time>
      </trkpt>
      <trkpt lat="48.45735" lon="2.65799">
        <ele>131.4</ele>
        <time>2017-01-08T08:10:09Z</time>
      </trkpt>
      <trkpt lat="48.45723" lon="2.65802">
        <ele>131.4</ele>
        <time>2017-01-08T08:10:13Z</time>
      </trkpt>
      <trkpt lat="48.45713" lon="2.65815">
        <ele>131.4</ele>
        <time>2017-01-08T08:10:17Z</time>
      </trkpt>
      <trkpt lat="48.4571" lon="2.65819">
        <ele>131.4</ele>
        <time>2017-01-08T08:10:18Z</time>
      </trkpt>
      <trkpt lat="48.45699" lon="2.65829">
        <ele>131.4</ele>
        <time>2017-01-08T08:10:22Z</time>
      </trkpt>
      <trkpt lat="48.45689" lon="2.65845">
        <ele>131.4</ele>
        <time>2017-01-08T08:10:27Z</time>
      </trkpt>
      <trkpt lat="48.45685" lon="2.65872">
        <ele>131.4</ele>
        <time>2017-01-08T08:10:32Z</time>
      </trkpt>
      <trkpt lat="48.45686" lon="2.65886">
        <ele>131.4</ele>
        <time>2017-01-08T08:10:36Z</time>
      </trkpt>
      <trkpt lat="48.45691" lon="2.659">
        <ele>131</ele>
        <time>2017-01-08T08:10:39Z</time>
      </trkpt>
      <trkpt lat="48.45692" lon="2.65906">
        <ele>130.6</ele>
        <time>2017-01-08T08:10:40Z</time>
      </trkpt>
      <trkpt lat="48.45693" lon="2.65912">
        <ele>130.2</ele>
        <time>2017-01-08T08:10:41Z</time>
      </trkpt>
      <trkpt lat="48.45692" lon="2.65916">
        <ele>129.8</ele>
        <time>2017-01-08T08:10:42Z</time>
      </trkpt>
      <trkpt lat="48.45692" lon="2.65921">
        <ele>129.4</ele>
        <time>2017-01-08T08:10:43Z</time>
      </trkpt>
      <trkpt lat="48.45693" lon="2.6593">
        <ele>129.4</ele>
        <time>2017-01-08T08:10:45Z</time>
      </trkpt>
      <trkpt lat="48.45697" lon="2.65962">
        <ele>129.4</ele>
        <time>2017-01-08T08:10:51Z</time>
      </trkpt>
      <trkpt lat="48.45696" lon="2.65968">
        <ele>129.4</ele>
        <time>2017-01-08T08:10:52Z</time>
      </trkpt>
      <trkpt lat="48.4569" lon="2.6598">
        <ele>129.4</ele>
        <time>2017-01-08T08:10:55Z</time>
      </trkpt>
      <trkpt lat="48.45681" lon="2.6599">
        <ele>129.4</ele>
        <time>2017-01-08T08:10:59Z</time>
      </trkpt>
      <trkpt lat="48.4568" lon="2.65993">
        <ele>129.4</ele>
        <time>2017-01-08T08:11:00Z</time>
      </trkpt>
      <trkpt lat="48.45668" lon="2.66013">
        <ele>129.4</ele>
        <time>2017-01-08T08:11:07Z</time>
      </trkpt>
      <trkpt lat="48.45666" lon="2.66014">
        <ele>129.8</ele>
        <time>2017-01-08T08:11:08Z</time>
      </trkpt>
      <trkpt lat="48.45663" lon="2.66016">
        <ele>130.2</ele>
        <time>2017-01-08T08:11:09Z</time>
      </trkpt>
      <trkpt lat="48.45661" lon="2.66019">
        <ele>131</ele>
        <time>2017-01-08T08:11:10Z</time>
      </trkpt>
      <trkpt lat="48.45659" lon="2.66024">
        <ele>131.4</ele>
        <time>2017-01-08T08:11:11Z</time>
      </trkpt>
      <trkpt lat="48.45658" lon="2.66029">
        <ele>131.4</ele>
        <time>2017-01-08T08:11:12Z</time>
      </trkpt>
      <trkpt lat="48.45649" lon="2.6606">
        <ele>131.4</ele>
        <time>2017-01-08T08:11:19Z</time>
      </trkpt>
      <trkpt lat="48.45649" lon="2.66086">
        <ele>131.4</ele>
        <time>2017-01-08T08:11:24Z</time>
      </trkpt>
      <trkpt lat="48.45654" lon="2.66117">
        <ele>131.4</ele>
        <time>2017-01-08T08:11:30Z</time>
      </trkpt>
      <trkpt lat="48.45661" lon="2.66143">
        <ele>131</ele>
        <time>2017-01-08T08:11:35Z</time>
      </trkpt>
      <trkpt lat="48.45662" lon="2.66149">
        <ele>130.6</ele>
        <time>2017-01-08T08:11:36Z</time>
      </trkpt>
      <trkpt lat="48.45663" lon="2.66154">
        <ele>130.2</ele>
        <time>2017-01-08T08:11:37Z</time>
      </trkpt>
      <trkpt lat="48.45664" lon="2.6616">
        <ele>129.8</ele>
        <time>2017-01-08T08:11:38Z</time>
      </trkpt>
      <trkpt lat="48.45665" lon="2.66165">
        <ele>129.4</ele>
        <time>2017-01-08T08:11:39Z</time>
      </trkpt>
      <trkpt lat="48.4567" lon="2.66188">
        <ele>129.4</ele>
        <time>2017-01-08T08:11:43Z</time>
      </trkpt>
      <trkpt lat="48.45676" lon="2.66214">
        <ele>129.4</ele>
        <time>2017-01-08T08:11:48Z</time>
      </trkpt>
      <trkpt lat="48.4568" lon="2.66237">
        <ele>129.4</ele>
        <time>2017-01-08T08:11:53Z</time>
      </trkpt>
      <trkpt lat="48.45681" lon="2.66241">
        <ele>129</ele>
        <time>2017-01-08T08:11:54Z</time>
      </trkpt>
      <trkpt lat="48.45683" lon="2.66245">
        <ele>128.6</ele>
        <time>2017-01-08T08:11:55Z</time>
      </trkpt>
      <trkpt lat="48.45685" lon="2.66248">
        <ele>128.2</ele>
        <time>2017-01-08T08:11:56Z</time>
      </trkpt>
      <trkpt lat="48.45686" lon="2.66251">
        <ele>127.8</ele>
        <time>2017-01-08T08:11:57Z</time>
      </trkpt>
      <trkpt lat="48.45686" lon="2.66254">
        <ele>127.4</ele>
        <time>2017-01-08T08:11:58Z</time>
      </trkpt>
      <trkpt lat="48.45686" lon="2.66255">
        <ele>127.4</ele>
        <time>2017-01-08T08:12:00Z</time>
      </trkpt>
      <trkpt lat="48.45693" lon="2.66269">
        <ele>127.4</ele>
        <time>2017-01-08T08:12:15Z</time>
      </trkpt>
      <trkpt lat="48.45698" lon="2.66286">
        <ele>127.4</ele>
        <time>2017-01-08T08:12:21Z</time>
      </trkpt>
      <trkpt lat="48.45699" lon="2.66296">
        <ele>127.4</ele>
        <time>2017-01-08T08:12:24Z</time>
      </trkpt>
      <trkpt lat="48.45699" lon="2.66299">
        <ele>127.4</ele>
        <time>2017-01-08T08:12:25Z</time>
      </trkpt>
      <trkpt lat="48.457" lon="2.66317">
        <ele>127.4</ele>
        <time>2017-01-08T08:12:30Z</time>
      </trkpt>
      <trkpt lat="48.45702" lon="2.66325">
        <ele>127.4</ele>
        <time>2017-01-08T08:12:32Z</time>
      </trkpt>
      <trkpt lat="48.45703" lon="2.66335">
        <ele>127.4</ele>
        <time>2017-01-08T08:12:35Z</time>
      </trkpt>
      <trkpt lat="48.45706" lon="2.66357">
        <ele>127.4</ele>
        <time>2017-01-08T08:12:41Z</time>
      </trkpt>
      <trkpt lat="48.45707" lon="2.66369">
        <ele>127.4</ele>
        <time>2017-01-08T08:12:44Z</time>
      </trkpt>
      <trkpt lat="48.45708" lon="2.66373">
        <ele>127.4</ele>
        <time>2017-01-08T08:12:45Z</time>
      </trkpt>
      <trkpt lat="48.45713" lon="2.66392">
        <ele>127.4</ele>
        <time>2017-01-08T08:12:50Z</time>
      </trkpt>
      <trkpt lat="48.45713" lon="2.66404">
        <ele>127.4</ele>
        <time>2017-01-08T08:12:53Z</time>
      </trkpt>
      <trkpt lat="48.45714" lon="2.66416">
        <ele>127.4</ele>
        <time>2017-01-08T08:12:56Z</time>
      </trkpt>
      <trkpt lat="48.45718" lon="2.66439">
        <ele>127.4</ele>
        <time>2017-01-08T08:13:01Z</time>
      </trkpt>
      <trkpt lat="48.45719" lon="2.66463">
        <ele>127.4</ele>
        <time>2017-01-08T08:13:06Z</time>
      </trkpt>
      <trkpt lat="48.45721" lon="2.66492">
        <ele>127.4</ele>
        <time>2017-01-08T08:13:12Z</time>
      </trkpt>
      <trkpt lat="48.45726" lon="2.66516">
        <ele>127.4</ele>
        <time>2017-01-08T08:13:17Z</time>
      </trkpt>
      <trkpt lat="48.45733" lon="2.66535">
        <ele>127.4</ele>
        <time>2017-01-08T08:13:22Z</time>
      </trkpt>
      <trkpt lat="48.4574" lon="2.66548">
        <ele>127.4</ele>
        <time>2017-01-08T08:13:27Z</time>
      </trkpt>
      <trkpt lat="48.45746" lon="2.66565">
        <ele>127.4</ele>
        <time>2017-01-08T08:13:32Z</time>
      </trkpt>
      <trkpt lat="48.45749" lon="2.66596">
        <ele>127.4</ele>
        <time>2017-01-08T08:13:39Z</time>
      </trkpt>
      <trkpt lat="48.45747" lon="2.6662">
        <ele>127.4</ele>
        <time>2017-01-08T08:13:44Z</time>
      </trkpt>
      <trkpt lat="48.45746" lon="2.66638">
        <ele>127.4</ele>
        <time>2017-01-08T08:13:48Z</time>
      </trkpt>
      <trkpt lat="48.45745" lon="2.66658">
        <ele>127.4</ele>
        <time>2017-01-08T08:13:53Z</time>
      </trkpt>
      <trkpt lat="48.45744" lon="2.66679">
        <ele>127.4</ele>
        <time>2017-01-08T08:13:57Z</time>
      </trkpt>
      <trkpt lat="48.45744" lon="2.66689">
        <ele>127.4</ele>
        <time>2017-01-08T08:14:01Z</time>
      </trkpt>
      <trkpt lat="48.45742" lon="2.66696">
        <ele>127.4</ele>
        <time>2017-01-08T08:14:03Z</time>
      </trkpt>
      <trkpt lat="48.45739" lon="2.66704">
        <ele>127.4</ele>
        <time>2017-01-08T08:14:05Z</time>
      </trkpt>
      <trkpt lat="48.45733" lon="2.66714">
        <ele>127.4</ele>
        <time>2017-01-08T08:14:09Z</time>
      </trkpt>
      <trkpt lat="48.45732" lon="2.66718">
        <ele>127.4</ele>
        <time>2017-01-08T08:14:10Z</time>
      </trkpt>
      <trkpt lat="48.45726" lon="2.66732">
        <ele>127.4</ele>
        <time>2017-01-08T08:14:15Z</time>
      </trkpt>
      <trkpt lat="48.45725" lon="2.66735">
        <ele>127.4</ele>
        <time>2017-01-08T08:14:16Z</time>
      </trkpt>
      <trkpt lat="48.45716" lon="2.66757">
        <ele>127.4</ele>
        <time>2017-01-08T08:14:21Z</time>
      </trkpt>
      <trkpt lat="48.45711" lon="2.66768">
        <ele>127.4</ele>
        <time>2017-01-08T08:14:24Z</time>
      </trkpt>
      <trkpt lat="48.45708" lon="2.66772">
        <ele>126.8</ele>
        <time>2017-01-08T08:14:25Z</time>
      </trkpt>
      <trkpt lat="48.45706" lon="2.66774">
        <ele>126.4</ele>
        <time>2017-01-08T08:14:26Z</time>
      </trkpt>
      <trkpt lat="48.45704" lon="2.6678">
        <ele>125.2</ele>
        <time>2017-01-08T08:14:27Z</time>
      </trkpt>
      <trkpt lat="48.45702" lon="2.66783">
        <ele>124.6</ele>
        <time>2017-01-08T08:14:28Z</time>
      </trkpt>
      <trkpt lat="48.457" lon="2.66784">
        <ele>124</ele>
        <time>2017-01-08T08:14:29Z</time>
      </trkpt>
      <trkpt lat="48.45699" lon="2.66784">
        <ele>123.4</ele>
        <time>2017-01-08T08:14:30Z</time>
      </trkpt>
      <trkpt lat="48.45696" lon="2.66785">
        <ele>122.8</ele>
        <time>2017-01-08T08:14:31Z</time>
      </trkpt>
      <trkpt lat="48.4569" lon="2.6679">
        <ele>122.2</ele>
        <time>2017-01-08T08:14:34Z</time>
      </trkpt>
      <trkpt lat="48.45686" lon="2.66791">
        <ele>121.8</ele>
        <time>2017-01-08T08:14:35Z</time>
      </trkpt>
      <trkpt lat="48.45683" lon="2.6679">
        <ele>121.2</ele>
        <time>2017-01-08T08:14:36Z</time>
      </trkpt>
      <trkpt lat="48.45678" lon="2.66788">
        <ele>120.6</ele>
        <time>2017-01-08T08:14:37Z</time>
      </trkpt>
      <trkpt lat="48.45673" lon="2.66788">
        <ele>119.8</ele>
        <time>2017-01-08T08:14:38Z</time>
      </trkpt>
      <trkpt lat="48.4567" lon="2.66783">
        <ele>119.2</ele>
        <time>2017-01-08T08:14:39Z</time>
      </trkpt>
      <trkpt lat="48.45666" lon="2.66781">
        <ele>118.4</ele>
        <time>2017-01-08T08:14:40Z</time>
      </trkpt>
      <trkpt lat="48.45661" lon="2.6678">
        <ele>117.4</ele>
        <time>2017-01-08T08:14:41Z</time>
      </trkpt>
      <trkpt lat="48.45655" lon="2.66779">
        <ele>116.6</ele>
        <time>2017-01-08T08:14:42Z</time>
      </trkpt>
      <trkpt lat="48.45649" lon="2.66779">
        <ele>115.6</ele>
        <time>2017-01-08T08:14:43Z</time>
      </trkpt>
      <trkpt lat="48.45644" lon="2.6678">
        <ele>114.6</ele>
        <time>2017-01-08T08:14:44Z</time>
      </trkpt>
      <trkpt lat="48.4564" lon="2.66782">
        <ele>113.8</ele>
        <time>2017-01-08T08:14:45Z</time>
      </trkpt>
      <trkpt lat="48.45637" lon="2.66782">
        <ele>112.8</ele>
        <time>2017-01-08T08:14:46Z</time>
      </trkpt>
      <trkpt lat="48.45635" lon="2.66784">
        <ele>112</ele>
        <time>2017-01-08T08:14:47Z</time>
      </trkpt>
      <trkpt lat="48.45634" lon="2.66784">
        <ele>111</ele>
        <time>2017-01-08T08:14:48Z</time>
      </trkpt>
      <trkpt lat="48.45631" lon="2.66784">
        <ele>110.2</ele>
        <time>2017-01-08T08:14:49Z</time>
      </trkpt>
      <trkpt lat="48.45626" lon="2.66789">
        <ele>110.2</ele>
        <time>2017-01-08T08:14:51Z</time>
      </trkpt>
      <trkpt lat="48.45623" lon="2.6679">
        <ele>109.8</ele>
        <time>2017-01-08T08:14:52Z</time>
      </trkpt>
      <trkpt lat="48.45619" lon="2.66794">
        <ele>109.4</ele>
        <time>2017-01-08T08:14:53Z</time>
      </trkpt>
      <trkpt lat="48.45616" lon="2.66798">
        <ele>108.8</ele>
        <time>2017-01-08T08:14:54Z</time>
      </trkpt>
      <trkpt lat="48.45613" lon="2.668">
        <ele>108.4</ele>
        <time>2017-01-08T08:14:55Z</time>
      </trkpt>
      <trkpt lat="48.4561" lon="2.66801">
        <ele>108</ele>
        <time>2017-01-08T08:14:56Z</time>
      </trkpt>
      <trkpt lat="48.45605" lon="2.668">
        <ele>108</ele>
        <time>2017-01-08T08:14:58Z</time>
      </trkpt>
      <trkpt lat="48.45602" lon="2.66798">
        <ele>108.6</ele>
        <time>2017-01-08T08:14:59Z</time>
      </trkpt>
      <trkpt lat="48.456" lon="2.66796">
        <ele>109</ele>
        <time>2017-01-08T08:15:00Z</time>
      </trkpt>
      <trkpt lat="48.45597" lon="2.66794">
        <ele>109.6</ele>
        <time>2017-01-08T08:15:01Z</time>
      </trkpt>
      <trkpt lat="48.45594" lon="2.66796">
        <ele>110</ele>
        <time>2017-01-08T08:15:02Z</time>
      </trkpt>
      <trkpt lat="48.45592" lon="2.66797">
        <ele>110.4</ele>
        <time>2017-01-08T08:15:03Z</time>
      </trkpt>
      <trkpt lat="48.4559" lon="2.66798">
        <ele>110.4</ele>
        <time>2017-01-08T08:15:04Z</time>
      </trkpt>
      <trkpt lat="48.45578" lon="2.66806">
        <ele>111</ele>
        <time>2017-01-08T08:15:10Z</time>
      </trkpt>
      <trkpt lat="48.45576" lon="2.66808">
        <ele>111.4</ele>
        <time>2017-01-08T08:15:11Z</time>
      </trkpt>
      <trkpt lat="48.45574" lon="2.66809">
        <ele>111.8</ele>
        <time>2017-01-08T08:15:12Z</time>
      </trkpt>
      <trkpt lat="48.45573" lon="2.6681">
        <ele>112.2</ele>
        <time>2017-01-08T08:15:13Z</time>
      </trkpt>
      <trkpt lat="48.45571" lon="2.66812">
        <ele>112.6</ele>
        <time>2017-01-08T08:15:14Z</time>
      </trkpt>
      <trkpt lat="48.45569" lon="2.66812">
        <ele>113</ele>
        <time>2017-01-08T08:15:15Z</time>
      </trkpt>
      <trkpt lat="48.45568" lon="2.66814">
        <ele>113.4</ele>
        <time>2017-01-08T08:15:16Z</time>
      </trkpt>
      <trkpt lat="48.45566" lon="2.66816">
        <ele>114.2</ele>
        <time>2017-01-08T08:15:17Z</time>
      </trkpt>
      <trkpt lat="48.45566" lon="2.66817">
        <ele>114.6</ele>
        <time>2017-01-08T08:15:18Z</time>
      </trkpt>
      <trkpt lat="48.45563" lon="2.66822">
        <ele>114.6</ele>
        <time>2017-01-08T08:15:21Z</time>
      </trkpt>
      <trkpt lat="48.45558" lon="2.66833">
        <ele>114.6</ele>
        <time>2017-01-08T08:15:25Z</time>
      </trkpt>
      <trkpt lat="48.45555" lon="2.66839">
        <ele>114.6</ele>
        <time>2017-01-08T08:15:27Z</time>
      </trkpt>
      <trkpt lat="48.45554" lon="2.66842">
        <ele>115.2</ele>
        <time>2017-01-08T08:15:28Z</time>
      </trkpt>
      <trkpt lat="48.45553" lon="2.66844">
        <ele>115.6</ele>
        <time>2017-01-08T08:15:29Z</time>
      </trkpt>
      <trkpt lat="48.45553" lon="2.66845">
        <ele>116</ele>
        <time>2017-01-08T08:15:30Z</time>
      </trkpt>
      <trkpt lat="48.45553" lon="2.66848">
        <ele>116.4</ele>
        <time>2017-01-08T08:15:31Z</time>
      </trkpt>
      <trkpt lat="48.45552" lon="2.6685">
        <ele>116.8</ele>
        <time>2017-01-08T08:15:32Z</time>
      </trkpt>
      <trkpt lat="48.45549" lon="2.66864">
        <ele>116.8</ele>
        <time>2017-01-08T08:15:37Z</time>
      </trkpt>
      <trkpt lat="48.45549" lon="2.66867">
        <ele>116.8</ele>
        <time>2017-01-08T08:15:38Z</time>
      </trkpt>
      <trkpt lat="48.45544" lon="2.66894">
        <ele>116.8</ele>
        <time>2017-01-08T08:15:45Z</time>
      </trkpt>
      <trkpt lat="48.45541" lon="2.66907">
        <ele>116.8</ele>
        <time>2017-01-08T08:15:48Z</time>
      </trkpt>
      <trkpt lat="48.4554" lon="2.6691">
        <ele>117.2</ele>
        <time>2017-01-08T08:15:49Z</time>
      </trkpt>
      <trkpt lat="48.4554" lon="2.66914">
        <ele>117.6</ele>
        <time>2017-01-08T08:15:50Z</time>
      </trkpt>
      <trkpt lat="48.45539" lon="2.66917">
        <ele>118</ele>
        <time>2017-01-08T08:15:51Z</time>
      </trkpt>
      <trkpt lat="48.45538" lon="2.6692">
        <ele>118.4</ele>
        <time>2017-01-08T08:15:52Z</time>
      </trkpt>
      <trkpt lat="48.45537" lon="2.66923">
        <ele>118.8</ele>
        <time>2017-01-08T08:15:53Z</time>
      </trkpt>
      <trkpt lat="48.45532" lon="2.66935">
        <ele>118.8</ele>
        <time>2017-01-08T08:15:58Z</time>
      </trkpt>
      <trkpt lat="48.4552" lon="2.66951">
        <ele>118.8</ele>
        <time>2017-01-08T08:16:04Z</time>
      </trkpt>
      <trkpt lat="48.45516" lon="2.66954">
        <ele>119.2</ele>
        <time>2017-01-08T08:16:06Z</time>
      </trkpt>
      <trkpt lat="48.45514" lon="2.66955">
        <ele>119.6</ele>
        <time>2017-01-08T08:16:07Z</time>
      </trkpt>
      <trkpt lat="48.45513" lon="2.66956">
        <ele>120.2</ele>
        <time>2017-01-08T08:16:08Z</time>
      </trkpt>
      <trkpt lat="48.45511" lon="2.66957">
        <ele>120.6</ele>
        <time>2017-01-08T08:16:09Z</time>
      </trkpt>
      <trkpt lat="48.4551" lon="2.66958">
        <ele>121</ele>
        <time>2017-01-08T08:16:10Z</time>
      </trkpt>
      <trkpt lat="48.45502" lon="2.66967">
        <ele>121</ele>
        <time>2017-01-08T08:16:16Z</time>
      </trkpt>
      <trkpt lat="48.45499" lon="2.66971">
        <ele>121</ele>
        <time>2017-01-08T08:16:17Z</time>
      </trkpt>
      <trkpt lat="48.4549" lon="2.66974">
        <ele>121</ele>
        <time>2017-01-08T08:16:22Z</time>
      </trkpt>
      <trkpt lat="48.45489" lon="2.66975">
        <ele>121</ele>
        <time>2017-01-08T08:16:23Z</time>
      </trkpt>
      <trkpt lat="48.45485" lon="2.66973">
        <ele>121.4</ele>
        <time>2017-01-08T08:16:25Z</time>
      </trkpt>
      <trkpt lat="48.45483" lon="2.66973">
        <ele>121.8</ele>
        <time>2017-01-08T08:16:26Z</time>
      </trkpt>
      <trkpt lat="48.45481" lon="2.66973">
        <ele>122.2</ele>
        <time>2017-01-08T08:16:27Z</time>
      </trkpt>
      <trkpt lat="48.45479" lon="2.66973">
        <ele>122.6</ele>
        <time>2017-01-08T08:16:28Z</time>
      </trkpt>
      <trkpt lat="48.45477" lon="2.66973">
        <ele>123.2</ele>
        <time>2017-01-08T08:16:29Z</time>
      </trkpt>
      <trkpt lat="48.45466" lon="2.6697">
        <ele>123.2</ele>
        <time>2017-01-08T08:16:33Z</time>
      </trkpt>
      <trkpt lat="48.45451" lon="2.66968">
        <ele>123.2</ele>
        <time>2017-01-08T08:16:37Z</time>
      </trkpt>
      <trkpt lat="48.45439" lon="2.66966">
        <ele>122.8</ele>
        <time>2017-01-08T08:16:40Z</time>
      </trkpt>
      <trkpt lat="48.45436" lon="2.66965">
        <ele>122.2</ele>
        <time>2017-01-08T08:16:41Z</time>
      </trkpt>
      <trkpt lat="48.45432" lon="2.66963">
        <ele>121.8</ele>
        <time>2017-01-08T08:16:42Z</time>
      </trkpt>
      <trkpt lat="48.45429" lon="2.66961">
        <ele>121.2</ele>
        <time>2017-01-08T08:16:43Z</time>
      </trkpt>
      <trkpt lat="48.45425" lon="2.66958">
        <ele>120.6</ele>
        <time>2017-01-08T08:16:44Z</time>
      </trkpt>
      <trkpt lat="48.4542" lon="2.66953">
        <ele>120</ele>
        <time>2017-01-08T08:16:45Z</time>
      </trkpt>
      <trkpt lat="48.45415" lon="2.66952">
        <ele>119.2</ele>
        <time>2017-01-08T08:16:46Z</time>
      </trkpt>
      <trkpt lat="48.45411" lon="2.66952">
        <ele>118.6</ele>
        <time>2017-01-08T08:16:47Z</time>
      </trkpt>
      <trkpt lat="48.45405" lon="2.66953">
        <ele>118</ele>
        <time>2017-01-08T08:16:48Z</time>
      </trkpt>
      <trkpt lat="48.45399" lon="2.66955">
        <ele>117.4</ele>
        <time>2017-01-08T08:16:49Z</time>
      </trkpt>
      <trkpt lat="48.45395" lon="2.66955">
        <ele>116.8</ele>
        <time>2017-01-08T08:16:50Z</time>
      </trkpt>
      <trkpt lat="48.45392" lon="2.66955">
        <ele>116.2</ele>
        <time>2017-01-08T08:16:51Z</time>
      </trkpt>
      <trkpt lat="48.4539" lon="2.66955">
        <ele>116.2</ele>
        <time>2017-01-08T08:16:52Z</time>
      </trkpt>
      <trkpt lat="48.45386" lon="2.66956">
        <ele>116.6</ele>
        <time>2017-01-08T08:16:54Z</time>
      </trkpt>
      <trkpt lat="48.45384" lon="2.66957">
        <ele>117</ele>
        <time>2017-01-08T08:16:55Z</time>
      </trkpt>
      <trkpt lat="48.45384" lon="2.66957">
        <ele>118</ele>
        <time>2017-01-08T08:16:56Z</time>
      </trkpt>
      <trkpt lat="48.45382" lon="2.66958">
        <ele>118.4</ele>
        <time>2017-01-08T08:16:57Z</time>
      </trkpt>
      <trkpt lat="48.45381" lon="2.66959">
        <ele>118.8</ele>
        <time>2017-01-08T08:16:58Z</time>
      </trkpt>
      <trkpt lat="48.45379" lon="2.6696">
        <ele>119.2</ele>
        <time>2017-01-08T08:16:59Z</time>
      </trkpt>
      <trkpt lat="48.45377" lon="2.6696">
        <ele>119.8</ele>
        <time>2017-01-08T08:17:00Z</time>
      </trkpt>
      <trkpt lat="48.45376" lon="2.66961">
        <ele>120.2</ele>
        <time>2017-01-08T08:17:01Z</time>
      </trkpt>
      <trkpt lat="48.45375" lon="2.66962">
        <ele>120.6</ele>
        <time>2017-01-08T08:17:02Z</time>
      </trkpt>
      <trkpt lat="48.45373" lon="2.66963">
        <ele>121</ele>
        <time>2017-01-08T08:17:03Z</time>
      </trkpt>
      <trkpt lat="48.45371" lon="2.66963">
        <ele>121.6</ele>
        <time>2017-01-08T08:17:04Z</time>
      </trkpt>
      <trkpt lat="48.4537" lon="2.66964">
        <ele>122</ele>
        <time>2017-01-08T08:17:05Z</time>
      </trkpt>
      <trkpt lat="48.45368" lon="2.66966">
        <ele>122.4</ele>
        <time>2017-01-08T08:17:06Z</time>
      </trkpt>
      <trkpt lat="48.45367" lon="2.66967">
        <ele>123</ele>
        <time>2017-01-08T08:17:07Z</time>
      </trkpt>
      <trkpt lat="48.4536" lon="2.66974">
        <ele>123.4</ele>
        <time>2017-01-08T08:17:11Z</time>
      </trkpt>
      <trkpt lat="48.45358" lon="2.66976">
        <ele>123.8</ele>
        <time>2017-01-08T08:17:12Z</time>
      </trkpt>
      <trkpt lat="48.45357" lon="2.66977">
        <ele>124.2</ele>
        <time>2017-01-08T08:17:13Z</time>
      </trkpt>
      <trkpt lat="48.45357" lon="2.66978">
        <ele>124.6</ele>
        <time>2017-01-08T08:17:14Z</time>
      </trkpt>
      <trkpt lat="48.45356" lon="2.66979">
        <ele>125</ele>
        <time>2017-01-08T08:17:15Z</time>
      </trkpt>
      <trkpt lat="48.45354" lon="2.66981">
        <ele>125</ele>
        <time>2017-01-08T08:17:16Z</time>
      </trkpt>
      <trkpt lat="48.45351" lon="2.66985">
        <ele>125.4</ele>
        <time>2017-01-08T08:17:18Z</time>
      </trkpt>
      <trkpt lat="48.45351" lon="2.66987">
        <ele>126</ele>
        <time>2017-01-08T08:17:19Z</time>
      </trkpt>
      <trkpt lat="48.4535" lon="2.6699">
        <ele>126.4</ele>
        <time>2017-01-08T08:17:20Z</time>
      </trkpt>
      <trkpt lat="48.45349" lon="2.66993">
        <ele>127.4</ele>
        <time>2017-01-08T08:17:21Z</time>
      </trkpt>
      <trkpt lat="48.45348" lon="2.66996">
        <ele>127.4</ele>
        <time>2017-01-08T08:17:22Z</time>
      </trkpt>
      <trkpt lat="48.45347" lon="2.67">
        <ele>128</ele>
        <time>2017-01-08T08:17:24Z</time>
      </trkpt>
      <trkpt lat="48.45347" lon="2.67002">
        <ele>128.4</ele>
        <time>2017-01-08T08:17:25Z</time>
      </trkpt>
      <trkpt lat="48.45345" lon="2.67003">
        <ele>128.8</ele>
        <time>2017-01-08T08:17:26Z</time>
      </trkpt>
      <trkpt lat="48.45344" lon="2.67004">
        <ele>129.4</ele>
        <time>2017-01-08T08:17:27Z</time>
      </trkpt>
      <trkpt lat="48.45343" lon="2.67005">
        <ele>129.8</ele>
        <time>2017-01-08T08:17:28Z</time>
      </trkpt>
      <trkpt lat="48.4534" lon="2.67009">
        <ele>130.2</ele>
        <time>2017-01-08T08:17:31Z</time>
      </trkpt>
      <trkpt lat="48.45339" lon="2.67011">
        <ele>130.6</ele>
        <time>2017-01-08T08:17:32Z</time>
      </trkpt>
      <trkpt lat="48.45339" lon="2.67012">
        <ele>131</ele>
        <time>2017-01-08T08:17:33Z</time>
      </trkpt>
      <trkpt lat="48.45338" lon="2.67013">
        <ele>131.4</ele>
        <time>2017-01-08T08:17:34Z</time>
      </trkpt>
      <trkpt lat="48.45336" lon="2.67015">
        <ele>131.8</ele>
        <time>2017-01-08T08:17:35Z</time>
      </trkpt>
      <trkpt lat="48.45332" lon="2.67023">
        <ele>131.8</ele>
        <time>2017-01-08T08:17:40Z</time>
      </trkpt>
      <trkpt lat="48.45329" lon="2.67029">
        <ele>132.2</ele>
        <time>2017-01-08T08:17:43Z</time>
      </trkpt>
      <trkpt lat="48.45327" lon="2.6703">
        <ele>132.8</ele>
        <time>2017-01-08T08:17:44Z</time>
      </trkpt>
      <trkpt lat="48.45326" lon="2.67031">
        <ele>133.2</ele>
        <time>2017-01-08T08:17:45Z</time>
      </trkpt>
      <trkpt lat="48.45324" lon="2.67031">
        <ele>134</ele>
        <time>2017-01-08T08:17:46Z</time>
      </trkpt>
      <trkpt lat="48.45319" lon="2.6704">
        <ele>134</ele>
        <time>2017-01-08T08:17:50Z</time>
      </trkpt>
      <trkpt lat="48.45319" lon="2.67042">
        <ele>134</ele>
        <time>2017-01-08T08:17:51Z</time>
      </trkpt>
      <trkpt lat="48.45318" lon="2.67044">
        <ele>134.4</ele>
        <time>2017-01-08T08:17:52Z</time>
      </trkpt>
      <trkpt lat="48.45317" lon="2.67046">
        <ele>134.8</ele>
        <time>2017-01-08T08:17:53Z</time>
      </trkpt>
      <trkpt lat="48.45317" lon="2.6705">
        <ele>135.2</ele>
        <time>2017-01-08T08:17:54Z</time>
      </trkpt>
      <trkpt lat="48.45317" lon="2.67053">
        <ele>135.6</ele>
        <time>2017-01-08T08:17:55Z</time>
      </trkpt>
      <trkpt lat="48.45317" lon="2.67055">
        <ele>136</ele>
        <time>2017-01-08T08:17:56Z</time>
      </trkpt>
      <trkpt lat="48.45315" lon="2.6706">
        <ele>136</ele>
        <time>2017-01-08T08:17:58Z</time>
      </trkpt>
      <trkpt lat="48.45313" lon="2.6707">
        <ele>136</ele>
        <time>2017-01-08T08:18:03Z</time>
      </trkpt>
      <trkpt lat="48.45312" lon="2.67076">
        <ele>136</ele>
        <time>2017-01-08T08:18:08Z</time>
      </trkpt>
      <trkpt lat="48.45314" lon="2.67079">
        <ele>136</ele>
        <time>2017-01-08T08:18:10Z</time>
      </trkpt>
      <trkpt lat="48.45314" lon="2.67083">
        <ele>136</ele>
        <time>2017-01-08T08:18:12Z</time>
      </trkpt>
      <trkpt lat="48.45314" lon="2.67088">
        <ele>136</ele>
        <time>2017-01-08T08:18:16Z</time>
      </trkpt>
      <trkpt lat="48.45315" lon="2.67088">
        <ele>136</ele>
        <time>2017-01-08T08:18:17Z</time>
      </trkpt>
      <trkpt lat="48.45318" lon="2.67085">
        <ele>136</ele>
        <time>2017-01-08T08:18:19Z</time>
      </trkpt>
      <trkpt lat="48.45316" lon="2.67078">
        <ele>136</ele>
        <time>2017-01-08T08:18:22Z</time>
      </trkpt>
      <trkpt lat="48.45315" lon="2.67077">
        <ele>136</ele>
        <time>2017-01-08T08:18:23Z</time>
      </trkpt>
      <trkpt lat="48.45314" lon="2.67078">
        <ele>136</ele>
        <time>2017-01-08T08:18:24Z</time>
      </trkpt>
      <trkpt lat="48.45313" lon="2.6708">
        <ele>136</ele>
        <time>2017-01-08T08:18:26Z</time>
      </trkpt>
      <trkpt lat="48.45313" lon="2.67081">
        <ele>136</ele>
        <time>2017-01-08T08:18:27Z</time>
      </trkpt>
      <trkpt lat="48.45312" lon="2.67085">
        <ele>136</ele>
        <time>2017-01-08T08:18:30Z</time>
      </trkpt>
      <trkpt lat="48.45316" lon="2.67086">
        <ele>136</ele>
        <time>2017-01-08T08:18:33Z</time>
      </trkpt>
      <trkpt lat="48.45317" lon="2.67091">
        <ele>136</ele>
        <time>2017-01-08T08:18:36Z</time>
      </trkpt>
      <trkpt lat="48.45315" lon="2.67101">
        <ele>136</ele>
        <time>2017-01-08T08:18:41Z</time>
      </trkpt>
      <trkpt lat="48.45314" lon="2.67103">
        <ele>136</ele>
        <time>2017-01-08T08:18:42Z</time>
      </trkpt>
      <trkpt lat="48.45313" lon="2.67125">
        <ele>136</ele>
        <time>2017-01-08T08:18:49Z</time>
      </trkpt>
      <trkpt lat="48.45314" lon="2.67135">
        <ele>136.4</ele>
        <time>2017-01-08T08:18:52Z</time>
      </trkpt>
      <trkpt lat="48.45315" lon="2.67137">
        <ele>136.8</ele>
        <time>2017-01-08T08:18:53Z</time>
      </trkpt>
      <trkpt lat="48.45314" lon="2.67139">
        <ele>137.2</ele>
        <time>2017-01-08T08:18:54Z</time>
      </trkpt>
      <trkpt lat="48.45315" lon="2.67142">
        <ele>137.8</ele>
        <time>2017-01-08T08:18:55Z</time>
      </trkpt>
      <trkpt lat="48.45315" lon="2.67146">
        <ele>138.2</ele>
        <time>2017-01-08T08:18:56Z</time>
      </trkpt>
      <trkpt lat="48.45314" lon="2.67152">
        <ele>138.2</ele>
        <time>2017-01-08T08:18:58Z</time>
      </trkpt>
      <trkpt lat="48.45312" lon="2.67156">
        <ele>138.2</ele>
        <time>2017-01-08T08:19:00Z</time>
      </trkpt>
      <trkpt lat="48.45308" lon="2.67156">
        <ele>138.2</ele>
        <time>2017-01-08T08:19:02Z</time>
      </trkpt>
      <trkpt lat="48.45307" lon="2.67158">
        <ele>138.2</ele>
        <time>2017-01-08T08:19:03Z</time>
      </trkpt>
      <trkpt lat="48.45294" lon="2.67157">
        <ele>138.2</ele>
        <time>2017-01-08T08:19:09Z</time>
      </trkpt>
      <trkpt lat="48.45286" lon="2.67157">
        <ele>138.2</ele>
        <time>2017-01-08T08:19:13Z</time>
      </trkpt>
      <trkpt lat="48.45277" lon="2.67158">
        <ele>138.6</ele>
        <time>2017-01-08T08:19:18Z</time>
      </trkpt>
      <trkpt lat="48.45275" lon="2.6716">
        <ele>139</ele>
        <time>2017-01-08T08:19:19Z</time>
      </trkpt>
      <trkpt lat="48.45274" lon="2.67163">
        <ele>139.4</ele>
        <time>2017-01-08T08:19:20Z</time>
      </trkpt>
      <trkpt lat="48.45273" lon="2.67165">
        <ele>139.8</ele>
        <time>2017-01-08T08:19:21Z</time>
      </trkpt>
      <trkpt lat="48.45272" lon="2.67168">
        <ele>140.2</ele>
        <time>2017-01-08T08:19:22Z</time>
      </trkpt>
      <trkpt lat="48.45268" lon="2.67172">
        <ele>140.2</ele>
        <time>2017-01-08T08:19:24Z</time>
      </trkpt>
      <trkpt lat="48.45261" lon="2.67177">
        <ele>140.2</ele>
        <time>2017-01-08T08:19:28Z</time>
      </trkpt>
      <trkpt lat="48.45258" lon="2.67188">
        <ele>140.2</ele>
        <time>2017-01-08T08:19:32Z</time>
      </trkpt>
      <trkpt lat="48.45247" lon="2.67196">
        <ele>140.2</ele>
        <time>2017-01-08T08:19:37Z</time>
      </trkpt>
      <trkpt lat="48.45242" lon="2.67199">
        <ele>140.2</ele>
        <time>2017-01-08T08:19:39Z</time>
      </trkpt>
      <trkpt lat="48.45234" lon="2.67204">
        <ele>140.2</ele>
        <time>2017-01-08T08:19:42Z</time>
      </trkpt>
      <trkpt lat="48.45219" lon="2.67217">
        <ele>140.2</ele>
        <time>2017-01-08T08:19:48Z</time>
      </trkpt>
      <trkpt lat="48.45214" lon="2.67221">
        <ele>140.2</ele>
        <time>2017-01-08T08:19:50Z</time>
      </trkpt>
      <trkpt lat="48.45209" lon="2.67227">
        <ele>140.2</ele>
        <time>2017-01-08T08:19:52Z</time>
      </trkpt>
      <trkpt lat="48.45196" lon="2.67238">
        <ele>140.2</ele>
        <time>2017-01-08T08:19:56Z</time>
      </trkpt>
      <trkpt lat="48.45185" lon="2.67242">
        <ele>140.2</ele>
        <time>2017-01-08T08:19:59Z</time>
      </trkpt>
      <trkpt lat="48.45182" lon="2.67244">
        <ele>140.2</ele>
        <time>2017-01-08T08:20:00Z</time>
      </trkpt>
      <trkpt lat="48.45164" lon="2.67254">
        <ele>139.6</ele>
        <time>2017-01-08T08:20:05Z</time>
      </trkpt>
      <trkpt lat="48.4516" lon="2.67258">
        <ele>139.2</ele>
        <time>2017-01-08T08:20:06Z</time>
      </trkpt>
      <trkpt lat="48.45156" lon="2.67262">
        <ele>138.6</ele>
        <time>2017-01-08T08:20:07Z</time>
      </trkpt>
      <trkpt lat="48.45152" lon="2.67265">
        <ele>138.2</ele>
        <time>2017-01-08T08:20:08Z</time>
      </trkpt>
      <trkpt lat="48.45149" lon="2.67268">
        <ele>137.6</ele>
        <time>2017-01-08T08:20:09Z</time>
      </trkpt>
      <trkpt lat="48.45147" lon="2.67272">
        <ele>137.6</ele>
        <time>2017-01-08T08:20:10Z</time>
      </trkpt>
      <trkpt lat="48.45137" lon="2.67293">
        <ele>137.6</ele>
        <time>2017-01-08T08:20:15Z</time>
      </trkpt>
      <trkpt lat="48.45131" lon="2.67301">
        <ele>137.6</ele>
        <time>2017-01-08T08:20:18Z</time>
      </trkpt>
      <trkpt lat="48.45129" lon="2.67302">
        <ele>138</ele>
        <time>2017-01-08T08:20:19Z</time>
      </trkpt>
      <trkpt lat="48.45126" lon="2.67303">
        <ele>138.4</ele>
        <time>2017-01-08T08:20:20Z</time>
      </trkpt>
      <trkpt lat="48.45123" lon="2.67303">
        <ele>139</ele>
        <time>2017-01-08T08:20:21Z</time>
      </trkpt>
      <trkpt lat="48.45121" lon="2.67305">
        <ele>139.4</ele>
        <time>2017-01-08T08:20:22Z</time>
      </trkpt>
      <trkpt lat="48.45118" lon="2.67306">
        <ele>139.8</ele>
        <time>2017-01-08T08:20:23Z</time>
      </trkpt>
      <trkpt lat="48.45113" lon="2.67309">
        <ele>139.8</ele>
        <time>2017-01-08T08:20:25Z</time>
      </trkpt>
      <trkpt lat="48.45099" lon="2.67327">
        <ele>139.8</ele>
        <time>2017-01-08T08:20:32Z</time>
      </trkpt>
      <trkpt lat="48.45088" lon="2.67344">
        <ele>139.8</ele>
        <time>2017-01-08T08:20:37Z</time>
      </trkpt>
      <trkpt lat="48.45084" lon="2.67353">
        <ele>139.2</ele>
        <time>2017-01-08T08:20:39Z</time>
      </trkpt>
      <trkpt lat="48.45083" lon="2.67356">
        <ele>138.8</ele>
        <time>2017-01-08T08:20:40Z</time>
      </trkpt>
      <trkpt lat="48.45082" lon="2.6736">
        <ele>138.4</ele>
        <time>2017-01-08T08:20:41Z</time>
      </trkpt>
      <trkpt lat="48.45081" lon="2.67364">
        <ele>137.8</ele>
        <time>2017-01-08T08:20:42Z</time>
      </trkpt>
      <trkpt lat="48.45081" lon="2.67368">
        <ele>137.4</ele>
        <time>2017-01-08T08:20:43Z</time>
      </trkpt>
      <trkpt lat="48.45081" lon="2.67373">
        <ele>137</ele>
        <time>2017-01-08T08:20:44Z</time>
      </trkpt>
      <trkpt lat="48.45081" lon="2.67378">
        <ele>136.4</ele>
        <time>2017-01-08T08:20:45Z</time>
      </trkpt>
      <trkpt lat="48.45079" lon="2.67382">
        <ele>136</ele>
        <time>2017-01-08T08:20:46Z</time>
      </trkpt>
      <trkpt lat="48.45077" lon="2.67385">
        <ele>135.6</ele>
        <time>2017-01-08T08:20:47Z</time>
      </trkpt>
      <trkpt lat="48.45075" lon="2.67388">
        <ele>135.2</ele>
        <time>2017-01-08T08:20:48Z</time>
      </trkpt>
      <trkpt lat="48.45072" lon="2.67393">
        <ele>135.2</ele>
        <time>2017-01-08T08:20:50Z</time>
      </trkpt>
      <trkpt lat="48.45071" lon="2.67398">
        <ele>135.8</ele>
        <time>2017-01-08T08:20:52Z</time>
      </trkpt>
      <trkpt lat="48.45071" lon="2.67401">
        <ele>136.2</ele>
        <time>2017-01-08T08:20:53Z</time>
      </trkpt>
      <trkpt lat="48.45071" lon="2.67404">
        <ele>136.6</ele>
        <time>2017-01-08T08:20:54Z</time>
      </trkpt>
      <trkpt lat="48.4507" lon="2.67407">
        <ele>137.2</ele>
        <time>2017-01-08T08:20:55Z</time>
      </trkpt>
      <trkpt lat="48.4507" lon="2.67409">
        <ele>137.6</ele>
        <time>2017-01-08T08:20:56Z</time>
      </trkpt>
      <trkpt lat="48.45069" lon="2.67415">
        <ele>137.6</ele>
        <time>2017-01-08T08:20:58Z</time>
      </trkpt>
      <trkpt lat="48.45071" lon="2.67428">
        <ele>137.6</ele>
        <time>2017-01-08T08:21:03Z</time>
      </trkpt>
      <trkpt lat="48.45074" lon="2.67443">
        <ele>137.6</ele>
        <time>2017-01-08T08:21:07Z</time>
      </trkpt>
      <trkpt lat="48.45076" lon="2.67455">
        <ele>137.6</ele>
        <time>2017-01-08T08:21:11Z</time>
      </trkpt>
      <trkpt lat="48.45076" lon="2.67461">
        <ele>137.6</ele>
        <time>2017-01-08T08:21:23Z</time>
      </trkpt>
      <trkpt lat="48.45076" lon="2.67468">
        <ele>137.6</ele>
        <time>2017-01-08T08:21:25Z</time>
      </trkpt>
      <trkpt lat="48.45078" lon="2.67482">
        <ele>137.6</ele>
        <time>2017-01-08T08:21:29Z</time>
      </trkpt>
      <trkpt lat="48.4508" lon="2.67485">
        <ele>137.6</ele>
        <time>2017-01-08T08:21:30Z</time>
      </trkpt>
      <trkpt lat="48.45084" lon="2.67488">
        <ele>137.6</ele>
        <time>2017-01-08T08:21:32Z</time>
      </trkpt>
      <trkpt lat="48.45093" lon="2.675">
        <ele>137.6</ele>
        <time>2017-01-08T08:21:35Z</time>
      </trkpt>
      <trkpt lat="48.45097" lon="2.67509">
        <ele>137.6</ele>
        <time>2017-01-08T08:21:37Z</time>
      </trkpt>
      <trkpt lat="48.45103" lon="2.67535">
        <ele>137.6</ele>
        <time>2017-01-08T08:21:42Z</time>
      </trkpt>
      <trkpt lat="48.45108" lon="2.6755">
        <ele>137.6</ele>
        <time>2017-01-08T08:21:46Z</time>
      </trkpt>
      <trkpt lat="48.45109" lon="2.67554">
        <ele>137.6</ele>
        <time>2017-01-08T08:21:47Z</time>
      </trkpt>
      <trkpt lat="48.45109" lon="2.67563">
        <ele>137.2</ele>
        <time>2017-01-08T08:21:49Z</time>
      </trkpt>
      <trkpt lat="48.45109" lon="2.67568">
        <ele>136.8</ele>
        <time>2017-01-08T08:21:50Z</time>
      </trkpt>
      <trkpt lat="48.45108" lon="2.67574">
        <ele>136.4</ele>
        <time>2017-01-08T08:21:51Z</time>
      </trkpt>
      <trkpt lat="48.45107" lon="2.6758">
        <ele>135.4</ele>
        <time>2017-01-08T08:21:52Z</time>
      </trkpt>
      <trkpt lat="48.45107" lon="2.67601">
        <ele>135.4</ele>
        <time>2017-01-08T08:21:56Z</time>
      </trkpt>
      <trkpt lat="48.45109" lon="2.67618">
        <ele>135.4</ele>
        <time>2017-01-08T08:22:00Z</time>
      </trkpt>
      <trkpt lat="48.45115" lon="2.67635">
        <ele>135.4</ele>
        <time>2017-01-08T08:22:05Z</time>
      </trkpt>
      <trkpt lat="48.45124" lon="2.67655">
        <ele>135.4</ele>
        <time>2017-01-08T08:22:10Z</time>
      </trkpt>
      <trkpt lat="48.4513" lon="2.67681">
        <ele>135.4</ele>
        <time>2017-01-08T08:22:15Z</time>
      </trkpt>
      <trkpt lat="48.45128" lon="2.67701">
        <ele>135.4</ele>
        <time>2017-01-08T08:22:20Z</time>
      </trkpt>
      <trkpt lat="48.45122" lon="2.67712">
        <ele>135.4</ele>
        <time>2017-01-08T08:22:24Z</time>
      </trkpt>
      <trkpt lat="48.4512" lon="2.67714">
        <ele>135.4</ele>
        <time>2017-01-08T08:22:25Z</time>
      </trkpt>
      <trkpt lat="48.45116" lon="2.67717">
        <ele>135.4</ele>
        <time>2017-01-08T08:22:27Z</time>
      </trkpt>
      <trkpt lat="48.45109" lon="2.67721">
        <ele>135.4</ele>
        <time>2017-01-08T08:22:30Z</time>
      </trkpt>
      <trkpt lat="48.45099" lon="2.6772">
        <ele>135.4</ele>
        <time>2017-01-08T08:22:34Z</time>
      </trkpt>
      <trkpt lat="48.45094" lon="2.67719">
        <ele>135.4</ele>
        <time>2017-01-08T08:22:37Z</time>
      </trkpt>
      <trkpt lat="48.45091" lon="2.6772">
        <ele>135.4</ele>
        <time>2017-01-08T08:22:39Z</time>
      </trkpt>
      <trkpt lat="48.45079" lon="2.6772">
        <ele>135.4</ele>
        <time>2017-01-08T08:22:42Z</time>
      </trkpt>
      <trkpt lat="48.45072" lon="2.67715">
        <ele>135.4</ele>
        <time>2017-01-08T08:22:45Z</time>
      </trkpt>
      <trkpt lat="48.45067" lon="2.67709">
        <ele>135.4</ele>
        <time>2017-01-08T08:22:50Z</time>
      </trkpt>
      <trkpt lat="48.45065" lon="2.67708">
        <ele>135.4</ele>
        <time>2017-01-08T08:22:52Z</time>
      </trkpt>
      <trkpt lat="48.45061" lon="2.67702">
        <ele>135.4</ele>
        <time>2017-01-08T08:22:54Z</time>
      </trkpt>
      <trkpt lat="48.45056" lon="2.67699">
        <ele>135.4</ele>
        <time>2017-01-08T08:22:56Z</time>
      </trkpt>
      <trkpt lat="48.45052" lon="2.67695">
        <ele>135.4</ele>
        <time>2017-01-08T08:22:58Z</time>
      </trkpt>
      <trkpt lat="48.45048" lon="2.6769">
        <ele>135.4</ele>
        <time>2017-01-08T08:23:00Z</time>
      </trkpt>
      <trkpt lat="48.45045" lon="2.67685">
        <ele>135.4</ele>
        <time>2017-01-08T08:23:02Z</time>
      </trkpt>
      <trkpt lat="48.45039" lon="2.67676">
        <ele>136.4</ele>
        <time>2017-01-08T08:23:06Z</time>
      </trkpt>
      <trkpt lat="48.45038" lon="2.67673">
        <ele>136.8</ele>
        <time>2017-01-08T08:23:07Z</time>
      </trkpt>
      <trkpt lat="48.45036" lon="2.67671">
        <ele>137.2</ele>
        <time>2017-01-08T08:23:08Z</time>
      </trkpt>
      <trkpt lat="48.45035" lon="2.67668">
        <ele>137.8</ele>
        <time>2017-01-08T08:23:09Z</time>
      </trkpt>
      <trkpt lat="48.4503" lon="2.67662">
        <ele>137.8</ele>
        <time>2017-01-08T08:23:12Z</time>
      </trkpt>
      <trkpt lat="48.45026" lon="2.67658">
        <ele>137.8</ele>
        <time>2017-01-08T08:23:14Z</time>
      </trkpt>
      <trkpt lat="48.4502" lon="2.67651">
        <ele>137.8</ele>
        <time>2017-01-08T08:23:17Z</time>
      </trkpt>
      <trkpt lat="48.45018" lon="2.67648">
        <ele>137.8</ele>
        <time>2017-01-08T08:23:18Z</time>
      </trkpt>
      <trkpt lat="48.45009" lon="2.67634">
        <ele>137.8</ele>
        <time>2017-01-08T08:23:23Z</time>
      </trkpt>
      <trkpt lat="48.45002" lon="2.67622">
        <ele>137.8</ele>
        <time>2017-01-08T08:23:27Z</time>
      </trkpt>
      <trkpt lat="48.44995" lon="2.67608">
        <ele>137.8</ele>
        <time>2017-01-08T08:23:31Z</time>
      </trkpt>
      <trkpt lat="48.44993" lon="2.67605">
        <ele>137.8</ele>
        <time>2017-01-08T08:23:32Z</time>
      </trkpt>
      <trkpt lat="48.44992" lon="2.67603">
        <ele>137.8</ele>
        <time>2017-01-08T08:23:33Z</time>
      </trkpt>
      <trkpt lat="48.44987" lon="2.67604">
        <ele>137.8</ele>
        <time>2017-01-08T08:23:35Z</time>
      </trkpt>
      <trkpt lat="48.44973" lon="2.67607">
        <ele>137.8</ele>
        <time>2017-01-08T08:23:40Z</time>
      </trkpt>
      <trkpt lat="48.44965" lon="2.67613">
        <ele>137.8</ele>
        <time>2017-01-08T08:23:44Z</time>
      </trkpt>
      <trkpt lat="48.44947" lon="2.67611">
        <ele>137.8</ele>
        <time>2017-01-08T08:23:50Z</time>
      </trkpt>
      <trkpt lat="48.44937" lon="2.67604">
        <ele>137.8</ele>
        <time>2017-01-08T08:23:55Z</time>
      </trkpt>
      <trkpt lat="48.44934" lon="2.67604">
        <ele>137.4</ele>
        <time>2017-01-08T08:23:56Z</time>
      </trkpt>
      <trkpt lat="48.4493" lon="2.67605">
        <ele>137</ele>
        <time>2017-01-08T08:23:57Z</time>
      </trkpt>
      <trkpt lat="48.44927" lon="2.67606">
        <ele>136.6</ele>
        <time>2017-01-08T08:23:58Z</time>
      </trkpt>
      <trkpt lat="48.44924" lon="2.67607">
        <ele>136.2</ele>
        <time>2017-01-08T08:23:59Z</time>
      </trkpt>
      <trkpt lat="48.44921" lon="2.67609">
        <ele>135.8</ele>
        <time>2017-01-08T08:24:00Z</time>
      </trkpt>
      <trkpt lat="48.44909" lon="2.67617">
        <ele>135.8</ele>
        <time>2017-01-08T08:24:04Z</time>
      </trkpt>
      <trkpt lat="48.44893" lon="2.67625">
        <ele>136.2</ele>
        <time>2017-01-08T08:24:09Z</time>
      </trkpt>
      <trkpt lat="48.44891" lon="2.67625">
        <ele>136.6</ele>
        <time>2017-01-08T08:24:10Z</time>
      </trkpt>
      <trkpt lat="48.44889" lon="2.67625">
        <ele>137</ele>
        <time>2017-01-08T08:24:11Z</time>
      </trkpt>
      <trkpt lat="48.44888" lon="2.67626">
        <ele>137.4</ele>
        <time>2017-01-08T08:24:12Z</time>
      </trkpt>
      <trkpt lat="48.44886" lon="2.67627">
        <ele>137.8</ele>
        <time>2017-01-08T08:24:13Z</time>
      </trkpt>
      <trkpt lat="48.44884" lon="2.67629">
        <ele>137.8</ele>
        <time>2017-01-08T08:24:14Z</time>
      </trkpt>
      <trkpt lat="48.44878" lon="2.67641">
        <ele>137.8</ele>
        <time>2017-01-08T08:24:19Z</time>
      </trkpt>
      <trkpt lat="48.44865" lon="2.67656">
        <ele>137.8</ele>
        <time>2017-01-08T08:24:26Z</time>
      </trkpt>
      <trkpt lat="48.4486" lon="2.6767">
        <ele>137.8</ele>
        <time>2017-01-08T08:24:31Z</time>
      </trkpt>
      <trkpt lat="48.44856" lon="2.67685">
        <ele>137.8</ele>
        <time>2017-01-08T08:24:36Z</time>
      </trkpt>
      <trkpt lat="48.44852" lon="2.67701">
        <ele>137.8</ele>
        <time>2017-01-08T08:24:41Z</time>
      </trkpt>
      <trkpt lat="48.44848" lon="2.67718">
        <ele>137.8</ele>
        <time>2017-01-08T08:24:46Z</time>
      </trkpt>
      <trkpt lat="48.44845" lon="2.67725">
        <ele>137.8</ele>
        <time>2017-01-08T08:24:49Z</time>
      </trkpt>
      <trkpt lat="48.44843" lon="2.67727">
        <ele>137.8</ele>
        <time>2017-01-08T08:24:51Z</time>
      </trkpt>
      <trkpt lat="48.44826" lon="2.67731">
        <ele>137.8</ele>
        <time>2017-01-08T08:24:57Z</time>
      </trkpt>
      <trkpt lat="48.44819" lon="2.6773">
        <ele>137.8</ele>
        <time>2017-01-08T08:25:01Z</time>
      </trkpt>
      <trkpt lat="48.44817" lon="2.6773">
        <ele>137.8</ele>
        <time>2017-01-08T08:25:02Z</time>
      </trkpt>
      <trkpt lat="48.4481" lon="2.67728">
        <ele>137.8</ele>
        <time>2017-01-08T08:25:04Z</time>
      </trkpt>
      <trkpt lat="48.44799" lon="2.67717">
        <ele>137.8</ele>
        <time>2017-01-08T08:25:08Z</time>
      </trkpt>
      <trkpt lat="48.44797" lon="2.67715">
        <ele>137.4</ele>
        <time>2017-01-08T08:25:09Z</time>
      </trkpt>
      <trkpt lat="48.44794" lon="2.67713">
        <ele>137</ele>
        <time>2017-01-08T08:25:10Z</time>
      </trkpt>
      <trkpt lat="48.44791" lon="2.6771">
        <ele>136.6</ele>
        <time>2017-01-08T08:25:11Z</time>
      </trkpt>
      <trkpt lat="48.44789" lon="2.67706">
        <ele>136</ele>
        <time>2017-01-08T08:25:12Z</time>
      </trkpt>
      <trkpt lat="48.44787" lon="2.67702">
        <ele>135.6</ele>
        <time>2017-01-08T08:25:13Z</time>
      </trkpt>
      <trkpt lat="48.44776" lon="2.67689">
        <ele>135.6</ele>
        <time>2017-01-08T08:25:18Z</time>
      </trkpt>
      <trkpt lat="48.44769" lon="2.67681">
        <ele>135.2</ele>
        <time>2017-01-08T08:25:21Z</time>
      </trkpt>
      <trkpt lat="48.44767" lon="2.67676">
        <ele>134.6</ele>
        <time>2017-01-08T08:25:22Z</time>
      </trkpt>
      <trkpt lat="48.44764" lon="2.67673">
        <ele>134.2</ele>
        <time>2017-01-08T08:25:23Z</time>
      </trkpt>
      <trkpt lat="48.4476" lon="2.6767">
        <ele>133.6</ele>
        <time>2017-01-08T08:25:24Z</time>
      </trkpt>
      <trkpt lat="48.44757" lon="2.67667">
        <ele>133.2</ele>
        <time>2017-01-08T08:25:25Z</time>
      </trkpt>
      <trkpt lat="48.44754" lon="2.67666">
        <ele>132.6</ele>
        <time>2017-01-08T08:25:26Z</time>
      </trkpt>
      <trkpt lat="48.44751" lon="2.67664">
        <ele>132</ele>
        <time>2017-01-08T08:25:27Z</time>
      </trkpt>
      <trkpt lat="48.44748" lon="2.67662">
        <ele>131.4</ele>
        <time>2017-01-08T08:25:28Z</time>
      </trkpt>
      <trkpt lat="48.44745" lon="2.67661">
        <ele>130.8</ele>
        <time>2017-01-08T08:25:29Z</time>
      </trkpt>
      <trkpt lat="48.44743" lon="2.67661">
        <ele>130.2</ele>
        <time>2017-01-08T08:25:30Z</time>
      </trkpt>
      <trkpt lat="48.44741" lon="2.6766">
        <ele>129.6</ele>
        <time>2017-01-08T08:25:31Z</time>
      </trkpt>
      <trkpt lat="48.44739" lon="2.67659">
        <ele>128.8</ele>
        <time>2017-01-08T08:25:32Z</time>
      </trkpt>
      <trkpt lat="48.44737" lon="2.67659">
        <ele>128.2</ele>
        <time>2017-01-08T08:25:33Z</time>
      </trkpt>
      <trkpt lat="48.44724" lon="2.67642">
        <ele>128.0546875</ele>
      </trkpt>
      <trkpt lat="48.44705" lon="2.67615">
        <ele>129.64453125</ele>
      </trkpt>
      <trkpt lat="48.44664" lon="2.67582">
        <ele>130.6875</ele>
      </trkpt>
      <trkpt lat="48.44645" lon="2.67537">
        <ele>131.51171875</ele>
      </trkpt>
      <trkpt lat="48.44615" lon="2.67537">
        <ele>129.015625</ele>
      </trkpt>
      <trkpt lat="48.44585" lon="2.67531">
        <ele>130.3359375</ele>
      </trkpt>
      <trkpt lat="48.44587" lon="2.67533">
        <ele>130.07421875</ele>
      </trkpt>
      <trkpt lat="48.44548" lon="2.67576">
        <ele>129.86328125</ele>
      </trkpt>
      <trkpt lat="48.44495" lon="2.67556">
        <ele>135.921875</ele>
      </trkpt>
      <trkpt lat="48.44484" lon="2.67588">
        <ele>135.30078125</ele>
      </trkpt>
      <trkpt lat="48.44493" lon="2.67621">
        <ele>134.79296875</ele>
      </trkpt>
      <trkpt lat="48.4448" lon="2.6766">
        <ele>134.890625</ele>
      </trkpt>
      <trkpt lat="48.44479" lon="2.67662">
        <ele>134.98828125</ele>
      </trkpt>
      <trkpt lat="48.44486" lon="2.67689">
        <ele>134.5</ele>
      </trkpt>
      <trkpt lat="48.44472" lon="2.67745">
        <ele>135.47265625</ele>
      </trkpt>
      <trkpt lat="48.44484" lon="2.67769">
        <ele>134.59765625</ele>
      </trkpt>
      <trkpt lat="48.44507" lon="2.67759">
        <ele>132.52734375</ele>
      </trkpt>
      <trkpt lat="48.44541" lon="2.67775">
        <ele>128.06640625</ele>
      </trkpt>
      <trkpt lat="48.44553" lon="2.67769">
        <ele>125.31640625</ele>
      </trkpt>
      <trkpt lat="48.44552" lon="2.67851">
        <ele>127.92578125</ele>
      </trkpt>
      <trkpt lat="48.4455" lon="2.67851">
        <ele>128.140625</ele>
      </trkpt>
      <trkpt lat="48.44559" lon="2.67862">
        <ele>127.41015625</ele>
      </trkpt>
      <trkpt lat="48.44559" lon="2.67864">
        <ele>127.50390625</ele>
      </trkpt>
      <trkpt lat="48.44556" lon="2.67876">
        <ele>128.7265625</ele>
      </trkpt>
      <trkpt lat="48.44569" lon="2.67903">
        <ele>129.05078125</ele>
      </trkpt>
      <trkpt lat="48.44556" lon="2.67943">
        <ele>142.4</ele>
        <time>2017-01-08T08:32:00Z</time>
      </trkpt>
      <trkpt lat="48.44555" lon="2.67953">
        <ele>142.4</ele>
        <time>2017-01-08T08:32:03Z</time>
      </trkpt>
      <trkpt lat="48.44556" lon="2.67963">
        <ele>142.4</ele>
        <time>2017-01-08T08:32:06Z</time>
      </trkpt>
      <trkpt lat="48.44555" lon="2.67973">
        <ele>142.4</ele>
        <time>2017-01-08T08:32:09Z</time>
      </trkpt>
      <trkpt lat="48.44559" lon="2.67985">
        <ele>142.4</ele>
        <time>2017-01-08T08:32:13Z</time>
      </trkpt>
      <trkpt lat="48.44566" lon="2.68001">
        <ele>142.4</ele>
        <time>2017-01-08T08:32:18Z</time>
      </trkpt>
      <trkpt lat="48.4457" lon="2.68012">
        <ele>142.4</ele>
        <time>2017-01-08T08:32:21Z</time>
      </trkpt>
      <trkpt lat="48.44569" lon="2.68017">
        <ele>142.4</ele>
        <time>2017-01-08T08:32:23Z</time>
      </trkpt>
      <trkpt lat="48.44566" lon="2.68022">
        <ele>142.4</ele>
        <time>2017-01-08T08:32:25Z</time>
      </trkpt>
      <trkpt lat="48.44561" lon="2.6802">
        <ele>142.4</ele>
        <time>2017-01-08T08:32:27Z</time>
      </trkpt>
      <trkpt lat="48.44551" lon="2.68019">
        <ele>142.4</ele>
        <time>2017-01-08T08:32:31Z</time>
      </trkpt>
      <trkpt lat="48.44541" lon="2.68016">
        <ele>142.4</ele>
        <time>2017-01-08T08:32:35Z</time>
      </trkpt>
      <trkpt lat="48.44539" lon="2.68014">
        <ele>142.4</ele>
        <time>2017-01-08T08:32:36Z</time>
      </trkpt>
      <trkpt lat="48.44528" lon="2.68011">
        <ele>142.4</ele>
        <time>2017-01-08T08:32:41Z</time>
      </trkpt>
      <trkpt lat="48.44523" lon="2.6801">
        <ele>142.4</ele>
        <time>2017-01-08T08:32:43Z</time>
      </trkpt>
      <trkpt lat="48.44513" lon="2.6801">
        <ele>142.4</ele>
        <time>2017-01-08T08:32:47Z</time>
      </trkpt>
      <trkpt lat="48.44496" lon="2.68016">
        <ele>142.4</ele>
        <time>2017-01-08T08:32:53Z</time>
      </trkpt>
      <trkpt lat="48.44491" lon="2.6802">
        <ele>142.4</ele>
        <time>2017-01-08T08:32:55Z</time>
      </trkpt>
      <trkpt lat="48.44487" lon="2.68026">
        <ele>142</ele>
        <time>2017-01-08T08:32:57Z</time>
      </trkpt>
      <trkpt lat="48.44485" lon="2.68029">
        <ele>141.6</ele>
        <time>2017-01-08T08:32:58Z</time>
      </trkpt>
      <trkpt lat="48.44482" lon="2.68032">
        <ele>141.2</ele>
        <time>2017-01-08T08:32:59Z</time>
      </trkpt>
      <trkpt lat="48.4448" lon="2.68035">
        <ele>140.8</ele>
        <time>2017-01-08T08:33:00Z</time>
      </trkpt>
      <trkpt lat="48.44478" lon="2.68039">
        <ele>140.2</ele>
        <time>2017-01-08T08:33:01Z</time>
      </trkpt>
      <trkpt lat="48.44475" lon="2.68047">
        <ele>140.2</ele>
        <time>2017-01-08T08:33:03Z</time>
      </trkpt>
      <trkpt lat="48.44464" lon="2.68054">
        <ele>140.2</ele>
        <time>2017-01-08T08:33:07Z</time>
      </trkpt>
      <trkpt lat="48.44462" lon="2.68057">
        <ele>140.2</ele>
        <time>2017-01-08T08:33:08Z</time>
      </trkpt>
      <trkpt lat="48.44458" lon="2.68063">
        <ele>140.2</ele>
        <time>2017-01-08T08:33:10Z</time>
      </trkpt>
      <trkpt lat="48.44454" lon="2.68069">
        <ele>140.2</ele>
        <time>2017-01-08T08:33:13Z</time>
      </trkpt>
      <trkpt lat="48.44452" lon="2.68087">
        <ele>140.2</ele>
        <time>2017-01-08T08:33:16Z</time>
      </trkpt>
      <trkpt lat="48.44447" lon="2.68101">
        <ele>140.2</ele>
        <time>2017-01-08T08:33:18Z</time>
      </trkpt>
      <trkpt lat="48.44442" lon="2.68114">
        <ele>140.2</ele>
        <time>2017-01-08T08:33:20Z</time>
      </trkpt>
      <trkpt lat="48.44435" lon="2.68128">
        <ele>140.2</ele>
        <time>2017-01-08T08:33:24Z</time>
      </trkpt>
      <trkpt lat="48.44432" lon="2.68138">
        <ele>140.2</ele>
        <time>2017-01-08T08:33:27Z</time>
      </trkpt>
      <trkpt lat="48.4443" lon="2.68151">
        <ele>140.2</ele>
        <time>2017-01-08T08:33:30Z</time>
      </trkpt>
      <trkpt lat="48.44426" lon="2.68175">
        <ele>140.2</ele>
        <time>2017-01-08T08:33:36Z</time>
      </trkpt>
      <trkpt lat="48.44424" lon="2.68197">
        <ele>140.2</ele>
        <time>2017-01-08T08:33:41Z</time>
      </trkpt>
      <trkpt lat="48.44422" lon="2.68218">
        <ele>140.2</ele>
        <time>2017-01-08T08:33:46Z</time>
      </trkpt>
      <trkpt lat="48.4442" lon="2.6822">
        <ele>140.2</ele>
        <time>2017-01-08T08:33:47Z</time>
      </trkpt>
      <trkpt lat="48.44415" lon="2.68222">
        <ele>140.2</ele>
        <time>2017-01-08T08:33:49Z</time>
      </trkpt>
      <trkpt lat="48.44411" lon="2.68223">
        <ele>139.8</ele>
        <time>2017-01-08T08:33:50Z</time>
      </trkpt>
      <trkpt lat="48.44408" lon="2.68223">
        <ele>139.4</ele>
        <time>2017-01-08T08:33:51Z</time>
      </trkpt>
      <trkpt lat="48.44405" lon="2.68224">
        <ele>139</ele>
        <time>2017-01-08T08:33:52Z</time>
      </trkpt>
      <trkpt lat="48.44403" lon="2.68227">
        <ele>138.6</ele>
        <time>2017-01-08T08:33:53Z</time>
      </trkpt>
      <trkpt lat="48.44401" lon="2.68228">
        <ele>138.2</ele>
        <time>2017-01-08T08:33:54Z</time>
      </trkpt>
      <trkpt lat="48.44397" lon="2.68231">
        <ele>138.2</ele>
        <time>2017-01-08T08:33:56Z</time>
      </trkpt>
      <trkpt lat="48.44392" lon="2.68232">
        <ele>138.2</ele>
        <time>2017-01-08T08:33:58Z</time>
      </trkpt>
      <trkpt lat="48.44379" lon="2.68236">
        <ele>138.2</ele>
        <time>2017-01-08T08:34:03Z</time>
      </trkpt>
      <trkpt lat="48.44366" lon="2.68239">
        <ele>138.2</ele>
        <time>2017-01-08T08:34:07Z</time>
      </trkpt>
      <trkpt lat="48.44364" lon="2.68238">
        <ele>138.2</ele>
        <time>2017-01-08T08:34:09Z</time>
      </trkpt>
      <trkpt lat="48.44362" lon="2.68233">
        <ele>138.2</ele>
        <time>2017-01-08T08:34:11Z</time>
      </trkpt>
      <trkpt lat="48.44358" lon="2.68222">
        <ele>138.2</ele>
        <time>2017-01-08T08:34:14Z</time>
      </trkpt>
      <trkpt lat="48.44356" lon="2.68214">
        <ele>138.2</ele>
        <time>2017-01-08T08:34:16Z</time>
      </trkpt>
      <trkpt lat="48.44347" lon="2.68206">
        <ele>138.2</ele>
        <time>2017-01-08T08:34:20Z</time>
      </trkpt>
      <trkpt lat="48.4434" lon="2.68199">
        <ele>138.2</ele>
        <time>2017-01-08T08:34:24Z</time>
      </trkpt>
      <trkpt lat="48.44337" lon="2.68189">
        <ele>138.6</ele>
        <time>2017-01-08T08:34:28Z</time>
      </trkpt>
      <trkpt lat="48.44335" lon="2.68187">
        <ele>139</ele>
        <time>2017-01-08T08:34:29Z</time>
      </trkpt>
      <trkpt lat="48.44333" lon="2.68185">
        <ele>139.4</ele>
        <time>2017-01-08T08:34:30Z</time>
      </trkpt>
      <trkpt lat="48.44332" lon="2.68183">
        <ele>140</ele>
        <time>2017-01-08T08:34:31Z</time>
      </trkpt>
      <trkpt lat="48.4433" lon="2.6818">
        <ele>140.4</ele>
        <time>2017-01-08T08:34:32Z</time>
      </trkpt>
      <trkpt lat="48.44325" lon="2.68176">
        <ele>140.4</ele>
        <time>2017-01-08T08:34:34Z</time>
      </trkpt>
      <trkpt lat="48.44318" lon="2.68163">
        <ele>140.4</ele>
        <time>2017-01-08T08:34:38Z</time>
      </trkpt>
      <trkpt lat="48.44318" lon="2.6816">
        <ele>140.4</ele>
        <time>2017-01-08T08:34:40Z</time>
      </trkpt>
      <trkpt lat="48.44315" lon="2.68154">
        <ele>140.4</ele>
        <time>2017-01-08T08:34:42Z</time>
      </trkpt>
      <trkpt lat="48.4431" lon="2.68152">
        <ele>140.4</ele>
        <time>2017-01-08T08:34:44Z</time>
      </trkpt>
      <trkpt lat="48.44308" lon="2.6815">
        <ele>140.4</ele>
        <time>2017-01-08T08:34:45Z</time>
      </trkpt>
      <trkpt lat="48.44307" lon="2.68147">
        <ele>140.4</ele>
        <time>2017-01-08T08:34:46Z</time>
      </trkpt>
      <trkpt lat="48.44306" lon="2.68136">
        <ele>140.4</ele>
        <time>2017-01-08T08:34:50Z</time>
      </trkpt>
      <trkpt lat="48.44307" lon="2.68129">
        <ele>140.4</ele>
        <time>2017-01-08T08:34:53Z</time>
      </trkpt>
      <trkpt lat="48.44307" lon="2.68125">
        <ele>140.4</ele>
        <time>2017-01-08T08:34:54Z</time>
      </trkpt>
      <trkpt lat="48.44306" lon="2.6812">
        <ele>140.4</ele>
        <time>2017-01-08T08:34:55Z</time>
      </trkpt>
      <trkpt lat="48.44307" lon="2.68105">
        <ele>140.8</ele>
        <time>2017-01-08T08:35:00Z</time>
      </trkpt>
      <trkpt lat="48.44307" lon="2.68101">
        <ele>141.6</ele>
        <time>2017-01-08T08:35:01Z</time>
      </trkpt>
      <trkpt lat="48.44306" lon="2.68097">
        <ele>142</ele>
        <time>2017-01-08T08:35:02Z</time>
      </trkpt>
      <trkpt lat="48.44305" lon="2.68092">
        <ele>142.4</ele>
        <time>2017-01-08T08:35:03Z</time>
      </trkpt>
      <trkpt lat="48.44302" lon="2.68084">
        <ele>142.4</ele>
        <time>2017-01-08T08:35:05Z</time>
      </trkpt>
      <trkpt lat="48.44299" lon="2.68078">
        <ele>142.4</ele>
        <time>2017-01-08T08:35:07Z</time>
      </trkpt>
      <trkpt lat="48.44297" lon="2.68071">
        <ele>142.4</ele>
        <time>2017-01-08T08:35:09Z</time>
      </trkpt>
      <trkpt lat="48.44296" lon="2.68067">
        <ele>142.4</ele>
        <time>2017-01-08T08:35:10Z</time>
      </trkpt>
      <trkpt lat="48.44296" lon="2.68049">
        <ele>142.4</ele>
        <time>2017-01-08T08:35:15Z</time>
      </trkpt>
      <trkpt lat="48.44296" lon="2.68034">
        <ele>142.4</ele>
        <time>2017-01-08T08:35:19Z</time>
      </trkpt>
      <trkpt lat="48.44295" lon="2.68025">
        <ele>142.4</ele>
        <time>2017-01-08T08:35:21Z</time>
      </trkpt>
      <trkpt lat="48.44289" lon="2.68004">
        <ele>142.4</ele>
        <time>2017-01-08T08:35:27Z</time>
      </trkpt>
      <trkpt lat="48.44284" lon="2.67999">
        <ele>142.4</ele>
        <time>2017-01-08T08:35:30Z</time>
      </trkpt>
      <trkpt lat="48.44284" lon="2.67997">
        <ele>142.4</ele>
        <time>2017-01-08T08:35:31Z</time>
      </trkpt>
      <trkpt lat="48.44287" lon="2.6799">
        <ele>142.4</ele>
        <time>2017-01-08T08:35:35Z</time>
      </trkpt>
      <trkpt lat="48.44287" lon="2.67988">
        <ele>142.4</ele>
        <time>2017-01-08T08:35:36Z</time>
      </trkpt>
      <trkpt lat="48.44295" lon="2.67969">
        <ele>142.4</ele>
        <time>2017-01-08T08:35:44Z</time>
      </trkpt>
      <trkpt lat="48.44306" lon="2.6795">
        <ele>142.4</ele>
        <time>2017-01-08T08:35:51Z</time>
      </trkpt>
      <trkpt lat="48.44313" lon="2.67934">
        <ele>142.4</ele>
        <time>2017-01-08T08:35:57Z</time>
      </trkpt>
      <trkpt lat="48.44315" lon="2.67928">
        <ele>142.4</ele>
        <time>2017-01-08T08:36:00Z</time>
      </trkpt>
      <trkpt lat="48.44316" lon="2.67923">
        <ele>142.4</ele>
        <time>2017-01-08T08:36:02Z</time>
      </trkpt>
      <trkpt lat="48.44318" lon="2.67912">
        <ele>142.4</ele>
        <time>2017-01-08T08:36:08Z</time>
      </trkpt>
      <trkpt lat="48.44321" lon="2.67902">
        <ele>142.4</ele>
        <time>2017-01-08T08:36:13Z</time>
      </trkpt>
      <trkpt lat="48.44321" lon="2.67899">
        <ele>142.4</ele>
        <time>2017-01-08T08:36:14Z</time>
      </trkpt>
      <trkpt lat="48.44321" lon="2.67883">
        <ele>142.4</ele>
        <time>2017-01-08T08:36:21Z</time>
      </trkpt>
      <trkpt lat="48.44318" lon="2.67861">
        <ele>142.4</ele>
        <time>2017-01-08T08:36:28Z</time>
      </trkpt>
      <trkpt lat="48.44315" lon="2.67841">
        <ele>142.4</ele>
        <time>2017-01-08T08:36:34Z</time>
      </trkpt>
      <trkpt lat="48.44316" lon="2.67827">
        <ele>142.8</ele>
        <time>2017-01-08T08:36:38Z</time>
      </trkpt>
      <trkpt lat="48.44315" lon="2.67825">
        <ele>143.6</ele>
        <time>2017-01-08T08:36:39Z</time>
      </trkpt>
      <trkpt lat="48.44314" lon="2.67823">
        <ele>144</ele>
        <time>2017-01-08T08:36:40Z</time>
      </trkpt>
      <trkpt lat="48.44313" lon="2.67823">
        <ele>144.4</ele>
        <time>2017-01-08T08:36:41Z</time>
      </trkpt>
      <trkpt lat="48.44304" lon="2.67821">
        <ele>144.4</ele>
        <time>2017-01-08T08:36:44Z</time>
      </trkpt>
      <trkpt lat="48.44301" lon="2.6782">
        <ele>144</ele>
        <time>2017-01-08T08:36:45Z</time>
      </trkpt>
      <trkpt lat="48.44299" lon="2.67818">
        <ele>143.4</ele>
        <time>2017-01-08T08:36:46Z</time>
      </trkpt>
      <trkpt lat="48.44296" lon="2.67816">
        <ele>143</ele>
        <time>2017-01-08T08:36:47Z</time>
      </trkpt>
      <trkpt lat="48.44294" lon="2.67815">
        <ele>142.6</ele>
        <time>2017-01-08T08:36:48Z</time>
      </trkpt>
      <trkpt lat="48.44293" lon="2.67814">
        <ele>142.2</ele>
        <time>2017-01-08T08:36:49Z</time>
      </trkpt>
      <trkpt lat="48.44293" lon="2.67812">
        <ele>142.2</ele>
        <time>2017-01-08T08:36:50Z</time>
      </trkpt>
      <trkpt lat="48.44294" lon="2.67808">
        <ele>142.2</ele>
        <time>2017-01-08T08:36:52Z</time>
      </trkpt>
      <trkpt lat="48.44295" lon="2.67802">
        <ele>142.2</ele>
        <time>2017-01-08T08:36:54Z</time>
      </trkpt>
      <trkpt lat="48.44297" lon="2.67789">
        <ele>142.2</ele>
        <time>2017-01-08T08:36:57Z</time>
      </trkpt>
      <trkpt lat="48.44298" lon="2.67785">
        <ele>142.2</ele>
        <time>2017-01-08T08:36:58Z</time>
      </trkpt>
      <trkpt lat="48.44299" lon="2.67773">
        <ele>142.2</ele>
        <time>2017-01-08T08:37:02Z</time>
      </trkpt>
      <trkpt lat="48.44295" lon="2.67754">
        <ele>142.2</ele>
        <time>2017-01-08T08:37:07Z</time>
      </trkpt>
      <trkpt lat="48.44295" lon="2.6774">
        <ele>142.2</ele>
        <time>2017-01-08T08:37:12Z</time>
      </trkpt>
      <trkpt lat="48.44294" lon="2.67728">
        <ele>142.2</ele>
        <time>2017-01-08T08:37:16Z</time>
      </trkpt>
      <trkpt lat="48.44292" lon="2.67715">
        <ele>142.2</ele>
        <time>2017-01-08T08:37:20Z</time>
      </trkpt>
      <trkpt lat="48.44292" lon="2.67714">
        <ele>142.2</ele>
        <time>2017-01-08T08:37:21Z</time>
      </trkpt>
      <trkpt lat="48.44289" lon="2.6771">
        <ele>142.2</ele>
        <time>2017-01-08T08:37:26Z</time>
      </trkpt>
      <trkpt lat="48.44282" lon="2.67705">
        <ele>142.2</ele>
        <time>2017-01-08T08:37:31Z</time>
      </trkpt>
      <trkpt lat="48.44279" lon="2.67703">
        <ele>142.2</ele>
        <time>2017-01-08T08:37:34Z</time>
      </trkpt>
      <trkpt lat="48.44284" lon="2.67685">
        <ele>144.8</ele>
        <time>2017-01-08T08:41:20Z</time>
      </trkpt>
      <trkpt lat="48.44284" lon="2.67683">
        <ele>144.8</ele>
        <time>2017-01-08T08:41:21Z</time>
      </trkpt>
      <trkpt lat="48.44284" lon="2.6768">
        <ele>144.8</ele>
        <time>2017-01-08T08:41:23Z</time>
      </trkpt>
      <trkpt lat="48.44283" lon="2.67676">
        <ele>144.4</ele>
        <time>2017-01-08T08:41:25Z</time>
      </trkpt>
      <trkpt lat="48.44282" lon="2.67675">
        <ele>144</ele>
        <time>2017-01-08T08:41:26Z</time>
      </trkpt>
      <trkpt lat="48.44282" lon="2.67674">
        <ele>143.6</ele>
        <time>2017-01-08T08:41:27Z</time>
      </trkpt>
      <trkpt lat="48.4428" lon="2.67672">
        <ele>142.8</ele>
        <time>2017-01-08T08:41:56Z</time>
      </trkpt>
      <trkpt lat="48.44286" lon="2.67667">
        <ele>142.8</ele>
        <time>2017-01-08T08:41:59Z</time>
      </trkpt>
      <trkpt lat="48.44289" lon="2.67665">
        <ele>142.8</ele>
        <time>2017-01-08T08:42:02Z</time>
      </trkpt>
      <trkpt lat="48.44293" lon="2.67663">
        <ele>140.8</ele>
        <time>2017-01-08T08:44:33Z</time>
      </trkpt>
      <trkpt lat="48.44293" lon="2.67655">
        <ele>140.8</ele>
        <time>2017-01-08T08:44:36Z</time>
      </trkpt>
      <trkpt lat="48.44296" lon="2.67648">
        <ele>140.8</ele>
        <time>2017-01-08T08:44:39Z</time>
      </trkpt>
      <trkpt lat="48.44297" lon="2.67645">
        <ele>140.8</ele>
        <time>2017-01-08T08:44:40Z</time>
      </trkpt>
      <trkpt lat="48.44298" lon="2.67644">
        <ele>140.8</ele>
        <time>2017-01-08T08:44:41Z</time>
      </trkpt>
      <trkpt lat="48.44298" lon="2.67639">
        <ele>140.8</ele>
        <time>2017-01-08T08:44:44Z</time>
      </trkpt>
      <trkpt lat="48.44298" lon="2.67634">
        <ele>140.8</ele>
        <time>2017-01-08T08:44:46Z</time>
      </trkpt>
      <trkpt lat="48.44298" lon="2.67624">
        <ele>140.8</ele>
        <time>2017-01-08T08:44:49Z</time>
      </trkpt>
      <trkpt lat="48.44298" lon="2.67611">
        <ele>140.8</ele>
        <time>2017-01-08T08:44:53Z</time>
      </trkpt>
      <trkpt lat="48.44298" lon="2.67599">
        <ele>140.8</ele>
        <time>2017-01-08T08:44:57Z</time>
      </trkpt>
      <trkpt lat="48.44297" lon="2.67594">
        <ele>140.8</ele>
        <time>2017-01-08T08:44:59Z</time>
      </trkpt>
      <trkpt lat="48.44298" lon="2.67587">
        <ele>140.8</ele>
        <time>2017-01-08T08:45:02Z</time>
      </trkpt>
      <trkpt lat="48.443" lon="2.6757">
        <ele>140.8</ele>
        <time>2017-01-08T08:45:07Z</time>
      </trkpt>
      <trkpt lat="48.443" lon="2.67558">
        <ele>140.8</ele>
        <time>2017-01-08T08:45:10Z</time>
      </trkpt>
      <trkpt lat="48.443" lon="2.67556">
        <ele>140.8</ele>
        <time>2017-01-08T08:45:12Z</time>
      </trkpt>
      <trkpt lat="48.44299" lon="2.6756">
        <ele>140.8</ele>
        <time>2017-01-08T08:45:27Z</time>
      </trkpt>
      <trkpt lat="48.44298" lon="2.67559">
        <ele>140.8</ele>
        <time>2017-01-08T08:45:29Z</time>
      </trkpt>
      <trkpt lat="48.44292" lon="2.67549">
        <ele>140.8</ele>
        <time>2017-01-08T08:45:34Z</time>
      </trkpt>
      <trkpt lat="48.44291" lon="2.67547">
        <ele>140.8</ele>
        <time>2017-01-08T08:45:35Z</time>
      </trkpt>
      <trkpt lat="48.44289" lon="2.67533">
        <ele>140.8</ele>
        <time>2017-01-08T08:45:39Z</time>
      </trkpt>
      <trkpt lat="48.4429" lon="2.67532">
        <ele>140.8</ele>
        <time>2017-01-08T08:45:40Z</time>
      </trkpt>
      <trkpt lat="48.44288" lon="2.67524">
        <ele>140.8</ele>
        <time>2017-01-08T08:45:43Z</time>
      </trkpt>
      <trkpt lat="48.44289" lon="2.67519">
        <ele>140.8</ele>
        <time>2017-01-08T08:45:45Z</time>
      </trkpt>
      <trkpt lat="48.4429" lon="2.67513">
        <ele>140.8</ele>
        <time>2017-01-08T08:45:47Z</time>
      </trkpt>
      <trkpt lat="48.4429" lon="2.67509">
        <ele>140.8</ele>
        <time>2017-01-08T08:45:49Z</time>
      </trkpt>
      <trkpt lat="48.44288" lon="2.67503">
        <ele>140.8</ele>
        <time>2017-01-08T08:45:51Z</time>
      </trkpt>
      <trkpt lat="48.44285" lon="2.67497">
        <ele>140.8</ele>
        <time>2017-01-08T08:45:53Z</time>
      </trkpt>
      <trkpt lat="48.44283" lon="2.67487">
        <ele>140.8</ele>
        <time>2017-01-08T08:45:56Z</time>
      </trkpt>
      <trkpt lat="48.44282" lon="2.67478">
        <ele>140.8</ele>
        <time>2017-01-08T08:46:00Z</time>
      </trkpt>
      <trkpt lat="48.44281" lon="2.67472">
        <ele>140.8</ele>
        <time>2017-01-08T08:46:02Z</time>
      </trkpt>
      <trkpt lat="48.44282" lon="2.67453">
        <ele>140.8</ele>
        <time>2017-01-08T08:46:07Z</time>
      </trkpt>
      <trkpt lat="48.44281" lon="2.67448">
        <ele>140.8</ele>
        <time>2017-01-08T08:46:09Z</time>
      </trkpt>
      <trkpt lat="48.44282" lon="2.67437">
        <ele>140.8</ele>
        <time>2017-01-08T08:46:12Z</time>
      </trkpt>
      <trkpt lat="48.44283" lon="2.67429">
        <ele>140.4</ele>
        <time>2017-01-08T08:46:14Z</time>
      </trkpt>
      <trkpt lat="48.44284" lon="2.67425">
        <ele>140</ele>
        <time>2017-01-08T08:46:15Z</time>
      </trkpt>
      <trkpt lat="48.44284" lon="2.67421">
        <ele>139.4</ele>
        <time>2017-01-08T08:46:16Z</time>
      </trkpt>
      <trkpt lat="48.44285" lon="2.67417">
        <ele>139</ele>
        <time>2017-01-08T08:46:17Z</time>
      </trkpt>
      <trkpt lat="48.44284" lon="2.67413">
        <ele>138.6</ele>
        <time>2017-01-08T08:46:18Z</time>
      </trkpt>
      <trkpt lat="48.44285" lon="2.67411">
        <ele>138.6</ele>
        <time>2017-01-08T08:46:19Z</time>
      </trkpt>
      <trkpt lat="48.4429" lon="2.67403">
        <ele>138.6</ele>
        <time>2017-01-08T08:46:22Z</time>
      </trkpt>
      <trkpt lat="48.44294" lon="2.67392">
        <ele>138.6</ele>
        <time>2017-01-08T08:46:27Z</time>
      </trkpt>
      <trkpt lat="48.44297" lon="2.67382">
        <ele>138.6</ele>
        <time>2017-01-08T08:46:32Z</time>
      </trkpt>
      <trkpt lat="48.44297" lon="2.67376">
        <ele>138.6</ele>
        <time>2017-01-08T08:46:34Z</time>
      </trkpt>
      <trkpt lat="48.44299" lon="2.67365">
        <ele>138.6</ele>
        <time>2017-01-08T08:46:38Z</time>
      </trkpt>
      <trkpt lat="48.44299" lon="2.67358">
        <ele>138.6</ele>
        <time>2017-01-08T08:46:40Z</time>
      </trkpt>
      <trkpt lat="48.443" lon="2.67354">
        <ele>138.6</ele>
        <time>2017-01-08T08:46:41Z</time>
      </trkpt>
      <trkpt lat="48.44304" lon="2.6734">
        <ele>138.6</ele>
        <time>2017-01-08T08:46:45Z</time>
      </trkpt>
      <trkpt lat="48.44306" lon="2.67332">
        <ele>139</ele>
        <time>2017-01-08T08:46:47Z</time>
      </trkpt>
      <trkpt lat="48.44307" lon="2.67329">
        <ele>139.4</ele>
        <time>2017-01-08T08:46:48Z</time>
      </trkpt>
      <trkpt lat="48.44309" lon="2.67326">
        <ele>139.8</ele>
        <time>2017-01-08T08:46:49Z</time>
      </trkpt>
      <trkpt lat="48.44309" lon="2.67323">
        <ele>140.2</ele>
        <time>2017-01-08T08:46:50Z</time>
      </trkpt>
      <trkpt lat="48.44311" lon="2.6732">
        <ele>140.6</ele>
        <time>2017-01-08T08:46:51Z</time>
      </trkpt>
      <trkpt lat="48.44314" lon="2.67307">
        <ele>140.6</ele>
        <time>2017-01-08T08:46:57Z</time>
      </trkpt>
      <trkpt lat="48.44314" lon="2.67305">
        <ele>140.6</ele>
        <time>2017-01-08T08:46:58Z</time>
      </trkpt>
      <trkpt lat="48.44311" lon="2.67297">
        <ele>140.6</ele>
        <time>2017-01-08T08:47:02Z</time>
      </trkpt>
      <trkpt lat="48.44311" lon="2.67296">
        <ele>140.6</ele>
        <time>2017-01-08T08:47:03Z</time>
      </trkpt>
      <trkpt lat="48.44305" lon="2.67289">
        <ele>140.6</ele>
        <time>2017-01-08T08:47:09Z</time>
      </trkpt>
      <trkpt lat="48.44303" lon="2.67287">
        <ele>140.6</ele>
        <time>2017-01-08T08:47:12Z</time>
      </trkpt>
      <trkpt lat="48.44301" lon="2.67286">
        <ele>140.6</ele>
        <time>2017-01-08T08:47:48Z</time>
      </trkpt>
      <trkpt lat="48.44299" lon="2.67283">
        <ele>140.6</ele>
        <time>2017-01-08T08:47:50Z</time>
      </trkpt>
      <trkpt lat="48.44286" lon="2.67258">
        <ele>140.6</ele>
        <time>2017-01-08T08:47:57Z</time>
      </trkpt>
      <trkpt lat="48.44276" lon="2.67238">
        <ele>140.6</ele>
        <time>2017-01-08T08:48:03Z</time>
      </trkpt>
      <trkpt lat="48.44269" lon="2.67217">
        <ele>140.6</ele>
        <time>2017-01-08T08:48:07Z</time>
      </trkpt>
      <trkpt lat="48.44262" lon="2.67207">
        <ele>140.6</ele>
        <time>2017-01-08T08:48:11Z</time>
      </trkpt>
      <trkpt lat="48.44262" lon="2.67204">
        <ele>140.6</ele>
        <time>2017-01-08T08:48:12Z</time>
      </trkpt>
      <trkpt lat="48.44262" lon="2.67193">
        <ele>140.6</ele>
        <time>2017-01-08T08:48:15Z</time>
      </trkpt>
      <trkpt lat="48.44265" lon="2.67168">
        <ele>140.6</ele>
        <time>2017-01-08T08:48:20Z</time>
      </trkpt>
      <trkpt lat="48.4427" lon="2.67147">
        <ele>140.6</ele>
        <time>2017-01-08T08:48:26Z</time>
      </trkpt>
      <trkpt lat="48.44278" lon="2.67125">
        <ele>140.6</ele>
        <time>2017-01-08T08:48:32Z</time>
      </trkpt>
      <trkpt lat="48.44279" lon="2.67123">
        <ele>140.6</ele>
        <time>2017-01-08T08:48:33Z</time>
      </trkpt>
      <trkpt lat="48.44285" lon="2.67121">
        <ele>140.6</ele>
        <time>2017-01-08T08:48:36Z</time>
      </trkpt>
      <trkpt lat="48.4429" lon="2.67112">
        <ele>140.6</ele>
        <time>2017-01-08T08:48:41Z</time>
      </trkpt>
      <trkpt lat="48.44291" lon="2.67104">
        <ele>140.6</ele>
        <time>2017-01-08T08:48:43Z</time>
      </trkpt>
      <trkpt lat="48.44293" lon="2.67101">
        <ele>141</ele>
        <time>2017-01-08T08:48:44Z</time>
      </trkpt>
      <trkpt lat="48.44295" lon="2.67098">
        <ele>141.4</ele>
        <time>2017-01-08T08:48:45Z</time>
      </trkpt>
      <trkpt lat="48.44296" lon="2.67095">
        <ele>141.8</ele>
        <time>2017-01-08T08:48:46Z</time>
      </trkpt>
      <trkpt lat="48.44297" lon="2.67091">
        <ele>142.2</ele>
        <time>2017-01-08T08:48:47Z</time>
      </trkpt>
      <trkpt lat="48.44299" lon="2.67087">
        <ele>142.6</ele>
        <time>2017-01-08T08:48:48Z</time>
      </trkpt>
      <trkpt lat="48.44305" lon="2.67077">
        <ele>142.6</ele>
        <time>2017-01-08T08:48:51Z</time>
      </trkpt>
      <trkpt lat="48.44307" lon="2.67073">
        <ele>142.2</ele>
        <time>2017-01-08T08:48:52Z</time>
      </trkpt>
      <trkpt lat="48.44309" lon="2.67069">
        <ele>141.8</ele>
        <time>2017-01-08T08:48:53Z</time>
      </trkpt>
      <trkpt lat="48.44311" lon="2.67067">
        <ele>141.2</ele>
        <time>2017-01-08T08:48:54Z</time>
      </trkpt>
      <trkpt lat="48.44313" lon="2.67065">
        <ele>140.8</ele>
        <time>2017-01-08T08:48:55Z</time>
      </trkpt>
      <trkpt lat="48.44315" lon="2.67062">
        <ele>140.4</ele>
        <time>2017-01-08T08:48:56Z</time>
      </trkpt>
      <trkpt lat="48.44322" lon="2.67058">
        <ele>140.4</ele>
        <time>2017-01-08T08:48:58Z</time>
      </trkpt>
      <trkpt lat="48.44327" lon="2.67056">
        <ele>140.4</ele>
        <time>2017-01-08T08:49:00Z</time>
      </trkpt>
      <trkpt lat="48.44335" lon="2.67055">
        <ele>140.4</ele>
        <time>2017-01-08T08:49:03Z</time>
      </trkpt>
      <trkpt lat="48.4434" lon="2.67055">
        <ele>140.4</ele>
        <time>2017-01-08T08:49:05Z</time>
      </trkpt>
      <trkpt lat="48.44343" lon="2.67055">
        <ele>140.4</ele>
        <time>2017-01-08T08:49:07Z</time>
      </trkpt>
      <trkpt lat="48.4435" lon="2.67053">
        <ele>140.4</ele>
        <time>2017-01-08T08:49:10Z</time>
      </trkpt>
      <trkpt lat="48.44354" lon="2.6705">
        <ele>140.4</ele>
        <time>2017-01-08T08:49:12Z</time>
      </trkpt>
      <trkpt lat="48.44357" lon="2.67045">
        <ele>140.4</ele>
        <time>2017-01-08T08:49:15Z</time>
      </trkpt>
      <trkpt lat="48.44358" lon="2.6704">
        <ele>140.4</ele>
        <time>2017-01-08T08:49:17Z</time>
      </trkpt>
      <trkpt lat="48.44357" lon="2.67027">
        <ele>140.4</ele>
        <time>2017-01-08T08:49:21Z</time>
      </trkpt>
      <trkpt lat="48.44353" lon="2.67012">
        <ele>140.4</ele>
        <time>2017-01-08T08:49:26Z</time>
      </trkpt>
      <trkpt lat="48.44338" lon="2.67002">
        <ele>140.4</ele>
        <time>2017-01-08T08:49:33Z</time>
      </trkpt>
      <trkpt lat="48.44336" lon="2.67003">
        <ele>140.4</ele>
        <time>2017-01-08T08:49:34Z</time>
      </trkpt>
      <trkpt lat="48.44329" lon="2.67008">
        <ele>140.4</ele>
        <time>2017-01-08T08:49:37Z</time>
      </trkpt>
      <trkpt lat="48.4432" lon="2.67021">
        <ele>140.4</ele>
        <time>2017-01-08T08:49:42Z</time>
      </trkpt>
      <trkpt lat="48.44317" lon="2.67023">
        <ele>140.4</ele>
        <time>2017-01-08T08:49:43Z</time>
      </trkpt>
      <trkpt lat="48.4431" lon="2.67029">
        <ele>140.4</ele>
        <time>2017-01-08T08:49:46Z</time>
      </trkpt>
      <trkpt lat="48.44309" lon="2.67031">
        <ele>140.4</ele>
        <time>2017-01-08T08:49:47Z</time>
      </trkpt>
      <trkpt lat="48.44304" lon="2.6704">
        <ele>140.4</ele>
        <time>2017-01-08T08:49:50Z</time>
      </trkpt>
      <trkpt lat="48.44301" lon="2.67046">
        <ele>140.8</ele>
        <time>2017-01-08T08:49:52Z</time>
      </trkpt>
      <trkpt lat="48.443" lon="2.67048">
        <ele>141.2</ele>
        <time>2017-01-08T08:49:53Z</time>
      </trkpt>
      <trkpt lat="48.44299" lon="2.67049">
        <ele>141.6</ele>
        <time>2017-01-08T08:49:54Z</time>
      </trkpt>
      <trkpt lat="48.44298" lon="2.67049">
        <ele>142</ele>
        <time>2017-01-08T08:49:55Z</time>
      </trkpt>
      <trkpt lat="48.44297" lon="2.67049">
        <ele>142.6</ele>
        <time>2017-01-08T08:49:56Z</time>
      </trkpt>
      <trkpt lat="48.44293" lon="2.67048">
        <ele>143</ele>
        <time>2017-01-08T08:49:58Z</time>
      </trkpt>
      <trkpt lat="48.44291" lon="2.67048">
        <ele>143.4</ele>
        <time>2017-01-08T08:49:59Z</time>
      </trkpt>
      <trkpt lat="48.44288" lon="2.67048">
        <ele>143.8</ele>
        <time>2017-01-08T08:50:00Z</time>
      </trkpt>
      <trkpt lat="48.44285" lon="2.67047">
        <ele>144.4</ele>
        <time>2017-01-08T08:50:01Z</time>
      </trkpt>
      <trkpt lat="48.44282" lon="2.67047">
        <ele>144.8</ele>
        <time>2017-01-08T08:50:02Z</time>
      </trkpt>
      <trkpt lat="48.44276" lon="2.67046">
        <ele>144.4</ele>
        <time>2017-01-08T08:50:04Z</time>
      </trkpt>
      <trkpt lat="48.44273" lon="2.67044">
        <ele>144</ele>
        <time>2017-01-08T08:50:05Z</time>
      </trkpt>
      <trkpt lat="48.4427" lon="2.67042">
        <ele>143.6</ele>
        <time>2017-01-08T08:50:06Z</time>
      </trkpt>
      <trkpt lat="48.44268" lon="2.67038">
        <ele>143</ele>
        <time>2017-01-08T08:50:07Z</time>
      </trkpt>
      <trkpt lat="48.44267" lon="2.67036">
        <ele>142.6</ele>
        <time>2017-01-08T08:50:08Z</time>
      </trkpt>
      <trkpt lat="48.44264" lon="2.67027">
        <ele>142.6</ele>
        <time>2017-01-08T08:50:11Z</time>
      </trkpt>
      <trkpt lat="48.44263" lon="2.67024">
        <ele>142.6</ele>
        <time>2017-01-08T08:50:12Z</time>
      </trkpt>
      <trkpt lat="48.4426" lon="2.6702">
        <ele>142.6</ele>
        <time>2017-01-08T08:50:14Z</time>
      </trkpt>
      <trkpt lat="48.44255" lon="2.6702">
        <ele>142.6</ele>
        <time>2017-01-08T08:50:16Z</time>
      </trkpt>
      <trkpt lat="48.44249" lon="2.67015">
        <ele>142.6</ele>
        <time>2017-01-08T08:50:19Z</time>
      </trkpt>
      <trkpt lat="48.44245" lon="2.66999">
        <ele>142.6</ele>
        <time>2017-01-08T08:50:23Z</time>
      </trkpt>
      <trkpt lat="48.44235" lon="2.66995">
        <ele>142.2</ele>
        <time>2017-01-08T08:50:26Z</time>
      </trkpt>
      <trkpt lat="48.44232" lon="2.66994">
        <ele>141.8</ele>
        <time>2017-01-08T08:50:27Z</time>
      </trkpt>
      <trkpt lat="48.44229" lon="2.66994">
        <ele>141.4</ele>
        <time>2017-01-08T08:50:28Z</time>
      </trkpt>
      <trkpt lat="48.44227" lon="2.66995">
        <ele>141</ele>
        <time>2017-01-08T08:50:29Z</time>
      </trkpt>
      <trkpt lat="48.44225" lon="2.66996">
        <ele>140.6</ele>
        <time>2017-01-08T08:50:30Z</time>
      </trkpt>
      <trkpt lat="48.44223" lon="2.66998">
        <ele>140.6</ele>
        <time>2017-01-08T08:50:31Z</time>
      </trkpt>
      <trkpt lat="48.44222" lon="2.67009">
        <ele>140.6</ele>
        <time>2017-01-08T08:50:34Z</time>
      </trkpt>
      <trkpt lat="48.44221" lon="2.67028">
        <ele>140.6</ele>
        <time>2017-01-08T08:50:39Z</time>
      </trkpt>
      <trkpt lat="48.44222" lon="2.67039">
        <ele>140.6</ele>
        <time>2017-01-08T08:50:43Z</time>
      </trkpt>
      <trkpt lat="48.44223" lon="2.67041">
        <ele>140.6</ele>
        <time>2017-01-08T08:50:44Z</time>
      </trkpt>
      <trkpt lat="48.44228" lon="2.67049">
        <ele>141</ele>
        <time>2017-01-08T08:50:48Z</time>
      </trkpt>
      <trkpt lat="48.44228" lon="2.67051">
        <ele>141.4</ele>
        <time>2017-01-08T08:50:49Z</time>
      </trkpt>
      <trkpt lat="48.44228" lon="2.67053">
        <ele>141.8</ele>
        <time>2017-01-08T08:50:50Z</time>
      </trkpt>
      <trkpt lat="48.44227" lon="2.67053">
        <ele>142.2</ele>
        <time>2017-01-08T08:50:51Z</time>
      </trkpt>
      <trkpt lat="48.44226" lon="2.67054">
        <ele>142.6</ele>
        <time>2017-01-08T08:50:52Z</time>
      </trkpt>
      <trkpt lat="48.44222" lon="2.67056">
        <ele>142.6</ele>
        <time>2017-01-08T08:50:56Z</time>
      </trkpt>
      <trkpt lat="48.4422" lon="2.67055">
        <ele>142.6</ele>
        <time>2017-01-08T08:50:57Z</time>
      </trkpt>
      <trkpt lat="48.44218" lon="2.67049">
        <ele>142.6</ele>
        <time>2017-01-08T08:51:00Z</time>
      </trkpt>
      <trkpt lat="48.44215" lon="2.67042">
        <ele>142.6</ele>
        <time>2017-01-08T08:51:02Z</time>
      </trkpt>
      <trkpt lat="48.44211" lon="2.67032">
        <ele>142.6</ele>
        <time>2017-01-08T08:51:06Z</time>
      </trkpt>
      <trkpt lat="48.44209" lon="2.67019">
        <ele>142.6</ele>
        <time>2017-01-08T08:51:11Z</time>
      </trkpt>
      <trkpt lat="48.4421" lon="2.67012">
        <ele>142.6</ele>
        <time>2017-01-08T08:51:14Z</time>
      </trkpt>
      <trkpt lat="48.44208" lon="2.67008">
        <ele>142.6</ele>
        <time>2017-01-08T08:51:16Z</time>
      </trkpt>
      <trkpt lat="48.44203" lon="2.67002">
        <ele>143.2</ele>
        <time>2017-01-08T08:51:19Z</time>
      </trkpt>
      <trkpt lat="48.44202" lon="2.67">
        <ele>143.6</ele>
        <time>2017-01-08T08:51:20Z</time>
      </trkpt>
      <trkpt lat="48.44201" lon="2.66997">
        <ele>144.2</ele>
        <time>2017-01-08T08:51:21Z</time>
      </trkpt>
      <trkpt lat="48.442" lon="2.66993">
        <ele>144.6</ele>
        <time>2017-01-08T08:51:22Z</time>
      </trkpt>
      <trkpt lat="48.44199" lon="2.66988">
        <ele>145</ele>
        <time>2017-01-08T08:51:23Z</time>
      </trkpt>
      <trkpt lat="48.44199" lon="2.66985">
        <ele>145</ele>
        <time>2017-01-08T08:51:24Z</time>
      </trkpt>
      <trkpt lat="48.44197" lon="2.66977">
        <ele>145</ele>
        <time>2017-01-08T08:51:27Z</time>
      </trkpt>
      <trkpt lat="48.44195" lon="2.66971">
        <ele>145</ele>
        <time>2017-01-08T08:51:29Z</time>
      </trkpt>
      <trkpt lat="48.44191" lon="2.66966">
        <ele>145</ele>
        <time>2017-01-08T08:51:32Z</time>
      </trkpt>
      <trkpt lat="48.44191" lon="2.66963">
        <ele>145</ele>
        <time>2017-01-08T08:51:33Z</time>
      </trkpt>
      <trkpt lat="48.44191" lon="2.66953">
        <ele>145</ele>
        <time>2017-01-08T08:51:36Z</time>
      </trkpt>
      <trkpt lat="48.44188" lon="2.66943">
        <ele>145</ele>
        <time>2017-01-08T08:51:38Z</time>
      </trkpt>
      <trkpt lat="48.44187" lon="2.66936">
        <ele>145</ele>
        <time>2017-01-08T08:51:40Z</time>
      </trkpt>
      <trkpt lat="48.44185" lon="2.66934">
        <ele>145</ele>
        <time>2017-01-08T08:51:41Z</time>
      </trkpt>
      <trkpt lat="48.44178" lon="2.66927">
        <ele>145</ele>
        <time>2017-01-08T08:51:44Z</time>
      </trkpt>
      <trkpt lat="48.44173" lon="2.66912">
        <ele>145</ele>
        <time>2017-01-08T08:51:49Z</time>
      </trkpt>
      <trkpt lat="48.4417" lon="2.66906">
        <ele>145</ele>
        <time>2017-01-08T08:51:51Z</time>
      </trkpt>
      <trkpt lat="48.44165" lon="2.66899">
        <ele>145</ele>
        <time>2017-01-08T08:51:54Z</time>
      </trkpt>
      <trkpt lat="48.44156" lon="2.66893">
        <ele>145</ele>
        <time>2017-01-08T08:52:00Z</time>
      </trkpt>
      <trkpt lat="48.44154" lon="2.66891">
        <ele>145</ele>
        <time>2017-01-08T08:52:01Z</time>
      </trkpt>
      <trkpt lat="48.44138" lon="2.66877">
        <ele>145</ele>
        <time>2017-01-08T08:52:09Z</time>
      </trkpt>
      <trkpt lat="48.44134" lon="2.66875">
        <ele>145</ele>
        <time>2017-01-08T08:52:12Z</time>
      </trkpt>
      <trkpt lat="48.44131" lon="2.66874">
        <ele>144.6</ele>
        <time>2017-01-08T08:52:13Z</time>
      </trkpt>
      <trkpt lat="48.44129" lon="2.66871">
        <ele>144.2</ele>
        <time>2017-01-08T08:52:14Z</time>
      </trkpt>
      <trkpt lat="48.44126" lon="2.66869">
        <ele>143.8</ele>
        <time>2017-01-08T08:52:15Z</time>
      </trkpt>
      <trkpt lat="48.44123" lon="2.66867">
        <ele>143.4</ele>
        <time>2017-01-08T08:52:16Z</time>
      </trkpt>
      <trkpt lat="48.4412" lon="2.66865">
        <ele>143</ele>
        <time>2017-01-08T08:52:17Z</time>
      </trkpt>
      <trkpt lat="48.44117" lon="2.66864">
        <ele>143</ele>
        <time>2017-01-08T08:52:18Z</time>
      </trkpt>
      <trkpt lat="48.441" lon="2.66855">
        <ele>143</ele>
        <time>2017-01-08T08:52:24Z</time>
      </trkpt>
      <trkpt lat="48.44074" lon="2.66841">
        <ele>143</ele>
        <time>2017-01-08T08:52:32Z</time>
      </trkpt>
      <trkpt lat="48.44053" lon="2.66829">
        <ele>143</ele>
        <time>2017-01-08T08:52:38Z</time>
      </trkpt>
      <trkpt lat="48.44036" lon="2.66819">
        <ele>143</ele>
        <time>2017-01-08T08:52:43Z</time>
      </trkpt>
      <trkpt lat="48.44017" lon="2.66811">
        <ele>143</ele>
        <time>2017-01-08T08:52:48Z</time>
      </trkpt>
      <trkpt lat="48.43989" lon="2.66797">
        <ele>142.6</ele>
        <time>2017-01-08T08:52:55Z</time>
      </trkpt>
      <trkpt lat="48.43985" lon="2.66794">
        <ele>142.2</ele>
        <time>2017-01-08T08:52:56Z</time>
      </trkpt>
      <trkpt lat="48.43981" lon="2.66792">
        <ele>141.8</ele>
        <time>2017-01-08T08:52:57Z</time>
      </trkpt>
      <trkpt lat="48.43977" lon="2.66791">
        <ele>141.4</ele>
        <time>2017-01-08T08:52:58Z</time>
      </trkpt>
      <trkpt lat="48.43973" lon="2.66788">
        <ele>141</ele>
        <time>2017-01-08T08:52:59Z</time>
      </trkpt>
      <trkpt lat="48.43966" lon="2.66786">
        <ele>141</ele>
        <time>2017-01-08T08:53:01Z</time>
      </trkpt>
      <trkpt lat="48.43951" lon="2.66791">
        <ele>141</ele>
        <time>2017-01-08T08:53:05Z</time>
      </trkpt>
      <trkpt lat="48.43927" lon="2.66797">
        <ele>141</ele>
        <time>2017-01-08T08:53:11Z</time>
      </trkpt>
      <trkpt lat="48.43905" lon="2.66793">
        <ele>141</ele>
        <time>2017-01-08T08:53:17Z</time>
      </trkpt>
      <trkpt lat="48.43894" lon="2.66789">
        <ele>140.6</ele>
        <time>2017-01-08T08:53:20Z</time>
      </trkpt>
      <trkpt lat="48.4389" lon="2.66788">
        <ele>140.2</ele>
        <time>2017-01-08T08:53:21Z</time>
      </trkpt>
      <trkpt lat="48.43887" lon="2.66788">
        <ele>139.8</ele>
        <time>2017-01-08T08:53:22Z</time>
      </trkpt>
      <trkpt lat="48.43883" lon="2.66787">
        <ele>139.4</ele>
        <time>2017-01-08T08:53:23Z</time>
      </trkpt>
      <trkpt lat="48.4388" lon="2.66786">
        <ele>139</ele>
        <time>2017-01-08T08:53:24Z</time>
      </trkpt>
      <trkpt lat="48.43876" lon="2.66786">
        <ele>139</ele>
        <time>2017-01-08T08:53:25Z</time>
      </trkpt>
      <trkpt lat="48.43873" lon="2.66785">
        <ele>139</ele>
        <time>2017-01-08T08:53:26Z</time>
      </trkpt>
      <trkpt lat="48.43846" lon="2.66774">
        <ele>139</ele>
        <time>2017-01-08T08:53:34Z</time>
      </trkpt>
      <trkpt lat="48.43832" lon="2.66764">
        <ele>139</ele>
        <time>2017-01-08T08:53:39Z</time>
      </trkpt>
      <trkpt lat="48.43815" lon="2.66752">
        <ele>139</ele>
        <time>2017-01-08T08:53:45Z</time>
      </trkpt>
      <trkpt lat="48.43799" lon="2.66745">
        <ele>139</ele>
        <time>2017-01-08T08:53:50Z</time>
      </trkpt>
      <trkpt lat="48.4378" lon="2.66737">
        <ele>139</ele>
        <time>2017-01-08T08:53:56Z</time>
      </trkpt>
      <trkpt lat="48.43757" lon="2.66729">
        <ele>139</ele>
        <time>2017-01-08T08:54:03Z</time>
      </trkpt>
      <trkpt lat="48.4374" lon="2.6672">
        <ele>139</ele>
        <time>2017-01-08T08:54:08Z</time>
      </trkpt>
      <trkpt lat="48.43724" lon="2.66714">
        <ele>139</ele>
        <time>2017-01-08T08:54:13Z</time>
      </trkpt>
      <trkpt lat="48.43706" lon="2.66713">
        <ele>139</ele>
        <time>2017-01-08T08:54:18Z</time>
      </trkpt>
      <trkpt lat="48.43682" lon="2.66715">
        <ele>139</ele>
        <time>2017-01-08T08:54:24Z</time>
      </trkpt>
      <trkpt lat="48.43658" lon="2.66716">
        <ele>139</ele>
        <time>2017-01-08T08:54:30Z</time>
      </trkpt>
      <trkpt lat="48.43646" lon="2.66721">
        <ele>139</ele>
        <time>2017-01-08T08:54:33Z</time>
      </trkpt>
      <trkpt lat="48.43638" lon="2.66721">
        <ele>139</ele>
        <time>2017-01-08T08:54:35Z</time>
      </trkpt>
      <trkpt lat="48.43624" lon="2.6672">
        <ele>139</ele>
        <time>2017-01-08T08:54:39Z</time>
      </trkpt>
      <trkpt lat="48.43611" lon="2.66713">
        <ele>139</ele>
        <time>2017-01-08T08:54:43Z</time>
      </trkpt>
      <trkpt lat="48.4361" lon="2.66709">
        <ele>139</ele>
        <time>2017-01-08T08:54:44Z</time>
      </trkpt>
      <trkpt lat="48.43602" lon="2.66703">
        <ele>139</ele>
        <time>2017-01-08T08:54:48Z</time>
      </trkpt>
      <trkpt lat="48.43592" lon="2.667">
        <ele>139</ele>
        <time>2017-01-08T08:54:52Z</time>
      </trkpt>
      <trkpt lat="48.4359" lon="2.66695">
        <ele>139</ele>
        <time>2017-01-08T08:54:53Z</time>
      </trkpt>
      <trkpt lat="48.43579" lon="2.66684">
        <ele>139</ele>
        <time>2017-01-08T08:54:57Z</time>
      </trkpt>
      <trkpt lat="48.43567" lon="2.66676">
        <ele>139</ele>
        <time>2017-01-08T08:55:01Z</time>
      </trkpt>
      <trkpt lat="48.4355" lon="2.66659">
        <ele>139</ele>
        <time>2017-01-08T08:55:07Z</time>
      </trkpt>
      <trkpt lat="48.4354" lon="2.66643">
        <ele>139</ele>
        <time>2017-01-08T08:55:12Z</time>
      </trkpt>
      <trkpt lat="48.43526" lon="2.66642">
        <ele>139</ele>
        <time>2017-01-08T08:55:16Z</time>
      </trkpt>
      <trkpt lat="48.43522" lon="2.66642">
        <ele>139</ele>
        <time>2017-01-08T08:55:17Z</time>
      </trkpt>
      <trkpt lat="48.43502" lon="2.6664">
        <ele>139</ele>
        <time>2017-01-08T08:55:23Z</time>
      </trkpt>
      <trkpt lat="48.43499" lon="2.66639">
        <ele>139.4</ele>
        <time>2017-01-08T08:55:24Z</time>
      </trkpt>
      <trkpt lat="48.43496" lon="2.66638">
        <ele>139.8</ele>
        <time>2017-01-08T08:55:25Z</time>
      </trkpt>
      <trkpt lat="48.43493" lon="2.66637">
        <ele>140.2</ele>
        <time>2017-01-08T08:55:26Z</time>
      </trkpt>
      <trkpt lat="48.4349" lon="2.66637">
        <ele>140.6</ele>
        <time>2017-01-08T08:55:27Z</time>
      </trkpt>
      <trkpt lat="48.43487" lon="2.66636">
        <ele>141</ele>
        <time>2017-01-08T08:55:28Z</time>
      </trkpt>
      <trkpt lat="48.43481" lon="2.66635">
        <ele>141</ele>
        <time>2017-01-08T08:55:30Z</time>
      </trkpt>
      <trkpt lat="48.43459" lon="2.6663">
        <ele>141</ele>
        <time>2017-01-08T08:55:37Z</time>
      </trkpt>
      <trkpt lat="48.43442" lon="2.6663">
        <ele>141</ele>
        <time>2017-01-08T08:55:42Z</time>
      </trkpt>
      <trkpt lat="48.43427" lon="2.66624">
        <ele>141.4</ele>
        <time>2017-01-08T08:55:47Z</time>
      </trkpt>
      <trkpt lat="48.43423" lon="2.66624">
        <ele>141.8</ele>
        <time>2017-01-08T08:55:48Z</time>
      </trkpt>
      <trkpt lat="48.4342" lon="2.66623">
        <ele>142.2</ele>
        <time>2017-01-08T08:55:49Z</time>
      </trkpt>
      <trkpt lat="48.43417" lon="2.66622">
        <ele>142.6</ele>
        <time>2017-01-08T08:55:50Z</time>
      </trkpt>
      <trkpt lat="48.43415" lon="2.6662">
        <ele>143</ele>
        <time>2017-01-08T08:55:51Z</time>
      </trkpt>
      <trkpt lat="48.43409" lon="2.66617">
        <ele>143</ele>
        <time>2017-01-08T08:55:53Z</time>
      </trkpt>
      <trkpt lat="48.43392" lon="2.66614">
        <ele>143</ele>
        <time>2017-01-08T08:55:58Z</time>
      </trkpt>
      <trkpt lat="48.43376" lon="2.66609">
        <ele>143</ele>
        <time>2017-01-08T08:56:03Z</time>
      </trkpt>
      <trkpt lat="48.43354" lon="2.66603">
        <ele>143</ele>
        <time>2017-01-08T08:56:09Z</time>
      </trkpt>
      <trkpt lat="48.43337" lon="2.66604">
        <ele>143</ele>
        <time>2017-01-08T08:56:14Z</time>
      </trkpt>
      <trkpt lat="48.4332" lon="2.66602">
        <ele>143</ele>
        <time>2017-01-08T08:56:19Z</time>
      </trkpt>
      <trkpt lat="48.43305" lon="2.66595">
        <ele>143</ele>
        <time>2017-01-08T08:56:24Z</time>
      </trkpt>
      <trkpt lat="48.43284" lon="2.66585">
        <ele>143</ele>
        <time>2017-01-08T08:56:31Z</time>
      </trkpt>
      <trkpt lat="48.43267" lon="2.66586">
        <ele>143</ele>
        <time>2017-01-08T08:56:36Z</time>
      </trkpt>
      <trkpt lat="48.43246" lon="2.66581">
        <ele>143</ele>
        <time>2017-01-08T08:56:42Z</time>
      </trkpt>
      <trkpt lat="48.43236" lon="2.66579">
        <ele>143</ele>
        <time>2017-01-08T08:56:45Z</time>
      </trkpt>
      <trkpt lat="48.43229" lon="2.66579">
        <ele>143</ele>
        <time>2017-01-08T08:56:47Z</time>
      </trkpt>
      <trkpt lat="48.43216" lon="2.66574">
        <ele>143</ele>
        <time>2017-01-08T08:56:51Z</time>
      </trkpt>
      <trkpt lat="48.43202" lon="2.66571">
        <ele>143</ele>
        <time>2017-01-08T08:56:55Z</time>
      </trkpt>
      <trkpt lat="48.43182" lon="2.66572">
        <ele>143</ele>
        <time>2017-01-08T08:57:00Z</time>
      </trkpt>
      <trkpt lat="48.43159" lon="2.66569">
        <ele>143</ele>
        <time>2017-01-08T08:57:06Z</time>
      </trkpt>
      <trkpt lat="48.43143" lon="2.66562">
        <ele>143</ele>
        <time>2017-01-08T08:57:11Z</time>
      </trkpt>
      <trkpt lat="48.43139" lon="2.66562">
        <ele>143</ele>
        <time>2017-01-08T08:57:12Z</time>
      </trkpt>
      <trkpt lat="48.43122" lon="2.66561">
        <ele>143</ele>
        <time>2017-01-08T08:57:17Z</time>
      </trkpt>
      <trkpt lat="48.43101" lon="2.66562">
        <ele>143</ele>
        <time>2017-01-08T08:57:23Z</time>
      </trkpt>
      <trkpt lat="48.43082" lon="2.66574">
        <ele>143</ele>
        <time>2017-01-08T08:57:29Z</time>
      </trkpt>
      <trkpt lat="48.43063" lon="2.66593">
        <ele>143</ele>
        <time>2017-01-08T08:57:35Z</time>
      </trkpt>
      <trkpt lat="48.43057" lon="2.66606">
        <ele>142.6</ele>
        <time>2017-01-08T08:57:38Z</time>
      </trkpt>
      <trkpt lat="48.43054" lon="2.6661">
        <ele>142.2</ele>
        <time>2017-01-08T08:57:39Z</time>
      </trkpt>
      <trkpt lat="48.43051" lon="2.66613">
        <ele>141.8</ele>
        <time>2017-01-08T08:57:40Z</time>
      </trkpt>
      <trkpt lat="48.43049" lon="2.66618">
        <ele>141.4</ele>
        <time>2017-01-08T08:57:41Z</time>
      </trkpt>
      <trkpt lat="48.43046" lon="2.66623">
        <ele>141</ele>
        <time>2017-01-08T08:57:42Z</time>
      </trkpt>
      <trkpt lat="48.43042" lon="2.66631">
        <ele>141</ele>
        <time>2017-01-08T08:57:44Z</time>
      </trkpt>
      <trkpt lat="48.43033" lon="2.66647">
        <ele>141</ele>
        <time>2017-01-08T08:57:48Z</time>
      </trkpt>
      <trkpt lat="48.43023" lon="2.66661">
        <ele>140.4</ele>
        <time>2017-01-08T08:57:51Z</time>
      </trkpt>
      <trkpt lat="48.4302" lon="2.66666">
        <ele>140</ele>
        <time>2017-01-08T08:57:52Z</time>
      </trkpt>
      <trkpt lat="48.43016" lon="2.6667">
        <ele>139.6</ele>
        <time>2017-01-08T08:57:53Z</time>
      </trkpt>
      <trkpt lat="48.43014" lon="2.66673">
        <ele>139.2</ele>
        <time>2017-01-08T08:57:54Z</time>
      </trkpt>
      <trkpt lat="48.43012" lon="2.66676">
        <ele>138.8</ele>
        <time>2017-01-08T08:57:55Z</time>
      </trkpt>
      <trkpt lat="48.43009" lon="2.6668">
        <ele>138.8</ele>
        <time>2017-01-08T08:57:56Z</time>
      </trkpt>
      <trkpt lat="48.42999" lon="2.667">
        <ele>138.8</ele>
        <time>2017-01-08T08:58:01Z</time>
      </trkpt>
      <trkpt lat="48.42995" lon="2.66716">
        <ele>138.8</ele>
        <time>2017-01-08T08:58:05Z</time>
      </trkpt>
      <trkpt lat="48.42998" lon="2.66733">
        <ele>138.8</ele>
        <time>2017-01-08T08:58:09Z</time>
      </trkpt>
      <trkpt lat="48.43" lon="2.66735">
        <ele>138.8</ele>
        <time>2017-01-08T08:58:10Z</time>
      </trkpt>
      <trkpt lat="48.43003" lon="2.66739">
        <ele>138.8</ele>
        <time>2017-01-08T08:58:13Z</time>
      </trkpt>
      <trkpt lat="48.43005" lon="2.66747">
        <ele>138.8</ele>
        <time>2017-01-08T08:58:16Z</time>
      </trkpt>
      <trkpt lat="48.43003" lon="2.66755">
        <ele>138.8</ele>
        <time>2017-01-08T08:58:20Z</time>
      </trkpt>
      <trkpt lat="48.43" lon="2.6677">
        <ele>138.8</ele>
        <time>2017-01-08T08:58:26Z</time>
      </trkpt>
      <trkpt lat="48.42995" lon="2.66787">
        <ele>138.8</ele>
        <time>2017-01-08T08:58:31Z</time>
      </trkpt>
      <trkpt lat="48.42994" lon="2.66803">
        <ele>138.8</ele>
        <time>2017-01-08T08:58:37Z</time>
      </trkpt>
      <trkpt lat="48.42994" lon="2.66806">
        <ele>138.8</ele>
        <time>2017-01-08T08:58:38Z</time>
      </trkpt>
      <trkpt lat="48.42992" lon="2.66814">
        <ele>138.8</ele>
        <time>2017-01-08T08:58:41Z</time>
      </trkpt>
      <trkpt lat="48.4299" lon="2.66814">
        <ele>138.8</ele>
        <time>2017-01-08T08:58:44Z</time>
      </trkpt>
      <trkpt lat="48.42987" lon="2.66811">
        <ele>138.8</ele>
        <time>2017-01-08T08:58:47Z</time>
      </trkpt>
      <trkpt lat="48.42986" lon="2.6681">
        <ele>138.4</ele>
        <time>2017-01-08T08:58:48Z</time>
      </trkpt>
      <trkpt lat="48.42984" lon="2.66809">
        <ele>138</ele>
        <time>2017-01-08T08:58:49Z</time>
      </trkpt>
      <trkpt lat="48.42983" lon="2.66808">
        <ele>137.6</ele>
        <time>2017-01-08T08:58:50Z</time>
      </trkpt>
      <trkpt lat="48.42982" lon="2.66806">
        <ele>137.2</ele>
        <time>2017-01-08T08:58:51Z</time>
      </trkpt>
      <trkpt lat="48.4298" lon="2.66804">
        <ele>136.8</ele>
        <time>2017-01-08T08:58:52Z</time>
      </trkpt>
      <trkpt lat="48.42978" lon="2.668">
        <ele>136.8</ele>
        <time>2017-01-08T08:58:55Z</time>
      </trkpt>
      <trkpt lat="48.42973" lon="2.66795">
        <ele>134.8</ele>
        <time>2017-01-08T09:01:49Z</time>
      </trkpt>
      <trkpt lat="48.4297" lon="2.66795">
        <ele>134.8</ele>
        <time>2017-01-08T09:01:53Z</time>
      </trkpt>
      <trkpt lat="48.42963" lon="2.66796">
        <ele>135.2</ele>
        <time>2017-01-08T09:01:58Z</time>
      </trkpt>
      <trkpt lat="48.42961" lon="2.66796">
        <ele>135.6</ele>
        <time>2017-01-08T09:01:59Z</time>
      </trkpt>
      <trkpt lat="48.42959" lon="2.66794">
        <ele>136</ele>
        <time>2017-01-08T09:02:00Z</time>
      </trkpt>
      <trkpt lat="48.42958" lon="2.66793">
        <ele>136.4</ele>
        <time>2017-01-08T09:02:01Z</time>
      </trkpt>
      <trkpt lat="48.42956" lon="2.66792">
        <ele>136.8</ele>
        <time>2017-01-08T09:02:02Z</time>
      </trkpt>
      <trkpt lat="48.4295" lon="2.66789">
        <ele>136.8</ele>
        <time>2017-01-08T09:02:05Z</time>
      </trkpt>
      <trkpt lat="48.42949" lon="2.66788">
        <ele>137.2</ele>
        <time>2017-01-08T09:02:06Z</time>
      </trkpt>
      <trkpt lat="48.42947" lon="2.66787">
        <ele>137.6</ele>
        <time>2017-01-08T09:02:07Z</time>
      </trkpt>
      <trkpt lat="48.42945" lon="2.66786">
        <ele>138</ele>
        <time>2017-01-08T09:02:08Z</time>
      </trkpt>
      <trkpt lat="48.42945" lon="2.66784">
        <ele>138.4</ele>
        <time>2017-01-08T09:02:09Z</time>
      </trkpt>
      <trkpt lat="48.42944" lon="2.66782">
        <ele>138.8</ele>
        <time>2017-01-08T09:02:10Z</time>
      </trkpt>
      <trkpt lat="48.42942" lon="2.6678">
        <ele>138.8</ele>
        <time>2017-01-08T09:02:11Z</time>
      </trkpt>
      <trkpt lat="48.42937" lon="2.66778">
        <ele>138.8</ele>
        <time>2017-01-08T09:02:15Z</time>
      </trkpt>
      <trkpt lat="48.42934" lon="2.66776">
        <ele>138.8</ele>
        <time>2017-01-08T09:02:16Z</time>
      </trkpt>
      <trkpt lat="48.42928" lon="2.66765">
        <ele>138.8</ele>
        <time>2017-01-08T09:02:21Z</time>
      </trkpt>
      <trkpt lat="48.42924" lon="2.66759">
        <ele>139.2</ele>
        <time>2017-01-08T09:02:24Z</time>
      </trkpt>
      <trkpt lat="48.42923" lon="2.66756">
        <ele>139.6</ele>
        <time>2017-01-08T09:02:25Z</time>
      </trkpt>
      <trkpt lat="48.4292" lon="2.66755">
        <ele>140</ele>
        <time>2017-01-08T09:02:26Z</time>
      </trkpt>
      <trkpt lat="48.42918" lon="2.66754">
        <ele>140.6</ele>
        <time>2017-01-08T09:02:27Z</time>
      </trkpt>
      <trkpt lat="48.42916" lon="2.66754">
        <ele>141</ele>
        <time>2017-01-08T09:02:28Z</time>
      </trkpt>
      <trkpt lat="48.42911" lon="2.66749">
        <ele>141</ele>
        <time>2017-01-08T09:02:31Z</time>
      </trkpt>
      <trkpt lat="48.4291" lon="2.66747">
        <ele>141</ele>
        <time>2017-01-08T09:02:32Z</time>
      </trkpt>
      <trkpt lat="48.42908" lon="2.66735">
        <ele>141</ele>
        <time>2017-01-08T09:02:36Z</time>
      </trkpt>
      <trkpt lat="48.42905" lon="2.66724">
        <ele>141</ele>
        <time>2017-01-08T09:02:40Z</time>
      </trkpt>
      <trkpt lat="48.42901" lon="2.66716">
        <ele>141</ele>
        <time>2017-01-08T09:02:43Z</time>
      </trkpt>
      <trkpt lat="48.4289" lon="2.66697">
        <ele>141</ele>
        <time>2017-01-08T09:02:50Z</time>
      </trkpt>
      <trkpt lat="48.42882" lon="2.66681">
        <ele>141</ele>
        <time>2017-01-08T09:02:56Z</time>
      </trkpt>
      <trkpt lat="48.42881" lon="2.6668">
        <ele>141</ele>
        <time>2017-01-08T09:02:57Z</time>
      </trkpt>
      <trkpt lat="48.42875" lon="2.66667">
        <ele>141</ele>
        <time>2017-01-08T09:03:01Z</time>
      </trkpt>
      <trkpt lat="48.42867" lon="2.66654">
        <ele>141</ele>
        <time>2017-01-08T09:03:06Z</time>
      </trkpt>
      <trkpt lat="48.42865" lon="2.66654">
        <ele>141</ele>
        <time>2017-01-08T09:03:07Z</time>
      </trkpt>
      <trkpt lat="48.42857" lon="2.66653">
        <ele>141</ele>
        <time>2017-01-08T09:03:10Z</time>
      </trkpt>
      <trkpt lat="48.42854" lon="2.66654">
        <ele>141</ele>
        <time>2017-01-08T09:03:11Z</time>
      </trkpt>
      <trkpt lat="48.42843" lon="2.6665">
        <ele>141</ele>
        <time>2017-01-08T09:03:15Z</time>
      </trkpt>
      <trkpt lat="48.42831" lon="2.66653">
        <ele>141</ele>
        <time>2017-01-08T09:03:20Z</time>
      </trkpt>
      <trkpt lat="48.42825" lon="2.66655">
        <ele>141</ele>
        <time>2017-01-08T09:03:23Z</time>
      </trkpt>
      <trkpt lat="48.42823" lon="2.66659">
        <ele>141</ele>
        <time>2017-01-08T09:03:25Z</time>
      </trkpt>
      <trkpt lat="48.42822" lon="2.66659">
        <ele>141</ele>
        <time>2017-01-08T09:03:28Z</time>
      </trkpt>
      <trkpt lat="48.42823" lon="2.66663">
        <ele>141</ele>
        <time>2017-01-08T09:04:08Z</time>
      </trkpt>
      <trkpt lat="48.42822" lon="2.66673">
        <ele>140.4</ele>
        <time>2017-01-08T09:04:11Z</time>
      </trkpt>
      <trkpt lat="48.42823" lon="2.66679">
        <ele>140</ele>
        <time>2017-01-08T09:04:12Z</time>
      </trkpt>
      <trkpt lat="48.42824" lon="2.66684">
        <ele>139.6</ele>
        <time>2017-01-08T09:04:13Z</time>
      </trkpt>
      <trkpt lat="48.42824" lon="2.66689">
        <ele>139.2</ele>
        <time>2017-01-08T09:04:14Z</time>
      </trkpt>
      <trkpt lat="48.42827" lon="2.66695">
        <ele>138.8</ele>
        <time>2017-01-08T09:04:15Z</time>
      </trkpt>
      <trkpt lat="48.4283" lon="2.66701">
        <ele>138.4</ele>
        <time>2017-01-08T09:04:16Z</time>
      </trkpt>
      <trkpt lat="48.42833" lon="2.66707">
        <ele>137.8</ele>
        <time>2017-01-08T09:04:17Z</time>
      </trkpt>
      <trkpt lat="48.42835" lon="2.66713">
        <ele>137.4</ele>
        <time>2017-01-08T09:04:18Z</time>
      </trkpt>
      <trkpt lat="48.42836" lon="2.66719">
        <ele>137</ele>
        <time>2017-01-08T09:04:19Z</time>
      </trkpt>
      <trkpt lat="48.42837" lon="2.66723">
        <ele>136.4</ele>
        <time>2017-01-08T09:04:20Z</time>
      </trkpt>
      <trkpt lat="48.42837" lon="2.66727">
        <ele>136</ele>
        <time>2017-01-08T09:04:21Z</time>
      </trkpt>
      <trkpt lat="48.42838" lon="2.66732">
        <ele>135</ele>
        <time>2017-01-08T09:04:22Z</time>
      </trkpt>
      <trkpt lat="48.42838" lon="2.66739">
        <ele>134.4</ele>
        <time>2017-01-08T09:04:23Z</time>
      </trkpt>
      <trkpt lat="48.42839" lon="2.66746">
        <ele>134</ele>
        <time>2017-01-08T09:04:24Z</time>
      </trkpt>
      <trkpt lat="48.42838" lon="2.66751">
        <ele>133.4</ele>
        <time>2017-01-08T09:04:25Z</time>
      </trkpt>
      <trkpt lat="48.42838" lon="2.66754">
        <ele>132.8</ele>
        <time>2017-01-08T09:04:26Z</time>
      </trkpt>
      <trkpt lat="48.42839" lon="2.66756">
        <ele>132.2</ele>
        <time>2017-01-08T09:04:27Z</time>
      </trkpt>
      <trkpt lat="48.4284" lon="2.6676">
        <ele>131.6</ele>
        <time>2017-01-08T09:04:28Z</time>
      </trkpt>
      <trkpt lat="48.4284" lon="2.66763">
        <ele>131</ele>
        <time>2017-01-08T09:04:29Z</time>
      </trkpt>
      <trkpt lat="48.42841" lon="2.66765">
        <ele>130.4</ele>
        <time>2017-01-08T09:04:30Z</time>
      </trkpt>
      <trkpt lat="48.42841" lon="2.66769">
        <ele>129.8</ele>
        <time>2017-01-08T09:04:31Z</time>
      </trkpt>
      <trkpt lat="48.42841" lon="2.66772">
        <ele>129.4</ele>
        <time>2017-01-08T09:04:32Z</time>
      </trkpt>
      <trkpt lat="48.42841" lon="2.66775">
        <ele>129</ele>
        <time>2017-01-08T09:04:33Z</time>
      </trkpt>
      <trkpt lat="48.42841" lon="2.66778">
        <ele>128.6</ele>
        <time>2017-01-08T09:04:34Z</time>
      </trkpt>
      <trkpt lat="48.42842" lon="2.66781">
        <ele>128.2</ele>
        <time>2017-01-08T09:04:35Z</time>
      </trkpt>
      <trkpt lat="48.42843" lon="2.66785">
        <ele>127.6</ele>
        <time>2017-01-08T09:04:36Z</time>
      </trkpt>
      <trkpt lat="48.42844" lon="2.66788">
        <ele>127.2</ele>
        <time>2017-01-08T09:04:37Z</time>
      </trkpt>
      <trkpt lat="48.42848" lon="2.66798">
        <ele>127.2</ele>
        <time>2017-01-08T09:04:40Z</time>
      </trkpt>
      <trkpt lat="48.42849" lon="2.66803">
        <ele>126.8</ele>
        <time>2017-01-08T09:04:41Z</time>
      </trkpt>
      <trkpt lat="48.42849" lon="2.66806">
        <ele>126.4</ele>
        <time>2017-01-08T09:04:42Z</time>
      </trkpt>
      <trkpt lat="48.4285" lon="2.66808">
        <ele>126</ele>
        <time>2017-01-08T09:04:43Z</time>
      </trkpt>
      <trkpt lat="48.4285" lon="2.66811">
        <ele>125.6</ele>
        <time>2017-01-08T09:04:44Z</time>
      </trkpt>
      <trkpt lat="48.42851" lon="2.66814">
        <ele>125</ele>
        <time>2017-01-08T09:04:45Z</time>
      </trkpt>
      <trkpt lat="48.42852" lon="2.6682">
        <ele>124.2</ele>
        <time>2017-01-08T09:04:47Z</time>
      </trkpt>
      <trkpt lat="48.42853" lon="2.66825">
        <ele>123.8</ele>
        <time>2017-01-08T09:04:48Z</time>
      </trkpt>
      <trkpt lat="48.42853" lon="2.6683">
        <ele>123.4</ele>
        <time>2017-01-08T09:04:49Z</time>
      </trkpt>
      <trkpt lat="48.42854" lon="2.66835">
        <ele>123</ele>
        <time>2017-01-08T09:04:50Z</time>
      </trkpt>
      <trkpt lat="48.42854" lon="2.66841">
        <ele>123</ele>
        <time>2017-01-08T09:04:51Z</time>
      </trkpt>
      <trkpt lat="48.42856" lon="2.66846">
        <ele>122.6</ele>
        <time>2017-01-08T09:04:52Z</time>
      </trkpt>
      <trkpt lat="48.42856" lon="2.66851">
        <ele>122.2</ele>
        <time>2017-01-08T09:04:53Z</time>
      </trkpt>
      <trkpt lat="48.42857" lon="2.66857">
        <ele>121.8</ele>
        <time>2017-01-08T09:04:54Z</time>
      </trkpt>
      <trkpt lat="48.42858" lon="2.66863">
        <ele>121.4</ele>
        <time>2017-01-08T09:04:55Z</time>
      </trkpt>
      <trkpt lat="48.42859" lon="2.66868">
        <ele>121</ele>
        <time>2017-01-08T09:04:56Z</time>
      </trkpt>
      <trkpt lat="48.4286" lon="2.66874">
        <ele>120.6</ele>
        <time>2017-01-08T09:04:57Z</time>
      </trkpt>
      <trkpt lat="48.42861" lon="2.66881">
        <ele>120.2</ele>
        <time>2017-01-08T09:04:58Z</time>
      </trkpt>
      <trkpt lat="48.42862" lon="2.66888">
        <ele>119.8</ele>
        <time>2017-01-08T09:04:59Z</time>
      </trkpt>
      <trkpt lat="48.42863" lon="2.66891">
        <ele>119.4</ele>
        <time>2017-01-08T09:05:00Z</time>
      </trkpt>
      <trkpt lat="48.42863" lon="2.66892">
        <ele>119</ele>
        <time>2017-01-08T09:05:01Z</time>
      </trkpt>
      <trkpt lat="48.42863" lon="2.669">
        <ele>118.4</ele>
        <time>2017-01-08T09:05:05Z</time>
      </trkpt>
      <trkpt lat="48.42864" lon="2.66903">
        <ele>118</ele>
        <time>2017-01-08T09:05:06Z</time>
      </trkpt>
      <trkpt lat="48.42864" lon="2.66907">
        <ele>117.6</ele>
        <time>2017-01-08T09:05:07Z</time>
      </trkpt>
      <trkpt lat="48.42865" lon="2.66911">
        <ele>117</ele>
        <time>2017-01-08T09:05:08Z</time>
      </trkpt>
      <trkpt lat="48.42867" lon="2.66916">
        <ele>116.6</ele>
        <time>2017-01-08T09:05:09Z</time>
      </trkpt>
      <trkpt lat="48.42869" lon="2.66925">
        <ele>115.8</ele>
        <time>2017-01-08T09:05:11Z</time>
      </trkpt>
      <trkpt lat="48.42869" lon="2.66933">
        <ele>115.4</ele>
        <time>2017-01-08T09:05:12Z</time>
      </trkpt>
      <trkpt lat="48.42869" lon="2.66939">
        <ele>115</ele>
        <time>2017-01-08T09:05:13Z</time>
      </trkpt>
      <trkpt lat="48.42869" lon="2.66947">
        <ele>114.6</ele>
        <time>2017-01-08T09:05:14Z</time>
      </trkpt>
      <trkpt lat="48.42871" lon="2.66962">
        <ele>114.2</ele>
        <time>2017-01-08T09:05:16Z</time>
      </trkpt>
      <trkpt lat="48.42873" lon="2.6697">
        <ele>113.6</ele>
        <time>2017-01-08T09:05:17Z</time>
      </trkpt>
      <trkpt lat="48.42873" lon="2.66977">
        <ele>113.2</ele>
        <time>2017-01-08T09:05:18Z</time>
      </trkpt>
      <trkpt lat="48.42874" lon="2.66986">
        <ele>112.8</ele>
        <time>2017-01-08T09:05:19Z</time>
      </trkpt>
      <trkpt lat="48.42875" lon="2.66995">
        <ele>112.2</ele>
        <time>2017-01-08T09:05:20Z</time>
      </trkpt>
      <trkpt lat="48.42877" lon="2.67003">
        <ele>111.8</ele>
        <time>2017-01-08T09:05:21Z</time>
      </trkpt>
      <trkpt lat="48.42879" lon="2.67012">
        <ele>111.2</ele>
        <time>2017-01-08T09:05:22Z</time>
      </trkpt>
      <trkpt lat="48.42881" lon="2.67021">
        <ele>110.6</ele>
        <time>2017-01-08T09:05:23Z</time>
      </trkpt>
      <trkpt lat="48.42883" lon="2.6703">
        <ele>110.2</ele>
        <time>2017-01-08T09:05:24Z</time>
      </trkpt>
      <trkpt lat="48.42887" lon="2.67038">
        <ele>109.6</ele>
        <time>2017-01-08T09:05:25Z</time>
      </trkpt>
      <trkpt lat="48.42891" lon="2.67042">
        <ele>109.2</ele>
        <time>2017-01-08T09:05:26Z</time>
      </trkpt>
      <trkpt lat="48.42896" lon="2.67045">
        <ele>108.6</ele>
        <time>2017-01-08T09:05:27Z</time>
      </trkpt>
      <trkpt lat="48.429" lon="2.67051">
        <ele>108</ele>
        <time>2017-01-08T09:05:28Z</time>
      </trkpt>
      <trkpt lat="48.42903" lon="2.67053">
        <ele>107.6</ele>
        <time>2017-01-08T09:05:29Z</time>
      </trkpt>
      <trkpt lat="48.42911" lon="2.67062">
        <ele>107.2</ele>
        <time>2017-01-08T09:05:31Z</time>
      </trkpt>
      <trkpt lat="48.42915" lon="2.67068">
        <ele>106.6</ele>
        <time>2017-01-08T09:05:32Z</time>
      </trkpt>
      <trkpt lat="48.42919" lon="2.67073">
        <ele>106.2</ele>
        <time>2017-01-08T09:05:33Z</time>
      </trkpt>
      <trkpt lat="48.42923" lon="2.67079">
        <ele>105.8</ele>
        <time>2017-01-08T09:05:34Z</time>
      </trkpt>
      <trkpt lat="48.42927" lon="2.67085">
        <ele>105.4</ele>
        <time>2017-01-08T09:05:35Z</time>
      </trkpt>
      <trkpt lat="48.42931" lon="2.67091">
        <ele>105</ele>
        <time>2017-01-08T09:05:36Z</time>
      </trkpt>
      <trkpt lat="48.42934" lon="2.67098">
        <ele>104.6</ele>
        <time>2017-01-08T09:05:37Z</time>
      </trkpt>
      <trkpt lat="48.42938" lon="2.67106">
        <ele>104.2</ele>
        <time>2017-01-08T09:05:38Z</time>
      </trkpt>
      <trkpt lat="48.42943" lon="2.67113">
        <ele>103.6</ele>
        <time>2017-01-08T09:05:39Z</time>
      </trkpt>
      <trkpt lat="48.42947" lon="2.67119">
        <ele>103.2</ele>
        <time>2017-01-08T09:05:40Z</time>
      </trkpt>
      <trkpt lat="48.42954" lon="2.6713">
        <ele>102.8</ele>
        <time>2017-01-08T09:05:42Z</time>
      </trkpt>
      <trkpt lat="48.42958" lon="2.67135">
        <ele>102.4</ele>
        <time>2017-01-08T09:05:43Z</time>
      </trkpt>
      <trkpt lat="48.42961" lon="2.67139">
        <ele>102</ele>
        <time>2017-01-08T09:05:44Z</time>
      </trkpt>
      <trkpt lat="48.42965" lon="2.67142">
        <ele>101.6</ele>
        <time>2017-01-08T09:05:45Z</time>
      </trkpt>
      <trkpt lat="48.42968" lon="2.67148">
        <ele>101.2</ele>
        <time>2017-01-08T09:05:46Z</time>
      </trkpt>
      <trkpt lat="48.42974" lon="2.67157">
        <ele>101.2</ele>
        <time>2017-01-08T09:05:48Z</time>
      </trkpt>
      <trkpt lat="48.42987" lon="2.67168">
        <ele>100.8</ele>
        <time>2017-01-08T09:05:52Z</time>
      </trkpt>
      <trkpt lat="48.4299" lon="2.67171">
        <ele>100.2</ele>
        <time>2017-01-08T09:05:53Z</time>
      </trkpt>
      <trkpt lat="48.42992" lon="2.67172">
        <ele>99.8</ele>
        <time>2017-01-08T09:05:54Z</time>
      </trkpt>
      <trkpt lat="48.42994" lon="2.67169">
        <ele>99.4</ele>
        <time>2017-01-08T09:05:55Z</time>
      </trkpt>
      <trkpt lat="48.42996" lon="2.67167">
        <ele>99</ele>
        <time>2017-01-08T09:05:56Z</time>
      </trkpt>
      <trkpt lat="48.43004" lon="2.67176">
        <ele>99</ele>
        <time>2017-01-08T09:05:59Z</time>
      </trkpt>
      <trkpt lat="48.43006" lon="2.67179">
        <ele>99</ele>
        <time>2017-01-08T09:06:00Z</time>
      </trkpt>
      <trkpt lat="48.43016" lon="2.67193">
        <ele>99</ele>
        <time>2017-01-08T09:06:04Z</time>
      </trkpt>
      <trkpt lat="48.43025" lon="2.67205">
        <ele>98.6</ele>
        <time>2017-01-08T09:06:07Z</time>
      </trkpt>
      <trkpt lat="48.43028" lon="2.67208">
        <ele>98.2</ele>
        <time>2017-01-08T09:06:08Z</time>
      </trkpt>
      <trkpt lat="48.4303" lon="2.67212">
        <ele>97.8</ele>
        <time>2017-01-08T09:06:09Z</time>
      </trkpt>
      <trkpt lat="48.43033" lon="2.67217">
        <ele>97.4</ele>
        <time>2017-01-08T09:06:10Z</time>
      </trkpt>
      <trkpt lat="48.43036" lon="2.6722">
        <ele>96.8</ele>
        <time>2017-01-08T09:06:11Z</time>
      </trkpt>
      <trkpt lat="48.43041" lon="2.67229">
        <ele>96.8</ele>
        <time>2017-01-08T09:06:14Z</time>
      </trkpt>
      <trkpt lat="48.43052" lon="2.6725">
        <ele>96.4</ele>
        <time>2017-01-08T09:06:19Z</time>
      </trkpt>
      <trkpt lat="48.43056" lon="2.67255">
        <ele>95.8</ele>
        <time>2017-01-08T09:06:20Z</time>
      </trkpt>
      <trkpt lat="48.43058" lon="2.67259">
        <ele>95.2</ele>
        <time>2017-01-08T09:06:21Z</time>
      </trkpt>
      <trkpt lat="48.43061" lon="2.67263">
        <ele>94.6</ele>
        <time>2017-01-08T09:06:22Z</time>
      </trkpt>
      <trkpt lat="48.43062" lon="2.67265">
        <ele>94.2</ele>
        <time>2017-01-08T09:06:23Z</time>
      </trkpt>
      <trkpt lat="48.4307" lon="2.67274">
        <ele>94.2</ele>
        <time>2017-01-08T09:06:26Z</time>
      </trkpt>
      <trkpt lat="48.43082" lon="2.6729">
        <ele>94.2</ele>
        <time>2017-01-08T09:06:32Z</time>
      </trkpt>
      <trkpt lat="48.43093" lon="2.6731">
        <ele>94.2</ele>
        <time>2017-01-08T09:06:37Z</time>
      </trkpt>
      <trkpt lat="48.43113" lon="2.67344">
        <ele>94.2</ele>
        <time>2017-01-08T09:06:44Z</time>
      </trkpt>
      <trkpt lat="48.43123" lon="2.67363">
        <ele>94.2</ele>
        <time>2017-01-08T09:06:50Z</time>
      </trkpt>
      <trkpt lat="48.43131" lon="2.67376">
        <ele>94.2</ele>
        <time>2017-01-08T09:06:56Z</time>
      </trkpt>
      <trkpt lat="48.43139" lon="2.67399">
        <ele>94.2</ele>
        <time>2017-01-08T09:07:01Z</time>
      </trkpt>
      <trkpt lat="48.43148" lon="2.67422">
        <ele>94.2</ele>
        <time>2017-01-08T09:07:06Z</time>
      </trkpt>
      <trkpt lat="48.4316" lon="2.67451">
        <ele>94.2</ele>
        <time>2017-01-08T09:07:13Z</time>
      </trkpt>
      <trkpt lat="48.4317" lon="2.67473">
        <ele>94.2</ele>
        <time>2017-01-08T09:07:19Z</time>
      </trkpt>
      <trkpt lat="48.43181" lon="2.67505">
        <ele>94.2</ele>
        <time>2017-01-08T09:07:26Z</time>
      </trkpt>
      <trkpt lat="48.43193" lon="2.67545">
        <ele>94.2</ele>
        <time>2017-01-08T09:07:34Z</time>
      </trkpt>
      <trkpt lat="48.43199" lon="2.67565">
        <ele>94.2</ele>
        <time>2017-01-08T09:07:39Z</time>
      </trkpt>
      <trkpt lat="48.43201" lon="2.67592">
        <ele>94.2</ele>
        <time>2017-01-08T09:07:45Z</time>
      </trkpt>
      <trkpt lat="48.43198" lon="2.67627">
        <ele>94.2</ele>
        <time>2017-01-08T09:07:52Z</time>
      </trkpt>
      <trkpt lat="48.43191" lon="2.6766">
        <ele>94.2</ele>
        <time>2017-01-08T09:08:00Z</time>
      </trkpt>
      <trkpt lat="48.43189" lon="2.67689">
        <ele>94.2</ele>
        <time>2017-01-08T09:08:06Z</time>
      </trkpt>
      <trkpt lat="48.43184" lon="2.67719">
        <ele>94.2</ele>
        <time>2017-01-08T09:08:12Z</time>
      </trkpt>
      <trkpt lat="48.43182" lon="2.67734">
        <ele>94.2</ele>
        <time>2017-01-08T09:08:16Z</time>
      </trkpt>
      <trkpt lat="48.43182" lon="2.67738">
        <ele>94.2</ele>
        <time>2017-01-08T09:08:17Z</time>
      </trkpt>
      <trkpt lat="48.43183" lon="2.67761">
        <ele>94.2</ele>
        <time>2017-01-08T09:08:21Z</time>
      </trkpt>
      <trkpt lat="48.43185" lon="2.67785">
        <ele>94.2</ele>
        <time>2017-01-08T09:08:26Z</time>
      </trkpt>
      <trkpt lat="48.43182" lon="2.67824">
        <ele>94.2</ele>
        <time>2017-01-08T09:08:34Z</time>
      </trkpt>
      <trkpt lat="48.43177" lon="2.67858">
        <ele>94.2</ele>
        <time>2017-01-08T09:08:40Z</time>
      </trkpt>
      <trkpt lat="48.43176" lon="2.67878">
        <ele>94.2</ele>
        <time>2017-01-08T09:08:45Z</time>
      </trkpt>
      <trkpt lat="48.43175" lon="2.67885">
        <ele>94.2</ele>
        <time>2017-01-08T09:08:47Z</time>
      </trkpt>
      <trkpt lat="48.4317" lon="2.67891">
        <ele>94.2</ele>
        <time>2017-01-08T09:08:50Z</time>
      </trkpt>
      <trkpt lat="48.43161" lon="2.6791">
        <ele>94.2</ele>
        <time>2017-01-08T09:08:57Z</time>
      </trkpt>
      <trkpt lat="48.43152" lon="2.67925">
        <ele>94.2</ele>
        <time>2017-01-08T09:09:01Z</time>
      </trkpt>
      <trkpt lat="48.43151" lon="2.67928">
        <ele>94.2</ele>
        <time>2017-01-08T09:09:02Z</time>
      </trkpt>
      <trkpt lat="48.43149" lon="2.67936">
        <ele>94.2</ele>
        <time>2017-01-08T09:09:04Z</time>
      </trkpt>
      <trkpt lat="48.43152" lon="2.67944">
        <ele>94.2</ele>
        <time>2017-01-08T09:09:08Z</time>
      </trkpt>
      <trkpt lat="48.43163" lon="2.67961">
        <ele>94.2</ele>
        <time>2017-01-08T09:09:14Z</time>
      </trkpt>
      <trkpt lat="48.43202" lon="2.68011">
        <ele>94.2</ele>
        <time>2017-01-08T09:10:42Z</time>
      </trkpt>
      <trkpt lat="48.43215" lon="2.68036">
        <ele>94.2</ele>
        <time>2017-01-08T09:10:47Z</time>
      </trkpt>
      <trkpt lat="48.43224" lon="2.68054">
        <ele>94.2</ele>
        <time>2017-01-08T09:10:52Z</time>
      </trkpt>
      <trkpt lat="48.43234" lon="2.68077">
        <ele>94.2</ele>
        <time>2017-01-08T09:10:58Z</time>
      </trkpt>
      <trkpt lat="48.43244" lon="2.68101">
        <ele>94.2</ele>
        <time>2017-01-08T09:11:04Z</time>
      </trkpt>
      <trkpt lat="48.43257" lon="2.68126">
        <ele>94.2</ele>
        <time>2017-01-08T09:11:10Z</time>
      </trkpt>
      <trkpt lat="48.43265" lon="2.68154">
        <ele>94.2</ele>
        <time>2017-01-08T09:11:16Z</time>
      </trkpt>
      <trkpt lat="48.43266" lon="2.68159">
        <ele>94.2</ele>
        <time>2017-01-08T09:11:17Z</time>
      </trkpt>
      <trkpt lat="48.4327" lon="2.68167">
        <ele>94.2</ele>
        <time>2017-01-08T09:11:19Z</time>
      </trkpt>
      <trkpt lat="48.43271" lon="2.68181">
        <ele>94.2</ele>
        <time>2017-01-08T09:11:24Z</time>
      </trkpt>
      <trkpt lat="48.43266" lon="2.68201">
        <ele>94.2</ele>
        <time>2017-01-08T09:11:29Z</time>
      </trkpt>
      <trkpt lat="48.43262" lon="2.68228">
        <ele>94.2</ele>
        <time>2017-01-08T09:11:35Z</time>
      </trkpt>
      <trkpt lat="48.43255" lon="2.68258">
        <ele>94.2</ele>
        <time>2017-01-08T09:11:41Z</time>
      </trkpt>
      <trkpt lat="48.43252" lon="2.68287">
        <ele>94.2</ele>
        <time>2017-01-08T09:11:47Z</time>
      </trkpt>
      <trkpt lat="48.4324" lon="2.68324">
        <ele>94.2</ele>
        <time>2017-01-08T09:11:54Z</time>
      </trkpt>
      <trkpt lat="48.43233" lon="2.68352">
        <ele>94.2</ele>
        <time>2017-01-08T09:11:59Z</time>
      </trkpt>
      <trkpt lat="48.43231" lon="2.68358">
        <ele>94.2</ele>
        <time>2017-01-08T09:12:02Z</time>
      </trkpt>
      <trkpt lat="48.43227" lon="2.68363">
        <ele>94.2</ele>
        <time>2017-01-08T09:12:05Z</time>
      </trkpt>
      <trkpt lat="48.43213" lon="2.68387">
        <ele>94.6</ele>
        <time>2017-01-08T09:12:13Z</time>
      </trkpt>
      <trkpt lat="48.43211" lon="2.6839">
        <ele>95</ele>
        <time>2017-01-08T09:12:14Z</time>
      </trkpt>
      <trkpt lat="48.43209" lon="2.68394">
        <ele>95.4</ele>
        <time>2017-01-08T09:12:15Z</time>
      </trkpt>
      <trkpt lat="48.43206" lon="2.68397">
        <ele>95.8</ele>
        <time>2017-01-08T09:12:16Z</time>
      </trkpt>
      <trkpt lat="48.43204" lon="2.68399">
        <ele>96.2</ele>
        <time>2017-01-08T09:12:17Z</time>
      </trkpt>
      <trkpt lat="48.43201" lon="2.68402">
        <ele>96.2</ele>
        <time>2017-01-08T09:12:18Z</time>
      </trkpt>
      <trkpt lat="48.43193" lon="2.68413">
        <ele>96.2</ele>
        <time>2017-01-08T09:12:22Z</time>
      </trkpt>
      <trkpt lat="48.43187" lon="2.6842">
        <ele>96.6</ele>
        <time>2017-01-08T09:12:25Z</time>
      </trkpt>
      <trkpt lat="48.43186" lon="2.68423">
        <ele>97</ele>
        <time>2017-01-08T09:12:26Z</time>
      </trkpt>
      <trkpt lat="48.43185" lon="2.68425">
        <ele>97.4</ele>
        <time>2017-01-08T09:12:27Z</time>
      </trkpt>
      <trkpt lat="48.43184" lon="2.68427">
        <ele>97.8</ele>
        <time>2017-01-08T09:12:28Z</time>
      </trkpt>
      <trkpt lat="48.43183" lon="2.68429">
        <ele>98.2</ele>
        <time>2017-01-08T09:12:29Z</time>
      </trkpt>
      <trkpt lat="48.4318" lon="2.68432">
        <ele>98.2</ele>
        <time>2017-01-08T09:12:31Z</time>
      </trkpt>
      <trkpt lat="48.4318" lon="2.68434">
        <ele>98.2</ele>
        <time>2017-01-08T09:12:32Z</time>
      </trkpt>
      <trkpt lat="48.43181" lon="2.68437">
        <ele>98.6</ele>
        <time>2017-01-08T09:12:33Z</time>
      </trkpt>
      <trkpt lat="48.43182" lon="2.68443">
        <ele>99</ele>
        <time>2017-01-08T09:12:34Z</time>
      </trkpt>
      <trkpt lat="48.43182" lon="2.68449">
        <ele>100</ele>
        <time>2017-01-08T09:12:35Z</time>
      </trkpt>
      <trkpt lat="48.4318" lon="2.68455">
        <ele>100.4</ele>
        <time>2017-01-08T09:12:36Z</time>
      </trkpt>
      <trkpt lat="48.43179" lon="2.6846">
        <ele>100.4</ele>
        <time>2017-01-08T09:12:37Z</time>
      </trkpt>
      <trkpt lat="48.43175" lon="2.68473">
        <ele>100.4</ele>
        <time>2017-01-08T09:12:40Z</time>
      </trkpt>
      <trkpt lat="48.43166" lon="2.68497">
        <ele>100.4</ele>
        <time>2017-01-08T09:12:46Z</time>
      </trkpt>
      <trkpt lat="48.43163" lon="2.68521">
        <ele>100.4</ele>
        <time>2017-01-08T09:12:52Z</time>
      </trkpt>
      <trkpt lat="48.43155" lon="2.68547">
        <ele>100.4</ele>
        <time>2017-01-08T09:12:58Z</time>
      </trkpt>
      <trkpt lat="48.43144" lon="2.6856">
        <ele>100.4</ele>
        <time>2017-01-08T09:13:03Z</time>
      </trkpt>
      <trkpt lat="48.43142" lon="2.68566">
        <ele>100.4</ele>
        <time>2017-01-08T09:13:05Z</time>
      </trkpt>
      <trkpt lat="48.43139" lon="2.68575">
        <ele>100.4</ele>
        <time>2017-01-08T09:13:08Z</time>
      </trkpt>
      <trkpt lat="48.43137" lon="2.68581">
        <ele>100.4</ele>
        <time>2017-01-08T09:13:10Z</time>
      </trkpt>
      <trkpt lat="48.43136" lon="2.68584">
        <ele>100.4</ele>
        <time>2017-01-08T09:13:11Z</time>
      </trkpt>
      <trkpt lat="48.43132" lon="2.68586">
        <ele>100.8</ele>
        <time>2017-01-08T09:13:13Z</time>
      </trkpt>
      <trkpt lat="48.43129" lon="2.68586">
        <ele>101.2</ele>
        <time>2017-01-08T09:13:14Z</time>
      </trkpt>
      <trkpt lat="48.43128" lon="2.68587">
        <ele>101.6</ele>
        <time>2017-01-08T09:13:15Z</time>
      </trkpt>
      <trkpt lat="48.43126" lon="2.68588">
        <ele>102</ele>
        <time>2017-01-08T09:13:16Z</time>
      </trkpt>
      <trkpt lat="48.43125" lon="2.6859">
        <ele>102.4</ele>
        <time>2017-01-08T09:13:17Z</time>
      </trkpt>
      <trkpt lat="48.43119" lon="2.68603">
        <ele>102.4</ele>
        <time>2017-01-08T09:13:21Z</time>
      </trkpt>
      <trkpt lat="48.43117" lon="2.6861">
        <ele>102.4</ele>
        <time>2017-01-08T09:13:23Z</time>
      </trkpt>
      <trkpt lat="48.43114" lon="2.68621">
        <ele>102.4</ele>
        <time>2017-01-08T09:13:26Z</time>
      </trkpt>
      <trkpt lat="48.43105" lon="2.68645">
        <ele>102.4</ele>
        <time>2017-01-08T09:13:31Z</time>
      </trkpt>
      <trkpt lat="48.431" lon="2.6865">
        <ele>102.4</ele>
        <time>2017-01-08T09:13:33Z</time>
      </trkpt>
      <trkpt lat="48.43094" lon="2.68652">
        <ele>102.4</ele>
        <time>2017-01-08T09:13:35Z</time>
      </trkpt>
      <trkpt lat="48.43079" lon="2.68655">
        <ele>102.4</ele>
        <time>2017-01-08T09:13:40Z</time>
      </trkpt>
      <trkpt lat="48.43074" lon="2.68656">
        <ele>102.4</ele>
        <time>2017-01-08T09:13:42Z</time>
      </trkpt>
      <trkpt lat="48.43063" lon="2.68659">
        <ele>102.4</ele>
        <time>2017-01-08T09:13:46Z</time>
      </trkpt>
      <trkpt lat="48.43054" lon="2.6866">
        <ele>103</ele>
        <time>2017-01-08T09:13:50Z</time>
      </trkpt>
      <trkpt lat="48.43052" lon="2.6866">
        <ele>103.4</ele>
        <time>2017-01-08T09:13:51Z</time>
      </trkpt>
      <trkpt lat="48.4305" lon="2.6866">
        <ele>103.8</ele>
        <time>2017-01-08T09:13:52Z</time>
      </trkpt>
      <trkpt lat="48.43048" lon="2.68661">
        <ele>104.2</ele>
        <time>2017-01-08T09:13:53Z</time>
      </trkpt>
      <trkpt lat="48.43046" lon="2.68661">
        <ele>104.6</ele>
        <time>2017-01-08T09:13:54Z</time>
      </trkpt>
      <trkpt lat="48.43035" lon="2.68663">
        <ele>104.6</ele>
        <time>2017-01-08T09:13:59Z</time>
      </trkpt>
      <trkpt lat="48.43027" lon="2.68663">
        <ele>105</ele>
        <time>2017-01-08T09:14:03Z</time>
      </trkpt>
      <trkpt lat="48.43026" lon="2.68664">
        <ele>105.6</ele>
        <time>2017-01-08T09:14:04Z</time>
      </trkpt>
      <trkpt lat="48.43024" lon="2.68665">
        <ele>106</ele>
        <time>2017-01-08T09:14:05Z</time>
      </trkpt>
      <trkpt lat="48.43022" lon="2.68665">
        <ele>106.4</ele>
        <time>2017-01-08T09:14:06Z</time>
      </trkpt>
      <trkpt lat="48.4302" lon="2.68665">
        <ele>106.8</ele>
        <time>2017-01-08T09:14:07Z</time>
      </trkpt>
      <trkpt lat="48.43014" lon="2.68666">
        <ele>106.8</ele>
        <time>2017-01-08T09:14:10Z</time>
      </trkpt>
      <trkpt lat="48.43007" lon="2.68666">
        <ele>107.6</ele>
        <time>2017-01-08T09:14:13Z</time>
      </trkpt>
      <trkpt lat="48.43005" lon="2.68666">
        <ele>108</ele>
        <time>2017-01-08T09:14:14Z</time>
      </trkpt>
      <trkpt lat="48.43003" lon="2.68666">
        <ele>108.4</ele>
        <time>2017-01-08T09:14:15Z</time>
      </trkpt>
      <trkpt lat="48.43001" lon="2.68666">
        <ele>108.8</ele>
        <time>2017-01-08T09:14:16Z</time>
      </trkpt>
      <trkpt lat="48.42985" lon="2.6867">
        <ele>108.8</ele>
        <time>2017-01-08T09:14:23Z</time>
      </trkpt>
      <trkpt lat="48.42983" lon="2.6867">
        <ele>109.2</ele>
        <time>2017-01-08T09:14:24Z</time>
      </trkpt>
      <trkpt lat="48.42981" lon="2.68671">
        <ele>109.6</ele>
        <time>2017-01-08T09:14:25Z</time>
      </trkpt>
      <trkpt lat="48.42979" lon="2.68671">
        <ele>110</ele>
        <time>2017-01-08T09:14:26Z</time>
      </trkpt>
      <trkpt lat="48.42977" lon="2.68671">
        <ele>110.4</ele>
        <time>2017-01-08T09:14:27Z</time>
      </trkpt>
      <trkpt lat="48.42975" lon="2.68671">
        <ele>111</ele>
        <time>2017-01-08T09:14:28Z</time>
      </trkpt>
      <trkpt lat="48.42969" lon="2.68671">
        <ele>111</ele>
        <time>2017-01-08T09:14:31Z</time>
      </trkpt>
      <trkpt lat="48.42961" lon="2.68671">
        <ele>111.4</ele>
        <time>2017-01-08T09:14:36Z</time>
      </trkpt>
      <trkpt lat="48.4296" lon="2.68671">
        <ele>111.8</ele>
        <time>2017-01-08T09:14:37Z</time>
      </trkpt>
      <trkpt lat="48.42958" lon="2.68671">
        <ele>112.6</ele>
        <time>2017-01-08T09:14:38Z</time>
      </trkpt>
      <trkpt lat="48.42956" lon="2.68671">
        <ele>113</ele>
        <time>2017-01-08T09:14:39Z</time>
      </trkpt>
      <trkpt lat="48.42955" lon="2.68672">
        <ele>113</ele>
        <time>2017-01-08T09:14:40Z</time>
      </trkpt>
      <trkpt lat="48.42949" lon="2.68673">
        <ele>113</ele>
        <time>2017-01-08T09:14:44Z</time>
      </trkpt>
      <trkpt lat="48.42946" lon="2.68673">
        <ele>113.6</ele>
        <time>2017-01-08T09:14:46Z</time>
      </trkpt>
      <trkpt lat="48.42945" lon="2.68674">
        <ele>114</ele>
        <time>2017-01-08T09:14:47Z</time>
      </trkpt>
      <trkpt lat="48.42944" lon="2.68674">
        <ele>114.4</ele>
        <time>2017-01-08T09:14:48Z</time>
      </trkpt>
      <trkpt lat="48.42943" lon="2.68674">
        <ele>114.8</ele>
        <time>2017-01-08T09:14:49Z</time>
      </trkpt>
      <trkpt lat="48.42942" lon="2.68674">
        <ele>115.4</ele>
        <time>2017-01-08T09:14:50Z</time>
      </trkpt>
      <trkpt lat="48.42939" lon="2.68675">
        <ele>115.4</ele>
        <time>2017-01-08T09:14:52Z</time>
      </trkpt>
      <trkpt lat="48.42935" lon="2.68677">
        <ele>115.8</ele>
        <time>2017-01-08T09:14:55Z</time>
      </trkpt>
      <trkpt lat="48.42934" lon="2.68678">
        <ele>116.2</ele>
        <time>2017-01-08T09:14:56Z</time>
      </trkpt>
      <trkpt lat="48.42933" lon="2.68678">
        <ele>116.6</ele>
        <time>2017-01-08T09:14:57Z</time>
      </trkpt>
      <trkpt lat="48.42931" lon="2.68678">
        <ele>117</ele>
        <time>2017-01-08T09:14:58Z</time>
      </trkpt>
      <trkpt lat="48.4293" lon="2.68678">
        <ele>117.4</ele>
        <time>2017-01-08T09:14:59Z</time>
      </trkpt>
      <trkpt lat="48.42926" lon="2.68679">
        <ele>118.4</ele>
        <time>2017-01-08T09:15:02Z</time>
      </trkpt>
      <trkpt lat="48.42924" lon="2.6868">
        <ele>118.8</ele>
        <time>2017-01-08T09:15:03Z</time>
      </trkpt>
      <trkpt lat="48.42922" lon="2.6868">
        <ele>119.2</ele>
        <time>2017-01-08T09:15:04Z</time>
      </trkpt>
      <trkpt lat="48.4292" lon="2.68681">
        <ele>119.6</ele>
        <time>2017-01-08T09:15:05Z</time>
      </trkpt>
      <trkpt lat="48.42917" lon="2.68682">
        <ele>119.6</ele>
        <time>2017-01-08T09:15:07Z</time>
      </trkpt>
      <trkpt lat="48.42909" lon="2.68682">
        <ele>120</ele>
        <time>2017-01-08T09:15:11Z</time>
      </trkpt>
      <trkpt lat="48.42908" lon="2.68681">
        <ele>120.4</ele>
        <time>2017-01-08T09:15:12Z</time>
      </trkpt>
      <trkpt lat="48.42906" lon="2.68681">
        <ele>121</ele>
        <time>2017-01-08T09:15:13Z</time>
      </trkpt>
      <trkpt lat="48.42905" lon="2.68681">
        <ele>121.4</ele>
        <time>2017-01-08T09:15:14Z</time>
      </trkpt>
      <trkpt lat="48.42903" lon="2.68681">
        <ele>121.8</ele>
        <time>2017-01-08T09:15:15Z</time>
      </trkpt>
      <trkpt lat="48.42898" lon="2.68678">
        <ele>121.8</ele>
        <time>2017-01-08T09:15:19Z</time>
      </trkpt>
      <trkpt lat="48.42896" lon="2.68678">
        <ele>121.8</ele>
        <time>2017-01-08T09:15:20Z</time>
      </trkpt>
      <trkpt lat="48.42895" lon="2.68678">
        <ele>122.2</ele>
        <time>2017-01-08T09:15:21Z</time>
      </trkpt>
      <trkpt lat="48.42894" lon="2.68677">
        <ele>122.6</ele>
        <time>2017-01-08T09:15:22Z</time>
      </trkpt>
      <trkpt lat="48.42893" lon="2.68677">
        <ele>123</ele>
        <time>2017-01-08T09:15:23Z</time>
      </trkpt>
      <trkpt lat="48.42892" lon="2.68677">
        <ele>123.4</ele>
        <time>2017-01-08T09:15:24Z</time>
      </trkpt>
      <trkpt lat="48.42891" lon="2.68676">
        <ele>123.8</ele>
        <time>2017-01-08T09:15:25Z</time>
      </trkpt>
      <trkpt lat="48.42888" lon="2.68675">
        <ele>124.2</ele>
        <time>2017-01-08T09:15:28Z</time>
      </trkpt>
      <trkpt lat="48.42886" lon="2.68675">
        <ele>124.6</ele>
        <time>2017-01-08T09:15:29Z</time>
      </trkpt>
      <trkpt lat="48.42885" lon="2.68675">
        <ele>125</ele>
        <time>2017-01-08T09:15:30Z</time>
      </trkpt>
      <trkpt lat="48.42884" lon="2.68674">
        <ele>125.4</ele>
        <time>2017-01-08T09:15:31Z</time>
      </trkpt>
      <trkpt lat="48.42883" lon="2.68674">
        <ele>125.8</ele>
        <time>2017-01-08T09:15:32Z</time>
      </trkpt>
      <trkpt lat="48.4288" lon="2.68671">
        <ele>125.8</ele>
        <time>2017-01-08T09:15:36Z</time>
      </trkpt>
      <trkpt lat="48.42879" lon="2.6867">
        <ele>125.8</ele>
        <time>2017-01-08T09:15:37Z</time>
      </trkpt>
      <trkpt lat="48.42877" lon="2.68666">
        <ele>126.2</ele>
        <time>2017-01-08T09:15:40Z</time>
      </trkpt>
      <trkpt lat="48.42876" lon="2.68665">
        <ele>126.8</ele>
        <time>2017-01-08T09:15:41Z</time>
      </trkpt>
      <trkpt lat="48.42874" lon="2.68664">
        <ele>127.2</ele>
        <time>2017-01-08T09:15:42Z</time>
      </trkpt>
      <trkpt lat="48.42873" lon="2.68662">
        <ele>127.6</ele>
        <time>2017-01-08T09:15:43Z</time>
      </trkpt>
      <trkpt lat="48.42872" lon="2.68661">
        <ele>128</ele>
        <time>2017-01-08T09:15:44Z</time>
      </trkpt>
      <trkpt lat="48.42869" lon="2.68657">
        <ele>128.4</ele>
        <time>2017-01-08T09:15:47Z</time>
      </trkpt>
      <trkpt lat="48.42868" lon="2.68656">
        <ele>129</ele>
        <time>2017-01-08T09:15:48Z</time>
      </trkpt>
      <trkpt lat="48.42867" lon="2.68654">
        <ele>129.4</ele>
        <time>2017-01-08T09:15:49Z</time>
      </trkpt>
      <trkpt lat="48.42865" lon="2.68653">
        <ele>129.8</ele>
        <time>2017-01-08T09:15:50Z</time>
      </trkpt>
      <trkpt lat="48.42864" lon="2.68651">
        <ele>130.2</ele>
        <time>2017-01-08T09:15:51Z</time>
      </trkpt>
      <trkpt lat="48.42862" lon="2.68647">
        <ele>130.6</ele>
        <time>2017-01-08T09:15:53Z</time>
      </trkpt>
      <trkpt lat="48.42861" lon="2.68645">
        <ele>131</ele>
        <time>2017-01-08T09:15:54Z</time>
      </trkpt>
      <trkpt lat="48.4286" lon="2.68644">
        <ele>131.4</ele>
        <time>2017-01-08T09:15:55Z</time>
      </trkpt>
      <trkpt lat="48.42859" lon="2.68642">
        <ele>131.8</ele>
        <time>2017-01-08T09:15:56Z</time>
      </trkpt>
      <trkpt lat="48.42858" lon="2.68641">
        <ele>132.2</ele>
        <time>2017-01-08T09:15:57Z</time>
      </trkpt>
      <trkpt lat="48.42856" lon="2.68642">
        <ele>132.2</ele>
        <time>2017-01-08T09:15:59Z</time>
      </trkpt>
      <trkpt lat="48.42854" lon="2.68642">
        <ele>132.8</ele>
        <time>2017-01-08T09:16:00Z</time>
      </trkpt>
      <trkpt lat="48.42853" lon="2.68642">
        <ele>133.2</ele>
        <time>2017-01-08T09:16:01Z</time>
      </trkpt>
      <trkpt lat="48.42852" lon="2.68642">
        <ele>133.6</ele>
        <time>2017-01-08T09:16:02Z</time>
      </trkpt>
      <trkpt lat="48.42851" lon="2.68642">
        <ele>134</ele>
        <time>2017-01-08T09:16:03Z</time>
      </trkpt>
      <trkpt lat="48.4285" lon="2.68643">
        <ele>134.4</ele>
        <time>2017-01-08T09:16:04Z</time>
      </trkpt>
      <trkpt lat="48.42846" lon="2.68644">
        <ele>134.8</ele>
        <time>2017-01-08T09:16:07Z</time>
      </trkpt>
      <trkpt lat="48.42845" lon="2.68645">
        <ele>135.2</ele>
        <time>2017-01-08T09:16:08Z</time>
      </trkpt>
      <trkpt lat="48.42844" lon="2.68645">
        <ele>135.6</ele>
        <time>2017-01-08T09:16:09Z</time>
      </trkpt>
      <trkpt lat="48.42843" lon="2.68645">
        <ele>136</ele>
        <time>2017-01-08T09:16:10Z</time>
      </trkpt>
      <trkpt lat="48.42842" lon="2.68645">
        <ele>136.4</ele>
        <time>2017-01-08T09:16:11Z</time>
      </trkpt>
      <trkpt lat="48.4284" lon="2.68645">
        <ele>136.4</ele>
        <time>2017-01-08T09:16:13Z</time>
      </trkpt>
      <trkpt lat="48.42839" lon="2.68645">
        <ele>136.8</ele>
        <time>2017-01-08T09:16:14Z</time>
      </trkpt>
      <trkpt lat="48.42838" lon="2.68645">
        <ele>137.4</ele>
        <time>2017-01-08T09:16:15Z</time>
      </trkpt>
      <trkpt lat="48.42838" lon="2.68645">
        <ele>137.8</ele>
        <time>2017-01-08T09:16:16Z</time>
      </trkpt>
      <trkpt lat="48.42837" lon="2.68645">
        <ele>138.6</ele>
        <time>2017-01-08T09:16:17Z</time>
      </trkpt>
      <trkpt lat="48.42836" lon="2.68644">
        <ele>138.6</ele>
        <time>2017-01-08T09:16:18Z</time>
      </trkpt>
      <trkpt lat="48.42833" lon="2.68641">
        <ele>138.6</ele>
        <time>2017-01-08T09:16:21Z</time>
      </trkpt>
      <trkpt lat="48.42828" lon="2.68638">
        <ele>139</ele>
        <time>2017-01-08T09:16:24Z</time>
      </trkpt>
      <trkpt lat="48.42827" lon="2.68637">
        <ele>139.6</ele>
        <time>2017-01-08T09:16:25Z</time>
      </trkpt>
      <trkpt lat="48.42825" lon="2.68635">
        <ele>140</ele>
        <time>2017-01-08T09:16:26Z</time>
      </trkpt>
      <trkpt lat="48.42824" lon="2.68634">
        <ele>140.4</ele>
        <time>2017-01-08T09:16:27Z</time>
      </trkpt>
      <trkpt lat="48.42823" lon="2.68632">
        <ele>140.8</ele>
        <time>2017-01-08T09:16:28Z</time>
      </trkpt>
      <trkpt lat="48.42822" lon="2.68629">
        <ele>140.8</ele>
        <time>2017-01-08T09:16:30Z</time>
      </trkpt>
      <trkpt lat="48.4282" lon="2.68628">
        <ele>140.8</ele>
        <time>2017-01-08T09:16:32Z</time>
      </trkpt>
      <trkpt lat="48.42812" lon="2.68633">
        <ele>143</ele>
        <time>2017-01-08T09:17:29Z</time>
      </trkpt>
      <trkpt lat="48.42809" lon="2.68632">
        <ele>143</ele>
        <time>2017-01-08T09:17:32Z</time>
      </trkpt>
      <trkpt lat="48.42803" lon="2.68631">
        <ele>143</ele>
        <time>2017-01-08T09:17:37Z</time>
      </trkpt>
      <trkpt lat="48.42797" lon="2.68632">
        <ele>143</ele>
        <time>2017-01-08T09:17:43Z</time>
      </trkpt>
      <trkpt lat="48.42791" lon="2.68632">
        <ele>143</ele>
        <time>2017-01-08T09:17:48Z</time>
      </trkpt>
      <trkpt lat="48.4279" lon="2.68632">
        <ele>143.4</ele>
        <time>2017-01-08T09:17:49Z</time>
      </trkpt>
      <trkpt lat="48.42788" lon="2.68632">
        <ele>143.8</ele>
        <time>2017-01-08T09:17:50Z</time>
      </trkpt>
      <trkpt lat="48.42787" lon="2.68633">
        <ele>144.2</ele>
        <time>2017-01-08T09:17:51Z</time>
      </trkpt>
      <trkpt lat="48.42786" lon="2.68633">
        <ele>144.6</ele>
        <time>2017-01-08T09:17:52Z</time>
      </trkpt>
      <trkpt lat="48.42784" lon="2.68632">
        <ele>145</ele>
        <time>2017-01-08T09:17:53Z</time>
      </trkpt>
      <trkpt lat="48.42783" lon="2.68632">
        <ele>145</ele>
        <time>2017-01-08T09:17:54Z</time>
      </trkpt>
      <trkpt lat="48.42779" lon="2.68631">
        <ele>145</ele>
        <time>2017-01-08T09:17:57Z</time>
      </trkpt>
      <trkpt lat="48.42777" lon="2.68631">
        <ele>145</ele>
        <time>2017-01-08T09:17:59Z</time>
      </trkpt>
      <trkpt lat="48.42774" lon="2.68631">
        <ele>145</ele>
        <time>2017-01-08T09:18:01Z</time>
      </trkpt>
      <trkpt lat="48.4277" lon="2.6863">
        <ele>145.4</ele>
        <time>2017-01-08T09:18:04Z</time>
      </trkpt>
      <trkpt lat="48.42768" lon="2.68629">
        <ele>145.8</ele>
        <time>2017-01-08T09:18:05Z</time>
      </trkpt>
      <trkpt lat="48.42766" lon="2.68629">
        <ele>146.2</ele>
        <time>2017-01-08T09:18:06Z</time>
      </trkpt>
      <trkpt lat="48.42764" lon="2.68629">
        <ele>146.6</ele>
        <time>2017-01-08T09:18:07Z</time>
      </trkpt>
      <trkpt lat="48.42763" lon="2.68628">
        <ele>147</ele>
        <time>2017-01-08T09:18:08Z</time>
      </trkpt>
      <trkpt lat="48.42761" lon="2.68628">
        <ele>147</ele>
        <time>2017-01-08T09:18:09Z</time>
      </trkpt>
      <trkpt lat="48.42754" lon="2.68627">
        <ele>147</ele>
        <time>2017-01-08T09:18:14Z</time>
      </trkpt>
      <trkpt lat="48.42751" lon="2.68625">
        <ele>147</ele>
        <time>2017-01-08T09:18:16Z</time>
      </trkpt>
      <trkpt lat="48.42742" lon="2.6862">
        <ele>147</ele>
        <time>2017-01-08T09:18:22Z</time>
      </trkpt>
      <trkpt lat="48.42732" lon="2.68617">
        <ele>147</ele>
        <time>2017-01-08T09:18:26Z</time>
      </trkpt>
      <trkpt lat="48.42719" lon="2.68613">
        <ele>147</ele>
        <time>2017-01-08T09:18:32Z</time>
      </trkpt>
      <trkpt lat="48.42708" lon="2.6861">
        <ele>147</ele>
        <time>2017-01-08T09:18:38Z</time>
      </trkpt>
      <trkpt lat="48.42696" lon="2.68607">
        <ele>147</ele>
        <time>2017-01-08T09:18:44Z</time>
      </trkpt>
      <trkpt lat="48.42684" lon="2.68602">
        <ele>147</ele>
        <time>2017-01-08T09:18:50Z</time>
      </trkpt>
      <trkpt lat="48.42667" lon="2.68596">
        <ele>147</ele>
        <time>2017-01-08T09:18:56Z</time>
      </trkpt>
      <trkpt lat="48.4265" lon="2.68591">
        <ele>147</ele>
        <time>2017-01-08T09:19:03Z</time>
      </trkpt>
      <trkpt lat="48.42637" lon="2.68587">
        <ele>147</ele>
        <time>2017-01-08T09:19:09Z</time>
      </trkpt>
      <trkpt lat="48.42615" lon="2.68578">
        <ele>147</ele>
        <time>2017-01-08T09:19:17Z</time>
      </trkpt>
      <trkpt lat="48.42597" lon="2.68573">
        <ele>147</ele>
        <time>2017-01-08T09:19:22Z</time>
      </trkpt>
      <trkpt lat="48.42577" lon="2.68567">
        <ele>147</ele>
        <time>2017-01-08T09:19:28Z</time>
      </trkpt>
      <trkpt lat="48.42575" lon="2.68568">
        <ele>147</ele>
        <time>2017-01-08T09:19:29Z</time>
      </trkpt>
      <trkpt lat="48.42573" lon="2.68574">
        <ele>147</ele>
        <time>2017-01-08T09:19:31Z</time>
      </trkpt>
      <trkpt lat="48.42569" lon="2.68589">
        <ele>147</ele>
        <time>2017-01-08T09:19:36Z</time>
      </trkpt>
      <trkpt lat="48.42564" lon="2.68615">
        <ele>147</ele>
        <time>2017-01-08T09:19:43Z</time>
      </trkpt>
      <trkpt lat="48.42564" lon="2.68641">
        <ele>147</ele>
        <time>2017-01-08T09:19:49Z</time>
      </trkpt>
      <trkpt lat="48.42562" lon="2.6867">
        <ele>147</ele>
        <time>2017-01-08T09:19:55Z</time>
      </trkpt>
      <trkpt lat="48.42562" lon="2.68705">
        <ele>147</ele>
        <time>2017-01-08T09:20:01Z</time>
      </trkpt>
      <trkpt lat="48.42561" lon="2.68744">
        <ele>147</ele>
        <time>2017-01-08T09:20:08Z</time>
      </trkpt>
      <trkpt lat="48.42559" lon="2.68779">
        <ele>147</ele>
        <time>2017-01-08T09:20:15Z</time>
      </trkpt>
      <trkpt lat="48.42557" lon="2.68821">
        <ele>147</ele>
        <time>2017-01-08T09:20:23Z</time>
      </trkpt>
      <trkpt lat="48.42558" lon="2.68841">
        <ele>147</ele>
        <time>2017-01-08T09:20:27Z</time>
      </trkpt>
      <trkpt lat="48.42556" lon="2.68878">
        <ele>147</ele>
        <time>2017-01-08T09:20:33Z</time>
      </trkpt>
      <trkpt lat="48.42556" lon="2.68895">
        <ele>147.4</ele>
        <time>2017-01-08T09:20:36Z</time>
      </trkpt>
      <trkpt lat="48.42556" lon="2.68901">
        <ele>147.8</ele>
        <time>2017-01-08T09:20:37Z</time>
      </trkpt>
      <trkpt lat="48.42556" lon="2.68906">
        <ele>148.2</ele>
        <time>2017-01-08T09:20:38Z</time>
      </trkpt>
      <trkpt lat="48.42556" lon="2.68912">
        <ele>148.8</ele>
        <time>2017-01-08T09:20:39Z</time>
      </trkpt>
      <trkpt lat="48.42556" lon="2.68918">
        <ele>149.2</ele>
        <time>2017-01-08T09:20:40Z</time>
      </trkpt>
      <trkpt lat="48.42554" lon="2.68946">
        <ele>149.2</ele>
        <time>2017-01-08T09:20:45Z</time>
      </trkpt>
      <trkpt lat="48.42551" lon="2.68998">
        <ele>149.2</ele>
        <time>2017-01-08T09:20:53Z</time>
      </trkpt>
      <trkpt lat="48.42552" lon="2.69037">
        <ele>149.2</ele>
        <time>2017-01-08T09:20:59Z</time>
      </trkpt>
      <trkpt lat="48.42549" lon="2.69084">
        <ele>149.2</ele>
        <time>2017-01-08T09:21:06Z</time>
      </trkpt>
      <trkpt lat="48.42547" lon="2.69137">
        <ele>149.2</ele>
        <time>2017-01-08T09:21:14Z</time>
      </trkpt>
      <trkpt lat="48.42543" lon="2.69181">
        <ele>149.2</ele>
        <time>2017-01-08T09:21:21Z</time>
      </trkpt>
      <trkpt lat="48.42542" lon="2.69193">
        <ele>149.2</ele>
        <time>2017-01-08T09:21:23Z</time>
      </trkpt>
      <trkpt lat="48.42541" lon="2.69213">
        <ele>149.2</ele>
        <time>2017-01-08T09:21:26Z</time>
      </trkpt>
      <trkpt lat="48.42538" lon="2.69257">
        <ele>149.2</ele>
        <time>2017-01-08T09:21:33Z</time>
      </trkpt>
      <trkpt lat="48.42536" lon="2.69287">
        <ele>149.2</ele>
        <time>2017-01-08T09:21:38Z</time>
      </trkpt>
      <trkpt lat="48.42536" lon="2.6932">
        <ele>149.2</ele>
        <time>2017-01-08T09:21:43Z</time>
      </trkpt>
      <trkpt lat="48.42534" lon="2.69361">
        <ele>149.2</ele>
        <time>2017-01-08T09:21:49Z</time>
      </trkpt>
      <trkpt lat="48.42529" lon="2.69393">
        <ele>149.2</ele>
        <time>2017-01-08T09:21:55Z</time>
      </trkpt>
      <trkpt lat="48.42513" lon="2.69402">
        <ele>149.2</ele>
        <time>2017-01-08T09:21:59Z</time>
      </trkpt>
      <trkpt lat="48.42497" lon="2.69407">
        <ele>149.2</ele>
        <time>2017-01-08T09:22:03Z</time>
      </trkpt>
      <trkpt lat="48.42484" lon="2.69411">
        <ele>149.2</ele>
        <time>2017-01-08T09:22:06Z</time>
      </trkpt>
      <trkpt lat="48.42476" lon="2.69413">
        <ele>149.2</ele>
        <time>2017-01-08T09:22:08Z</time>
      </trkpt>
      <trkpt lat="48.42469" lon="2.69409">
        <ele>149.2</ele>
        <time>2017-01-08T09:22:10Z</time>
      </trkpt>
      <trkpt lat="48.42446" lon="2.69396">
        <ele>149.2</ele>
        <time>2017-01-08T09:22:16Z</time>
      </trkpt>
      <trkpt lat="48.42428" lon="2.69388">
        <ele>149.2</ele>
        <time>2017-01-08T09:22:21Z</time>
      </trkpt>
      <trkpt lat="48.42409" lon="2.69375">
        <ele>149.2</ele>
        <time>2017-01-08T09:22:27Z</time>
      </trkpt>
      <trkpt lat="48.4239" lon="2.69363">
        <ele>149.2</ele>
        <time>2017-01-08T09:22:32Z</time>
      </trkpt>
      <trkpt lat="48.42369" lon="2.69348">
        <ele>149.2</ele>
        <time>2017-01-08T09:22:38Z</time>
      </trkpt>
      <trkpt lat="48.42347" lon="2.69333">
        <ele>149.2</ele>
        <time>2017-01-08T09:22:44Z</time>
      </trkpt>
      <trkpt lat="48.42327" lon="2.69317">
        <ele>149.2</ele>
        <time>2017-01-08T09:22:50Z</time>
      </trkpt>
      <trkpt lat="48.42315" lon="2.69311">
        <ele>149.2</ele>
        <time>2017-01-08T09:22:54Z</time>
      </trkpt>
      <trkpt lat="48.42313" lon="2.69312">
        <ele>148.8</ele>
        <time>2017-01-08T09:22:55Z</time>
      </trkpt>
      <trkpt lat="48.42311" lon="2.69314">
        <ele>148.4</ele>
        <time>2017-01-08T09:22:56Z</time>
      </trkpt>
      <trkpt lat="48.42309" lon="2.69316">
        <ele>148</ele>
        <time>2017-01-08T09:22:57Z</time>
      </trkpt>
      <trkpt lat="48.42308" lon="2.69318">
        <ele>147.6</ele>
        <time>2017-01-08T09:22:58Z</time>
      </trkpt>
      <trkpt lat="48.42307" lon="2.69321">
        <ele>147.2</ele>
        <time>2017-01-08T09:22:59Z</time>
      </trkpt>
      <trkpt lat="48.42301" lon="2.69328">
        <ele>147.2</ele>
        <time>2017-01-08T09:23:01Z</time>
      </trkpt>
      <trkpt lat="48.42297" lon="2.69331">
        <ele>147.2</ele>
        <time>2017-01-08T09:23:02Z</time>
      </trkpt>
      <trkpt lat="48.42284" lon="2.6935">
        <ele>147.2</ele>
        <time>2017-01-08T09:23:07Z</time>
      </trkpt>
      <trkpt lat="48.42281" lon="2.69361">
        <ele>147.2</ele>
        <time>2017-01-08T09:23:09Z</time>
      </trkpt>
      <trkpt lat="48.42284" lon="2.69371">
        <ele>147.2</ele>
        <time>2017-01-08T09:23:11Z</time>
      </trkpt>
      <trkpt lat="48.42286" lon="2.69375">
        <ele>147.2</ele>
        <time>2017-01-08T09:23:13Z</time>
      </trkpt>
      <trkpt lat="48.42286" lon="2.69377">
        <ele>147.2</ele>
        <time>2017-01-08T09:23:14Z</time>
      </trkpt>
      <trkpt lat="48.42286" lon="2.6938">
        <ele>147.2</ele>
        <time>2017-01-08T09:23:16Z</time>
      </trkpt>
      <trkpt lat="48.42291" lon="2.69386">
        <ele>147.2</ele>
        <time>2017-01-08T09:23:19Z</time>
      </trkpt>
      <trkpt lat="48.42293" lon="2.69386">
        <ele>146.8</ele>
        <time>2017-01-08T09:23:20Z</time>
      </trkpt>
      <trkpt lat="48.42295" lon="2.69386">
        <ele>146.4</ele>
        <time>2017-01-08T09:23:21Z</time>
      </trkpt>
      <trkpt lat="48.42297" lon="2.69387">
        <ele>146</ele>
        <time>2017-01-08T09:23:22Z</time>
      </trkpt>
      <trkpt lat="48.423" lon="2.69388">
        <ele>145.4</ele>
        <time>2017-01-08T09:23:23Z</time>
      </trkpt>
      <trkpt lat="48.42301" lon="2.6939">
        <ele>145</ele>
        <time>2017-01-08T09:23:24Z</time>
      </trkpt>
      <trkpt lat="48.42302" lon="2.69402">
        <ele>145</ele>
        <time>2017-01-08T09:23:28Z</time>
      </trkpt>
      <trkpt lat="48.42302" lon="2.69406">
        <ele>145</ele>
        <time>2017-01-08T09:23:29Z</time>
      </trkpt>
      <trkpt lat="48.42299" lon="2.69424">
        <ele>145</ele>
        <time>2017-01-08T09:23:34Z</time>
      </trkpt>
      <trkpt lat="48.42299" lon="2.69428">
        <ele>144.6</ele>
        <time>2017-01-08T09:23:35Z</time>
      </trkpt>
      <trkpt lat="48.42299" lon="2.69432">
        <ele>144.2</ele>
        <time>2017-01-08T09:23:36Z</time>
      </trkpt>
      <trkpt lat="48.42298" lon="2.69436">
        <ele>143.8</ele>
        <time>2017-01-08T09:23:37Z</time>
      </trkpt>
      <trkpt lat="48.42297" lon="2.6944">
        <ele>143.4</ele>
        <time>2017-01-08T09:23:38Z</time>
      </trkpt>
      <trkpt lat="48.42297" lon="2.69444">
        <ele>143</ele>
        <time>2017-01-08T09:23:39Z</time>
      </trkpt>
      <trkpt lat="48.42293" lon="2.69467">
        <ele>143</ele>
        <time>2017-01-08T09:23:45Z</time>
      </trkpt>
      <trkpt lat="48.42282" lon="2.69481">
        <ele>143</ele>
        <time>2017-01-08T09:23:51Z</time>
      </trkpt>
      <trkpt lat="48.42281" lon="2.69481">
        <ele>142.6</ele>
        <time>2017-01-08T09:23:52Z</time>
      </trkpt>
      <trkpt lat="48.42279" lon="2.69483">
        <ele>142.2</ele>
        <time>2017-01-08T09:23:53Z</time>
      </trkpt>
      <trkpt lat="48.42278" lon="2.69483">
        <ele>141.8</ele>
        <time>2017-01-08T09:23:54Z</time>
      </trkpt>
      <trkpt lat="48.42278" lon="2.69484">
        <ele>141.4</ele>
        <time>2017-01-08T09:23:55Z</time>
      </trkpt>
      <trkpt lat="48.42277" lon="2.69485">
        <ele>141</ele>
        <time>2017-01-08T09:23:56Z</time>
      </trkpt>
      <trkpt lat="48.42275" lon="2.69482">
        <ele>141</ele>
        <time>2017-01-08T09:23:58Z</time>
      </trkpt>
      <trkpt lat="48.42272" lon="2.69476">
        <ele>140.6</ele>
        <time>2017-01-08T09:24:01Z</time>
      </trkpt>
      <trkpt lat="48.42271" lon="2.69474">
        <ele>140.2</ele>
        <time>2017-01-08T09:24:02Z</time>
      </trkpt>
      <trkpt lat="48.42271" lon="2.69472">
        <ele>139.8</ele>
        <time>2017-01-08T09:24:03Z</time>
      </trkpt>
      <trkpt lat="48.4227" lon="2.6947">
        <ele>138.8</ele>
        <time>2017-01-08T09:24:04Z</time>
      </trkpt>
      <trkpt lat="48.4227" lon="2.69466">
        <ele>138.8</ele>
        <time>2017-01-08T09:24:07Z</time>
      </trkpt>
      <trkpt lat="48.42272" lon="2.69464">
        <ele>138.8</ele>
        <time>2017-01-08T09:24:15Z</time>
      </trkpt>
      <trkpt lat="48.42274" lon="2.69462">
        <ele>138.8</ele>
        <time>2017-01-08T09:24:16Z</time>
      </trkpt>
      <trkpt lat="48.4228" lon="2.69451">
        <ele>138.8</ele>
        <time>2017-01-08T09:24:20Z</time>
      </trkpt>
      <trkpt lat="48.42286" lon="2.69439">
        <ele>138.8</ele>
        <time>2017-01-08T09:24:24Z</time>
      </trkpt>
      <trkpt lat="48.42291" lon="2.69437">
        <ele>138.8</ele>
        <time>2017-01-08T09:24:27Z</time>
      </trkpt>
      <trkpt lat="48.42293" lon="2.69437">
        <ele>138.8</ele>
        <time>2017-01-08T09:24:32Z</time>
      </trkpt>
      <trkpt lat="48.42287" lon="2.69431">
        <ele>138.8</ele>
        <time>2017-01-08T09:25:12Z</time>
      </trkpt>
      <trkpt lat="48.42281" lon="2.69426">
        <ele>138.8</ele>
        <time>2017-01-08T09:25:15Z</time>
      </trkpt>
      <trkpt lat="48.42279" lon="2.69424">
        <ele>138.4</ele>
        <time>2017-01-08T09:25:16Z</time>
      </trkpt>
      <trkpt lat="48.42277" lon="2.69422">
        <ele>137.4</ele>
        <time>2017-01-08T09:25:17Z</time>
      </trkpt>
      <trkpt lat="48.42274" lon="2.69421">
        <ele>137</ele>
        <time>2017-01-08T09:25:18Z</time>
      </trkpt>
      <trkpt lat="48.42272" lon="2.69419">
        <ele>136.6</ele>
        <time>2017-01-08T09:25:19Z</time>
      </trkpt>
      <trkpt lat="48.42269" lon="2.69417">
        <ele>136.6</ele>
        <time>2017-01-08T09:25:20Z</time>
      </trkpt>
      <trkpt lat="48.42266" lon="2.69412">
        <ele>136.6</ele>
        <time>2017-01-08T09:25:22Z</time>
      </trkpt>
      <trkpt lat="48.42265" lon="2.69405">
        <ele>136.6</ele>
        <time>2017-01-08T09:25:24Z</time>
      </trkpt>
      <trkpt lat="48.42264" lon="2.694">
        <ele>136.6</ele>
        <time>2017-01-08T09:25:26Z</time>
      </trkpt>
      <trkpt lat="48.42264" lon="2.69399">
        <ele>136.6</ele>
        <time>2017-01-08T09:25:27Z</time>
      </trkpt>
      <trkpt lat="48.42263" lon="2.69394">
        <ele>136.6</ele>
        <time>2017-01-08T09:25:29Z</time>
      </trkpt>
      <trkpt lat="48.4226" lon="2.69393">
        <ele>136.6</ele>
        <time>2017-01-08T09:25:31Z</time>
      </trkpt>
      <trkpt lat="48.42257" lon="2.69391">
        <ele>136.6</ele>
        <time>2017-01-08T09:25:33Z</time>
      </trkpt>
      <trkpt lat="48.42248" lon="2.69382">
        <ele>136.6</ele>
        <time>2017-01-08T09:25:37Z</time>
      </trkpt>
      <trkpt lat="48.42246" lon="2.69376">
        <ele>136.6</ele>
        <time>2017-01-08T09:25:39Z</time>
      </trkpt>
      <trkpt lat="48.42244" lon="2.6937">
        <ele>136.6</ele>
        <time>2017-01-08T09:25:41Z</time>
      </trkpt>
      <trkpt lat="48.42241" lon="2.69372">
        <ele>136</ele>
        <time>2017-01-08T09:25:43Z</time>
      </trkpt>
      <trkpt lat="48.4224" lon="2.69374">
        <ele>135.6</ele>
        <time>2017-01-08T09:25:44Z</time>
      </trkpt>
      <trkpt lat="48.42238" lon="2.69376">
        <ele>135.2</ele>
        <time>2017-01-08T09:25:45Z</time>
      </trkpt>
      <trkpt lat="48.42237" lon="2.69375">
        <ele>134.6</ele>
        <time>2017-01-08T09:25:46Z</time>
      </trkpt>
      <trkpt lat="48.42236" lon="2.69375">
        <ele>134.2</ele>
        <time>2017-01-08T09:25:47Z</time>
      </trkpt>
      <trkpt lat="48.42236" lon="2.69375">
        <ele>134.2</ele>
        <time>2017-01-08T09:25:48Z</time>
      </trkpt>
      <trkpt lat="48.42235" lon="2.6937">
        <ele>133.8</ele>
        <time>2017-01-08T09:25:50Z</time>
      </trkpt>
      <trkpt lat="48.42234" lon="2.69366">
        <ele>133.2</ele>
        <time>2017-01-08T09:25:51Z</time>
      </trkpt>
      <trkpt lat="48.42235" lon="2.69363">
        <ele>132.8</ele>
        <time>2017-01-08T09:25:52Z</time>
      </trkpt>
      <trkpt lat="48.42234" lon="2.69359">
        <ele>132.4</ele>
        <time>2017-01-08T09:25:53Z</time>
      </trkpt>
      <trkpt lat="48.42234" lon="2.69355">
        <ele>132</ele>
        <time>2017-01-08T09:25:54Z</time>
      </trkpt>
      <trkpt lat="48.42233" lon="2.69351">
        <ele>131.4</ele>
        <time>2017-01-08T09:25:55Z</time>
      </trkpt>
      <trkpt lat="48.42232" lon="2.69348">
        <ele>130.8</ele>
        <time>2017-01-08T09:25:56Z</time>
      </trkpt>
      <trkpt lat="48.42231" lon="2.69345">
        <ele>130.4</ele>
        <time>2017-01-08T09:25:57Z</time>
      </trkpt>
      <trkpt lat="48.42229" lon="2.6934">
        <ele>129.8</ele>
        <time>2017-01-08T09:25:58Z</time>
      </trkpt>
      <trkpt lat="48.42227" lon="2.69336">
        <ele>129.2</ele>
        <time>2017-01-08T09:25:59Z</time>
      </trkpt>
      <trkpt lat="48.42224" lon="2.69334">
        <ele>128.8</ele>
        <time>2017-01-08T09:26:00Z</time>
      </trkpt>
      <trkpt lat="48.42221" lon="2.69334">
        <ele>128.2</ele>
        <time>2017-01-08T09:26:01Z</time>
      </trkpt>
      <trkpt lat="48.42219" lon="2.69333">
        <ele>127.8</ele>
        <time>2017-01-08T09:26:02Z</time>
      </trkpt>
      <trkpt lat="48.42216" lon="2.69334">
        <ele>127.4</ele>
        <time>2017-01-08T09:26:03Z</time>
      </trkpt>
      <trkpt lat="48.42215" lon="2.69334">
        <ele>126.8</ele>
        <time>2017-01-08T09:26:04Z</time>
      </trkpt>
      <trkpt lat="48.42214" lon="2.69335">
        <ele>126.8</ele>
        <time>2017-01-08T09:26:05Z</time>
      </trkpt>
      <trkpt lat="48.42211" lon="2.69337">
        <ele>126.4</ele>
        <time>2017-01-08T09:26:08Z</time>
      </trkpt>
      <trkpt lat="48.42209" lon="2.69337">
        <ele>126</ele>
        <time>2017-01-08T09:26:09Z</time>
      </trkpt>
      <trkpt lat="48.42208" lon="2.69338">
        <ele>125.6</ele>
        <time>2017-01-08T09:26:10Z</time>
      </trkpt>
      <trkpt lat="48.42206" lon="2.69339">
        <ele>125.2</ele>
        <time>2017-01-08T09:26:11Z</time>
      </trkpt>
      <trkpt lat="48.42204" lon="2.69339">
        <ele>124.8</ele>
        <time>2017-01-08T09:26:12Z</time>
      </trkpt>
      <trkpt lat="48.42197" lon="2.69346">
        <ele>124.8</ele>
        <time>2017-01-08T09:26:16Z</time>
      </trkpt>
      <trkpt lat="48.42194" lon="2.69348">
        <ele>124.4</ele>
        <time>2017-01-08T09:26:17Z</time>
      </trkpt>
      <trkpt lat="48.42191" lon="2.69349">
        <ele>124</ele>
        <time>2017-01-08T09:26:18Z</time>
      </trkpt>
      <trkpt lat="48.42188" lon="2.69351">
        <ele>123.6</ele>
        <time>2017-01-08T09:26:19Z</time>
      </trkpt>
      <trkpt lat="48.42183" lon="2.69353">
        <ele>123.2</ele>
        <time>2017-01-08T09:26:20Z</time>
      </trkpt>
      <trkpt lat="48.42179" lon="2.69353">
        <ele>122.6</ele>
        <time>2017-01-08T09:26:21Z</time>
      </trkpt>
      <trkpt lat="48.42165" lon="2.69352">
        <ele>122.6</ele>
        <time>2017-01-08T09:26:25Z</time>
      </trkpt>
      <trkpt lat="48.42158" lon="2.69349">
        <ele>122.2</ele>
        <time>2017-01-08T09:26:28Z</time>
      </trkpt>
      <trkpt lat="48.42155" lon="2.69348">
        <ele>121.8</ele>
        <time>2017-01-08T09:26:29Z</time>
      </trkpt>
      <trkpt lat="48.42153" lon="2.69345">
        <ele>121.4</ele>
        <time>2017-01-08T09:26:30Z</time>
      </trkpt>
      <trkpt lat="48.42152" lon="2.69342">
        <ele>120.6</ele>
        <time>2017-01-08T09:26:31Z</time>
      </trkpt>
      <trkpt lat="48.42147" lon="2.69327">
        <ele>120.2</ele>
        <time>2017-01-08T09:26:35Z</time>
      </trkpt>
      <trkpt lat="48.42146" lon="2.69322">
        <ele>119.8</ele>
        <time>2017-01-08T09:26:36Z</time>
      </trkpt>
      <trkpt lat="48.42144" lon="2.69317">
        <ele>119.4</ele>
        <time>2017-01-08T09:26:37Z</time>
      </trkpt>
      <trkpt lat="48.42141" lon="2.69313">
        <ele>119</ele>
        <time>2017-01-08T09:26:38Z</time>
      </trkpt>
      <trkpt lat="48.42139" lon="2.69311">
        <ele>118.4</ele>
        <time>2017-01-08T09:26:39Z</time>
      </trkpt>
      <trkpt lat="48.42137" lon="2.69309">
        <ele>118</ele>
        <time>2017-01-08T09:26:40Z</time>
      </trkpt>
      <trkpt lat="48.42136" lon="2.69308">
        <ele>117.4</ele>
        <time>2017-01-08T09:26:41Z</time>
      </trkpt>
      <trkpt lat="48.42135" lon="2.69309">
        <ele>116.8</ele>
        <time>2017-01-08T09:26:42Z</time>
      </trkpt>
      <trkpt lat="48.42133" lon="2.69309">
        <ele>116.4</ele>
        <time>2017-01-08T09:26:43Z</time>
      </trkpt>
      <trkpt lat="48.42128" lon="2.6931">
        <ele>116</ele>
        <time>2017-01-08T09:26:45Z</time>
      </trkpt>
      <trkpt lat="48.42125" lon="2.69309">
        <ele>115.6</ele>
        <time>2017-01-08T09:26:46Z</time>
      </trkpt>
      <trkpt lat="48.42123" lon="2.69309">
        <ele>115.2</ele>
        <time>2017-01-08T09:26:47Z</time>
      </trkpt>
      <trkpt lat="48.42121" lon="2.69307">
        <ele>114.8</ele>
        <time>2017-01-08T09:26:48Z</time>
      </trkpt>
      <trkpt lat="48.42119" lon="2.69305">
        <ele>114.4</ele>
        <time>2017-01-08T09:26:49Z</time>
      </trkpt>
      <trkpt lat="48.42117" lon="2.69303">
        <ele>114.4</ele>
        <time>2017-01-08T09:26:50Z</time>
      </trkpt>
      <trkpt lat="48.42113" lon="2.693">
        <ele>114.4</ele>
        <time>2017-01-08T09:26:52Z</time>
      </trkpt>
      <trkpt lat="48.42111" lon="2.69299">
        <ele>114</ele>
        <time>2017-01-08T09:26:53Z</time>
      </trkpt>
      <trkpt lat="48.4211" lon="2.69298">
        <ele>113.4</ele>
        <time>2017-01-08T09:26:54Z</time>
      </trkpt>
      <trkpt lat="48.42107" lon="2.69297">
        <ele>113</ele>
        <time>2017-01-08T09:26:55Z</time>
      </trkpt>
      <trkpt lat="48.42106" lon="2.69296">
        <ele>112.2</ele>
        <time>2017-01-08T09:26:56Z</time>
      </trkpt>
      <trkpt lat="48.42104" lon="2.69295">
        <ele>112.2</ele>
        <time>2017-01-08T09:26:57Z</time>
      </trkpt>
      <trkpt lat="48.42104" lon="2.69293">
        <ele>112.2</ele>
        <time>2017-01-08T09:26:59Z</time>
      </trkpt>
      <trkpt lat="48.42102" lon="2.69286">
        <ele>111.8</ele>
        <time>2017-01-08T09:27:04Z</time>
      </trkpt>
      <trkpt lat="48.42101" lon="2.69286">
        <ele>111.4</ele>
        <time>2017-01-08T09:27:05Z</time>
      </trkpt>
      <trkpt lat="48.421" lon="2.69286">
        <ele>111</ele>
        <time>2017-01-08T09:27:06Z</time>
      </trkpt>
      <trkpt lat="48.42098" lon="2.69287">
        <ele>110.6</ele>
        <time>2017-01-08T09:27:07Z</time>
      </trkpt>
      <trkpt lat="48.42098" lon="2.69289">
        <ele>110</ele>
        <time>2017-01-08T09:27:08Z</time>
      </trkpt>
      <trkpt lat="48.42099" lon="2.69291">
        <ele>110</ele>
        <time>2017-01-08T09:27:10Z</time>
      </trkpt>
      <trkpt lat="48.421" lon="2.69293">
        <ele>110</ele>
        <time>2017-01-08T09:27:12Z</time>
      </trkpt>
      <trkpt lat="48.421" lon="2.69295">
        <ele>110</ele>
        <time>2017-01-08T09:27:14Z</time>
      </trkpt>
      <trkpt lat="48.4208" lon="2.69316">
        <ele>109.2</ele>
        <time>2017-01-08T09:27:36Z</time>
      </trkpt>
      <trkpt lat="48.42079" lon="2.69314">
        <ele>108.8</ele>
        <time>2017-01-08T09:27:37Z</time>
      </trkpt>
      <trkpt lat="48.42078" lon="2.69313">
        <ele>108.4</ele>
        <time>2017-01-08T09:27:38Z</time>
      </trkpt>
      <trkpt lat="48.42075" lon="2.69312">
        <ele>108</ele>
        <time>2017-01-08T09:27:39Z</time>
      </trkpt>
      <trkpt lat="48.42074" lon="2.69312">
        <ele>107.4</ele>
        <time>2017-01-08T09:27:41Z</time>
      </trkpt>
      <trkpt lat="48.42074" lon="2.69313">
        <ele>107</ele>
        <time>2017-01-08T09:27:42Z</time>
      </trkpt>
      <trkpt lat="48.42074" lon="2.69313">
        <ele>106.6</ele>
        <time>2017-01-08T09:27:43Z</time>
      </trkpt>
      <trkpt lat="48.42074" lon="2.69315">
        <ele>106.2</ele>
        <time>2017-01-08T09:27:44Z</time>
      </trkpt>
      <trkpt lat="48.42074" lon="2.69316">
        <ele>105.6</ele>
        <time>2017-01-08T09:27:45Z</time>
      </trkpt>
      <trkpt lat="48.42074" lon="2.69321">
        <ele>105.6</ele>
        <time>2017-01-08T09:27:48Z</time>
      </trkpt>
      <trkpt lat="48.42072" lon="2.69325">
        <ele>105.2</ele>
        <time>2017-01-08T09:27:50Z</time>
      </trkpt>
      <trkpt lat="48.42071" lon="2.69327">
        <ele>104.8</ele>
        <time>2017-01-08T09:27:51Z</time>
      </trkpt>
      <trkpt lat="48.42069" lon="2.69329">
        <ele>104.4</ele>
        <time>2017-01-08T09:27:52Z</time>
      </trkpt>
      <trkpt lat="48.42069" lon="2.69332">
        <ele>103.8</ele>
        <time>2017-01-08T09:27:53Z</time>
      </trkpt>
      <trkpt lat="48.4207" lon="2.69335">
        <ele>103.4</ele>
        <time>2017-01-08T09:27:54Z</time>
      </trkpt>
      <trkpt lat="48.42071" lon="2.69344">
        <ele>103.4</ele>
        <time>2017-01-08T09:27:59Z</time>
      </trkpt>
      <trkpt lat="48.42073" lon="2.69354">
        <ele>103.4</ele>
        <time>2017-01-08T09:28:05Z</time>
      </trkpt>
      <trkpt lat="48.42074" lon="2.69359">
        <ele>103.4</ele>
        <time>2017-01-08T09:28:08Z</time>
      </trkpt>
      <trkpt lat="48.42075" lon="2.69363">
        <ele>103.4</ele>
        <time>2017-01-08T09:28:10Z</time>
      </trkpt>
      <trkpt lat="48.4208" lon="2.69374">
        <ele>103.4</ele>
        <time>2017-01-08T09:28:16Z</time>
      </trkpt>
      <trkpt lat="48.42083" lon="2.69387">
        <ele>103.4</ele>
        <time>2017-01-08T09:28:20Z</time>
      </trkpt>
      <trkpt lat="48.42084" lon="2.69389">
        <ele>103.4</ele>
        <time>2017-01-08T09:28:21Z</time>
      </trkpt>
      <trkpt lat="48.42084" lon="2.69391">
        <ele>103.4</ele>
        <time>2017-01-08T09:28:22Z</time>
      </trkpt>
      <trkpt lat="48.42086" lon="2.69393">
        <ele>103.4</ele>
        <time>2017-01-08T09:28:24Z</time>
      </trkpt>
      <trkpt lat="48.42087" lon="2.69396">
        <ele>103.4</ele>
        <time>2017-01-08T09:28:28Z</time>
      </trkpt>
      <trkpt lat="48.42088" lon="2.694">
        <ele>103.4</ele>
        <time>2017-01-08T09:28:45Z</time>
      </trkpt>
      <trkpt lat="48.42093" lon="2.6941">
        <ele>103.4</ele>
        <time>2017-01-08T09:28:50Z</time>
      </trkpt>
      <trkpt lat="48.42099" lon="2.69417">
        <ele>103.4</ele>
        <time>2017-01-08T09:28:56Z</time>
      </trkpt>
      <trkpt lat="48.42099" lon="2.6942">
        <ele>103.4</ele>
        <time>2017-01-08T09:28:58Z</time>
      </trkpt>
      <trkpt lat="48.42104" lon="2.69427">
        <ele>103.4</ele>
        <time>2017-01-08T09:29:02Z</time>
      </trkpt>
      <trkpt lat="48.4211" lon="2.69439">
        <ele>103.4</ele>
        <time>2017-01-08T09:29:08Z</time>
      </trkpt>
      <trkpt lat="48.42117" lon="2.6945">
        <ele>103.4</ele>
        <time>2017-01-08T09:29:14Z</time>
      </trkpt>
      <trkpt lat="48.42125" lon="2.69469">
        <ele>103.4</ele>
        <time>2017-01-08T09:29:20Z</time>
      </trkpt>
      <trkpt lat="48.42133" lon="2.6949">
        <ele>103.4</ele>
        <time>2017-01-08T09:29:26Z</time>
      </trkpt>
      <trkpt lat="48.4214" lon="2.69513">
        <ele>103.4</ele>
        <time>2017-01-08T09:29:33Z</time>
      </trkpt>
      <trkpt lat="48.42147" lon="2.69536">
        <ele>103.4</ele>
        <time>2017-01-08T09:29:39Z</time>
      </trkpt>
      <trkpt lat="48.42148" lon="2.69554">
        <ele>103.4</ele>
        <time>2017-01-08T09:29:44Z</time>
      </trkpt>
      <trkpt lat="48.42146" lon="2.69575">
        <ele>103.4</ele>
        <time>2017-01-08T09:29:49Z</time>
      </trkpt>
      <trkpt lat="48.42141" lon="2.6959">
        <ele>103.4</ele>
        <time>2017-01-08T09:29:54Z</time>
      </trkpt>
      <trkpt lat="48.42141" lon="2.69598">
        <ele>103.4</ele>
        <time>2017-01-08T09:29:58Z</time>
      </trkpt>
      <trkpt lat="48.42138" lon="2.69607">
        <ele>103.4</ele>
        <time>2017-01-08T09:37:09Z</time>
      </trkpt>
      <trkpt lat="48.42135" lon="2.69621">
        <ele>103.4</ele>
        <time>2017-01-08T09:37:14Z</time>
      </trkpt>
      <trkpt lat="48.42133" lon="2.69636">
        <ele>103.4</ele>
        <time>2017-01-08T09:37:19Z</time>
      </trkpt>
      <trkpt lat="48.42131" lon="2.69645">
        <ele>103.4</ele>
        <time>2017-01-08T09:37:22Z</time>
      </trkpt>
      <trkpt lat="48.42131" lon="2.6965">
        <ele>103.4</ele>
        <time>2017-01-08T09:37:24Z</time>
      </trkpt>
      <trkpt lat="48.42129" lon="2.69666">
        <ele>103.4</ele>
        <time>2017-01-08T09:37:31Z</time>
      </trkpt>
      <trkpt lat="48.42128" lon="2.69668">
        <ele>103.4</ele>
        <time>2017-01-08T09:37:32Z</time>
      </trkpt>
      <trkpt lat="48.42126" lon="2.6968">
        <ele>103.4</ele>
        <time>2017-01-08T09:37:37Z</time>
      </trkpt>
      <trkpt lat="48.42122" lon="2.69695">
        <ele>103.4</ele>
        <time>2017-01-08T09:37:44Z</time>
      </trkpt>
      <trkpt lat="48.42119" lon="2.69708">
        <ele>103.4</ele>
        <time>2017-01-08T09:37:49Z</time>
      </trkpt>
      <trkpt lat="48.42118" lon="2.69718">
        <ele>103.4</ele>
        <time>2017-01-08T09:37:53Z</time>
      </trkpt>
      <trkpt lat="48.42119" lon="2.69727">
        <ele>103.4</ele>
        <time>2017-01-08T09:37:56Z</time>
      </trkpt>
      <trkpt lat="48.42119" lon="2.69733">
        <ele>103.4</ele>
        <time>2017-01-08T09:37:58Z</time>
      </trkpt>
      <trkpt lat="48.42114" lon="2.69754">
        <ele>103.4</ele>
        <time>2017-01-08T09:38:04Z</time>
      </trkpt>
      <trkpt lat="48.42108" lon="2.69772">
        <ele>103.4</ele>
        <time>2017-01-08T09:38:10Z</time>
      </trkpt>
      <trkpt lat="48.42103" lon="2.69792">
        <ele>103.4</ele>
        <time>2017-01-08T09:38:16Z</time>
      </trkpt>
      <trkpt lat="48.42098" lon="2.69808">
        <ele>103.4</ele>
        <time>2017-01-08T09:38:22Z</time>
      </trkpt>
      <trkpt lat="48.42093" lon="2.6983">
        <ele>103.4</ele>
        <time>2017-01-08T09:38:28Z</time>
      </trkpt>
      <trkpt lat="48.42089" lon="2.69855">
        <ele>103.4</ele>
        <time>2017-01-08T09:38:35Z</time>
      </trkpt>
      <trkpt lat="48.42087" lon="2.69872">
        <ele>103.4</ele>
        <time>2017-01-08T09:38:40Z</time>
      </trkpt>
      <trkpt lat="48.42084" lon="2.69894">
        <ele>103.4</ele>
        <time>2017-01-08T09:38:45Z</time>
      </trkpt>
      <trkpt lat="48.4208" lon="2.69916">
        <ele>103.4</ele>
        <time>2017-01-08T09:38:50Z</time>
      </trkpt>
      <trkpt lat="48.42076" lon="2.69938">
        <ele>102.8</ele>
        <time>2017-01-08T09:38:55Z</time>
      </trkpt>
      <trkpt lat="48.42075" lon="2.69944">
        <ele>102.4</ele>
        <time>2017-01-08T09:38:56Z</time>
      </trkpt>
      <trkpt lat="48.42075" lon="2.69949">
        <ele>101.8</ele>
        <time>2017-01-08T09:38:57Z</time>
      </trkpt>
      <trkpt lat="48.42074" lon="2.69953">
        <ele>102</ele>
        <time>2017-01-08T09:38:58Z</time>
      </trkpt>
      <trkpt lat="48.42073" lon="2.69958">
        <ele>102.2</ele>
        <time>2017-01-08T09:38:59Z</time>
      </trkpt>
      <trkpt lat="48.42071" lon="2.69962">
        <ele>102.6</ele>
        <time>2017-01-08T09:39:00Z</time>
      </trkpt>
      <trkpt lat="48.4207" lon="2.69966">
        <ele>102.8</ele>
        <time>2017-01-08T09:39:01Z</time>
      </trkpt>
      <trkpt lat="48.4207" lon="2.69971">
        <ele>103</ele>
        <time>2017-01-08T09:39:02Z</time>
      </trkpt>
      <trkpt lat="48.42071" lon="2.69979">
        <ele>103</ele>
        <time>2017-01-08T09:39:04Z</time>
      </trkpt>
      <trkpt lat="48.42074" lon="2.69986">
        <ele>103</ele>
        <time>2017-01-08T09:39:07Z</time>
      </trkpt>
      <trkpt lat="48.42076" lon="2.69988">
        <ele>103</ele>
        <time>2017-01-08T09:39:08Z</time>
      </trkpt>
      <trkpt lat="48.42079" lon="2.69993">
        <ele>103.4</ele>
        <time>2017-01-08T09:39:10Z</time>
      </trkpt>
      <trkpt lat="48.42081" lon="2.69994">
        <ele>103.8</ele>
        <time>2017-01-08T09:39:11Z</time>
      </trkpt>
      <trkpt lat="48.42082" lon="2.69996">
        <ele>104.2</ele>
        <time>2017-01-08T09:39:12Z</time>
      </trkpt>
      <trkpt lat="48.42083" lon="2.69997">
        <ele>104.6</ele>
        <time>2017-01-08T09:39:13Z</time>
      </trkpt>
      <trkpt lat="48.42085" lon="2.69999">
        <ele>105</ele>
        <time>2017-01-08T09:39:14Z</time>
      </trkpt>
      <trkpt lat="48.42089" lon="2.70006">
        <ele>105.4</ele>
        <time>2017-01-08T09:39:18Z</time>
      </trkpt>
      <trkpt lat="48.42091" lon="2.70009">
        <ele>105.8</ele>
        <time>2017-01-08T09:39:19Z</time>
      </trkpt>
      <trkpt lat="48.42092" lon="2.70011">
        <ele>106.2</ele>
        <time>2017-01-08T09:39:20Z</time>
      </trkpt>
      <trkpt lat="48.42093" lon="2.70013">
        <ele>106.6</ele>
        <time>2017-01-08T09:39:21Z</time>
      </trkpt>
      <trkpt lat="48.42095" lon="2.70013">
        <ele>107</ele>
        <time>2017-01-08T09:39:22Z</time>
      </trkpt>
      <trkpt lat="48.42099" lon="2.70013">
        <ele>107</ele>
        <time>2017-01-08T09:39:24Z</time>
      </trkpt>
      <trkpt lat="48.42104" lon="2.70016">
        <ele>107.4</ele>
        <time>2017-01-08T09:39:28Z</time>
      </trkpt>
      <trkpt lat="48.42106" lon="2.70017">
        <ele>108</ele>
        <time>2017-01-08T09:39:29Z</time>
      </trkpt>
      <trkpt lat="48.42108" lon="2.70017">
        <ele>108.4</ele>
        <time>2017-01-08T09:39:30Z</time>
      </trkpt>
      <trkpt lat="48.4211" lon="2.70017">
        <ele>108.8</ele>
        <time>2017-01-08T09:39:31Z</time>
      </trkpt>
      <trkpt lat="48.42111" lon="2.70016">
        <ele>109.2</ele>
        <time>2017-01-08T09:39:32Z</time>
      </trkpt>
      <trkpt lat="48.42111" lon="2.70018">
        <ele>109.2</ele>
        <time>2017-01-08T09:39:33Z</time>
      </trkpt>
      <trkpt lat="48.42113" lon="2.70019">
        <ele>109.2</ele>
        <time>2017-01-08T09:39:34Z</time>
      </trkpt>
      <trkpt lat="48.4212" lon="2.70025">
        <ele>109.6</ele>
        <time>2017-01-08T09:39:38Z</time>
      </trkpt>
      <trkpt lat="48.42121" lon="2.70027">
        <ele>110</ele>
        <time>2017-01-08T09:39:39Z</time>
      </trkpt>
      <trkpt lat="48.42123" lon="2.70028">
        <ele>110.4</ele>
        <time>2017-01-08T09:39:40Z</time>
      </trkpt>
      <trkpt lat="48.42124" lon="2.70029">
        <ele>110.8</ele>
        <time>2017-01-08T09:39:41Z</time>
      </trkpt>
      <trkpt lat="48.42126" lon="2.70031">
        <ele>111.2</ele>
        <time>2017-01-08T09:39:42Z</time>
      </trkpt>
      <trkpt lat="48.42127" lon="2.70032">
        <ele>111.2</ele>
        <time>2017-01-08T09:39:43Z</time>
      </trkpt>
      <trkpt lat="48.4213" lon="2.70037">
        <ele>111.2</ele>
        <time>2017-01-08T09:39:46Z</time>
      </trkpt>
      <trkpt lat="48.42131" lon="2.70039">
        <ele>111.2</ele>
        <time>2017-01-08T09:39:47Z</time>
      </trkpt>
      <trkpt lat="48.42133" lon="2.70039">
        <ele>111.6</ele>
        <time>2017-01-08T09:39:49Z</time>
      </trkpt>
      <trkpt lat="48.42135" lon="2.7004">
        <ele>112</ele>
        <time>2017-01-08T09:39:50Z</time>
      </trkpt>
      <trkpt lat="48.42136" lon="2.70041">
        <ele>112.4</ele>
        <time>2017-01-08T09:39:51Z</time>
      </trkpt>
      <trkpt lat="48.42138" lon="2.70041">
        <ele>112.8</ele>
        <time>2017-01-08T09:39:52Z</time>
      </trkpt>
      <trkpt lat="48.42139" lon="2.70042">
        <ele>113.2</ele>
        <time>2017-01-08T09:39:53Z</time>
      </trkpt>
      <trkpt lat="48.42144" lon="2.70043">
        <ele>113.2</ele>
        <time>2017-01-08T09:39:56Z</time>
      </trkpt>
      <trkpt lat="48.42149" lon="2.70049">
        <ele>113.8</ele>
        <time>2017-01-08T09:40:00Z</time>
      </trkpt>
      <trkpt lat="48.4215" lon="2.70051">
        <ele>114.2</ele>
        <time>2017-01-08T09:40:01Z</time>
      </trkpt>
      <trkpt lat="48.4215" lon="2.70053">
        <ele>114.6</ele>
        <time>2017-01-08T09:40:02Z</time>
      </trkpt>
      <trkpt lat="48.4215" lon="2.70055">
        <ele>115</ele>
        <time>2017-01-08T09:40:03Z</time>
      </trkpt>
      <trkpt lat="48.42151" lon="2.70057">
        <ele>115.6</ele>
        <time>2017-01-08T09:40:04Z</time>
      </trkpt>
      <trkpt lat="48.42151" lon="2.70062">
        <ele>115.6</ele>
        <time>2017-01-08T09:40:07Z</time>
      </trkpt>
      <trkpt lat="48.42151" lon="2.70066">
        <ele>115.6</ele>
        <time>2017-01-08T09:40:09Z</time>
      </trkpt>
      <trkpt lat="48.42151" lon="2.70069">
        <ele>116</ele>
        <time>2017-01-08T09:40:10Z</time>
      </trkpt>
      <trkpt lat="48.42152" lon="2.70071">
        <ele>116.4</ele>
        <time>2017-01-08T09:40:11Z</time>
      </trkpt>
      <trkpt lat="48.42152" lon="2.70073">
        <ele>116.8</ele>
        <time>2017-01-08T09:40:12Z</time>
      </trkpt>
      <trkpt lat="48.42152" lon="2.70074">
        <ele>117.2</ele>
        <time>2017-01-08T09:40:13Z</time>
      </trkpt>
      <trkpt lat="48.42152" lon="2.70075">
        <ele>117.6</ele>
        <time>2017-01-08T09:40:14Z</time>
      </trkpt>
      <trkpt lat="48.42151" lon="2.70112">
        <ele>121.8</ele>
        <time>2017-01-08T09:40:48Z</time>
      </trkpt>
      <trkpt lat="48.42151" lon="2.70118">
        <ele>121.8</ele>
        <time>2017-01-08T09:40:51Z</time>
      </trkpt>
      <trkpt lat="48.42147" lon="2.70125">
        <ele>122.2</ele>
        <time>2017-01-08T09:40:55Z</time>
      </trkpt>
      <trkpt lat="48.42146" lon="2.70127">
        <ele>122.6</ele>
        <time>2017-01-08T09:40:56Z</time>
      </trkpt>
      <trkpt lat="48.42145" lon="2.70129">
        <ele>123.4</ele>
        <time>2017-01-08T09:40:57Z</time>
      </trkpt>
      <trkpt lat="48.42145" lon="2.70129">
        <ele>123.8</ele>
        <time>2017-01-08T09:40:58Z</time>
      </trkpt>
      <trkpt lat="48.42144" lon="2.70134">
        <ele>123.8</ele>
        <time>2017-01-08T09:41:00Z</time>
      </trkpt>
      <trkpt lat="48.42144" lon="2.70139">
        <ele>123.8</ele>
        <time>2017-01-08T09:41:02Z</time>
      </trkpt>
      <trkpt lat="48.42144" lon="2.70143">
        <ele>124.2</ele>
        <time>2017-01-08T09:41:04Z</time>
      </trkpt>
      <trkpt lat="48.42144" lon="2.70147">
        <ele>124.8</ele>
        <time>2017-01-08T09:41:05Z</time>
      </trkpt>
      <trkpt lat="48.42144" lon="2.70149">
        <ele>125.2</ele>
        <time>2017-01-08T09:41:06Z</time>
      </trkpt>
      <trkpt lat="48.42143" lon="2.70151">
        <ele>125.6</ele>
        <time>2017-01-08T09:41:07Z</time>
      </trkpt>
      <trkpt lat="48.42143" lon="2.70153">
        <ele>126.2</ele>
        <time>2017-01-08T09:41:08Z</time>
      </trkpt>
      <trkpt lat="48.42142" lon="2.70163">
        <ele>126.2</ele>
        <time>2017-01-08T09:41:12Z</time>
      </trkpt>
      <trkpt lat="48.42143" lon="2.70164">
        <ele>126.6</ele>
        <time>2017-01-08T09:41:13Z</time>
      </trkpt>
      <trkpt lat="48.42144" lon="2.70164">
        <ele>127</ele>
        <time>2017-01-08T09:41:14Z</time>
      </trkpt>
      <trkpt lat="48.42145" lon="2.70164">
        <ele>127.4</ele>
        <time>2017-01-08T09:41:15Z</time>
      </trkpt>
      <trkpt lat="48.42145" lon="2.70165">
        <ele>127.8</ele>
        <time>2017-01-08T09:41:16Z</time>
      </trkpt>
      <trkpt lat="48.42147" lon="2.70165">
        <ele>128.2</ele>
        <time>2017-01-08T09:41:17Z</time>
      </trkpt>
      <trkpt lat="48.42148" lon="2.70165">
        <ele>128.2</ele>
        <time>2017-01-08T09:41:18Z</time>
      </trkpt>
      <trkpt lat="48.42151" lon="2.70164">
        <ele>128.2</ele>
        <time>2017-01-08T09:41:21Z</time>
      </trkpt>
      <trkpt lat="48.42152" lon="2.70165">
        <ele>128.2</ele>
        <time>2017-01-08T09:41:22Z</time>
      </trkpt>
      <trkpt lat="48.42154" lon="2.70166">
        <ele>128.6</ele>
        <time>2017-01-08T09:41:24Z</time>
      </trkpt>
      <trkpt lat="48.42154" lon="2.70167">
        <ele>129</ele>
        <time>2017-01-08T09:41:25Z</time>
      </trkpt>
      <trkpt lat="48.42155" lon="2.70168">
        <ele>129.4</ele>
        <time>2017-01-08T09:41:26Z</time>
      </trkpt>
      <trkpt lat="48.42156" lon="2.70169">
        <ele>129.8</ele>
        <time>2017-01-08T09:41:27Z</time>
      </trkpt>
      <trkpt lat="48.42156" lon="2.7017">
        <ele>130.2</ele>
        <time>2017-01-08T09:41:28Z</time>
      </trkpt>
      <trkpt lat="48.42159" lon="2.70175">
        <ele>130.2</ele>
        <time>2017-01-08T09:41:31Z</time>
      </trkpt>
      <trkpt lat="48.42161" lon="2.70176">
        <ele>130.6</ele>
        <time>2017-01-08T09:41:32Z</time>
      </trkpt>
      <trkpt lat="48.42161" lon="2.70176">
        <ele>131</ele>
        <time>2017-01-08T09:41:33Z</time>
      </trkpt>
      <trkpt lat="48.42162" lon="2.70177">
        <ele>131.6</ele>
        <time>2017-01-08T09:41:34Z</time>
      </trkpt>
      <trkpt lat="48.42163" lon="2.70177">
        <ele>132</ele>
        <time>2017-01-08T09:41:35Z</time>
      </trkpt>
      <trkpt lat="48.42174" lon="2.7018">
        <ele>134.4</ele>
        <time>2017-01-08T09:41:57Z</time>
      </trkpt>
      <trkpt lat="48.42175" lon="2.70182">
        <ele>134.4</ele>
        <time>2017-01-08T09:41:58Z</time>
      </trkpt>
      <trkpt lat="48.42179" lon="2.70188">
        <ele>134.4</ele>
        <time>2017-01-08T09:42:02Z</time>
      </trkpt>
      <trkpt lat="48.42183" lon="2.7019">
        <ele>134.8</ele>
        <time>2017-01-08T09:42:06Z</time>
      </trkpt>
      <trkpt lat="48.42183" lon="2.70192">
        <ele>135.2</ele>
        <time>2017-01-08T09:42:07Z</time>
      </trkpt>
      <trkpt lat="48.42184" lon="2.70193">
        <ele>135.8</ele>
        <time>2017-01-08T09:42:08Z</time>
      </trkpt>
      <trkpt lat="48.42185" lon="2.70194">
        <ele>136.2</ele>
        <time>2017-01-08T09:42:09Z</time>
      </trkpt>
      <trkpt lat="48.42186" lon="2.70197">
        <ele>136.6</ele>
        <time>2017-01-08T09:42:10Z</time>
      </trkpt>
      <trkpt lat="48.42186" lon="2.70201">
        <ele>136.6</ele>
        <time>2017-01-08T09:42:13Z</time>
      </trkpt>
      <trkpt lat="48.42185" lon="2.70203">
        <ele>136.6</ele>
        <time>2017-01-08T09:42:14Z</time>
      </trkpt>
      <trkpt lat="48.42185" lon="2.70206">
        <ele>137</ele>
        <time>2017-01-08T09:42:15Z</time>
      </trkpt>
      <trkpt lat="48.42184" lon="2.70207">
        <ele>137.4</ele>
        <time>2017-01-08T09:42:16Z</time>
      </trkpt>
      <trkpt lat="48.42183" lon="2.7021">
        <ele>137.8</ele>
        <time>2017-01-08T09:42:17Z</time>
      </trkpt>
      <trkpt lat="48.42182" lon="2.70212">
        <ele>138.2</ele>
        <time>2017-01-08T09:42:18Z</time>
      </trkpt>
      <trkpt lat="48.42182" lon="2.70213">
        <ele>138.6</ele>
        <time>2017-01-08T09:42:19Z</time>
      </trkpt>
      <trkpt lat="48.42182" lon="2.70215">
        <ele>138.6</ele>
        <time>2017-01-08T09:42:20Z</time>
      </trkpt>
      <trkpt lat="48.42183" lon="2.70217">
        <ele>139</ele>
        <time>2017-01-08T09:42:21Z</time>
      </trkpt>
      <trkpt lat="48.42183" lon="2.70218">
        <ele>139.4</ele>
        <time>2017-01-08T09:42:22Z</time>
      </trkpt>
      <trkpt lat="48.42183" lon="2.7022">
        <ele>139.8</ele>
        <time>2017-01-08T09:42:23Z</time>
      </trkpt>
      <trkpt lat="48.42182" lon="2.70222">
        <ele>140.4</ele>
        <time>2017-01-08T09:42:24Z</time>
      </trkpt>
      <trkpt lat="48.42182" lon="2.70224">
        <ele>140.8</ele>
        <time>2017-01-08T09:42:25Z</time>
      </trkpt>
      <trkpt lat="48.42182" lon="2.70227">
        <ele>140.8</ele>
        <time>2017-01-08T09:42:26Z</time>
      </trkpt>
      <trkpt lat="48.42182" lon="2.7023">
        <ele>140.8</ele>
        <time>2017-01-08T09:42:28Z</time>
      </trkpt>
      <trkpt lat="48.42182" lon="2.70234">
        <ele>141.2</ele>
        <time>2017-01-08T09:42:30Z</time>
      </trkpt>
      <trkpt lat="48.42182" lon="2.70236">
        <ele>141.6</ele>
        <time>2017-01-08T09:42:31Z</time>
      </trkpt>
      <trkpt lat="48.42181" lon="2.70237">
        <ele>142</ele>
        <time>2017-01-08T09:42:32Z</time>
      </trkpt>
      <trkpt lat="48.42182" lon="2.70237">
        <ele>142.4</ele>
        <time>2017-01-08T09:42:33Z</time>
      </trkpt>
      <trkpt lat="48.42182" lon="2.70239">
        <ele>142.8</ele>
        <time>2017-01-08T09:42:34Z</time>
      </trkpt>
      <trkpt lat="48.42181" lon="2.7025">
        <ele>142.8</ele>
        <time>2017-01-08T09:42:39Z</time>
      </trkpt>
      <trkpt lat="48.42178" lon="2.70262">
        <ele>142.8</ele>
        <time>2017-01-08T09:42:45Z</time>
      </trkpt>
      <trkpt lat="48.42178" lon="2.70266">
        <ele>142.8</ele>
        <time>2017-01-08T09:42:48Z</time>
      </trkpt>
      <trkpt lat="48.42189" lon="2.70287">
        <ele>142.8</ele>
        <time>2017-01-08T09:43:44Z</time>
      </trkpt>
      <trkpt lat="48.42191" lon="2.70293">
        <ele>142.8</ele>
        <time>2017-01-08T09:43:46Z</time>
      </trkpt>
      <trkpt lat="48.42191" lon="2.70302">
        <ele>142.8</ele>
        <time>2017-01-08T09:43:49Z</time>
      </trkpt>
      <trkpt lat="48.42192" lon="2.70309">
        <ele>142.8</ele>
        <time>2017-01-08T09:43:51Z</time>
      </trkpt>
      <trkpt lat="48.42194" lon="2.70314">
        <ele>142.8</ele>
        <time>2017-01-08T09:43:53Z</time>
      </trkpt>
      <trkpt lat="48.42201" lon="2.70321">
        <ele>142.8</ele>
        <time>2017-01-08T09:43:56Z</time>
      </trkpt>
      <trkpt lat="48.42206" lon="2.70332">
        <ele>142.8</ele>
        <time>2017-01-08T09:44:00Z</time>
      </trkpt>
      <trkpt lat="48.42209" lon="2.70346">
        <ele>142.8</ele>
        <time>2017-01-08T09:44:03Z</time>
      </trkpt>
      <trkpt lat="48.42209" lon="2.70351">
        <ele>142.8</ele>
        <time>2017-01-08T09:44:04Z</time>
      </trkpt>
      <trkpt lat="48.42208" lon="2.70366">
        <ele>142.8</ele>
        <time>2017-01-08T09:44:08Z</time>
      </trkpt>
      <trkpt lat="48.42209" lon="2.70368">
        <ele>142.8</ele>
        <time>2017-01-08T09:44:09Z</time>
      </trkpt>
      <trkpt lat="48.42209" lon="2.70379">
        <ele>142.8</ele>
        <time>2017-01-08T09:44:13Z</time>
      </trkpt>
      <trkpt lat="48.42207" lon="2.704">
        <ele>142.8</ele>
        <time>2017-01-08T09:44:19Z</time>
      </trkpt>
      <trkpt lat="48.42201" lon="2.70417">
        <ele>142.8</ele>
        <time>2017-01-08T09:44:25Z</time>
      </trkpt>
      <trkpt lat="48.422" lon="2.7042">
        <ele>143.2</ele>
        <time>2017-01-08T09:44:26Z</time>
      </trkpt>
      <trkpt lat="48.42199" lon="2.70423">
        <ele>143.8</ele>
        <time>2017-01-08T09:44:27Z</time>
      </trkpt>
      <trkpt lat="48.42197" lon="2.70426">
        <ele>144.2</ele>
        <time>2017-01-08T09:44:28Z</time>
      </trkpt>
      <trkpt lat="48.42194" lon="2.70429">
        <ele>144.6</ele>
        <time>2017-01-08T09:44:29Z</time>
      </trkpt>
      <trkpt lat="48.42192" lon="2.70431">
        <ele>145</ele>
        <time>2017-01-08T09:44:30Z</time>
      </trkpt>
      <trkpt lat="48.4219" lon="2.70433">
        <ele>145</ele>
        <time>2017-01-08T09:44:31Z</time>
      </trkpt>
      <trkpt lat="48.42187" lon="2.70436">
        <ele>145.4</ele>
        <time>2017-01-08T09:44:32Z</time>
      </trkpt>
      <trkpt lat="48.42186" lon="2.70438">
        <ele>145.8</ele>
        <time>2017-01-08T09:44:33Z</time>
      </trkpt>
      <trkpt lat="48.42185" lon="2.70439">
        <ele>146.2</ele>
        <time>2017-01-08T09:44:34Z</time>
      </trkpt>
      <trkpt lat="48.42183" lon="2.70443">
        <ele>146.6</ele>
        <time>2017-01-08T09:44:35Z</time>
      </trkpt>
      <trkpt lat="48.42183" lon="2.70446">
        <ele>147</ele>
        <time>2017-01-08T09:44:36Z</time>
      </trkpt>
      <trkpt lat="48.42182" lon="2.70452">
        <ele>147</ele>
        <time>2017-01-08T09:44:37Z</time>
      </trkpt>
      <trkpt lat="48.42183" lon="2.7047">
        <ele>147</ele>
        <time>2017-01-08T09:44:42Z</time>
      </trkpt>
      <trkpt lat="48.42176" lon="2.70475">
        <ele>147</ele>
        <time>2017-01-08T09:44:46Z</time>
      </trkpt>
      <trkpt lat="48.42168" lon="2.70492">
        <ele>145</ele>
        <time>2017-01-08T09:46:53Z</time>
      </trkpt>
      <trkpt lat="48.42166" lon="2.70504">
        <ele>145</ele>
        <time>2017-01-08T09:46:57Z</time>
      </trkpt>
      <trkpt lat="48.42166" lon="2.70512">
        <ele>145.4</ele>
        <time>2017-01-08T09:47:00Z</time>
      </trkpt>
      <trkpt lat="48.42165" lon="2.70513">
        <ele>146</ele>
        <time>2017-01-08T09:47:01Z</time>
      </trkpt>
      <trkpt lat="48.42164" lon="2.70515">
        <ele>146.4</ele>
        <time>2017-01-08T09:47:02Z</time>
      </trkpt>
      <trkpt lat="48.42164" lon="2.70517">
        <ele>147</ele>
        <time>2017-01-08T09:47:03Z</time>
      </trkpt>
      <trkpt lat="48.42164" lon="2.70518">
        <ele>147.4</ele>
        <time>2017-01-08T09:47:04Z</time>
      </trkpt>
      <trkpt lat="48.42165" lon="2.70525">
        <ele>147.4</ele>
        <time>2017-01-08T09:47:15Z</time>
      </trkpt>
      <trkpt lat="48.42164" lon="2.70528">
        <ele>147.4</ele>
        <time>2017-01-08T09:47:16Z</time>
      </trkpt>
      <trkpt lat="48.4216" lon="2.7054">
        <ele>147.4</ele>
        <time>2017-01-08T09:47:21Z</time>
      </trkpt>
      <trkpt lat="48.42162" lon="2.70558">
        <ele>147.4</ele>
        <time>2017-01-08T09:47:25Z</time>
      </trkpt>
      <trkpt lat="48.4216" lon="2.70576">
        <ele>147.4</ele>
        <time>2017-01-08T09:47:29Z</time>
      </trkpt>
      <trkpt lat="48.4216" lon="2.7058">
        <ele>147.4</ele>
        <time>2017-01-08T09:47:30Z</time>
      </trkpt>
      <trkpt lat="48.42161" lon="2.70595">
        <ele>147.4</ele>
        <time>2017-01-08T09:47:34Z</time>
      </trkpt>
      <trkpt lat="48.42163" lon="2.70615">
        <ele>147.4</ele>
        <time>2017-01-08T09:47:39Z</time>
      </trkpt>
      <trkpt lat="48.42166" lon="2.70635">
        <ele>147.4</ele>
        <time>2017-01-08T09:47:46Z</time>
      </trkpt>
      <trkpt lat="48.42166" lon="2.70649">
        <ele>147.4</ele>
        <time>2017-01-08T09:47:50Z</time>
      </trkpt>
      <trkpt lat="48.42165" lon="2.70657">
        <ele>147.4</ele>
        <time>2017-01-08T09:47:53Z</time>
      </trkpt>
      <trkpt lat="48.42169" lon="2.70668">
        <ele>147.4</ele>
        <time>2017-01-08T09:47:58Z</time>
      </trkpt>
      <trkpt lat="48.42178" lon="2.70675">
        <ele>147.4</ele>
        <time>2017-01-08T09:48:03Z</time>
      </trkpt>
      <trkpt lat="48.42192" lon="2.70683">
        <ele>147.4</ele>
        <time>2017-01-08T09:48:09Z</time>
      </trkpt>
      <trkpt lat="48.42202" lon="2.70693">
        <ele>147.4</ele>
        <time>2017-01-08T09:48:13Z</time>
      </trkpt>
      <trkpt lat="48.42207" lon="2.70707">
        <ele>147.4</ele>
        <time>2017-01-08T09:48:17Z</time>
      </trkpt>
      <trkpt lat="48.42208" lon="2.70715">
        <ele>147.4</ele>
        <time>2017-01-08T09:48:19Z</time>
      </trkpt>
      <trkpt lat="48.42211" lon="2.70738">
        <ele>147.4</ele>
        <time>2017-01-08T09:48:24Z</time>
      </trkpt>
      <trkpt lat="48.42205" lon="2.70746">
        <ele>147.4</ele>
        <time>2017-01-08T09:48:27Z</time>
      </trkpt>
      <trkpt lat="48.42202" lon="2.70749">
        <ele>147.4</ele>
        <time>2017-01-08T09:48:29Z</time>
      </trkpt>
      <trkpt lat="48.42198" lon="2.70751">
        <ele>147.4</ele>
        <time>2017-01-08T09:48:32Z</time>
      </trkpt>
      <trkpt lat="48.4219" lon="2.70758">
        <ele>147.4</ele>
        <time>2017-01-08T09:48:36Z</time>
      </trkpt>
      <trkpt lat="48.42189" lon="2.70761">
        <ele>147.4</ele>
        <time>2017-01-08T09:48:37Z</time>
      </trkpt>
      <trkpt lat="48.42188" lon="2.70771">
        <ele>147</ele>
        <time>2017-01-08T09:48:42Z</time>
      </trkpt>
      <trkpt lat="48.42188" lon="2.70773">
        <ele>146.6</ele>
        <time>2017-01-08T09:48:43Z</time>
      </trkpt>
      <trkpt lat="48.42188" lon="2.70774">
        <ele>146.2</ele>
        <time>2017-01-08T09:48:44Z</time>
      </trkpt>
      <trkpt lat="48.42188" lon="2.70775">
        <ele>145.8</ele>
        <time>2017-01-08T09:48:45Z</time>
      </trkpt>
      <trkpt lat="48.42187" lon="2.70777">
        <ele>145.4</ele>
        <time>2017-01-08T09:48:46Z</time>
      </trkpt>
      <trkpt lat="48.42187" lon="2.70787">
        <ele>145.4</ele>
        <time>2017-01-08T09:48:51Z</time>
      </trkpt>
      <trkpt lat="48.42187" lon="2.7079">
        <ele>145.4</ele>
        <time>2017-01-08T09:48:52Z</time>
      </trkpt>
      <trkpt lat="48.42189" lon="2.70796">
        <ele>144.8</ele>
        <time>2017-01-08T09:48:55Z</time>
      </trkpt>
      <trkpt lat="48.4219" lon="2.70799">
        <ele>144.4</ele>
        <time>2017-01-08T09:48:56Z</time>
      </trkpt>
      <trkpt lat="48.42191" lon="2.70802">
        <ele>144</ele>
        <time>2017-01-08T09:48:57Z</time>
      </trkpt>
      <trkpt lat="48.42192" lon="2.70805">
        <ele>143.4</ele>
        <time>2017-01-08T09:48:58Z</time>
      </trkpt>
      <trkpt lat="48.42193" lon="2.70809">
        <ele>143</ele>
        <time>2017-01-08T09:48:59Z</time>
      </trkpt>
      <trkpt lat="48.42195" lon="2.70821">
        <ele>143</ele>
        <time>2017-01-08T09:49:02Z</time>
      </trkpt>
      <trkpt lat="48.42195" lon="2.70832">
        <ele>143</ele>
        <time>2017-01-08T09:49:05Z</time>
      </trkpt>
      <trkpt lat="48.42195" lon="2.70839">
        <ele>143</ele>
        <time>2017-01-08T09:49:07Z</time>
      </trkpt>
      <trkpt lat="48.42198" lon="2.70849">
        <ele>143</ele>
        <time>2017-01-08T09:49:12Z</time>
      </trkpt>
      <trkpt lat="48.422" lon="2.7085">
        <ele>143</ele>
        <time>2017-01-08T09:49:13Z</time>
      </trkpt>
      <trkpt lat="48.42205" lon="2.7085">
        <ele>143</ele>
        <time>2017-01-08T09:49:16Z</time>
      </trkpt>
      <trkpt lat="48.42213" lon="2.7085">
        <ele>143</ele>
        <time>2017-01-08T09:49:19Z</time>
      </trkpt>
      <trkpt lat="48.42215" lon="2.7085">
        <ele>143.4</ele>
        <time>2017-01-08T09:49:20Z</time>
      </trkpt>
      <trkpt lat="48.42217" lon="2.7085">
        <ele>143.8</ele>
        <time>2017-01-08T09:49:21Z</time>
      </trkpt>
      <trkpt lat="48.42218" lon="2.7085">
        <ele>144.4</ele>
        <time>2017-01-08T09:49:22Z</time>
      </trkpt>
      <trkpt lat="48.42221" lon="2.7085">
        <ele>144.8</ele>
        <time>2017-01-08T09:49:23Z</time>
      </trkpt>
      <trkpt lat="48.42223" lon="2.7085">
        <ele>145.2</ele>
        <time>2017-01-08T09:49:24Z</time>
      </trkpt>
      <trkpt lat="48.42226" lon="2.70852">
        <ele>145.2</ele>
        <time>2017-01-08T09:49:25Z</time>
      </trkpt>
      <trkpt lat="48.42228" lon="2.70853">
        <ele>145.2</ele>
        <time>2017-01-08T09:49:26Z</time>
      </trkpt>
      <trkpt lat="48.42231" lon="2.70857">
        <ele>145.2</ele>
        <time>2017-01-08T09:49:29Z</time>
      </trkpt>
      <trkpt lat="48.42233" lon="2.70858">
        <ele>145.2</ele>
        <time>2017-01-08T09:49:30Z</time>
      </trkpt>
      <trkpt lat="48.42238" lon="2.70861">
        <ele>145.2</ele>
        <time>2017-01-08T09:49:34Z</time>
      </trkpt>
      <trkpt lat="48.42244" lon="2.70866">
        <ele>145.2</ele>
        <time>2017-01-08T09:49:40Z</time>
      </trkpt>
      <trkpt lat="48.42245" lon="2.70866">
        <ele>145.6</ele>
        <time>2017-01-08T09:49:41Z</time>
      </trkpt>
      <trkpt lat="48.42246" lon="2.70867">
        <ele>146</ele>
        <time>2017-01-08T09:49:42Z</time>
      </trkpt>
      <trkpt lat="48.42247" lon="2.70868">
        <ele>146.4</ele>
        <time>2017-01-08T09:49:43Z</time>
      </trkpt>
      <trkpt lat="48.42249" lon="2.7087">
        <ele>146.8</ele>
        <time>2017-01-08T09:49:44Z</time>
      </trkpt>
      <trkpt lat="48.4225" lon="2.70871">
        <ele>147.2</ele>
        <time>2017-01-08T09:49:45Z</time>
      </trkpt>
      <trkpt lat="48.4225" lon="2.70873">
        <ele>147.2</ele>
        <time>2017-01-08T09:49:46Z</time>
      </trkpt>
      <trkpt lat="48.42258" lon="2.70877">
        <ele>147.2</ele>
        <time>2017-01-08T09:49:52Z</time>
      </trkpt>
      <trkpt lat="48.4226" lon="2.70878">
        <ele>147.2</ele>
        <time>2017-01-08T09:49:53Z</time>
      </trkpt>
      <trkpt lat="48.42261" lon="2.70879">
        <ele>147.2</ele>
        <time>2017-01-08T09:49:55Z</time>
      </trkpt>
      <trkpt lat="48.42264" lon="2.7088">
        <ele>147.2</ele>
        <time>2017-01-08T09:50:02Z</time>
      </trkpt>
      <trkpt lat="48.42267" lon="2.70881">
        <ele>147.2</ele>
        <time>2017-01-08T09:50:03Z</time>
      </trkpt>
      <trkpt lat="48.42285" lon="2.70889">
        <ele>147.2</ele>
        <time>2017-01-08T09:50:08Z</time>
      </trkpt>
      <trkpt lat="48.42293" lon="2.70903">
        <ele>147.2</ele>
        <time>2017-01-08T09:50:12Z</time>
      </trkpt>
      <trkpt lat="48.42297" lon="2.7091">
        <ele>147.2</ele>
        <time>2017-01-08T09:50:16Z</time>
      </trkpt>
      <trkpt lat="48.42301" lon="2.70914">
        <ele>147.2</ele>
        <time>2017-01-08T09:50:29Z</time>
      </trkpt>
      <trkpt lat="48.42303" lon="2.70916">
        <ele>147.2</ele>
        <time>2017-01-08T09:50:31Z</time>
      </trkpt>
      <trkpt lat="48.42304" lon="2.70917">
        <ele>147.2</ele>
        <time>2017-01-08T09:50:32Z</time>
      </trkpt>
      <trkpt lat="48.42313" lon="2.70916">
        <ele>137.19921875</ele>
      </trkpt>
      <trkpt lat="48.4232" lon="2.7092">
        <ele>137.2109375</ele>
      </trkpt>
      <trkpt lat="48.42331" lon="2.70912">
        <ele>137.83203125</ele>
      </trkpt>
      <trkpt lat="48.42341" lon="2.709">
        <ele>138.41796875</ele>
      </trkpt>
      <trkpt lat="48.42351" lon="2.70898">
        <ele>138.515625</ele>
      </trkpt>
      <trkpt lat="48.42367" lon="2.70897">
        <ele>138.59375</ele>
      </trkpt>
      <trkpt lat="48.42376" lon="2.7089">
        <ele>139.0078125</ele>
      </trkpt>
      <trkpt lat="48.42387" lon="2.70877">
        <ele>139.16796875</ele>
      </trkpt>
      <trkpt lat="48.42399" lon="2.7087">
        <ele>139.07421875</ele>
      </trkpt>
      <trkpt lat="48.42408" lon="2.70862">
        <ele>139.0703125</ele>
      </trkpt>
      <trkpt lat="48.4241" lon="2.70859">
        <ele>149.2</ele>
        <time>2017-01-08T09:52:14Z</time>
      </trkpt>
      <trkpt lat="48.4241" lon="2.70859">
        <ele>149.2</ele>
        <time>2017-01-08T09:52:15Z</time>
      </trkpt>
      <trkpt lat="48.42417" lon="2.70855">
        <ele>149.2</ele>
        <time>2017-01-08T09:55:33Z</time>
      </trkpt>
      <trkpt lat="48.42419" lon="2.70852">
        <ele>149.2</ele>
        <time>2017-01-08T09:55:35Z</time>
      </trkpt>
      <trkpt lat="48.4242" lon="2.7085">
        <ele>149.2</ele>
        <time>2017-01-08T09:55:36Z</time>
      </trkpt>
      <trkpt lat="48.42421" lon="2.7084">
        <ele>149.2</ele>
        <time>2017-01-08T09:55:40Z</time>
      </trkpt>
      <trkpt lat="48.42417" lon="2.70825">
        <ele>149.2</ele>
        <time>2017-01-08T09:55:45Z</time>
      </trkpt>
      <trkpt lat="48.42417" lon="2.7082">
        <ele>149.2</ele>
        <time>2017-01-08T09:55:47Z</time>
      </trkpt>
      <trkpt lat="48.42421" lon="2.70819">
        <ele>149.2</ele>
        <time>2017-01-08T09:55:49Z</time>
      </trkpt>
      <trkpt lat="48.42426" lon="2.70826">
        <ele>149.2</ele>
        <time>2017-01-08T09:55:52Z</time>
      </trkpt>
      <trkpt lat="48.42428" lon="2.70829">
        <ele>149.2</ele>
        <time>2017-01-08T09:55:53Z</time>
      </trkpt>
      <trkpt lat="48.42444" lon="2.70845">
        <ele>149.2</ele>
        <time>2017-01-08T09:55:59Z</time>
      </trkpt>
      <trkpt lat="48.42461" lon="2.7086">
        <ele>149.2</ele>
        <time>2017-01-08T09:56:06Z</time>
      </trkpt>
      <trkpt lat="48.42475" lon="2.70873">
        <ele>149.2</ele>
        <time>2017-01-08T09:56:12Z</time>
      </trkpt>
      <trkpt lat="48.42482" lon="2.7088">
        <ele>149.6</ele>
        <time>2017-01-08T09:56:15Z</time>
      </trkpt>
      <trkpt lat="48.42484" lon="2.70883">
        <ele>150</ele>
        <time>2017-01-08T09:56:16Z</time>
      </trkpt>
      <trkpt lat="48.42487" lon="2.70885">
        <ele>150.4</ele>
        <time>2017-01-08T09:56:17Z</time>
      </trkpt>
      <trkpt lat="48.4249" lon="2.70887">
        <ele>150.8</ele>
        <time>2017-01-08T09:56:18Z</time>
      </trkpt>
      <trkpt lat="48.42492" lon="2.7089">
        <ele>151.2</ele>
        <time>2017-01-08T09:56:19Z</time>
      </trkpt>
      <trkpt lat="48.42501" lon="2.709">
        <ele>151.2</ele>
        <time>2017-01-08T09:56:23Z</time>
      </trkpt>
      <trkpt lat="48.42501" lon="2.70905">
        <ele>151.2</ele>
        <time>2017-01-08T09:56:25Z</time>
      </trkpt>
      <trkpt lat="48.425" lon="2.70909">
        <ele>151.2</ele>
        <time>2017-01-08T09:56:27Z</time>
      </trkpt>
      <trkpt lat="48.42499" lon="2.70911">
        <ele>151.2</ele>
        <time>2017-01-08T09:56:28Z</time>
      </trkpt>
      <trkpt lat="48.42498" lon="2.70924">
        <ele>151.2</ele>
        <time>2017-01-08T09:56:32Z</time>
      </trkpt>
      <trkpt lat="48.42498" lon="2.70928">
        <ele>151.2</ele>
        <time>2017-01-08T09:56:35Z</time>
      </trkpt>
      <trkpt lat="48.42496" lon="2.70933">
        <ele>151.2</ele>
        <time>2017-01-08T09:56:43Z</time>
      </trkpt>
      <trkpt lat="48.4249" lon="2.70948">
        <ele>151.2</ele>
        <time>2017-01-08T09:56:48Z</time>
      </trkpt>
      <trkpt lat="48.4248" lon="2.7097">
        <ele>151.2</ele>
        <time>2017-01-08T09:56:54Z</time>
      </trkpt>
      <trkpt lat="48.42471" lon="2.70988">
        <ele>151.2</ele>
        <time>2017-01-08T09:57:00Z</time>
      </trkpt>
      <trkpt lat="48.42462" lon="2.71005">
        <ele>151.2</ele>
        <time>2017-01-08T09:57:05Z</time>
      </trkpt>
      <trkpt lat="48.42455" lon="2.71021">
        <ele>151.2</ele>
        <time>2017-01-08T09:57:09Z</time>
      </trkpt>
      <trkpt lat="48.4245" lon="2.71026">
        <ele>150.8</ele>
        <time>2017-01-08T09:57:10Z</time>
      </trkpt>
      <trkpt lat="48.42445" lon="2.71033">
        <ele>150.4</ele>
        <time>2017-01-08T09:57:11Z</time>
      </trkpt>
      <trkpt lat="48.42442" lon="2.71041">
        <ele>150</ele>
        <time>2017-01-08T09:57:12Z</time>
      </trkpt>
      <trkpt lat="48.42438" lon="2.7105">
        <ele>149.4</ele>
        <time>2017-01-08T09:57:13Z</time>
      </trkpt>
      <trkpt lat="48.42436" lon="2.71057">
        <ele>148.8</ele>
        <time>2017-01-08T09:57:14Z</time>
      </trkpt>
      <trkpt lat="48.42434" lon="2.71061">
        <ele>148.2</ele>
        <time>2017-01-08T09:57:15Z</time>
      </trkpt>
      <trkpt lat="48.42432" lon="2.71064">
        <ele>147.6</ele>
        <time>2017-01-08T09:57:16Z</time>
      </trkpt>
      <trkpt lat="48.4243" lon="2.71066">
        <ele>147</ele>
        <time>2017-01-08T09:57:17Z</time>
      </trkpt>
      <trkpt lat="48.42424" lon="2.7107">
        <ele>147</ele>
        <time>2017-01-08T09:57:21Z</time>
      </trkpt>
      <trkpt lat="48.42421" lon="2.71074">
        <ele>147</ele>
        <time>2017-01-08T09:57:23Z</time>
      </trkpt>
      <trkpt lat="48.42418" lon="2.71082">
        <ele>147</ele>
        <time>2017-01-08T09:57:25Z</time>
      </trkpt>
      <trkpt lat="48.42417" lon="2.71087">
        <ele>146.4</ele>
        <time>2017-01-08T09:57:26Z</time>
      </trkpt>
      <trkpt lat="48.42415" lon="2.71091">
        <ele>146</ele>
        <time>2017-01-08T09:57:27Z</time>
      </trkpt>
      <trkpt lat="48.42413" lon="2.71095">
        <ele>145.6</ele>
        <time>2017-01-08T09:57:28Z</time>
      </trkpt>
      <trkpt lat="48.42412" lon="2.71098">
        <ele>145.2</ele>
        <time>2017-01-08T09:57:29Z</time>
      </trkpt>
      <trkpt lat="48.4241" lon="2.711">
        <ele>144.8</ele>
        <time>2017-01-08T09:57:30Z</time>
      </trkpt>
      <trkpt lat="48.42405" lon="2.71112">
        <ele>144.8</ele>
        <time>2017-01-08T09:57:33Z</time>
      </trkpt>
      <trkpt lat="48.42397" lon="2.71135">
        <ele>144.8</ele>
        <time>2017-01-08T09:57:38Z</time>
      </trkpt>
      <trkpt lat="48.42393" lon="2.71139">
        <ele>144.4</ele>
        <time>2017-01-08T09:57:39Z</time>
      </trkpt>
      <trkpt lat="48.42389" lon="2.71142">
        <ele>144</ele>
        <time>2017-01-08T09:57:40Z</time>
      </trkpt>
      <trkpt lat="48.42385" lon="2.71144">
        <ele>143.6</ele>
        <time>2017-01-08T09:57:41Z</time>
      </trkpt>
      <trkpt lat="48.4238" lon="2.71147">
        <ele>143</ele>
        <time>2017-01-08T09:57:42Z</time>
      </trkpt>
      <trkpt lat="48.42377" lon="2.71152">
        <ele>142.6</ele>
        <time>2017-01-08T09:57:43Z</time>
      </trkpt>
      <trkpt lat="48.42369" lon="2.71161">
        <ele>142.6</ele>
        <time>2017-01-08T09:57:45Z</time>
      </trkpt>
      <trkpt lat="48.42356" lon="2.7116">
        <ele>142.6</ele>
        <time>2017-01-08T09:57:48Z</time>
      </trkpt>
      <trkpt lat="48.42351" lon="2.71166">
        <ele>142.6</ele>
        <time>2017-01-08T09:57:50Z</time>
      </trkpt>
      <trkpt lat="48.42348" lon="2.7117">
        <ele>142.6</ele>
        <time>2017-01-08T09:57:51Z</time>
      </trkpt>
      <trkpt lat="48.4234" lon="2.71184">
        <ele>142.2</ele>
        <time>2017-01-08T09:57:54Z</time>
      </trkpt>
      <trkpt lat="48.42337" lon="2.7119">
        <ele>141.8</ele>
        <time>2017-01-08T09:57:55Z</time>
      </trkpt>
      <trkpt lat="48.42336" lon="2.71196">
        <ele>141.4</ele>
        <time>2017-01-08T09:57:56Z</time>
      </trkpt>
      <trkpt lat="48.42335" lon="2.71201">
        <ele>141</ele>
        <time>2017-01-08T09:57:57Z</time>
      </trkpt>
      <trkpt lat="48.42334" lon="2.71206">
        <ele>140.6</ele>
        <time>2017-01-08T09:57:58Z</time>
      </trkpt>
      <trkpt lat="48.42332" lon="2.71212">
        <ele>140.6</ele>
        <time>2017-01-08T09:57:59Z</time>
      </trkpt>
      <trkpt lat="48.42328" lon="2.71228">
        <ele>140.6</ele>
        <time>2017-01-08T09:58:03Z</time>
      </trkpt>
      <trkpt lat="48.42325" lon="2.71238">
        <ele>140.6</ele>
        <time>2017-01-08T09:58:06Z</time>
      </trkpt>
      <trkpt lat="48.42321" lon="2.71237">
        <ele>140.2</ele>
        <time>2017-01-08T09:58:08Z</time>
      </trkpt>
      <trkpt lat="48.42318" lon="2.71235">
        <ele>139.8</ele>
        <time>2017-01-08T09:58:09Z</time>
      </trkpt>
      <trkpt lat="48.42316" lon="2.71233">
        <ele>139.4</ele>
        <time>2017-01-08T09:58:10Z</time>
      </trkpt>
      <trkpt lat="48.42315" lon="2.71231">
        <ele>139</ele>
        <time>2017-01-08T09:58:11Z</time>
      </trkpt>
      <trkpt lat="48.42312" lon="2.71231">
        <ele>138.4</ele>
        <time>2017-01-08T09:58:12Z</time>
      </trkpt>
      <trkpt lat="48.42308" lon="2.71242">
        <ele>138.4</ele>
        <time>2017-01-08T09:58:15Z</time>
      </trkpt>
      <trkpt lat="48.42306" lon="2.71252">
        <ele>138.8</ele>
        <time>2017-01-08T09:58:17Z</time>
      </trkpt>
      <trkpt lat="48.42305" lon="2.71256">
        <ele>139.4</ele>
        <time>2017-01-08T09:58:18Z</time>
      </trkpt>
      <trkpt lat="48.42303" lon="2.71259">
        <ele>139.8</ele>
        <time>2017-01-08T09:58:19Z</time>
      </trkpt>
      <trkpt lat="48.42301" lon="2.71263">
        <ele>140.2</ele>
        <time>2017-01-08T09:58:20Z</time>
      </trkpt>
      <trkpt lat="48.423" lon="2.71266">
        <ele>140.6</ele>
        <time>2017-01-08T09:58:21Z</time>
      </trkpt>
      <trkpt lat="48.42295" lon="2.71274">
        <ele>140.6</ele>
        <time>2017-01-08T09:58:24Z</time>
      </trkpt>
      <trkpt lat="48.42293" lon="2.7128">
        <ele>141</ele>
        <time>2017-01-08T09:58:26Z</time>
      </trkpt>
      <trkpt lat="48.42292" lon="2.71283">
        <ele>141.4</ele>
        <time>2017-01-08T09:58:27Z</time>
      </trkpt>
      <trkpt lat="48.42291" lon="2.71286">
        <ele>141.8</ele>
        <time>2017-01-08T09:58:28Z</time>
      </trkpt>
      <trkpt lat="48.42289" lon="2.71289">
        <ele>142.2</ele>
        <time>2017-01-08T09:58:29Z</time>
      </trkpt>
      <trkpt lat="48.42287" lon="2.71292">
        <ele>142.6</ele>
        <time>2017-01-08T09:58:30Z</time>
      </trkpt>
      <trkpt lat="48.42278" lon="2.71305">
        <ele>142.6</ele>
        <time>2017-01-08T09:58:34Z</time>
      </trkpt>
      <trkpt lat="48.42275" lon="2.71307">
        <ele>142.6</ele>
        <time>2017-01-08T09:58:35Z</time>
      </trkpt>
      <trkpt lat="48.42267" lon="2.71304">
        <ele>142.6</ele>
        <time>2017-01-08T09:58:37Z</time>
      </trkpt>
      <trkpt lat="48.42263" lon="2.71292">
        <ele>142.6</ele>
        <time>2017-01-08T09:58:40Z</time>
      </trkpt>
      <trkpt lat="48.4226" lon="2.71278">
        <ele>142.6</ele>
        <time>2017-01-08T09:58:44Z</time>
      </trkpt>
      <trkpt lat="48.42251" lon="2.71275">
        <ele>142.6</ele>
        <time>2017-01-08T09:58:49Z</time>
      </trkpt>
      <trkpt lat="48.42246" lon="2.71276">
        <ele>143</ele>
        <time>2017-01-08T09:58:51Z</time>
      </trkpt>
      <trkpt lat="48.42243" lon="2.71277">
        <ele>143.6</ele>
        <time>2017-01-08T09:58:52Z</time>
      </trkpt>
      <trkpt lat="48.42241" lon="2.71277">
        <ele>144</ele>
        <time>2017-01-08T09:58:53Z</time>
      </trkpt>
      <trkpt lat="48.42239" lon="2.71278">
        <ele>144.4</ele>
        <time>2017-01-08T09:58:54Z</time>
      </trkpt>
      <trkpt lat="48.42238" lon="2.71279">
        <ele>144.8</ele>
        <time>2017-01-08T09:58:55Z</time>
      </trkpt>
      <trkpt lat="48.42235" lon="2.71281">
        <ele>145.2</ele>
        <time>2017-01-08T09:58:58Z</time>
      </trkpt>
      <trkpt lat="48.42234" lon="2.71281">
        <ele>145.6</ele>
        <time>2017-01-08T09:58:59Z</time>
      </trkpt>
      <trkpt lat="48.42233" lon="2.71281">
        <ele>146</ele>
        <time>2017-01-08T09:59:00Z</time>
      </trkpt>
      <trkpt lat="48.42232" lon="2.71281">
        <ele>146.4</ele>
        <time>2017-01-08T09:59:01Z</time>
      </trkpt>
      <trkpt lat="48.42231" lon="2.71281">
        <ele>146.8</ele>
        <time>2017-01-08T09:59:02Z</time>
      </trkpt>
      <trkpt lat="48.42228" lon="2.71284">
        <ele>146.8</ele>
        <time>2017-01-08T09:59:05Z</time>
      </trkpt>
      <trkpt lat="48.42227" lon="2.71284">
        <ele>147.2</ele>
        <time>2017-01-08T09:59:06Z</time>
      </trkpt>
      <trkpt lat="48.42226" lon="2.71283">
        <ele>147.6</ele>
        <time>2017-01-08T09:59:07Z</time>
      </trkpt>
      <trkpt lat="48.42224" lon="2.71283">
        <ele>148</ele>
        <time>2017-01-08T09:59:08Z</time>
      </trkpt>
      <trkpt lat="48.42222" lon="2.71283">
        <ele>148.4</ele>
        <time>2017-01-08T09:59:09Z</time>
      </trkpt>
      <trkpt lat="48.42221" lon="2.71283">
        <ele>148.8</ele>
        <time>2017-01-08T09:59:10Z</time>
      </trkpt>
      <trkpt lat="48.42218" lon="2.71284">
        <ele>148.8</ele>
        <time>2017-01-08T09:59:12Z</time>
      </trkpt>
      <trkpt lat="48.42212" lon="2.71285">
        <ele>148.8</ele>
        <time>2017-01-08T09:59:15Z</time>
      </trkpt>
      <trkpt lat="48.42197" lon="2.71292">
        <ele>148.8</ele>
        <time>2017-01-08T09:59:21Z</time>
      </trkpt>
      <trkpt lat="48.42181" lon="2.71307">
        <ele>148.8</ele>
        <time>2017-01-08T09:59:27Z</time>
      </trkpt>
      <trkpt lat="48.42166" lon="2.71322">
        <ele>148.8</ele>
        <time>2017-01-08T09:59:32Z</time>
      </trkpt>
      <trkpt lat="48.42151" lon="2.71335">
        <ele>148.8</ele>
        <time>2017-01-08T09:59:37Z</time>
      </trkpt>
      <trkpt lat="48.42139" lon="2.7134">
        <ele>148.8</ele>
        <time>2017-01-08T09:59:41Z</time>
      </trkpt>
      <trkpt lat="48.42136" lon="2.71341">
        <ele>148.8</ele>
        <time>2017-01-08T09:59:42Z</time>
      </trkpt>
      <trkpt lat="48.4212" lon="2.71344">
        <ele>148.8</ele>
        <time>2017-01-08T09:59:47Z</time>
      </trkpt>
      <trkpt lat="48.42115" lon="2.71347">
        <ele>148.8</ele>
        <time>2017-01-08T09:59:49Z</time>
      </trkpt>
      <trkpt lat="48.42111" lon="2.71351">
        <ele>149.2</ele>
        <time>2017-01-08T09:59:51Z</time>
      </trkpt>
      <trkpt lat="48.42108" lon="2.71353">
        <ele>150</ele>
        <time>2017-01-08T09:59:52Z</time>
      </trkpt>
      <trkpt lat="48.42106" lon="2.71354">
        <ele>150.4</ele>
        <time>2017-01-08T09:59:53Z</time>
      </trkpt>
      <trkpt lat="48.42103" lon="2.71356">
        <ele>150.8</ele>
        <time>2017-01-08T09:59:54Z</time>
      </trkpt>
      <trkpt lat="48.42095" lon="2.71367">
        <ele>150.8</ele>
        <time>2017-01-08T09:59:58Z</time>
      </trkpt>
      <trkpt lat="48.42087" lon="2.71382">
        <ele>150.8</ele>
        <time>2017-01-08T10:00:02Z</time>
      </trkpt>
      <trkpt lat="48.42081" lon="2.71404">
        <ele>150.8</ele>
        <time>2017-01-08T10:00:07Z</time>
      </trkpt>
      <trkpt lat="48.42078" lon="2.71409">
        <ele>150.8</ele>
        <time>2017-01-08T10:00:09Z</time>
      </trkpt>
      <trkpt lat="48.42076" lon="2.71415">
        <ele>150.8</ele>
        <time>2017-01-08T10:00:11Z</time>
      </trkpt>
      <trkpt lat="48.42071" lon="2.71431">
        <ele>150.8</ele>
        <time>2017-01-08T10:00:16Z</time>
      </trkpt>
      <trkpt lat="48.42069" lon="2.71433">
        <ele>150.8</ele>
        <time>2017-01-08T10:00:17Z</time>
      </trkpt>
      <trkpt lat="48.42061" lon="2.71449">
        <ele>150.8</ele>
        <time>2017-01-08T10:00:23Z</time>
      </trkpt>
      <trkpt lat="48.4206" lon="2.7146">
        <ele>150.8</ele>
        <time>2017-01-08T10:00:26Z</time>
      </trkpt>
      <trkpt lat="48.42058" lon="2.71466">
        <ele>150.8</ele>
        <time>2017-01-08T10:00:28Z</time>
      </trkpt>
      <trkpt lat="48.42051" lon="2.71485">
        <ele>150.8</ele>
        <time>2017-01-08T10:00:32Z</time>
      </trkpt>
      <trkpt lat="48.42044" lon="2.71498">
        <ele>150.8</ele>
        <time>2017-01-08T10:00:36Z</time>
      </trkpt>
      <trkpt lat="48.42033" lon="2.71495">
        <ele>150.8</ele>
        <time>2017-01-08T10:00:40Z</time>
      </trkpt>
      <trkpt lat="48.42029" lon="2.71495">
        <ele>150.8</ele>
        <time>2017-01-08T10:00:41Z</time>
      </trkpt>
      <trkpt lat="48.42006" lon="2.71483">
        <ele>150.8</ele>
        <time>2017-01-08T10:00:48Z</time>
      </trkpt>
      <trkpt lat="48.41994" lon="2.71478">
        <ele>150.8</ele>
        <time>2017-01-08T10:00:53Z</time>
      </trkpt>
      <trkpt lat="48.41984" lon="2.71475">
        <ele>150.8</ele>
        <time>2017-01-08T10:00:58Z</time>
      </trkpt>
      <trkpt lat="48.41981" lon="2.71475">
        <ele>150.8</ele>
        <time>2017-01-08T10:01:00Z</time>
      </trkpt>
      <trkpt lat="48.41978" lon="2.71473">
        <ele>150.8</ele>
        <time>2017-01-08T10:01:03Z</time>
      </trkpt>
      <trkpt lat="48.41975" lon="2.71475">
        <ele>150.8</ele>
        <time>2017-01-08T10:01:06Z</time>
      </trkpt>
      <trkpt lat="48.41973" lon="2.71477">
        <ele>150.8</ele>
        <time>2017-01-08T10:01:08Z</time>
      </trkpt>
      <trkpt lat="48.41973" lon="2.71485">
        <ele>150.8</ele>
        <time>2017-01-08T10:01:13Z</time>
      </trkpt>
      <trkpt lat="48.41974" lon="2.71494">
        <ele>150.8</ele>
        <time>2017-01-08T10:01:19Z</time>
      </trkpt>
      <trkpt lat="48.41974" lon="2.71496">
        <ele>150.8</ele>
        <time>2017-01-08T10:01:33Z</time>
      </trkpt>
      <trkpt lat="48.41974" lon="2.71499">
        <ele>150.8</ele>
        <time>2017-01-08T10:01:34Z</time>
      </trkpt>
      <trkpt lat="48.41975" lon="2.71502">
        <ele>150.8</ele>
        <time>2017-01-08T10:01:35Z</time>
      </trkpt>
      <trkpt lat="48.41978" lon="2.71509">
        <ele>150.4</ele>
        <time>2017-01-08T10:01:37Z</time>
      </trkpt>
      <trkpt lat="48.41981" lon="2.71512">
        <ele>150</ele>
        <time>2017-01-08T10:01:38Z</time>
      </trkpt>
      <trkpt lat="48.41983" lon="2.71516">
        <ele>149.4</ele>
        <time>2017-01-08T10:01:39Z</time>
      </trkpt>
      <trkpt lat="48.41986" lon="2.71518">
        <ele>149</ele>
        <time>2017-01-08T10:01:40Z</time>
      </trkpt>
      <trkpt lat="48.41988" lon="2.7152">
        <ele>148.6</ele>
        <time>2017-01-08T10:01:41Z</time>
      </trkpt>
      <trkpt lat="48.41991" lon="2.71521">
        <ele>148.6</ele>
        <time>2017-01-08T10:01:42Z</time>
      </trkpt>
      <trkpt lat="48.42002" lon="2.71521">
        <ele>148.6</ele>
        <time>2017-01-08T10:01:46Z</time>
      </trkpt>
      <trkpt lat="48.42005" lon="2.71521">
        <ele>148.6</ele>
        <time>2017-01-08T10:01:47Z</time>
      </trkpt>
      <trkpt lat="48.4202" lon="2.71529">
        <ele>148.6</ele>
        <time>2017-01-08T10:01:53Z</time>
      </trkpt>
      <trkpt lat="48.42021" lon="2.71531">
        <ele>148.6</ele>
        <time>2017-01-08T10:01:54Z</time>
      </trkpt>
      <trkpt lat="48.42034" lon="2.71529">
        <ele>140.8515625</ele>
      </trkpt>
      <trkpt lat="48.42046" lon="2.71536">
        <ele>141.6953125</ele>
      </trkpt>
      <trkpt lat="48.42058" lon="2.71559">
        <ele>141.84375</ele>
      </trkpt>
      <trkpt lat="48.42085" lon="2.71579">
        <ele>141.421875</ele>
      </trkpt>
      <trkpt lat="48.421" lon="2.71576">
        <ele>141.55859375</ele>
      </trkpt>
      <trkpt lat="48.42123" lon="2.71631">
        <ele>141.52734375</ele>
      </trkpt>
      <trkpt lat="48.42098" lon="2.71737">
        <ele>140.515625</ele>
      </trkpt>
      <trkpt lat="48.4208" lon="2.71772">
        <ele>139.96875</ele>
      </trkpt>
      <trkpt lat="48.42078" lon="2.71796">
        <ele>139.7109375</ele>
      </trkpt>
      <trkpt lat="48.42069" lon="2.71809">
        <ele>139.15234375</ele>
      </trkpt>
      <trkpt lat="48.42068" lon="2.71831">
        <ele>138.72265625</ele>
      </trkpt>
      <trkpt lat="48.42052" lon="2.71849">
        <ele>138.07421875</ele>
      </trkpt>
      <trkpt lat="48.42053" lon="2.7188">
        <ele>138.10546875</ele>
      </trkpt>
      <trkpt lat="48.42037" lon="2.71957">
        <ele>135.97265625</ele>
      </trkpt>
      <trkpt lat="48.42049" lon="2.71979">
        <ele>135.7734375</ele>
      </trkpt>
      <trkpt lat="48.42071" lon="2.72011">
        <ele>133.31640625</ele>
      </trkpt>
      <trkpt lat="48.42085" lon="2.72018">
        <ele>131.890625</ele>
      </trkpt>
      <trkpt lat="48.42099" lon="2.7202">
        <ele>130.7734375</ele>
      </trkpt>
      <trkpt lat="48.42112" lon="2.7202">
        <ele>130.1796875</ele>
      </trkpt>
      <trkpt lat="48.42117" lon="2.72025">
        <ele>141.2</ele>
        <time>2017-01-08T10:16:33Z</time>
      </trkpt>
      <trkpt lat="48.42118" lon="2.72019">
        <ele>141.2</ele>
        <time>2017-01-08T10:16:35Z</time>
      </trkpt>
      <trkpt lat="48.42122" lon="2.72009">
        <ele>141.2</ele>
        <time>2017-01-08T10:16:39Z</time>
      </trkpt>
      <trkpt lat="48.42123" lon="2.72008">
        <ele>141.2</ele>
        <time>2017-01-08T10:16:40Z</time>
      </trkpt>
      <trkpt lat="48.42125" lon="2.72007">
        <ele>141.2</ele>
        <time>2017-01-08T10:16:41Z</time>
      </trkpt>
      <trkpt lat="48.42128" lon="2.72003">
        <ele>141.2</ele>
        <time>2017-01-08T10:16:44Z</time>
      </trkpt>
      <trkpt lat="48.4213" lon="2.72001">
        <ele>141.2</ele>
        <time>2017-01-08T10:16:46Z</time>
      </trkpt>
      <trkpt lat="48.4213" lon="2.71999">
        <ele>141.6</ele>
        <time>2017-01-08T10:16:47Z</time>
      </trkpt>
      <trkpt lat="48.4213" lon="2.71998">
        <ele>142</ele>
        <time>2017-01-08T10:16:48Z</time>
      </trkpt>
      <trkpt lat="48.42132" lon="2.71996">
        <ele>142.4</ele>
        <time>2017-01-08T10:16:49Z</time>
      </trkpt>
      <trkpt lat="48.42134" lon="2.71994">
        <ele>143</ele>
        <time>2017-01-08T10:16:50Z</time>
      </trkpt>
      <trkpt lat="48.42136" lon="2.71992">
        <ele>143.4</ele>
        <time>2017-01-08T10:16:51Z</time>
      </trkpt>
      <trkpt lat="48.42138" lon="2.71989">
        <ele>143.4</ele>
        <time>2017-01-08T10:16:52Z</time>
      </trkpt>
      <trkpt lat="48.42137" lon="2.7198">
        <ele>143.4</ele>
        <time>2017-01-08T10:16:55Z</time>
      </trkpt>
      <trkpt lat="48.42139" lon="2.71977">
        <ele>143.4</ele>
        <time>2017-01-08T10:16:56Z</time>
      </trkpt>
      <trkpt lat="48.42142" lon="2.71971">
        <ele>143.4</ele>
        <time>2017-01-08T10:16:59Z</time>
      </trkpt>
      <trkpt lat="48.42142" lon="2.71968">
        <ele>143.4</ele>
        <time>2017-01-08T10:17:00Z</time>
      </trkpt>
      <trkpt lat="48.42142" lon="2.71965">
        <ele>143.4</ele>
        <time>2017-01-08T10:17:01Z</time>
      </trkpt>
      <trkpt lat="48.42145" lon="2.71958">
        <ele>143.4</ele>
        <time>2017-01-08T10:17:05Z</time>
      </trkpt>
      <trkpt lat="48.42146" lon="2.71947">
        <ele>143.4</ele>
        <time>2017-01-08T10:17:11Z</time>
      </trkpt>
      <trkpt lat="48.42146" lon="2.71942">
        <ele>143.4</ele>
        <time>2017-01-08T10:17:13Z</time>
      </trkpt>
      <trkpt lat="48.42148" lon="2.71923">
        <ele>143.4</ele>
        <time>2017-01-08T10:17:20Z</time>
      </trkpt>
      <trkpt lat="48.42146" lon="2.71902">
        <ele>143.4</ele>
        <time>2017-01-08T10:17:27Z</time>
      </trkpt>
      <trkpt lat="48.42149" lon="2.7188">
        <ele>143.4</ele>
        <time>2017-01-08T10:17:32Z</time>
      </trkpt>
      <trkpt lat="48.42149" lon="2.71875">
        <ele>143.4</ele>
        <time>2017-01-08T10:17:33Z</time>
      </trkpt>
      <trkpt lat="48.42157" lon="2.71856">
        <ele>143.4</ele>
        <time>2017-01-08T10:17:38Z</time>
      </trkpt>
      <trkpt lat="48.4216" lon="2.71854">
        <ele>143.4</ele>
        <time>2017-01-08T10:17:40Z</time>
      </trkpt>
      <trkpt lat="48.42163" lon="2.71854">
        <ele>143.4</ele>
        <time>2017-01-08T10:17:42Z</time>
      </trkpt>
      <trkpt lat="48.42166" lon="2.71853">
        <ele>143.4</ele>
        <time>2017-01-08T10:17:46Z</time>
      </trkpt>
      <trkpt lat="48.42167" lon="2.71853">
        <ele>143.8</ele>
        <time>2017-01-08T10:17:47Z</time>
      </trkpt>
      <trkpt lat="48.42169" lon="2.71853">
        <ele>144.2</ele>
        <time>2017-01-08T10:17:48Z</time>
      </trkpt>
      <trkpt lat="48.42169" lon="2.71853">
        <ele>144.6</ele>
        <time>2017-01-08T10:17:49Z</time>
      </trkpt>
      <trkpt lat="48.42169" lon="2.71853">
        <ele>145</ele>
        <time>2017-01-08T10:17:50Z</time>
      </trkpt>
      <trkpt lat="48.4217" lon="2.71853">
        <ele>145.4</ele>
        <time>2017-01-08T10:17:51Z</time>
      </trkpt>
      <trkpt lat="48.4217" lon="2.71853">
        <ele>145.4</ele>
        <time>2017-01-08T10:17:52Z</time>
      </trkpt>
      <trkpt lat="48.42178" lon="2.71851">
        <ele>147.6</ele>
        <time>2017-01-08T10:18:04Z</time>
      </trkpt>
      <trkpt lat="48.4218" lon="2.71856">
        <ele>147.6</ele>
        <time>2017-01-08T10:18:07Z</time>
      </trkpt>
      <trkpt lat="48.42182" lon="2.71859">
        <ele>147.6</ele>
        <time>2017-01-08T10:18:08Z</time>
      </trkpt>
      <trkpt lat="48.42185" lon="2.71864">
        <ele>147.6</ele>
        <time>2017-01-08T10:18:11Z</time>
      </trkpt>
      <trkpt lat="48.42189" lon="2.7187">
        <ele>147.6</ele>
        <time>2017-01-08T10:18:14Z</time>
      </trkpt>
      <trkpt lat="48.42195" lon="2.71877">
        <ele>148</ele>
        <time>2017-01-08T10:18:18Z</time>
      </trkpt>
      <trkpt lat="48.42198" lon="2.71878">
        <ele>148.4</ele>
        <time>2017-01-08T10:18:19Z</time>
      </trkpt>
      <trkpt lat="48.42199" lon="2.7188">
        <ele>148.8</ele>
        <time>2017-01-08T10:18:20Z</time>
      </trkpt>
      <trkpt lat="48.422" lon="2.7188">
        <ele>149.2</ele>
        <time>2017-01-08T10:18:21Z</time>
      </trkpt>
      <trkpt lat="48.42201" lon="2.71881">
        <ele>149.6</ele>
        <time>2017-01-08T10:18:22Z</time>
      </trkpt>
      <trkpt lat="48.42204" lon="2.71882">
        <ele>149.6</ele>
        <time>2017-01-08T10:18:25Z</time>
      </trkpt>
      <trkpt lat="48.42206" lon="2.71883">
        <ele>149.6</ele>
        <time>2017-01-08T10:21:10Z</time>
      </trkpt>
      <trkpt lat="48.4221" lon="2.71883">
        <ele>149.2</ele>
        <time>2017-01-08T10:21:13Z</time>
      </trkpt>
      <trkpt lat="48.42212" lon="2.71883">
        <ele>148.8</ele>
        <time>2017-01-08T10:21:14Z</time>
      </trkpt>
      <trkpt lat="48.42213" lon="2.71884">
        <ele>148.4</ele>
        <time>2017-01-08T10:21:15Z</time>
      </trkpt>
      <trkpt lat="48.42213" lon="2.71886">
        <ele>148</ele>
        <time>2017-01-08T10:21:16Z</time>
      </trkpt>
      <trkpt lat="48.42214" lon="2.71888">
        <ele>147.4</ele>
        <time>2017-01-08T10:21:17Z</time>
      </trkpt>
      <trkpt lat="48.42215" lon="2.71893">
        <ele>147</ele>
        <time>2017-01-08T10:21:20Z</time>
      </trkpt>
      <trkpt lat="48.42216" lon="2.71895">
        <ele>146.6</ele>
        <time>2017-01-08T10:21:21Z</time>
      </trkpt>
      <trkpt lat="48.42218" lon="2.71898">
        <ele>146.2</ele>
        <time>2017-01-08T10:21:22Z</time>
      </trkpt>
      <trkpt lat="48.4222" lon="2.71899">
        <ele>145.8</ele>
        <time>2017-01-08T10:21:23Z</time>
      </trkpt>
      <trkpt lat="48.42223" lon="2.71902">
        <ele>145.2</ele>
        <time>2017-01-08T10:21:24Z</time>
      </trkpt>
      <trkpt lat="48.42225" lon="2.71902">
        <ele>145.2</ele>
        <time>2017-01-08T10:21:26Z</time>
      </trkpt>
      <trkpt lat="48.42224" lon="2.71902">
        <ele>145.2</ele>
        <time>2017-01-08T10:21:28Z</time>
      </trkpt>
      <trkpt lat="48.4223" lon="2.71908">
        <ele>143.2</ele>
        <time>2017-01-08T10:22:42Z</time>
      </trkpt>
      <trkpt lat="48.42231" lon="2.71908">
        <ele>143.2</ele>
        <time>2017-01-08T10:22:43Z</time>
      </trkpt>
      <trkpt lat="48.4224" lon="2.71912">
        <ele>143.2</ele>
        <time>2017-01-08T10:22:47Z</time>
      </trkpt>
      <trkpt lat="48.42241" lon="2.71912">
        <ele>143.2</ele>
        <time>2017-01-08T10:22:48Z</time>
      </trkpt>
      <trkpt lat="48.42246" lon="2.71916">
        <ele>143.2</ele>
        <time>2017-01-08T10:22:52Z</time>
      </trkpt>
      <trkpt lat="48.42247" lon="2.71915">
        <ele>143.2</ele>
        <time>2017-01-08T10:22:53Z</time>
      </trkpt>
      <trkpt lat="48.42256" lon="2.71912">
        <ele>143.2</ele>
        <time>2017-01-08T10:22:58Z</time>
      </trkpt>
      <trkpt lat="48.42258" lon="2.71909">
        <ele>143.2</ele>
        <time>2017-01-08T10:22:59Z</time>
      </trkpt>
      <trkpt lat="48.42266" lon="2.71893">
        <ele>143.2</ele>
        <time>2017-01-08T10:23:05Z</time>
      </trkpt>
      <trkpt lat="48.42268" lon="2.71885">
        <ele>143.2</ele>
        <time>2017-01-08T10:23:08Z</time>
      </trkpt>
      <trkpt lat="48.42272" lon="2.71883">
        <ele>143.2</ele>
        <time>2017-01-08T10:23:10Z</time>
      </trkpt>
      <trkpt lat="48.42282" lon="2.71881">
        <ele>143.2</ele>
        <time>2017-01-08T10:23:13Z</time>
      </trkpt>
      <trkpt lat="48.4229" lon="2.7188">
        <ele>143.2</ele>
        <time>2017-01-08T10:23:15Z</time>
      </trkpt>
      <trkpt lat="48.42302" lon="2.71884">
        <ele>143.2</ele>
        <time>2017-01-08T10:23:20Z</time>
      </trkpt>
      <trkpt lat="48.42311" lon="2.71891">
        <ele>143.2</ele>
        <time>2017-01-08T10:23:24Z</time>
      </trkpt>
      <trkpt lat="48.42314" lon="2.71893">
        <ele>143.2</ele>
        <time>2017-01-08T10:23:25Z</time>
      </trkpt>
      <trkpt lat="48.42323" lon="2.71896">
        <ele>143.2</ele>
        <time>2017-01-08T10:23:29Z</time>
      </trkpt>
      <trkpt lat="48.42341" lon="2.71905">
        <ele>143.2</ele>
        <time>2017-01-08T10:23:35Z</time>
      </trkpt>
      <trkpt lat="48.42344" lon="2.7192">
        <ele>143.2</ele>
        <time>2017-01-08T10:23:39Z</time>
      </trkpt>
      <trkpt lat="48.42347" lon="2.71927">
        <ele>143.2</ele>
        <time>2017-01-08T10:23:41Z</time>
      </trkpt>
      <trkpt lat="48.42352" lon="2.7193">
        <ele>143.2</ele>
        <time>2017-01-08T10:23:43Z</time>
      </trkpt>
      <trkpt lat="48.42359" lon="2.71926">
        <ele>143.2</ele>
        <time>2017-01-08T10:23:47Z</time>
      </trkpt>
      <trkpt lat="48.42368" lon="2.7193">
        <ele>143.2</ele>
        <time>2017-01-08T10:23:51Z</time>
      </trkpt>
      <trkpt lat="48.42377" lon="2.71941">
        <ele>143.2</ele>
        <time>2017-01-08T10:23:55Z</time>
      </trkpt>
      <trkpt lat="48.42387" lon="2.71949">
        <ele>143.2</ele>
        <time>2017-01-08T10:23:59Z</time>
      </trkpt>
      <trkpt lat="48.42399" lon="2.71955">
        <ele>143.2</ele>
        <time>2017-01-08T10:24:04Z</time>
      </trkpt>
      <trkpt lat="48.424" lon="2.71957">
        <ele>143.2</ele>
        <time>2017-01-08T10:24:06Z</time>
      </trkpt>
      <trkpt lat="48.42407" lon="2.71962">
        <ele>143.2</ele>
        <time>2017-01-08T10:24:12Z</time>
      </trkpt>
      <trkpt lat="48.42408" lon="2.71963">
        <ele>143.2</ele>
        <time>2017-01-08T10:24:13Z</time>
      </trkpt>
      <trkpt lat="48.42414" lon="2.71967">
        <ele>143.2</ele>
        <time>2017-01-08T10:24:16Z</time>
      </trkpt>
      <trkpt lat="48.42415" lon="2.71966">
        <ele>143.2</ele>
        <time>2017-01-08T10:24:17Z</time>
      </trkpt>
      <trkpt lat="48.42425" lon="2.71969">
        <ele>143.2</ele>
        <time>2017-01-08T10:24:22Z</time>
      </trkpt>
      <trkpt lat="48.42425" lon="2.71972">
        <ele>142.8</ele>
        <time>2017-01-08T10:24:23Z</time>
      </trkpt>
      <trkpt lat="48.42426" lon="2.71977">
        <ele>142.4</ele>
        <time>2017-01-08T10:24:24Z</time>
      </trkpt>
      <trkpt lat="48.42427" lon="2.71982">
        <ele>142</ele>
        <time>2017-01-08T10:24:25Z</time>
      </trkpt>
      <trkpt lat="48.42427" lon="2.71988">
        <ele>141.4</ele>
        <time>2017-01-08T10:24:26Z</time>
      </trkpt>
      <trkpt lat="48.42428" lon="2.71995">
        <ele>140.8</ele>
        <time>2017-01-08T10:24:27Z</time>
      </trkpt>
      <trkpt lat="48.42429" lon="2.72">
        <ele>140</ele>
        <time>2017-01-08T10:24:28Z</time>
      </trkpt>
      <trkpt lat="48.42431" lon="2.72004">
        <ele>139.4</ele>
        <time>2017-01-08T10:24:29Z</time>
      </trkpt>
      <trkpt lat="48.42433" lon="2.72008">
        <ele>138.8</ele>
        <time>2017-01-08T10:24:30Z</time>
      </trkpt>
      <trkpt lat="48.42435" lon="2.72023">
        <ele>138.8</ele>
        <time>2017-01-08T10:24:33Z</time>
      </trkpt>
      <trkpt lat="48.4244" lon="2.7204">
        <ele>138.8</ele>
        <time>2017-01-08T10:24:37Z</time>
      </trkpt>
      <trkpt lat="48.42449" lon="2.72059">
        <ele>138.8</ele>
        <time>2017-01-08T10:24:41Z</time>
      </trkpt>
      <trkpt lat="48.42456" lon="2.72077">
        <ele>138.8</ele>
        <time>2017-01-08T10:24:44Z</time>
      </trkpt>
      <trkpt lat="48.42457" lon="2.72085">
        <ele>138.8</ele>
        <time>2017-01-08T10:24:45Z</time>
      </trkpt>
      <trkpt lat="48.42464" lon="2.72113">
        <ele>138.8</ele>
        <time>2017-01-08T10:24:50Z</time>
      </trkpt>
      <trkpt lat="48.42472" lon="2.72123">
        <ele>138.8</ele>
        <time>2017-01-08T10:24:53Z</time>
      </trkpt>
      <trkpt lat="48.42476" lon="2.72123">
        <ele>138.8</ele>
        <time>2017-01-08T10:24:54Z</time>
      </trkpt>
      <trkpt lat="48.42483" lon="2.72118">
        <ele>138.8</ele>
        <time>2017-01-08T10:24:57Z</time>
      </trkpt>
      <trkpt lat="48.42486" lon="2.72117">
        <ele>138.8</ele>
        <time>2017-01-08T10:24:58Z</time>
      </trkpt>
      <trkpt lat="48.42498" lon="2.72116">
        <ele>138.8</ele>
        <time>2017-01-08T10:25:03Z</time>
      </trkpt>
      <trkpt lat="48.42505" lon="2.72112">
        <ele>138.8</ele>
        <time>2017-01-08T10:25:07Z</time>
      </trkpt>
      <trkpt lat="48.42507" lon="2.72111">
        <ele>138.8</ele>
        <time>2017-01-08T10:25:08Z</time>
      </trkpt>
      <trkpt lat="48.42509" lon="2.72113">
        <ele>139.2</ele>
        <time>2017-01-08T10:25:09Z</time>
      </trkpt>
      <trkpt lat="48.42511" lon="2.72115">
        <ele>139.6</ele>
        <time>2017-01-08T10:25:10Z</time>
      </trkpt>
      <trkpt lat="48.42513" lon="2.72117">
        <ele>140</ele>
        <time>2017-01-08T10:25:11Z</time>
      </trkpt>
      <trkpt lat="48.42515" lon="2.72117">
        <ele>140.4</ele>
        <time>2017-01-08T10:25:12Z</time>
      </trkpt>
      <trkpt lat="48.42518" lon="2.72118">
        <ele>140.8</ele>
        <time>2017-01-08T10:25:13Z</time>
      </trkpt>
      <trkpt lat="48.42524" lon="2.72119">
        <ele>140.8</ele>
        <time>2017-01-08T10:25:16Z</time>
      </trkpt>
      <trkpt lat="48.42526" lon="2.72114">
        <ele>140.8</ele>
        <time>2017-01-08T10:25:18Z</time>
      </trkpt>
      <trkpt lat="48.42527" lon="2.72112">
        <ele>140.8</ele>
        <time>2017-01-08T10:25:19Z</time>
      </trkpt>
      <trkpt lat="48.42535" lon="2.72097">
        <ele>140.8</ele>
        <time>2017-01-08T10:25:24Z</time>
      </trkpt>
      <trkpt lat="48.42538" lon="2.7209">
        <ele>141.2</ele>
        <time>2017-01-08T10:25:28Z</time>
      </trkpt>
      <trkpt lat="48.4254" lon="2.72089">
        <ele>141.6</ele>
        <time>2017-01-08T10:25:29Z</time>
      </trkpt>
      <trkpt lat="48.42542" lon="2.72089">
        <ele>142</ele>
        <time>2017-01-08T10:25:30Z</time>
      </trkpt>
      <trkpt lat="48.42545" lon="2.7209">
        <ele>142.4</ele>
        <time>2017-01-08T10:25:31Z</time>
      </trkpt>
      <trkpt lat="48.42548" lon="2.7209">
        <ele>143</ele>
        <time>2017-01-08T10:25:32Z</time>
      </trkpt>
      <trkpt lat="48.42558" lon="2.72091">
        <ele>143</ele>
        <time>2017-01-08T10:25:35Z</time>
      </trkpt>
      <trkpt lat="48.42563" lon="2.7209">
        <ele>143</ele>
        <time>2017-01-08T10:25:36Z</time>
      </trkpt>
      <trkpt lat="48.42572" lon="2.72086">
        <ele>142.6</ele>
        <time>2017-01-08T10:25:38Z</time>
      </trkpt>
      <trkpt lat="48.42575" lon="2.72085">
        <ele>142</ele>
        <time>2017-01-08T10:25:39Z</time>
      </trkpt>
      <trkpt lat="48.42578" lon="2.72083">
        <ele>140.8</ele>
        <time>2017-01-08T10:25:57Z</time>
      </trkpt>
      <trkpt lat="48.42594" lon="2.72083">
        <ele>140.8</ele>
        <time>2017-01-08T10:26:54Z</time>
      </trkpt>
      <trkpt lat="48.42603" lon="2.72094">
        <ele>140.8</ele>
        <time>2017-01-08T10:26:58Z</time>
      </trkpt>
      <trkpt lat="48.42609" lon="2.72097">
        <ele>140.8</ele>
        <time>2017-01-08T10:27:00Z</time>
      </trkpt>
      <trkpt lat="48.42612" lon="2.72096">
        <ele>140.8</ele>
        <time>2017-01-08T10:27:02Z</time>
      </trkpt>
      <trkpt lat="48.42617" lon="2.72091">
        <ele>140.8</ele>
        <time>2017-01-08T10:27:05Z</time>
      </trkpt>
      <trkpt lat="48.42621" lon="2.72087">
        <ele>140.8</ele>
        <time>2017-01-08T10:27:07Z</time>
      </trkpt>
      <trkpt lat="48.42626" lon="2.72077">
        <ele>140.8</ele>
        <time>2017-01-08T10:27:11Z</time>
      </trkpt>
      <trkpt lat="48.42627" lon="2.72074">
        <ele>140.8</ele>
        <time>2017-01-08T10:27:12Z</time>
      </trkpt>
      <trkpt lat="48.42631" lon="2.72062">
        <ele>140.8</ele>
        <time>2017-01-08T10:27:17Z</time>
      </trkpt>
      <trkpt lat="48.42632" lon="2.7206">
        <ele>140.8</ele>
        <time>2017-01-08T10:27:19Z</time>
      </trkpt>
      <trkpt lat="48.42633" lon="2.72054">
        <ele>140.8</ele>
        <time>2017-01-08T10:27:32Z</time>
      </trkpt>
      <trkpt lat="48.42635" lon="2.72051">
        <ele>140.8</ele>
        <time>2017-01-08T10:27:33Z</time>
      </trkpt>
      <trkpt lat="48.42637" lon="2.72044">
        <ele>140.8</ele>
        <time>2017-01-08T10:27:36Z</time>
      </trkpt>
      <trkpt lat="48.4264" lon="2.7204">
        <ele>140.8</ele>
        <time>2017-01-08T10:27:38Z</time>
      </trkpt>
      <trkpt lat="48.4264" lon="2.72038">
        <ele>140.8</ele>
        <time>2017-01-08T10:27:39Z</time>
      </trkpt>
      <trkpt lat="48.4264" lon="2.72033">
        <ele>140.8</ele>
        <time>2017-01-08T10:27:41Z</time>
      </trkpt>
      <trkpt lat="48.42645" lon="2.72021">
        <ele>140.8</ele>
        <time>2017-01-08T10:27:45Z</time>
      </trkpt>
      <trkpt lat="48.42646" lon="2.72018">
        <ele>141.4</ele>
        <time>2017-01-08T10:27:46Z</time>
      </trkpt>
      <trkpt lat="48.42647" lon="2.72017">
        <ele>141.8</ele>
        <time>2017-01-08T10:27:47Z</time>
      </trkpt>
      <trkpt lat="48.42647" lon="2.72016">
        <ele>142.2</ele>
        <time>2017-01-08T10:27:48Z</time>
      </trkpt>
      <trkpt lat="48.42648" lon="2.72013">
        <ele>142.6</ele>
        <time>2017-01-08T10:27:49Z</time>
      </trkpt>
      <trkpt lat="48.42649" lon="2.72011">
        <ele>143.2</ele>
        <time>2017-01-08T10:27:50Z</time>
      </trkpt>
      <trkpt lat="48.42651" lon="2.72006">
        <ele>143.2</ele>
        <time>2017-01-08T10:27:52Z</time>
      </trkpt>
      <trkpt lat="48.42652" lon="2.72003">
        <ele>143.2</ele>
        <time>2017-01-08T10:27:53Z</time>
      </trkpt>
      <trkpt lat="48.42652" lon="2.71997">
        <ele>143.2</ele>
        <time>2017-01-08T10:27:55Z</time>
      </trkpt>
      <trkpt lat="48.42654" lon="2.71995">
        <ele>143.2</ele>
        <time>2017-01-08T10:27:56Z</time>
      </trkpt>
      <trkpt lat="48.42656" lon="2.71993">
        <ele>143.6</ele>
        <time>2017-01-08T10:27:57Z</time>
      </trkpt>
      <trkpt lat="48.42657" lon="2.71991">
        <ele>144</ele>
        <time>2017-01-08T10:27:58Z</time>
      </trkpt>
      <trkpt lat="48.42659" lon="2.7199">
        <ele>144.4</ele>
        <time>2017-01-08T10:27:59Z</time>
      </trkpt>
      <trkpt lat="48.42661" lon="2.71989">
        <ele>144.8</ele>
        <time>2017-01-08T10:28:00Z</time>
      </trkpt>
      <trkpt lat="48.42664" lon="2.71988">
        <ele>145.4</ele>
        <time>2017-01-08T10:28:01Z</time>
      </trkpt>
      <trkpt lat="48.42669" lon="2.7199">
        <ele>145.4</ele>
        <time>2017-01-08T10:28:04Z</time>
      </trkpt>
      <trkpt lat="48.42682" lon="2.71991">
        <ele>145.4</ele>
        <time>2017-01-08T10:28:08Z</time>
      </trkpt>
      <trkpt lat="48.42693" lon="2.71993">
        <ele>145.4</ele>
        <time>2017-01-08T10:28:12Z</time>
      </trkpt>
      <trkpt lat="48.42704" lon="2.72002">
        <ele>145.4</ele>
        <time>2017-01-08T10:28:16Z</time>
      </trkpt>
      <trkpt lat="48.42712" lon="2.72001">
        <ele>145.4</ele>
        <time>2017-01-08T10:28:19Z</time>
      </trkpt>
      <trkpt lat="48.42719" lon="2.72">
        <ele>145.4</ele>
        <time>2017-01-08T10:28:23Z</time>
      </trkpt>
      <trkpt lat="48.42728" lon="2.71998">
        <ele>145.4</ele>
        <time>2017-01-08T10:28:27Z</time>
      </trkpt>
      <trkpt lat="48.42745" lon="2.71994">
        <ele>145.4</ele>
        <time>2017-01-08T10:28:32Z</time>
      </trkpt>
      <trkpt lat="48.42748" lon="2.71994">
        <ele>144.8</ele>
        <time>2017-01-08T10:28:34Z</time>
      </trkpt>
      <trkpt lat="48.42751" lon="2.71995">
        <ele>144.4</ele>
        <time>2017-01-08T10:28:35Z</time>
      </trkpt>
      <trkpt lat="48.42754" lon="2.71997">
        <ele>144</ele>
        <time>2017-01-08T10:28:36Z</time>
      </trkpt>
      <trkpt lat="48.42757" lon="2.71997">
        <ele>143.6</ele>
        <time>2017-01-08T10:28:37Z</time>
      </trkpt>
      <trkpt lat="48.4276" lon="2.71999">
        <ele>143</ele>
        <time>2017-01-08T10:28:38Z</time>
      </trkpt>
      <trkpt lat="48.42763" lon="2.72">
        <ele>142.6</ele>
        <time>2017-01-08T10:28:39Z</time>
      </trkpt>
      <trkpt lat="48.42766" lon="2.72">
        <ele>142</ele>
        <time>2017-01-08T10:28:40Z</time>
      </trkpt>
      <trkpt lat="48.42769" lon="2.72001">
        <ele>141.4</ele>
        <time>2017-01-08T10:28:41Z</time>
      </trkpt>
      <trkpt lat="48.42771" lon="2.72001">
        <ele>139.8</ele>
        <time>2017-01-08T10:28:42Z</time>
      </trkpt>
      <trkpt lat="48.42773" lon="2.72002">
        <ele>139.2</ele>
        <time>2017-01-08T10:28:43Z</time>
      </trkpt>
      <trkpt lat="48.42775" lon="2.72003">
        <ele>138.4</ele>
        <time>2017-01-08T10:28:44Z</time>
      </trkpt>
      <trkpt lat="48.42776" lon="2.72005">
        <ele>137.8</ele>
        <time>2017-01-08T10:28:45Z</time>
      </trkpt>
      <trkpt lat="48.42776" lon="2.7201">
        <ele>137.2</ele>
        <time>2017-01-08T10:28:46Z</time>
      </trkpt>
      <trkpt lat="48.42778" lon="2.72013">
        <ele>136.4</ele>
        <time>2017-01-08T10:28:47Z</time>
      </trkpt>
      <trkpt lat="48.4278" lon="2.72015">
        <ele>135.6</ele>
        <time>2017-01-08T10:28:48Z</time>
      </trkpt>
      <trkpt lat="48.42783" lon="2.72017">
        <ele>134.8</ele>
        <time>2017-01-08T10:28:49Z</time>
      </trkpt>
      <trkpt lat="48.42785" lon="2.72019">
        <ele>133.8</ele>
        <time>2017-01-08T10:28:50Z</time>
      </trkpt>
      <trkpt lat="48.42788" lon="2.7202">
        <ele>133</ele>
        <time>2017-01-08T10:28:51Z</time>
      </trkpt>
      <trkpt lat="48.42792" lon="2.72026">
        <ele>132</ele>
        <time>2017-01-08T10:28:52Z</time>
      </trkpt>
      <trkpt lat="48.42797" lon="2.72032">
        <ele>131.2</ele>
        <time>2017-01-08T10:28:53Z</time>
      </trkpt>
      <trkpt lat="48.428" lon="2.7204">
        <ele>130.4</ele>
        <time>2017-01-08T10:28:54Z</time>
      </trkpt>
      <trkpt lat="48.42803" lon="2.72047">
        <ele>129.6</ele>
        <time>2017-01-08T10:28:55Z</time>
      </trkpt>
      <trkpt lat="48.42806" lon="2.72054">
        <ele>128.8</ele>
        <time>2017-01-08T10:28:56Z</time>
      </trkpt>
      <trkpt lat="48.42808" lon="2.72062">
        <ele>128.2</ele>
        <time>2017-01-08T10:28:57Z</time>
      </trkpt>
      <trkpt lat="48.42811" lon="2.72069">
        <ele>127.6</ele>
        <time>2017-01-08T10:28:58Z</time>
      </trkpt>
      <trkpt lat="48.42814" lon="2.72076">
        <ele>127</ele>
        <time>2017-01-08T10:28:59Z</time>
      </trkpt>
      <trkpt lat="48.42817" lon="2.72083">
        <ele>126.4</ele>
        <time>2017-01-08T10:29:00Z</time>
      </trkpt>
      <trkpt lat="48.42818" lon="2.72089">
        <ele>125.8</ele>
        <time>2017-01-08T10:29:01Z</time>
      </trkpt>
      <trkpt lat="48.42825" lon="2.72111">
        <ele>125.8</ele>
        <time>2017-01-08T10:29:05Z</time>
      </trkpt>
      <trkpt lat="48.42837" lon="2.72134">
        <ele>125.8</ele>
        <time>2017-01-08T10:29:10Z</time>
      </trkpt>
      <trkpt lat="48.42846" lon="2.72162">
        <ele>125.8</ele>
        <time>2017-01-08T10:29:15Z</time>
      </trkpt>
      <trkpt lat="48.42849" lon="2.7217">
        <ele>125.8</ele>
        <time>2017-01-08T10:29:17Z</time>
      </trkpt>
      <trkpt lat="48.42852" lon="2.7218">
        <ele>125.8</ele>
        <time>2017-01-08T10:29:20Z</time>
      </trkpt>
      <trkpt lat="48.42854" lon="2.72189">
        <ele>125.8</ele>
        <time>2017-01-08T10:29:22Z</time>
      </trkpt>
      <trkpt lat="48.42858" lon="2.72204">
        <ele>125.8</ele>
        <time>2017-01-08T10:29:26Z</time>
      </trkpt>
      <trkpt lat="48.42863" lon="2.72232">
        <ele>125.8</ele>
        <time>2017-01-08T10:29:32Z</time>
      </trkpt>
      <trkpt lat="48.42867" lon="2.72253">
        <ele>125.2</ele>
        <time>2017-01-08T10:29:35Z</time>
      </trkpt>
      <trkpt lat="48.42868" lon="2.7226">
        <ele>124.8</ele>
        <time>2017-01-08T10:29:36Z</time>
      </trkpt>
      <trkpt lat="48.42869" lon="2.72268">
        <ele>124.4</ele>
        <time>2017-01-08T10:29:37Z</time>
      </trkpt>
      <trkpt lat="48.4287" lon="2.72275">
        <ele>124</ele>
        <time>2017-01-08T10:29:38Z</time>
      </trkpt>
      <trkpt lat="48.42871" lon="2.72283">
        <ele>123.4</ele>
        <time>2017-01-08T10:29:39Z</time>
      </trkpt>
      <trkpt lat="48.42872" lon="2.72299">
        <ele>123.4</ele>
        <time>2017-01-08T10:29:41Z</time>
      </trkpt>
      <trkpt lat="48.42876" lon="2.72313">
        <ele>123.4</ele>
        <time>2017-01-08T10:29:43Z</time>
      </trkpt>
      <trkpt lat="48.42877" lon="2.72319">
        <ele>123.4</ele>
        <time>2017-01-08T10:29:44Z</time>
      </trkpt>
      <trkpt lat="48.42885" lon="2.72352">
        <ele>123.4</ele>
        <time>2017-01-08T10:29:49Z</time>
      </trkpt>
      <trkpt lat="48.42889" lon="2.72376">
        <ele>123.4</ele>
        <time>2017-01-08T10:29:53Z</time>
      </trkpt>
      <trkpt lat="48.42893" lon="2.72388">
        <ele>123.4</ele>
        <time>2017-01-08T10:29:55Z</time>
      </trkpt>
      <trkpt lat="48.42896" lon="2.72401">
        <ele>123.4</ele>
        <time>2017-01-08T10:29:57Z</time>
      </trkpt>
      <trkpt lat="48.42902" lon="2.72413">
        <ele>123.4</ele>
        <time>2017-01-08T10:29:59Z</time>
      </trkpt>
      <trkpt lat="48.42909" lon="2.72432">
        <ele>123.4</ele>
        <time>2017-01-08T10:30:02Z</time>
      </trkpt>
      <trkpt lat="48.42914" lon="2.72448">
        <ele>123.4</ele>
        <time>2017-01-08T10:30:05Z</time>
      </trkpt>
      <trkpt lat="48.42917" lon="2.72454">
        <ele>123.4</ele>
        <time>2017-01-08T10:30:06Z</time>
      </trkpt>
      <trkpt lat="48.42934" lon="2.72483">
        <ele>123.4</ele>
        <time>2017-01-08T10:30:12Z</time>
      </trkpt>
      <trkpt lat="48.4294" lon="2.72494">
        <ele>123.4</ele>
        <time>2017-01-08T10:30:14Z</time>
      </trkpt>
      <trkpt lat="48.42947" lon="2.72506">
        <ele>123.4</ele>
        <time>2017-01-08T10:30:16Z</time>
      </trkpt>
      <trkpt lat="48.4295" lon="2.72511">
        <ele>123.4</ele>
        <time>2017-01-08T10:30:17Z</time>
      </trkpt>
      <trkpt lat="48.42958" lon="2.7252">
        <ele>123.4</ele>
        <time>2017-01-08T10:30:19Z</time>
      </trkpt>
      <trkpt lat="48.42968" lon="2.72531">
        <ele>123</ele>
        <time>2017-01-08T10:30:22Z</time>
      </trkpt>
      <trkpt lat="48.42972" lon="2.72535">
        <ele>122.6</ele>
        <time>2017-01-08T10:30:23Z</time>
      </trkpt>
      <trkpt lat="48.42976" lon="2.72538">
        <ele>122.2</ele>
        <time>2017-01-08T10:30:24Z</time>
      </trkpt>
      <trkpt lat="48.42979" lon="2.7254">
        <ele>121.8</ele>
        <time>2017-01-08T10:30:25Z</time>
      </trkpt>
      <trkpt lat="48.42982" lon="2.72543">
        <ele>121.4</ele>
        <time>2017-01-08T10:30:26Z</time>
      </trkpt>
      <trkpt lat="48.42986" lon="2.72546">
        <ele>121.4</ele>
        <time>2017-01-08T10:30:27Z</time>
      </trkpt>
      <trkpt lat="48.42996" lon="2.72553">
        <ele>121.4</ele>
        <time>2017-01-08T10:30:30Z</time>
      </trkpt>
      <trkpt lat="48.43004" lon="2.72559">
        <ele>121.4</ele>
        <time>2017-01-08T10:30:32Z</time>
      </trkpt>
      <trkpt lat="48.43016" lon="2.72566">
        <ele>121.4</ele>
        <time>2017-01-08T10:30:35Z</time>
      </trkpt>
      <trkpt lat="48.43019" lon="2.72567">
        <ele>121.4</ele>
        <time>2017-01-08T10:30:36Z</time>
      </trkpt>
      <trkpt lat="48.43036" lon="2.72567">
        <ele>121.4</ele>
        <time>2017-01-08T10:30:40Z</time>
      </trkpt>
      <trkpt lat="48.43044" lon="2.72566">
        <ele>121.4</ele>
        <time>2017-01-08T10:30:42Z</time>
      </trkpt>
      <trkpt lat="48.4306" lon="2.72562">
        <ele>121.4</ele>
        <time>2017-01-08T10:30:46Z</time>
      </trkpt>
      <trkpt lat="48.4307" lon="2.72558">
        <ele>121.4</ele>
        <time>2017-01-08T10:30:48Z</time>
      </trkpt>
      <trkpt lat="48.4308" lon="2.72552">
        <ele>121.4</ele>
        <time>2017-01-08T10:30:50Z</time>
      </trkpt>
      <trkpt lat="48.43085" lon="2.7255">
        <ele>121.4</ele>
        <time>2017-01-08T10:30:51Z</time>
      </trkpt>
      <trkpt lat="48.43096" lon="2.72552">
        <ele>121.4</ele>
        <time>2017-01-08T10:30:53Z</time>
      </trkpt>
      <trkpt lat="48.43111" lon="2.72555">
        <ele>121.4</ele>
        <time>2017-01-08T10:30:57Z</time>
      </trkpt>
      <trkpt lat="48.43132" lon="2.72551">
        <ele>121.4</ele>
        <time>2017-01-08T10:31:02Z</time>
      </trkpt>
      <trkpt lat="48.43149" lon="2.72548">
        <ele>121.4</ele>
        <time>2017-01-08T10:31:07Z</time>
      </trkpt>
      <trkpt lat="48.4316" lon="2.72554">
        <ele>121.4</ele>
        <time>2017-01-08T10:31:10Z</time>
      </trkpt>
      <trkpt lat="48.43165" lon="2.72556">
        <ele>120.4</ele>
        <time>2017-01-08T10:31:11Z</time>
      </trkpt>
      <trkpt lat="48.43169" lon="2.7256">
        <ele>119.8</ele>
        <time>2017-01-08T10:31:12Z</time>
      </trkpt>
      <trkpt lat="48.43173" lon="2.72563">
        <ele>119</ele>
        <time>2017-01-08T10:31:13Z</time>
      </trkpt>
      <trkpt lat="48.43177" lon="2.72564">
        <ele>118.4</ele>
        <time>2017-01-08T10:31:14Z</time>
      </trkpt>
      <trkpt lat="48.43179" lon="2.72565">
        <ele>117.6</ele>
        <time>2017-01-08T10:31:15Z</time>
      </trkpt>
      <trkpt lat="48.43182" lon="2.72564">
        <ele>117</ele>
        <time>2017-01-08T10:31:16Z</time>
      </trkpt>
      <trkpt lat="48.43184" lon="2.72564">
        <ele>116.2</ele>
        <time>2017-01-08T10:31:17Z</time>
      </trkpt>
      <trkpt lat="48.43185" lon="2.72563">
        <ele>116.2</ele>
        <time>2017-01-08T10:31:18Z</time>
      </trkpt>
      <trkpt lat="48.43189" lon="2.72557">
        <ele>116.2</ele>
        <time>2017-01-08T10:31:23Z</time>
      </trkpt>
      <trkpt lat="48.43188" lon="2.72556">
        <ele>116.2</ele>
        <time>2017-01-08T10:31:24Z</time>
      </trkpt>
      <trkpt lat="48.43194" lon="2.72554">
        <ele>110.1328125</ele>
      </trkpt>
      <trkpt lat="48.43254" lon="2.72464">
        <ele>113.6484375</ele>
      </trkpt>
      <trkpt lat="48.4329" lon="2.72433">
        <ele>117.9921875</ele>
      </trkpt>
      <trkpt lat="48.4332" lon="2.72443">
        <ele>123.64453125</ele>
      </trkpt>
      <trkpt lat="48.43346" lon="2.72501">
        <ele>125.78125</ele>
      </trkpt>
      <trkpt lat="48.43358" lon="2.72631">
        <ele>125.16015625</ele>
      </trkpt>
      <trkpt lat="48.4337" lon="2.72662">
        <ele>135.6</ele>
        <time>2017-01-08T10:34:36Z</time>
      </trkpt>
      <trkpt lat="48.43375" lon="2.72663">
        <ele>135.6</ele>
        <time>2017-01-08T10:34:39Z</time>
      </trkpt>
      <trkpt lat="48.43386" lon="2.72659">
        <ele>135.6</ele>
        <time>2017-01-08T10:34:47Z</time>
      </trkpt>
      <trkpt lat="48.43392" lon="2.72651">
        <ele>135.6</ele>
        <time>2017-01-08T10:34:54Z</time>
      </trkpt>
      <trkpt lat="48.43395" lon="2.72648">
        <ele>135.6</ele>
        <time>2017-01-08T10:34:57Z</time>
      </trkpt>
      <trkpt lat="48.43395" lon="2.72646">
        <ele>136</ele>
        <time>2017-01-08T10:34:58Z</time>
      </trkpt>
      <trkpt lat="48.43396" lon="2.72644">
        <ele>136.4</ele>
        <time>2017-01-08T10:34:59Z</time>
      </trkpt>
      <trkpt lat="48.43397" lon="2.72643">
        <ele>136.8</ele>
        <time>2017-01-08T10:35:00Z</time>
      </trkpt>
      <trkpt lat="48.43398" lon="2.72642">
        <ele>137.2</ele>
        <time>2017-01-08T10:35:01Z</time>
      </trkpt>
      <trkpt lat="48.43398" lon="2.7264">
        <ele>137.6</ele>
        <time>2017-01-08T10:35:02Z</time>
      </trkpt>
      <trkpt lat="48.43401" lon="2.72631">
        <ele>137.6</ele>
        <time>2017-01-08T10:35:07Z</time>
      </trkpt>
      <trkpt lat="48.43403" lon="2.72618">
        <ele>138</ele>
        <time>2017-01-08T10:35:15Z</time>
      </trkpt>
      <trkpt lat="48.43403" lon="2.72616">
        <ele>138.4</ele>
        <time>2017-01-08T10:35:16Z</time>
      </trkpt>
      <trkpt lat="48.43403" lon="2.72613">
        <ele>138.8</ele>
        <time>2017-01-08T10:35:17Z</time>
      </trkpt>
      <trkpt lat="48.43403" lon="2.72611">
        <ele>139.6</ele>
        <time>2017-01-08T10:35:18Z</time>
      </trkpt>
      <trkpt lat="48.43402" lon="2.72606">
        <ele>139.6</ele>
        <time>2017-01-08T10:35:21Z</time>
      </trkpt>
      <trkpt lat="48.43397" lon="2.72593">
        <ele>139.6</ele>
        <time>2017-01-08T10:35:28Z</time>
      </trkpt>
      <trkpt lat="48.43396" lon="2.72583">
        <ele>139.6</ele>
        <time>2017-01-08T10:35:32Z</time>
      </trkpt>
      <trkpt lat="48.43396" lon="2.72579">
        <ele>139.6</ele>
        <time>2017-01-08T10:35:34Z</time>
      </trkpt>
      <trkpt lat="48.43395" lon="2.72571">
        <ele>140</ele>
        <time>2017-01-08T10:35:38Z</time>
      </trkpt>
      <trkpt lat="48.43395" lon="2.72569">
        <ele>141.8</ele>
        <time>2017-01-08T10:35:43Z</time>
      </trkpt>
      <trkpt lat="48.43394" lon="2.72565">
        <ele>141.8</ele>
        <time>2017-01-08T10:35:45Z</time>
      </trkpt>
      <trkpt lat="48.43394" lon="2.72552">
        <ele>141.8</ele>
        <time>2017-01-08T10:35:50Z</time>
      </trkpt>
      <trkpt lat="48.43394" lon="2.72551">
        <ele>141.8</ele>
        <time>2017-01-08T10:35:51Z</time>
      </trkpt>
      <trkpt lat="48.43395" lon="2.72534">
        <ele>124.58984375</ele>
      </trkpt>
      <trkpt lat="48.43393" lon="2.72487">
        <ele>126.09375</ele>
      </trkpt>
      <trkpt lat="48.43403" lon="2.72475">
        <ele>123.96875</ele>
      </trkpt>
      <trkpt lat="48.43412" lon="2.72451">
        <ele>122.0234375</ele>
      </trkpt>
      <trkpt lat="48.43427" lon="2.72384">
        <ele>115.56640625</ele>
      </trkpt>
      <trkpt lat="48.43421" lon="2.72369">
        <ele>117.3125</ele>
      </trkpt>
      <trkpt lat="48.43411" lon="2.7235">
        <ele>120.34375</ele>
      </trkpt>
      <trkpt lat="48.43408" lon="2.72327">
        <ele>121.14453125</ele>
      </trkpt>
      <trkpt lat="48.43412" lon="2.72303">
        <ele>119.90625</ele>
      </trkpt>
      <trkpt lat="48.43427" lon="2.72253">
        <ele>116.47265625</ele>
      </trkpt>
      <trkpt lat="48.43439" lon="2.72203">
        <ele>113.98828125</ele>
      </trkpt>
      <trkpt lat="48.43438" lon="2.72157">
        <ele>112.421875</ele>
      </trkpt>
      <trkpt lat="48.43458" lon="2.72129">
        <ele>109.26171875</ele>
      </trkpt>
      <trkpt lat="48.43457" lon="2.72106">
        <ele>108.703125</ele>
      </trkpt>
      <trkpt lat="48.43457" lon="2.72106">
        <ele>108.66015625</ele>
      </trkpt>
      <trkpt lat="48.43458" lon="2.72095">
        <ele>108.109375</ele>
      </trkpt>
      <trkpt lat="48.43479" lon="2.72045">
        <ele>105.09375</ele>
      </trkpt>
      <trkpt lat="48.43484" lon="2.72026">
        <ele>104.2578125</ele>
      </trkpt>
      <trkpt lat="48.43478" lon="2.72006">
        <ele>103.73828125</ele>
      </trkpt>
      <trkpt lat="48.43485" lon="2.71984">
        <ele>102.79296875</ele>
      </trkpt>
      <trkpt lat="48.43485" lon="2.71951">
        <ele>101.75390625</ele>
      </trkpt>
      <trkpt lat="48.43489" lon="2.71908">
        <ele>101.9296875</ele>
      </trkpt>
      <trkpt lat="48.43486" lon="2.71871">
        <ele>103.1328125</ele>
      </trkpt>
      <trkpt lat="48.43492" lon="2.7185">
        <ele>103.55859375</ele>
      </trkpt>
      <trkpt lat="48.43495" lon="2.71821">
        <ele>104.53515625</ele>
      </trkpt>
      <trkpt lat="48.43495" lon="2.7182">
        <ele>104.58203125</ele>
      </trkpt>
      <trkpt lat="48.43505" lon="2.71798">
        <ele>104.59375</ele>
      </trkpt>
      <trkpt lat="48.435" lon="2.71769">
        <ele>106.7578125</ele>
      </trkpt>
      <trkpt lat="48.43498" lon="2.71733">
        <ele>109.5625</ele>
      </trkpt>
      <trkpt lat="48.43505" lon="2.71715">
        <ele>109.09375</ele>
      </trkpt>
      <trkpt lat="48.43521" lon="2.71684">
        <ele>106.72265625</ele>
      </trkpt>
      <trkpt lat="48.43517" lon="2.71636">
        <ele>108.17578125</ele>
      </trkpt>
      <trkpt lat="48.43517" lon="2.71635">
        <ele>108.1875</ele>
      </trkpt>
      <trkpt lat="48.43523" lon="2.71613">
        <ele>107.7265625</ele>
      </trkpt>
      <trkpt lat="48.43539" lon="2.71583">
        <ele>106.1015625</ele>
      </trkpt>
      <trkpt lat="48.4355" lon="2.71563">
        <ele>104.75390625</ele>
      </trkpt>
      <trkpt lat="48.43572" lon="2.7152">
        <ele>101.3046875</ele>
      </trkpt>
      <trkpt lat="48.43595" lon="2.71482">
        <ele>98.81640625</ele>
      </trkpt>
      <trkpt lat="48.43599" lon="2.71459">
        <ele>98.40625</ele>
      </trkpt>
      <trkpt lat="48.43594" lon="2.7144">
        <ele>98.7265625</ele>
      </trkpt>
      <trkpt lat="48.43425" lon="2.71361">
        <ele>110.90234375</ele>
      </trkpt>
      <trkpt lat="48.43432" lon="2.71307">
        <ele>110.70703125</ele>
      </trkpt>
      <trkpt lat="48.43498" lon="2.71338">
        <ele>104.7734375</ele>
      </trkpt>
      <trkpt lat="48.43512" lon="2.71355">
        <ele>104.13671875</ele>
      </trkpt>
      <trkpt lat="48.43595" lon="2.71399">
        <ele>98.5546875</ele>
      </trkpt>
      <trkpt lat="48.43628" lon="2.71405">
        <ele>97.1484375</ele>
      </trkpt>
      <trkpt lat="48.43644" lon="2.71423">
        <ele>96.5625</ele>
      </trkpt>
      <trkpt lat="48.43653" lon="2.71468">
        <ele>96.24609375</ele>
      </trkpt>
      <trkpt lat="48.43645" lon="2.71511">
        <ele>96.5390625</ele>
      </trkpt>
      <trkpt lat="48.43659" lon="2.71526">
        <ele>96.01953125</ele>
      </trkpt>
      <trkpt lat="48.43656" lon="2.71595">
        <ele>95.48046875</ele>
      </trkpt>
      <trkpt lat="48.43653" lon="2.71604">
        <ele>95.4921875</ele>
      </trkpt>
      <trkpt lat="48.43642" lon="2.7161">
        <ele>96.0078125</ele>
      </trkpt>
      <trkpt lat="48.43636" lon="2.71591">
        <ele>96.50390625</ele>
      </trkpt>
      <trkpt lat="48.43625" lon="2.7155">
        <ele>97.2421875</ele>
      </trkpt>
      <trkpt lat="48.43612" lon="2.71585">
        <ele>97.671875</ele>
      </trkpt>
      <trkpt lat="48.43597" lon="2.71629">
        <ele>98.50390625</ele>
      </trkpt>
      <trkpt lat="48.43576" lon="2.71641">
        <ele>100.3125</ele>
      </trkpt>
      <trkpt lat="48.43573" lon="2.717">
        <ele>99.4765625</ele>
      </trkpt>
      <trkpt lat="48.43585" lon="2.71708">
        <ele>98.5234375</ele>
      </trkpt>
      <trkpt lat="48.43588" lon="2.71742">
        <ele>97.8671875</ele>
      </trkpt>
      <trkpt lat="48.43597" lon="2.71755">
        <ele>96.98828125</ele>
      </trkpt>
      <trkpt lat="48.4359" lon="2.71778">
        <ele>97.078125</ele>
      </trkpt>
      <trkpt lat="48.43578" lon="2.71811">
        <ele>97.9140625</ele>
      </trkpt>
      <trkpt lat="48.43697" lon="2.71866">
        <ele>95.33984375</ele>
      </trkpt>
      <trkpt lat="48.43711" lon="2.71869">
        <ele>103.4</ele>
        <time>2017-01-08T10:50:22Z</time>
      </trkpt>
      <trkpt lat="48.43713" lon="2.71865">
        <ele>103.4</ele>
        <time>2017-01-08T10:50:24Z</time>
      </trkpt>
      <trkpt lat="48.43716" lon="2.71849">
        <ele>103.4</ele>
        <time>2017-01-08T10:50:29Z</time>
      </trkpt>
      <trkpt lat="48.4372" lon="2.71827">
        <ele>103.4</ele>
        <time>2017-01-08T10:50:34Z</time>
      </trkpt>
      <trkpt lat="48.43727" lon="2.71793">
        <ele>103.4</ele>
        <time>2017-01-08T10:50:40Z</time>
      </trkpt>
      <trkpt lat="48.43732" lon="2.71753">
        <ele>103.4</ele>
        <time>2017-01-08T10:50:47Z</time>
      </trkpt>
      <trkpt lat="48.43735" lon="2.71731">
        <ele>103.4</ele>
        <time>2017-01-08T10:50:52Z</time>
      </trkpt>
      <trkpt lat="48.43738" lon="2.717">
        <ele>103.4</ele>
        <time>2017-01-08T10:50:58Z</time>
      </trkpt>
      <trkpt lat="48.43742" lon="2.7167">
        <ele>103.4</ele>
        <time>2017-01-08T10:51:04Z</time>
      </trkpt>
      <trkpt lat="48.43746" lon="2.71639">
        <ele>103.4</ele>
        <time>2017-01-08T10:51:10Z</time>
      </trkpt>
      <trkpt lat="48.43751" lon="2.71601">
        <ele>103.4</ele>
        <time>2017-01-08T10:51:17Z</time>
      </trkpt>
      <trkpt lat="48.43758" lon="2.71565">
        <ele>103.4</ele>
        <time>2017-01-08T10:51:24Z</time>
      </trkpt>
      <trkpt lat="48.43758" lon="2.71536">
        <ele>103.4</ele>
        <time>2017-01-08T10:51:30Z</time>
      </trkpt>
      <trkpt lat="48.4376" lon="2.7152">
        <ele>103.4</ele>
        <time>2017-01-08T10:51:35Z</time>
      </trkpt>
      <trkpt lat="48.43762" lon="2.71493">
        <ele>103.4</ele>
        <time>2017-01-08T10:51:41Z</time>
      </trkpt>
      <trkpt lat="48.43766" lon="2.71458">
        <ele>103.4</ele>
        <time>2017-01-08T10:51:47Z</time>
      </trkpt>
      <trkpt lat="48.43768" lon="2.71423">
        <ele>103.4</ele>
        <time>2017-01-08T10:51:53Z</time>
      </trkpt>
      <trkpt lat="48.43775" lon="2.71384">
        <ele>103.4</ele>
        <time>2017-01-08T10:52:00Z</time>
      </trkpt>
      <trkpt lat="48.43781" lon="2.71354">
        <ele>103.4</ele>
        <time>2017-01-08T10:52:06Z</time>
      </trkpt>
      <trkpt lat="48.43784" lon="2.71328">
        <ele>103.4</ele>
        <time>2017-01-08T10:52:11Z</time>
      </trkpt>
      <trkpt lat="48.43787" lon="2.71282">
        <ele>103.4</ele>
        <time>2017-01-08T10:52:19Z</time>
      </trkpt>
      <trkpt lat="48.43792" lon="2.71247">
        <ele>103.4</ele>
        <time>2017-01-08T10:52:26Z</time>
      </trkpt>
      <trkpt lat="48.43797" lon="2.71225">
        <ele>103.4</ele>
        <time>2017-01-08T10:52:32Z</time>
      </trkpt>
      <trkpt lat="48.43799" lon="2.71211">
        <ele>103.4</ele>
        <time>2017-01-08T10:52:36Z</time>
      </trkpt>
      <trkpt lat="48.438" lon="2.7119">
        <ele>103.4</ele>
        <time>2017-01-08T10:52:41Z</time>
      </trkpt>
      <trkpt lat="48.43804" lon="2.71163">
        <ele>103.4</ele>
        <time>2017-01-08T10:52:48Z</time>
      </trkpt>
      <trkpt lat="48.43808" lon="2.71152">
        <ele>103.8</ele>
        <time>2017-01-08T10:52:51Z</time>
      </trkpt>
      <trkpt lat="48.43808" lon="2.71149">
        <ele>104.2</ele>
        <time>2017-01-08T10:52:52Z</time>
      </trkpt>
      <trkpt lat="48.43809" lon="2.71145">
        <ele>104.6</ele>
        <time>2017-01-08T10:52:53Z</time>
      </trkpt>
      <trkpt lat="48.4381" lon="2.71142">
        <ele>105.2</ele>
        <time>2017-01-08T10:52:54Z</time>
      </trkpt>
      <trkpt lat="48.4381" lon="2.71137">
        <ele>105.6</ele>
        <time>2017-01-08T10:52:55Z</time>
      </trkpt>
      <trkpt lat="48.43813" lon="2.71118">
        <ele>105.6</ele>
        <time>2017-01-08T10:53:01Z</time>
      </trkpt>
      <trkpt lat="48.43813" lon="2.71112">
        <ele>106</ele>
        <time>2017-01-08T10:53:03Z</time>
      </trkpt>
      <trkpt lat="48.43814" lon="2.7111">
        <ele>106.4</ele>
        <time>2017-01-08T10:53:04Z</time>
      </trkpt>
      <trkpt lat="48.43815" lon="2.71106">
        <ele>106.8</ele>
        <time>2017-01-08T10:53:05Z</time>
      </trkpt>
      <trkpt lat="48.43816" lon="2.71102">
        <ele>107.2</ele>
        <time>2017-01-08T10:53:06Z</time>
      </trkpt>
      <trkpt lat="48.43817" lon="2.71098">
        <ele>107.8</ele>
        <time>2017-01-08T10:53:07Z</time>
      </trkpt>
      <trkpt lat="48.43817" lon="2.71094">
        <ele>107.8</ele>
        <time>2017-01-08T10:53:08Z</time>
      </trkpt>
      <trkpt lat="48.4382" lon="2.71078">
        <ele>107.8</ele>
        <time>2017-01-08T10:53:13Z</time>
      </trkpt>
      <trkpt lat="48.43821" lon="2.71075">
        <ele>108.2</ele>
        <time>2017-01-08T10:53:14Z</time>
      </trkpt>
      <trkpt lat="48.43821" lon="2.71072">
        <ele>108.6</ele>
        <time>2017-01-08T10:53:15Z</time>
      </trkpt>
      <trkpt lat="48.43822" lon="2.7107">
        <ele>109</ele>
        <time>2017-01-08T10:53:16Z</time>
      </trkpt>
      <trkpt lat="48.43822" lon="2.71068">
        <ele>109.4</ele>
        <time>2017-01-08T10:53:17Z</time>
      </trkpt>
      <trkpt lat="48.43822" lon="2.71066">
        <ele>109.8</ele>
        <time>2017-01-08T10:53:18Z</time>
      </trkpt>
      <trkpt lat="48.43824" lon="2.71054">
        <ele>109.8</ele>
        <time>2017-01-08T10:53:23Z</time>
      </trkpt>
      <trkpt lat="48.43826" lon="2.71051">
        <ele>110.2</ele>
        <time>2017-01-08T10:53:25Z</time>
      </trkpt>
      <trkpt lat="48.43826" lon="2.71051">
        <ele>111</ele>
        <time>2017-01-08T10:53:26Z</time>
      </trkpt>
      <trkpt lat="48.43827" lon="2.71052">
        <ele>111.4</ele>
        <time>2017-01-08T10:53:27Z</time>
      </trkpt>
      <trkpt lat="48.43829" lon="2.71018">
        <ele>108.5234375</ele>
      </trkpt>
      <trkpt lat="48.43876" lon="2.70801">
        <ele>110.828125</ele>
      </trkpt>
      <trkpt lat="48.43879" lon="2.70737">
        <ele>108.09765625</ele>
      </trkpt>
      <trkpt lat="48.43881" lon="2.70737">
        <ele>108.0234375</ele>
      </trkpt>
      <trkpt lat="48.43899" lon="2.70688">
        <ele>105.44921875</ele>
      </trkpt>
      <trkpt lat="48.4391" lon="2.70608">
        <ele>104.83984375</ele>
      </trkpt>
      <trkpt lat="48.43933" lon="2.70464">
        <ele>104.484375</ele>
      </trkpt>
      <trkpt lat="48.43918" lon="2.70412">
        <ele>102.23046875</ele>
      </trkpt>
      <trkpt lat="48.43925" lon="2.70339">
        <ele>101.8359375</ele>
      </trkpt>
      <trkpt lat="48.43971" lon="2.70295">
        <ele>100.62890625</ele>
      </trkpt>
      <trkpt lat="48.43982" lon="2.70281">
        <ele>100.60546875</ele>
      </trkpt>
      <trkpt lat="48.44041" lon="2.69778">
        <ele>87.27734375</ele>
      </trkpt>
      <trkpt lat="48.44087" lon="2.69459">
        <ele>85</ele>
      </trkpt>
      <trkpt lat="48.44094" lon="2.69444">
        <ele>95</ele>
        <time>2017-01-08T11:04:53Z</time>
      </trkpt>
      <trkpt lat="48.44087" lon="2.69417">
        <ele>95</ele>
        <time>2017-01-08T11:04:58Z</time>
      </trkpt>
      <trkpt lat="48.44076" lon="2.69384">
        <ele>95</ele>
        <time>2017-01-08T11:05:04Z</time>
      </trkpt>
      <trkpt lat="48.44064" lon="2.69345">
        <ele>95</ele>
        <time>2017-01-08T11:05:11Z</time>
      </trkpt>
      <trkpt lat="48.44056" lon="2.69312">
        <ele>95</ele>
        <time>2017-01-08T11:05:17Z</time>
      </trkpt>
      <trkpt lat="48.44048" lon="2.69281">
        <ele>95</ele>
        <time>2017-01-08T11:05:23Z</time>
      </trkpt>
      <trkpt lat="48.44043" lon="2.69262">
        <ele>95</ele>
        <time>2017-01-08T11:05:27Z</time>
      </trkpt>
      <trkpt lat="48.44035" lon="2.6924">
        <ele>95</ele>
        <time>2017-01-08T11:05:32Z</time>
      </trkpt>
      <trkpt lat="48.44033" lon="2.6923">
        <ele>95</ele>
        <time>2017-01-08T11:05:35Z</time>
      </trkpt>
      <trkpt lat="48.44033" lon="2.69229">
        <ele>95</ele>
        <time>2017-01-08T11:05:36Z</time>
      </trkpt>
      <trkpt lat="48.44035" lon="2.69229">
        <ele>95</ele>
        <time>2017-01-08T11:05:39Z</time>
      </trkpt>
      <trkpt lat="48.44036" lon="2.69227">
        <ele>95</ele>
        <time>2017-01-08T11:05:42Z</time>
      </trkpt>
      <trkpt lat="48.44037" lon="2.6923">
        <ele>95.6</ele>
        <time>2017-01-08T11:09:23Z</time>
      </trkpt>
      <trkpt lat="48.44043" lon="2.69234">
        <ele>95.6</ele>
        <time>2017-01-08T11:09:26Z</time>
      </trkpt>
      <trkpt lat="48.44044" lon="2.69235">
        <ele>95.6</ele>
        <time>2017-01-08T11:09:27Z</time>
      </trkpt>
      <trkpt lat="48.44049" lon="2.6924">
        <ele>95.6</ele>
        <time>2017-01-08T11:09:30Z</time>
      </trkpt>
      <trkpt lat="48.4406" lon="2.69253">
        <ele>95.6</ele>
        <time>2017-01-08T11:09:36Z</time>
      </trkpt>
      <trkpt lat="48.44065" lon="2.6926">
        <ele>95</ele>
        <time>2017-01-08T11:09:39Z</time>
      </trkpt>
      <trkpt lat="48.44067" lon="2.69262">
        <ele>94.6</ele>
        <time>2017-01-08T11:09:40Z</time>
      </trkpt>
      <trkpt lat="48.4407" lon="2.69265">
        <ele>94.2</ele>
        <time>2017-01-08T11:09:41Z</time>
      </trkpt>
      <trkpt lat="48.44072" lon="2.69267">
        <ele>93.8</ele>
        <time>2017-01-08T11:09:42Z</time>
      </trkpt>
      <trkpt lat="48.44075" lon="2.69269">
        <ele>93.4</ele>
        <time>2017-01-08T11:09:43Z</time>
      </trkpt>
      <trkpt lat="48.44092" lon="2.69283">
        <ele>93.4</ele>
        <time>2017-01-08T11:09:49Z</time>
      </trkpt>
      <trkpt lat="48.44108" lon="2.69299">
        <ele>93.4</ele>
        <time>2017-01-08T11:09:55Z</time>
      </trkpt>
      <trkpt lat="48.44121" lon="2.6931">
        <ele>93.4</ele>
        <time>2017-01-08T11:10:00Z</time>
      </trkpt>
      <trkpt lat="48.44126" lon="2.69313">
        <ele>93.4</ele>
        <time>2017-01-08T11:10:02Z</time>
      </trkpt>
      <trkpt lat="48.44136" lon="2.69323">
        <ele>93.4</ele>
        <time>2017-01-08T11:10:06Z</time>
      </trkpt>
      <trkpt lat="48.44158" lon="2.69343">
        <ele>93.4</ele>
        <time>2017-01-08T11:10:14Z</time>
      </trkpt>
      <trkpt lat="48.4418" lon="2.69365">
        <ele>93.4</ele>
        <time>2017-01-08T11:10:22Z</time>
      </trkpt>
      <trkpt lat="48.44203" lon="2.69384">
        <ele>93.4</ele>
        <time>2017-01-08T11:10:29Z</time>
      </trkpt>
      <trkpt lat="48.44225" lon="2.69405">
        <ele>93.4</ele>
        <time>2017-01-08T11:10:37Z</time>
      </trkpt>
      <trkpt lat="48.44239" lon="2.69418">
        <ele>93.4</ele>
        <time>2017-01-08T11:10:42Z</time>
      </trkpt>
      <trkpt lat="48.44253" lon="2.69436">
        <ele>93.4</ele>
        <time>2017-01-08T11:10:48Z</time>
      </trkpt>
      <trkpt lat="48.44268" lon="2.69459">
        <ele>93.4</ele>
        <time>2017-01-08T11:10:55Z</time>
      </trkpt>
      <trkpt lat="48.44281" lon="2.69479">
        <ele>93.4</ele>
        <time>2017-01-08T11:11:01Z</time>
      </trkpt>
      <trkpt lat="48.44293" lon="2.69502">
        <ele>93.4</ele>
        <time>2017-01-08T11:11:08Z</time>
      </trkpt>
      <trkpt lat="48.44297" lon="2.69503">
        <ele>93.4</ele>
        <time>2017-01-08T11:11:10Z</time>
      </trkpt>
      <trkpt lat="48.44301" lon="2.69499">
        <ele>93.4</ele>
        <time>2017-01-08T11:11:12Z</time>
      </trkpt>
      <trkpt lat="48.44303" lon="2.69492">
        <ele>93.4</ele>
        <time>2017-01-08T11:11:15Z</time>
      </trkpt>
      <trkpt lat="48.44306" lon="2.69489">
        <ele>93</ele>
        <time>2017-01-08T11:11:17Z</time>
      </trkpt>
      <trkpt lat="48.44308" lon="2.69487">
        <ele>92.4</ele>
        <time>2017-01-08T11:11:18Z</time>
      </trkpt>
      <trkpt lat="48.44309" lon="2.69486">
        <ele>92.6</ele>
        <time>2017-01-08T11:11:19Z</time>
      </trkpt>
      <trkpt lat="48.44311" lon="2.69485">
        <ele>92.8</ele>
        <time>2017-01-08T11:11:20Z</time>
      </trkpt>
      <trkpt lat="48.44313" lon="2.69484">
        <ele>92.8</ele>
        <time>2017-01-08T11:11:21Z</time>
      </trkpt>
      <trkpt lat="48.44315" lon="2.69483">
        <ele>93</ele>
        <time>2017-01-08T11:11:22Z</time>
      </trkpt>
      <trkpt lat="48.44317" lon="2.69481">
        <ele>93.2</ele>
        <time>2017-01-08T11:11:23Z</time>
      </trkpt>
      <trkpt lat="48.44319" lon="2.6948">
        <ele>93.2</ele>
        <time>2017-01-08T11:11:24Z</time>
      </trkpt>
      <trkpt lat="48.44331" lon="2.69474">
        <ele>93.2</ele>
        <time>2017-01-08T11:11:29Z</time>
      </trkpt>
      <trkpt lat="48.44341" lon="2.6947">
        <ele>93.2</ele>
        <time>2017-01-08T11:11:34Z</time>
      </trkpt>
      <trkpt lat="48.44356" lon="2.69457">
        <ele>93.2</ele>
        <time>2017-01-08T11:11:39Z</time>
      </trkpt>
      <trkpt lat="48.44364" lon="2.69437">
        <ele>93.2</ele>
        <time>2017-01-08T11:11:44Z</time>
      </trkpt>
      <trkpt lat="48.44363" lon="2.69432">
        <ele>93.2</ele>
        <time>2017-01-08T11:11:45Z</time>
      </trkpt>
      <trkpt lat="48.44362" lon="2.69417">
        <ele>93.2</ele>
        <time>2017-01-08T11:11:48Z</time>
      </trkpt>
      <trkpt lat="48.44353" lon="2.69389">
        <ele>93.2</ele>
        <time>2017-01-08T11:11:54Z</time>
      </trkpt>
      <trkpt lat="48.44352" lon="2.69377">
        <ele>93.2</ele>
        <time>2017-01-08T11:11:57Z</time>
      </trkpt>
      <trkpt lat="48.44353" lon="2.69374">
        <ele>93.2</ele>
        <time>2017-01-08T11:11:58Z</time>
      </trkpt>
      <trkpt lat="48.44361" lon="2.6937">
        <ele>93.2</ele>
        <time>2017-01-08T11:12:02Z</time>
      </trkpt>
      <trkpt lat="48.44375" lon="2.69363">
        <ele>93.2</ele>
        <time>2017-01-08T11:12:07Z</time>
      </trkpt>
      <trkpt lat="48.44393" lon="2.69357">
        <ele>93.2</ele>
        <time>2017-01-08T11:12:13Z</time>
      </trkpt>
      <trkpt lat="48.44413" lon="2.69351">
        <ele>93.2</ele>
        <time>2017-01-08T11:12:19Z</time>
      </trkpt>
      <trkpt lat="48.44432" lon="2.69345">
        <ele>93.2</ele>
        <time>2017-01-08T11:12:25Z</time>
      </trkpt>
      <trkpt lat="48.4445" lon="2.6934">
        <ele>93.2</ele>
        <time>2017-01-08T11:12:31Z</time>
      </trkpt>
      <trkpt lat="48.44479" lon="2.6933">
        <ele>93.2</ele>
        <time>2017-01-08T11:12:38Z</time>
      </trkpt>
      <trkpt lat="48.44504" lon="2.6932">
        <ele>93.2</ele>
        <time>2017-01-08T11:12:45Z</time>
      </trkpt>
      <trkpt lat="48.44526" lon="2.69311">
        <ele>93.2</ele>
        <time>2017-01-08T11:12:50Z</time>
      </trkpt>
      <trkpt lat="48.44558" lon="2.69304">
        <ele>93.2</ele>
        <time>2017-01-08T11:12:58Z</time>
      </trkpt>
      <trkpt lat="48.44581" lon="2.69295">
        <ele>93.2</ele>
        <time>2017-01-08T11:13:04Z</time>
      </trkpt>
      <trkpt lat="48.44606" lon="2.69285">
        <ele>93.2</ele>
        <time>2017-01-08T11:13:11Z</time>
      </trkpt>
      <trkpt lat="48.44637" lon="2.69276">
        <ele>93.2</ele>
        <time>2017-01-08T11:13:19Z</time>
      </trkpt>
      <trkpt lat="48.44657" lon="2.69267">
        <ele>93.2</ele>
        <time>2017-01-08T11:13:25Z</time>
      </trkpt>
      <trkpt lat="48.44678" lon="2.69262">
        <ele>93.2</ele>
        <time>2017-01-08T11:13:31Z</time>
      </trkpt>
      <trkpt lat="48.44702" lon="2.69255">
        <ele>93.2</ele>
        <time>2017-01-08T11:13:37Z</time>
      </trkpt>
      <trkpt lat="48.44725" lon="2.69248">
        <ele>93.2</ele>
        <time>2017-01-08T11:13:43Z</time>
      </trkpt>
      <trkpt lat="48.44749" lon="2.6924">
        <ele>93.2</ele>
        <time>2017-01-08T11:13:49Z</time>
      </trkpt>
      <trkpt lat="48.44771" lon="2.69233">
        <ele>92.8</ele>
        <time>2017-01-08T11:13:54Z</time>
      </trkpt>
      <trkpt lat="48.44775" lon="2.69232">
        <ele>92.2</ele>
        <time>2017-01-08T11:13:55Z</time>
      </trkpt>
      <trkpt lat="48.44779" lon="2.69231">
        <ele>91.8</ele>
        <time>2017-01-08T11:13:56Z</time>
      </trkpt>
      <trkpt lat="48.44783" lon="2.69231">
        <ele>91.4</ele>
        <time>2017-01-08T11:13:57Z</time>
      </trkpt>
      <trkpt lat="48.44786" lon="2.69232">
        <ele>91</ele>
        <time>2017-01-08T11:13:58Z</time>
      </trkpt>
      <trkpt lat="48.44791" lon="2.69238">
        <ele>91</ele>
        <time>2017-01-08T11:14:00Z</time>
      </trkpt>
      <trkpt lat="48.44791" lon="2.69255">
        <ele>91</ele>
        <time>2017-01-08T11:14:03Z</time>
      </trkpt>
      <trkpt lat="48.44788" lon="2.69294">
        <ele>91</ele>
        <time>2017-01-08T11:14:10Z</time>
      </trkpt>
      <trkpt lat="48.44783" lon="2.69331">
        <ele>91</ele>
        <time>2017-01-08T11:14:17Z</time>
      </trkpt>
      <trkpt lat="48.44779" lon="2.69357">
        <ele>91</ele>
        <time>2017-01-08T11:14:22Z</time>
      </trkpt>
      <trkpt lat="48.4478" lon="2.69372">
        <ele>91</ele>
        <time>2017-01-08T11:14:25Z</time>
      </trkpt>
      <trkpt lat="48.44781" lon="2.69375">
        <ele>91</ele>
        <time>2017-01-08T11:14:26Z</time>
      </trkpt>
      <trkpt lat="48.44792" lon="2.69378">
        <ele>91</ele>
        <time>2017-01-08T11:14:30Z</time>
      </trkpt>
      <trkpt lat="48.44798" lon="2.69374">
        <ele>91</ele>
        <time>2017-01-08T11:14:32Z</time>
      </trkpt>
      <trkpt lat="48.44808" lon="2.69375">
        <ele>91</ele>
        <time>2017-01-08T11:14:35Z</time>
      </trkpt>
      <trkpt lat="48.44811" lon="2.69373">
        <ele>91</ele>
        <time>2017-01-08T11:14:36Z</time>
      </trkpt>
      <trkpt lat="48.44814" lon="2.69371">
        <ele>91</ele>
        <time>2017-01-08T11:14:38Z</time>
      </trkpt>
      <trkpt lat="48.44815" lon="2.69372">
        <ele>91</ele>
        <time>2017-01-08T11:14:40Z</time>
      </trkpt>
      <trkpt lat="48.44819" lon="2.6937">
        <ele>91</ele>
        <time>2017-01-08T11:14:45Z</time>
      </trkpt>
      <trkpt lat="48.4482" lon="2.69369">
        <ele>91</ele>
        <time>2017-01-08T11:14:46Z</time>
      </trkpt>
      <trkpt lat="48.44824" lon="2.69366">
        <ele>91</ele>
        <time>2017-01-08T11:14:49Z</time>
      </trkpt>
      <trkpt lat="48.44827" lon="2.69366">
        <ele>91</ele>
        <time>2017-01-08T11:14:51Z</time>
      </trkpt>
      <trkpt lat="48.44838" lon="2.69364">
        <ele>91</ele>
        <time>2017-01-08T11:14:56Z</time>
      </trkpt>
      <trkpt lat="48.44845" lon="2.69358">
        <ele>91</ele>
        <time>2017-01-08T11:14:59Z</time>
      </trkpt>
      <trkpt lat="48.44847" lon="2.69357">
        <ele>91</ele>
        <time>2017-01-08T11:15:00Z</time>
      </trkpt>
      <trkpt lat="48.44862" lon="2.69352">
        <ele>91</ele>
        <time>2017-01-08T11:15:06Z</time>
      </trkpt>
      <trkpt lat="48.44877" lon="2.6935">
        <ele>91</ele>
        <time>2017-01-08T11:15:12Z</time>
      </trkpt>
      <trkpt lat="48.44883" lon="2.6935">
        <ele>91</ele>
        <time>2017-01-08T11:15:14Z</time>
      </trkpt>
      <trkpt lat="48.44889" lon="2.69347">
        <ele>91</ele>
        <time>2017-01-08T11:15:16Z</time>
      </trkpt>
      <trkpt lat="48.44901" lon="2.69342">
        <ele>91</ele>
        <time>2017-01-08T11:15:20Z</time>
      </trkpt>
      <trkpt lat="48.44913" lon="2.6933">
        <ele>91</ele>
        <time>2017-01-08T11:15:25Z</time>
      </trkpt>
      <trkpt lat="48.44918" lon="2.69326">
        <ele>91</ele>
        <time>2017-01-08T11:15:28Z</time>
      </trkpt>
      <trkpt lat="48.4492" lon="2.69324">
        <ele>91</ele>
        <time>2017-01-08T11:15:29Z</time>
      </trkpt>
      <trkpt lat="48.4493" lon="2.69314">
        <ele>91</ele>
        <time>2017-01-08T11:15:34Z</time>
      </trkpt>
      <trkpt lat="48.44943" lon="2.6929">
        <ele>91</ele>
        <time>2017-01-08T11:15:40Z</time>
      </trkpt>
      <trkpt lat="48.44953" lon="2.69282">
        <ele>91</ele>
        <time>2017-01-08T11:15:44Z</time>
      </trkpt>
      <trkpt lat="48.44955" lon="2.69278">
        <ele>91</ele>
        <time>2017-01-08T11:15:45Z</time>
      </trkpt>
      <trkpt lat="48.44958" lon="2.69268">
        <ele>91</ele>
        <time>2017-01-08T11:15:48Z</time>
      </trkpt>
      <trkpt lat="48.44959" lon="2.69265">
        <ele>91</ele>
        <time>2017-01-08T11:15:49Z</time>
      </trkpt>
      <trkpt lat="48.4496" lon="2.69262">
        <ele>91</ele>
        <time>2017-01-08T11:15:50Z</time>
      </trkpt>
      <trkpt lat="48.44965" lon="2.69251">
        <ele>91</ele>
        <time>2017-01-08T11:15:53Z</time>
      </trkpt>
      <trkpt lat="48.44973" lon="2.69238">
        <ele>91</ele>
        <time>2017-01-08T11:15:57Z</time>
      </trkpt>
      <trkpt lat="48.44976" lon="2.69235">
        <ele>91</ele>
        <time>2017-01-08T11:15:58Z</time>
      </trkpt>
      <trkpt lat="48.44983" lon="2.69223">
        <ele>91</ele>
        <time>2017-01-08T11:16:01Z</time>
      </trkpt>
      <trkpt lat="48.44984" lon="2.69221">
        <ele>91</ele>
        <time>2017-01-08T11:16:02Z</time>
      </trkpt>
      <trkpt lat="48.44992" lon="2.69212">
        <ele>91</ele>
        <time>2017-01-08T11:16:05Z</time>
      </trkpt>
      <trkpt lat="48.44996" lon="2.69211">
        <ele>91</ele>
        <time>2017-01-08T11:16:06Z</time>
      </trkpt>
      <trkpt lat="48.45009" lon="2.69211">
        <ele>91</ele>
        <time>2017-01-08T11:16:11Z</time>
      </trkpt>
      <trkpt lat="48.4501" lon="2.69209">
        <ele>91</ele>
        <time>2017-01-08T11:16:12Z</time>
      </trkpt>
      <trkpt lat="48.45015" lon="2.69202">
        <ele>91</ele>
        <time>2017-01-08T11:16:15Z</time>
      </trkpt>
      <trkpt lat="48.45026" lon="2.69196">
        <ele>91</ele>
        <time>2017-01-08T11:16:20Z</time>
      </trkpt>
      <trkpt lat="48.4504" lon="2.69187">
        <ele>91</ele>
        <time>2017-01-08T11:16:25Z</time>
      </trkpt>
      <trkpt lat="48.45043" lon="2.69187">
        <ele>91</ele>
        <time>2017-01-08T11:16:26Z</time>
      </trkpt>
      <trkpt lat="48.45058" lon="2.69178">
        <ele>91</ele>
        <time>2017-01-08T11:16:31Z</time>
      </trkpt>
      <trkpt lat="48.45061" lon="2.69174">
        <ele>91</ele>
        <time>2017-01-08T11:16:32Z</time>
      </trkpt>
      <trkpt lat="48.45073" lon="2.69168">
        <ele>91</ele>
        <time>2017-01-08T11:16:36Z</time>
      </trkpt>
      <trkpt lat="48.45089" lon="2.69161">
        <ele>91</ele>
        <time>2017-01-08T11:16:42Z</time>
      </trkpt>
      <trkpt lat="48.45102" lon="2.6914">
        <ele>91</ele>
        <time>2017-01-08T11:16:48Z</time>
      </trkpt>
      <trkpt lat="48.45106" lon="2.69126">
        <ele>91</ele>
        <time>2017-01-08T11:16:51Z</time>
      </trkpt>
      <trkpt lat="48.45106" lon="2.69122">
        <ele>91</ele>
        <time>2017-01-08T11:16:52Z</time>
      </trkpt>
      <trkpt lat="48.45106" lon="2.69102">
        <ele>91.4</ele>
        <time>2017-01-08T11:16:56Z</time>
      </trkpt>
      <trkpt lat="48.45105" lon="2.69098">
        <ele>91.8</ele>
        <time>2017-01-08T11:16:57Z</time>
      </trkpt>
      <trkpt lat="48.45106" lon="2.69092">
        <ele>92.2</ele>
        <time>2017-01-08T11:16:58Z</time>
      </trkpt>
      <trkpt lat="48.45106" lon="2.69088">
        <ele>92.6</ele>
        <time>2017-01-08T11:16:59Z</time>
      </trkpt>
      <trkpt lat="48.45107" lon="2.69084">
        <ele>93.2</ele>
        <time>2017-01-08T11:17:00Z</time>
      </trkpt>
      <trkpt lat="48.45109" lon="2.69079">
        <ele>93.2</ele>
        <time>2017-01-08T11:17:01Z</time>
      </trkpt>
      <trkpt lat="48.45122" lon="2.69058">
        <ele>93.2</ele>
        <time>2017-01-08T11:17:06Z</time>
      </trkpt>
      <trkpt lat="48.45132" lon="2.69049">
        <ele>93.2</ele>
        <time>2017-01-08T11:17:10Z</time>
      </trkpt>
      <trkpt lat="48.45132" lon="2.69044">
        <ele>93.2</ele>
        <time>2017-01-08T11:17:11Z</time>
      </trkpt>
      <trkpt lat="48.45134" lon="2.69033">
        <ele>93.2</ele>
        <time>2017-01-08T11:17:14Z</time>
      </trkpt>
      <trkpt lat="48.45135" lon="2.69027">
        <ele>93.2</ele>
        <time>2017-01-08T11:17:16Z</time>
      </trkpt>
      <trkpt lat="48.45135" lon="2.69024">
        <ele>93.6</ele>
        <time>2017-01-08T11:17:17Z</time>
      </trkpt>
      <trkpt lat="48.45136" lon="2.69022">
        <ele>94</ele>
        <time>2017-01-08T11:17:18Z</time>
      </trkpt>
      <trkpt lat="48.45137" lon="2.6902">
        <ele>94.4</ele>
        <time>2017-01-08T11:17:19Z</time>
      </trkpt>
      <trkpt lat="48.45138" lon="2.69018">
        <ele>94.8</ele>
        <time>2017-01-08T11:17:20Z</time>
      </trkpt>
      <trkpt lat="48.45139" lon="2.69016">
        <ele>95.4</ele>
        <time>2017-01-08T11:17:21Z</time>
      </trkpt>
      <trkpt lat="48.45141" lon="2.69014">
        <ele>95.4</ele>
        <time>2017-01-08T11:17:22Z</time>
      </trkpt>
      <trkpt lat="48.4515" lon="2.69002">
        <ele>95.8</ele>
        <time>2017-01-08T11:17:28Z</time>
      </trkpt>
      <trkpt lat="48.45152" lon="2.69001">
        <ele>96.2</ele>
        <time>2017-01-08T11:17:29Z</time>
      </trkpt>
      <trkpt lat="48.45153" lon="2.68999">
        <ele>96.6</ele>
        <time>2017-01-08T11:17:30Z</time>
      </trkpt>
      <trkpt lat="48.45155" lon="2.68997">
        <ele>97</ele>
        <time>2017-01-08T11:17:31Z</time>
      </trkpt>
      <trkpt lat="48.45155" lon="2.68996">
        <ele>97.4</ele>
        <time>2017-01-08T11:17:32Z</time>
      </trkpt>
      <trkpt lat="48.45157" lon="2.68994">
        <ele>97.4</ele>
        <time>2017-01-08T11:17:33Z</time>
      </trkpt>
      <trkpt lat="48.45158" lon="2.68993">
        <ele>97.4</ele>
        <time>2017-01-08T11:17:34Z</time>
      </trkpt>
      <trkpt lat="48.4516" lon="2.68989">
        <ele>97.8</ele>
        <time>2017-01-08T11:17:36Z</time>
      </trkpt>
      <trkpt lat="48.45161" lon="2.68987">
        <ele>98.2</ele>
        <time>2017-01-08T11:17:37Z</time>
      </trkpt>
      <trkpt lat="48.45163" lon="2.68986">
        <ele>98.8</ele>
        <time>2017-01-08T11:17:38Z</time>
      </trkpt>
      <trkpt lat="48.45163" lon="2.68986">
        <ele>99.2</ele>
        <time>2017-01-08T11:17:39Z</time>
      </trkpt>
      <trkpt lat="48.45165" lon="2.68984">
        <ele>99.6</ele>
        <time>2017-01-08T11:17:40Z</time>
      </trkpt>
      <trkpt lat="48.45168" lon="2.68978">
        <ele>99.6</ele>
        <time>2017-01-08T11:17:43Z</time>
      </trkpt>
      <trkpt lat="48.45171" lon="2.68975">
        <ele>100</ele>
        <time>2017-01-08T11:17:47Z</time>
      </trkpt>
      <trkpt lat="48.45172" lon="2.68972">
        <ele>100.4</ele>
        <time>2017-01-08T11:17:48Z</time>
      </trkpt>
      <trkpt lat="48.45174" lon="2.68971">
        <ele>100.8</ele>
        <time>2017-01-08T11:17:49Z</time>
      </trkpt>
      <trkpt lat="48.45175" lon="2.6897">
        <ele>101.2</ele>
        <time>2017-01-08T11:17:50Z</time>
      </trkpt>
      <trkpt lat="48.45175" lon="2.68969">
        <ele>101.6</ele>
        <time>2017-01-08T11:17:51Z</time>
      </trkpt>
      <trkpt lat="48.45176" lon="2.68966">
        <ele>101.6</ele>
        <time>2017-01-08T11:17:53Z</time>
      </trkpt>
      <trkpt lat="48.45178" lon="2.6896">
        <ele>102.2</ele>
        <time>2017-01-08T11:17:56Z</time>
      </trkpt>
      <trkpt lat="48.4518" lon="2.68959">
        <ele>102.6</ele>
        <time>2017-01-08T11:17:57Z</time>
      </trkpt>
      <trkpt lat="48.4518" lon="2.68958">
        <ele>103</ele>
        <time>2017-01-08T11:17:58Z</time>
      </trkpt>
      <trkpt lat="48.4518" lon="2.68957">
        <ele>103.8</ele>
        <time>2017-01-08T11:17:59Z</time>
      </trkpt>
      <trkpt lat="48.45181" lon="2.68956">
        <ele>103.8</ele>
        <time>2017-01-08T11:18:01Z</time>
      </trkpt>
      <trkpt lat="48.45192" lon="2.6893">
        <ele>106.8</ele>
        <time>2017-01-08T11:18:16Z</time>
      </trkpt>
      <trkpt lat="48.45193" lon="2.68928">
        <ele>107.4</ele>
        <time>2017-01-08T11:18:17Z</time>
      </trkpt>
      <trkpt lat="48.45194" lon="2.68926">
        <ele>107.8</ele>
        <time>2017-01-08T11:18:18Z</time>
      </trkpt>
      <trkpt lat="48.45195" lon="2.68925">
        <ele>108.2</ele>
        <time>2017-01-08T11:18:19Z</time>
      </trkpt>
      <trkpt lat="48.45203" lon="2.68916">
        <ele>108.2</ele>
        <time>2017-01-08T11:18:24Z</time>
      </trkpt>
      <trkpt lat="48.45205" lon="2.68918">
        <ele>108.2</ele>
        <time>2017-01-08T11:18:25Z</time>
      </trkpt>
      <trkpt lat="48.45215" lon="2.68921">
        <ele>108.2</ele>
        <time>2017-01-08T11:18:28Z</time>
      </trkpt>
      <trkpt lat="48.45222" lon="2.68923">
        <ele>107.8</ele>
        <time>2017-01-08T11:18:30Z</time>
      </trkpt>
      <trkpt lat="48.45227" lon="2.68923">
        <ele>107.4</ele>
        <time>2017-01-08T11:18:31Z</time>
      </trkpt>
      <trkpt lat="48.45231" lon="2.68924">
        <ele>106.8</ele>
        <time>2017-01-08T11:18:32Z</time>
      </trkpt>
      <trkpt lat="48.45235" lon="2.68924">
        <ele>106.4</ele>
        <time>2017-01-08T11:18:33Z</time>
      </trkpt>
      <trkpt lat="48.45239" lon="2.68927">
        <ele>105.8</ele>
        <time>2017-01-08T11:18:34Z</time>
      </trkpt>
      <trkpt lat="48.45244" lon="2.68931">
        <ele>105.2</ele>
        <time>2017-01-08T11:18:35Z</time>
      </trkpt>
      <trkpt lat="48.45247" lon="2.68932">
        <ele>104.6</ele>
        <time>2017-01-08T11:18:36Z</time>
      </trkpt>
      <trkpt lat="48.45252" lon="2.68936">
        <ele>104</ele>
        <time>2017-01-08T11:18:37Z</time>
      </trkpt>
      <trkpt lat="48.45257" lon="2.6894">
        <ele>103.4</ele>
        <time>2017-01-08T11:18:38Z</time>
      </trkpt>
      <trkpt lat="48.45261" lon="2.68945">
        <ele>103</ele>
        <time>2017-01-08T11:18:39Z</time>
      </trkpt>
      <trkpt lat="48.45266" lon="2.68948">
        <ele>102.4</ele>
        <time>2017-01-08T11:18:40Z</time>
      </trkpt>
      <trkpt lat="48.45271" lon="2.68951">
        <ele>101.8</ele>
        <time>2017-01-08T11:18:41Z</time>
      </trkpt>
      <trkpt lat="48.45279" lon="2.68958">
        <ele>101.8</ele>
        <time>2017-01-08T11:18:43Z</time>
      </trkpt>
      <trkpt lat="48.45282" lon="2.68962">
        <ele>101.8</ele>
        <time>2017-01-08T11:18:44Z</time>
      </trkpt>
      <trkpt lat="48.4529" lon="2.68971">
        <ele>101.8</ele>
        <time>2017-01-08T11:18:48Z</time>
      </trkpt>
      <trkpt lat="48.45295" lon="2.68976">
        <ele>101.8</ele>
        <time>2017-01-08T11:18:51Z</time>
      </trkpt>
      <trkpt lat="48.45297" lon="2.68978">
        <ele>101.8</ele>
        <time>2017-01-08T11:18:52Z</time>
      </trkpt>
      <trkpt lat="48.45301" lon="2.68984">
        <ele>101.8</ele>
        <time>2017-01-08T11:18:54Z</time>
      </trkpt>
      <trkpt lat="48.45301" lon="2.68988">
        <ele>101.4</ele>
        <time>2017-01-08T11:18:55Z</time>
      </trkpt>
      <trkpt lat="48.45303" lon="2.68991">
        <ele>100.8</ele>
        <time>2017-01-08T11:18:56Z</time>
      </trkpt>
      <trkpt lat="48.45305" lon="2.68996">
        <ele>100.4</ele>
        <time>2017-01-08T11:18:57Z</time>
      </trkpt>
      <trkpt lat="48.45306" lon="2.68999">
        <ele>99.8</ele>
        <time>2017-01-08T11:18:58Z</time>
      </trkpt>
      <trkpt lat="48.45309" lon="2.69001">
        <ele>99.2</ele>
        <time>2017-01-08T11:18:59Z</time>
      </trkpt>
      <trkpt lat="48.45313" lon="2.69005">
        <ele>98.6</ele>
        <time>2017-01-08T11:19:00Z</time>
      </trkpt>
      <trkpt lat="48.45317" lon="2.69009">
        <ele>98</ele>
        <time>2017-01-08T11:19:01Z</time>
      </trkpt>
      <trkpt lat="48.45321" lon="2.69011">
        <ele>97.4</ele>
        <time>2017-01-08T11:19:02Z</time>
      </trkpt>
      <trkpt lat="48.45326" lon="2.69012">
        <ele>96.8</ele>
        <time>2017-01-08T11:19:03Z</time>
      </trkpt>
      <trkpt lat="48.45336" lon="2.69017">
        <ele>96.8</ele>
        <time>2017-01-08T11:19:05Z</time>
      </trkpt>
      <trkpt lat="48.4535" lon="2.69025">
        <ele>96.8</ele>
        <time>2017-01-08T11:19:10Z</time>
      </trkpt>
      <trkpt lat="48.45364" lon="2.6903">
        <ele>97.2</ele>
        <time>2017-01-08T11:19:15Z</time>
      </trkpt>
      <trkpt lat="48.45366" lon="2.69031">
        <ele>97.6</ele>
        <time>2017-01-08T11:19:16Z</time>
      </trkpt>
      <trkpt lat="48.45368" lon="2.69033">
        <ele>98</ele>
        <time>2017-01-08T11:19:17Z</time>
      </trkpt>
      <trkpt lat="48.4537" lon="2.69034">
        <ele>98.4</ele>
        <time>2017-01-08T11:19:18Z</time>
      </trkpt>
      <trkpt lat="48.45371" lon="2.69035">
        <ele>99</ele>
        <time>2017-01-08T11:19:19Z</time>
      </trkpt>
      <trkpt lat="48.45374" lon="2.69035">
        <ele>99.4</ele>
        <time>2017-01-08T11:19:22Z</time>
      </trkpt>
      <trkpt lat="48.45375" lon="2.69035">
        <ele>99.8</ele>
        <time>2017-01-08T11:19:23Z</time>
      </trkpt>
      <trkpt lat="48.45376" lon="2.69036">
        <ele>100.2</ele>
        <time>2017-01-08T11:19:24Z</time>
      </trkpt>
      <trkpt lat="48.45378" lon="2.69037">
        <ele>100.6</ele>
        <time>2017-01-08T11:19:25Z</time>
      </trkpt>
      <trkpt lat="48.45379" lon="2.69039">
        <ele>101</ele>
        <time>2017-01-08T11:19:26Z</time>
      </trkpt>
      <trkpt lat="48.45383" lon="2.69045">
        <ele>101</ele>
        <time>2017-01-08T11:19:28Z</time>
      </trkpt>
      <trkpt lat="48.45389" lon="2.69047">
        <ele>101</ele>
        <time>2017-01-08T11:19:31Z</time>
      </trkpt>
      <trkpt lat="48.45393" lon="2.6905">
        <ele>100.6</ele>
        <time>2017-01-08T11:19:32Z</time>
      </trkpt>
      <trkpt lat="48.45396" lon="2.69052">
        <ele>100.2</ele>
        <time>2017-01-08T11:19:33Z</time>
      </trkpt>
      <trkpt lat="48.45401" lon="2.69054">
        <ele>99.8</ele>
        <time>2017-01-08T11:19:34Z</time>
      </trkpt>
      <trkpt lat="48.45405" lon="2.69058">
        <ele>99</ele>
        <time>2017-01-08T11:19:35Z</time>
      </trkpt>
      <trkpt lat="48.45409" lon="2.69062">
        <ele>98.2</ele>
        <time>2017-01-08T11:19:36Z</time>
      </trkpt>
      <trkpt lat="48.45415" lon="2.69066">
        <ele>97.6</ele>
        <time>2017-01-08T11:19:37Z</time>
      </trkpt>
      <trkpt lat="48.4542" lon="2.69071">
        <ele>96.2</ele>
        <time>2017-01-08T11:19:38Z</time>
      </trkpt>
      <trkpt lat="48.45425" lon="2.69073">
        <ele>95.8</ele>
        <time>2017-01-08T11:19:39Z</time>
      </trkpt>
      <trkpt lat="48.4543" lon="2.69075">
        <ele>95.2</ele>
        <time>2017-01-08T11:19:40Z</time>
      </trkpt>
      <trkpt lat="48.45435" lon="2.69076">
        <ele>94.6</ele>
        <time>2017-01-08T11:19:41Z</time>
      </trkpt>
      <trkpt lat="48.45441" lon="2.69077">
        <ele>94</ele>
        <time>2017-01-08T11:19:42Z</time>
      </trkpt>
      <trkpt lat="48.45449" lon="2.69078">
        <ele>94</ele>
        <time>2017-01-08T11:19:44Z</time>
      </trkpt>
      <trkpt lat="48.45457" lon="2.69086">
        <ele>94</ele>
        <time>2017-01-08T11:19:47Z</time>
      </trkpt>
      <trkpt lat="48.45472" lon="2.69097">
        <ele>94</ele>
        <time>2017-01-08T11:19:52Z</time>
      </trkpt>
      <trkpt lat="48.45496" lon="2.69109">
        <ele>94</ele>
        <time>2017-01-08T11:19:58Z</time>
      </trkpt>
      <trkpt lat="48.45514" lon="2.69112">
        <ele>94</ele>
        <time>2017-01-08T11:20:03Z</time>
      </trkpt>
      <trkpt lat="48.45528" lon="2.69115">
        <ele>94</ele>
        <time>2017-01-08T11:20:07Z</time>
      </trkpt>
      <trkpt lat="48.45529" lon="2.69114">
        <ele>94</ele>
        <time>2017-01-08T11:20:08Z</time>
      </trkpt>
      <trkpt lat="48.45543" lon="2.69113">
        <ele>94</ele>
        <time>2017-01-08T11:20:12Z</time>
      </trkpt>
      <trkpt lat="48.45546" lon="2.6911">
        <ele>94</ele>
        <time>2017-01-08T11:20:13Z</time>
      </trkpt>
      <trkpt lat="48.45549" lon="2.69103">
        <ele>94</ele>
        <time>2017-01-08T11:20:15Z</time>
      </trkpt>
      <trkpt lat="48.45559" lon="2.69085">
        <ele>94</ele>
        <time>2017-01-08T11:20:19Z</time>
      </trkpt>
      <trkpt lat="48.45561" lon="2.69081">
        <ele>94</ele>
        <time>2017-01-08T11:20:20Z</time>
      </trkpt>
      <trkpt lat="48.45568" lon="2.69068">
        <ele>94</ele>
        <time>2017-01-08T11:20:24Z</time>
      </trkpt>
      <trkpt lat="48.45579" lon="2.69048">
        <ele>94</ele>
        <time>2017-01-08T11:20:29Z</time>
      </trkpt>
      <trkpt lat="48.45593" lon="2.69027">
        <ele>94</ele>
        <time>2017-01-08T11:20:35Z</time>
      </trkpt>
      <trkpt lat="48.45597" lon="2.69022">
        <ele>94</ele>
        <time>2017-01-08T11:20:37Z</time>
      </trkpt>
      <trkpt lat="48.45607" lon="2.69012">
        <ele>94</ele>
        <time>2017-01-08T11:20:40Z</time>
      </trkpt>
      <trkpt lat="48.45628" lon="2.68996">
        <ele>94</ele>
        <time>2017-01-08T11:20:46Z</time>
      </trkpt>
      <trkpt lat="48.45648" lon="2.68981">
        <ele>94</ele>
        <time>2017-01-08T11:20:53Z</time>
      </trkpt>
      <trkpt lat="48.45654" lon="2.6898">
        <ele>94</ele>
        <time>2017-01-08T11:20:55Z</time>
      </trkpt>
      <trkpt lat="48.4566" lon="2.68981">
        <ele>94</ele>
        <time>2017-01-08T11:20:57Z</time>
      </trkpt>
      <trkpt lat="48.45663" lon="2.68978">
        <ele>94</ele>
        <time>2017-01-08T11:20:58Z</time>
      </trkpt>
      <trkpt lat="48.45668" lon="2.68972">
        <ele>94</ele>
        <time>2017-01-08T11:21:00Z</time>
      </trkpt>
      <trkpt lat="48.45684" lon="2.68972">
        <ele>94.4</ele>
        <time>2017-01-08T11:21:04Z</time>
      </trkpt>
      <trkpt lat="48.45686" lon="2.68973">
        <ele>95</ele>
        <time>2017-01-08T11:21:05Z</time>
      </trkpt>
      <trkpt lat="48.45689" lon="2.68976">
        <ele>95.4</ele>
        <time>2017-01-08T11:21:06Z</time>
      </trkpt>
      <trkpt lat="48.45691" lon="2.68977">
        <ele>95.8</ele>
        <time>2017-01-08T11:21:07Z</time>
      </trkpt>
      <trkpt lat="48.45694" lon="2.68979">
        <ele>96.2</ele>
        <time>2017-01-08T11:21:08Z</time>
      </trkpt>
      <trkpt lat="48.45696" lon="2.6898">
        <ele>96.2</ele>
        <time>2017-01-08T11:21:09Z</time>
      </trkpt>
      <trkpt lat="48.45712" lon="2.68984">
        <ele>96.2</ele>
        <time>2017-01-08T11:21:15Z</time>
      </trkpt>
      <trkpt lat="48.45718" lon="2.68985">
        <ele>97</ele>
        <time>2017-01-08T11:21:17Z</time>
      </trkpt>
      <trkpt lat="48.4572" lon="2.68987">
        <ele>97.4</ele>
        <time>2017-01-08T11:21:18Z</time>
      </trkpt>
      <trkpt lat="48.45723" lon="2.68989">
        <ele>98</ele>
        <time>2017-01-08T11:21:19Z</time>
      </trkpt>
      <trkpt lat="48.45725" lon="2.68989">
        <ele>98.4</ele>
        <time>2017-01-08T11:21:20Z</time>
      </trkpt>
      <trkpt lat="48.45734" lon="2.68999">
        <ele>98.4</ele>
        <time>2017-01-08T11:21:25Z</time>
      </trkpt>
      <trkpt lat="48.45737" lon="2.69">
        <ele>98.8</ele>
        <time>2017-01-08T11:21:26Z</time>
      </trkpt>
      <trkpt lat="48.45738" lon="2.69002">
        <ele>99.2</ele>
        <time>2017-01-08T11:21:27Z</time>
      </trkpt>
      <trkpt lat="48.4574" lon="2.69004">
        <ele>99.6</ele>
        <time>2017-01-08T11:21:28Z</time>
      </trkpt>
      <trkpt lat="48.45741" lon="2.69005">
        <ele>100</ele>
        <time>2017-01-08T11:21:29Z</time>
      </trkpt>
      <trkpt lat="48.45743" lon="2.69006">
        <ele>100.4</ele>
        <time>2017-01-08T11:21:30Z</time>
      </trkpt>
      <trkpt lat="48.45744" lon="2.69008">
        <ele>100.4</ele>
        <time>2017-01-08T11:21:31Z</time>
      </trkpt>
      <trkpt lat="48.45748" lon="2.69008">
        <ele>100.4</ele>
        <time>2017-01-08T11:21:33Z</time>
      </trkpt>
      <trkpt lat="48.45751" lon="2.69002">
        <ele>100.8</ele>
        <time>2017-01-08T11:21:36Z</time>
      </trkpt>
      <trkpt lat="48.45753" lon="2.69">
        <ele>101.2</ele>
        <time>2017-01-08T11:21:37Z</time>
      </trkpt>
      <trkpt lat="48.45754" lon="2.68998">
        <ele>101.6</ele>
        <time>2017-01-08T11:21:38Z</time>
      </trkpt>
      <trkpt lat="48.45756" lon="2.68996">
        <ele>102</ele>
        <time>2017-01-08T11:21:39Z</time>
      </trkpt>
      <trkpt lat="48.45758" lon="2.68994">
        <ele>102.4</ele>
        <time>2017-01-08T11:21:40Z</time>
      </trkpt>
      <trkpt lat="48.45762" lon="2.68992">
        <ele>102.4</ele>
        <time>2017-01-08T11:21:42Z</time>
      </trkpt>
      <trkpt lat="48.45767" lon="2.68987">
        <ele>102.4</ele>
        <time>2017-01-08T11:21:46Z</time>
      </trkpt>
      <trkpt lat="48.4577" lon="2.68979">
        <ele>102.8</ele>
        <time>2017-01-08T11:21:49Z</time>
      </trkpt>
      <trkpt lat="48.45772" lon="2.68977">
        <ele>103.2</ele>
        <time>2017-01-08T11:21:50Z</time>
      </trkpt>
      <trkpt lat="48.45773" lon="2.68974">
        <ele>103.6</ele>
        <time>2017-01-08T11:21:51Z</time>
      </trkpt>
      <trkpt lat="48.45774" lon="2.6897">
        <ele>104</ele>
        <time>2017-01-08T11:21:52Z</time>
      </trkpt>
      <trkpt lat="48.45775" lon="2.68968">
        <ele>104.4</ele>
        <time>2017-01-08T11:21:53Z</time>
      </trkpt>
      <trkpt lat="48.45778" lon="2.68964">
        <ele>104.4</ele>
        <time>2017-01-08T11:21:55Z</time>
      </trkpt>
      <trkpt lat="48.45783" lon="2.68961">
        <ele>104.4</ele>
        <time>2017-01-08T11:21:58Z</time>
      </trkpt>
      <trkpt lat="48.45786" lon="2.68959">
        <ele>104.8</ele>
        <time>2017-01-08T11:22:00Z</time>
      </trkpt>
      <trkpt lat="48.45788" lon="2.68958">
        <ele>105.4</ele>
        <time>2017-01-08T11:22:01Z</time>
      </trkpt>
      <trkpt lat="48.45788" lon="2.68955">
        <ele>105.8</ele>
        <time>2017-01-08T11:22:02Z</time>
      </trkpt>
      <trkpt lat="48.4579" lon="2.68953">
        <ele>106.2</ele>
        <time>2017-01-08T11:22:03Z</time>
      </trkpt>
      <trkpt lat="48.45792" lon="2.68952">
        <ele>106.6</ele>
        <time>2017-01-08T11:22:04Z</time>
      </trkpt>
      <trkpt lat="48.45795" lon="2.68947">
        <ele>106.6</ele>
        <time>2017-01-08T11:22:07Z</time>
      </trkpt>
      <trkpt lat="48.45799" lon="2.68943">
        <ele>106.6</ele>
        <time>2017-01-08T11:22:10Z</time>
      </trkpt>
      <trkpt lat="48.45804" lon="2.68941">
        <ele>106.6</ele>
        <time>2017-01-08T11:22:14Z</time>
      </trkpt>
      <trkpt lat="48.45808" lon="2.68938">
        <ele>106.6</ele>
        <time>2017-01-08T11:22:19Z</time>
      </trkpt>
      <trkpt lat="48.45812" lon="2.68937">
        <ele>106.6</ele>
        <time>2017-01-08T11:22:23Z</time>
      </trkpt>
      <trkpt lat="48.45814" lon="2.68938">
        <ele>106.6</ele>
        <time>2017-01-08T11:22:26Z</time>
      </trkpt>
      <trkpt lat="48.45815" lon="2.68934">
        <ele>106.2</ele>
        <time>2017-01-08T11:22:29Z</time>
      </trkpt>
      <trkpt lat="48.45818" lon="2.68932">
        <ele>105.8</ele>
        <time>2017-01-08T11:22:30Z</time>
      </trkpt>
      <trkpt lat="48.4582" lon="2.68931">
        <ele>105</ele>
        <time>2017-01-08T11:22:31Z</time>
      </trkpt>
      <trkpt lat="48.45822" lon="2.68931">
        <ele>104.4</ele>
        <time>2017-01-08T11:22:32Z</time>
      </trkpt>
      <trkpt lat="48.45825" lon="2.68931">
        <ele>103.8</ele>
        <time>2017-01-08T11:22:33Z</time>
      </trkpt>
      <trkpt lat="48.45826" lon="2.68931">
        <ele>103.4</ele>
        <time>2017-01-08T11:22:34Z</time>
      </trkpt>
      <trkpt lat="48.45829" lon="2.68931">
        <ele>102.8</ele>
        <time>2017-01-08T11:22:35Z</time>
      </trkpt>
      <trkpt lat="48.45831" lon="2.68929">
        <ele>102.2</ele>
        <time>2017-01-08T11:22:36Z</time>
      </trkpt>
      <trkpt lat="48.45833" lon="2.68927">
        <ele>101.8</ele>
        <time>2017-01-08T11:22:37Z</time>
      </trkpt>
      <trkpt lat="48.45835" lon="2.68927">
        <ele>101.2</ele>
        <time>2017-01-08T11:22:38Z</time>
      </trkpt>
      <trkpt lat="48.45839" lon="2.68925">
        <ele>100.8</ele>
        <time>2017-01-08T11:22:39Z</time>
      </trkpt>
      <trkpt lat="48.45843" lon="2.68927">
        <ele>100.2</ele>
        <time>2017-01-08T11:22:40Z</time>
      </trkpt>
      <trkpt lat="48.45847" lon="2.68927">
        <ele>99.4</ele>
        <time>2017-01-08T11:22:41Z</time>
      </trkpt>
      <trkpt lat="48.45852" lon="2.68929">
        <ele>98.8</ele>
        <time>2017-01-08T11:22:42Z</time>
      </trkpt>
      <trkpt lat="48.45856" lon="2.68931">
        <ele>98.2</ele>
        <time>2017-01-08T11:22:43Z</time>
      </trkpt>
      <trkpt lat="48.45859" lon="2.68931">
        <ele>97.6</ele>
        <time>2017-01-08T11:22:44Z</time>
      </trkpt>
      <trkpt lat="48.45867" lon="2.68931">
        <ele>97.6</ele>
        <time>2017-01-08T11:22:46Z</time>
      </trkpt>
      <trkpt lat="48.45871" lon="2.6893">
        <ele>97.2</ele>
        <time>2017-01-08T11:22:47Z</time>
      </trkpt>
      <trkpt lat="48.45876" lon="2.68931">
        <ele>96.8</ele>
        <time>2017-01-08T11:22:48Z</time>
      </trkpt>
      <trkpt lat="48.4588" lon="2.68932">
        <ele>96.4</ele>
        <time>2017-01-08T11:22:49Z</time>
      </trkpt>
      <trkpt lat="48.45884" lon="2.68931">
        <ele>95.8</ele>
        <time>2017-01-08T11:22:50Z</time>
      </trkpt>
      <trkpt lat="48.4589" lon="2.68928">
        <ele>95.4</ele>
        <time>2017-01-08T11:22:51Z</time>
      </trkpt>
      <trkpt lat="48.45898" lon="2.68928">
        <ele>95.4</ele>
        <time>2017-01-08T11:22:53Z</time>
      </trkpt>
      <trkpt lat="48.45901" lon="2.68927">
        <ele>95.4</ele>
        <time>2017-01-08T11:22:54Z</time>
      </trkpt>
      <trkpt lat="48.4592" lon="2.68927">
        <ele>95.4</ele>
        <time>2017-01-08T11:23:00Z</time>
      </trkpt>
      <trkpt lat="48.45944" lon="2.68927">
        <ele>95.4</ele>
        <time>2017-01-08T11:23:07Z</time>
      </trkpt>
      <trkpt lat="48.45964" lon="2.68925">
        <ele>95.4</ele>
        <time>2017-01-08T11:23:14Z</time>
      </trkpt>
      <trkpt lat="48.45982" lon="2.68907">
        <ele>95.4</ele>
        <time>2017-01-08T11:23:19Z</time>
      </trkpt>
      <trkpt lat="48.45986" lon="2.68888">
        <ele>95.4</ele>
        <time>2017-01-08T11:23:24Z</time>
      </trkpt>
      <trkpt lat="48.4599" lon="2.68869">
        <ele>95.4</ele>
        <time>2017-01-08T11:23:29Z</time>
      </trkpt>
      <trkpt lat="48.45992" lon="2.68854">
        <ele>95.4</ele>
        <time>2017-01-08T11:23:34Z</time>
      </trkpt>
      <trkpt lat="48.45995" lon="2.68827">
        <ele>95.4</ele>
        <time>2017-01-08T11:23:40Z</time>
      </trkpt>
      <trkpt lat="48.45996" lon="2.68822">
        <ele>95</ele>
        <time>2017-01-08T11:23:41Z</time>
      </trkpt>
      <trkpt lat="48.45997" lon="2.68819">
        <ele>94.6</ele>
        <time>2017-01-08T11:23:42Z</time>
      </trkpt>
      <trkpt lat="48.45998" lon="2.68814">
        <ele>94.2</ele>
        <time>2017-01-08T11:23:43Z</time>
      </trkpt>
      <trkpt lat="48.45998" lon="2.6881">
        <ele>93.8</ele>
        <time>2017-01-08T11:23:44Z</time>
      </trkpt>
      <trkpt lat="48.45999" lon="2.68805">
        <ele>93.4</ele>
        <time>2017-01-08T11:23:45Z</time>
      </trkpt>
      <trkpt lat="48.46" lon="2.68799">
        <ele>93.4</ele>
        <time>2017-01-08T11:23:48Z</time>
      </trkpt>
      <trkpt lat="48.46002" lon="2.68778">
        <ele>93.4</ele>
        <time>2017-01-08T11:23:53Z</time>
      </trkpt>
      <trkpt lat="48.46005" lon="2.6875">
        <ele>93.4</ele>
        <time>2017-01-08T11:23:59Z</time>
      </trkpt>
      <trkpt lat="48.46009" lon="2.6872">
        <ele>93.4</ele>
        <time>2017-01-08T11:24:05Z</time>
      </trkpt>
      <trkpt lat="48.46014" lon="2.68687">
        <ele>93.4</ele>
        <time>2017-01-08T11:24:11Z</time>
      </trkpt>
      <trkpt lat="48.46017" lon="2.68659">
        <ele>93.4</ele>
        <time>2017-01-08T11:24:16Z</time>
      </trkpt>
      <trkpt lat="48.46022" lon="2.68635">
        <ele>93.4</ele>
        <time>2017-01-08T11:24:21Z</time>
      </trkpt>
      <trkpt lat="48.46027" lon="2.686">
        <ele>93.4</ele>
        <time>2017-01-08T11:24:28Z</time>
      </trkpt>
      <trkpt lat="48.46032" lon="2.68564">
        <ele>93.4</ele>
        <time>2017-01-08T11:24:34Z</time>
      </trkpt>
      <trkpt lat="48.46037" lon="2.68523">
        <ele>93.4</ele>
        <time>2017-01-08T11:24:41Z</time>
      </trkpt>
      <trkpt lat="48.46038" lon="2.68508">
        <ele>93.4</ele>
        <time>2017-01-08T11:24:43Z</time>
      </trkpt>
      <trkpt lat="48.4604" lon="2.68493">
        <ele>93.4</ele>
        <time>2017-01-08T11:24:46Z</time>
      </trkpt>
      <trkpt lat="48.46041" lon="2.68487">
        <ele>93.4</ele>
        <time>2017-01-08T11:24:47Z</time>
      </trkpt>
      <trkpt lat="48.46046" lon="2.68462">
        <ele>93.4</ele>
        <time>2017-01-08T11:24:52Z</time>
      </trkpt>
      <trkpt lat="48.46052" lon="2.68433">
        <ele>93.4</ele>
        <time>2017-01-08T11:24:57Z</time>
      </trkpt>
      <trkpt lat="48.46059" lon="2.68395">
        <ele>93.4</ele>
        <time>2017-01-08T11:25:03Z</time>
      </trkpt>
      <trkpt lat="48.46059" lon="2.68387">
        <ele>93.4</ele>
        <time>2017-01-08T11:25:04Z</time>
      </trkpt>
      <trkpt lat="48.46061" lon="2.68362">
        <ele>93.4</ele>
        <time>2017-01-08T11:25:08Z</time>
      </trkpt>
      <trkpt lat="48.46063" lon="2.68337">
        <ele>93.4</ele>
        <time>2017-01-08T11:25:13Z</time>
      </trkpt>
      <trkpt lat="48.46065" lon="2.68331">
        <ele>93.4</ele>
        <time>2017-01-08T11:25:15Z</time>
      </trkpt>
      <trkpt lat="48.46066" lon="2.68323">
        <ele>93.4</ele>
        <time>2017-01-08T11:25:17Z</time>
      </trkpt>
      <trkpt lat="48.46065" lon="2.68315">
        <ele>93.4</ele>
        <time>2017-01-08T11:25:19Z</time>
      </trkpt>
      <trkpt lat="48.46064" lon="2.68305">
        <ele>93.4</ele>
        <time>2017-01-08T11:25:22Z</time>
      </trkpt>
      <trkpt lat="48.46058" lon="2.68289">
        <ele>93.4</ele>
        <time>2017-01-08T11:25:27Z</time>
      </trkpt>
      <trkpt lat="48.46051" lon="2.68279">
        <ele>93.4</ele>
        <time>2017-01-08T11:25:30Z</time>
      </trkpt>
      <trkpt lat="48.4605" lon="2.68276">
        <ele>93.4</ele>
        <time>2017-01-08T11:25:31Z</time>
      </trkpt>
      <trkpt lat="48.46046" lon="2.68268">
        <ele>93.4</ele>
        <time>2017-01-08T11:25:34Z</time>
      </trkpt>
      <trkpt lat="48.46044" lon="2.68263">
        <ele>93.4</ele>
        <time>2017-01-08T11:25:36Z</time>
      </trkpt>
      <trkpt lat="48.46042" lon="2.6826">
        <ele>93.4</ele>
        <time>2017-01-08T11:25:37Z</time>
      </trkpt>
      <trkpt lat="48.46039" lon="2.68254">
        <ele>93.4</ele>
        <time>2017-01-08T11:25:40Z</time>
      </trkpt>
      <trkpt lat="48.46039" lon="2.68253">
        <ele>93.4</ele>
        <time>2017-01-08T11:25:41Z</time>
      </trkpt>
      <trkpt lat="48.46038" lon="2.6825">
        <ele>93.4</ele>
        <time>2017-01-08T11:25:42Z</time>
      </trkpt>
      <trkpt lat="48.46037" lon="2.68247">
        <ele>93.4</ele>
        <time>2017-01-08T11:25:45Z</time>
      </trkpt>
      <trkpt lat="48.46037" lon="2.68246">
        <ele>93.4</ele>
        <time>2017-01-08T11:25:46Z</time>
      </trkpt>
      <trkpt lat="48.46036" lon="2.68245">
        <ele>93.4</ele>
        <time>2017-01-08T11:25:47Z</time>
      </trkpt>
      <trkpt lat="48.46035" lon="2.68241">
        <ele>93.4</ele>
        <time>2017-01-08T11:25:48Z</time>
      </trkpt>
      <trkpt lat="48.46035" lon="2.68239">
        <ele>93.4</ele>
        <time>2017-01-08T11:25:49Z</time>
      </trkpt>
      <trkpt lat="48.4603" lon="2.68226">
        <ele>93.4</ele>
        <time>2017-01-08T11:25:55Z</time>
      </trkpt>
      <trkpt lat="48.46027" lon="2.68216">
        <ele>93.4</ele>
        <time>2017-01-08T11:25:59Z</time>
      </trkpt>
      <trkpt lat="48.46023" lon="2.68192">
        <ele>93.4</ele>
        <time>2017-01-08T11:26:05Z</time>
      </trkpt>
      <trkpt lat="48.46019" lon="2.6817">
        <ele>93.4</ele>
        <time>2017-01-08T11:26:10Z</time>
      </trkpt>
      <trkpt lat="48.46017" lon="2.68145">
        <ele>93.4</ele>
        <time>2017-01-08T11:26:15Z</time>
      </trkpt>
      <trkpt lat="48.46013" lon="2.68113">
        <ele>93.4</ele>
        <time>2017-01-08T11:26:21Z</time>
      </trkpt>
      <trkpt lat="48.46005" lon="2.68075">
        <ele>93.4</ele>
        <time>2017-01-08T11:26:28Z</time>
      </trkpt>
      <trkpt lat="48.46003" lon="2.68056">
        <ele>93.8</ele>
        <time>2017-01-08T11:26:32Z</time>
      </trkpt>
      <trkpt lat="48.46002" lon="2.68051">
        <ele>94.2</ele>
        <time>2017-01-08T11:26:33Z</time>
      </trkpt>
      <trkpt lat="48.46001" lon="2.68046">
        <ele>94.6</ele>
        <time>2017-01-08T11:26:34Z</time>
      </trkpt>
      <trkpt lat="48.46" lon="2.68042">
        <ele>95</ele>
        <time>2017-01-08T11:26:35Z</time>
      </trkpt>
      <trkpt lat="48.46" lon="2.68037">
        <ele>95.4</ele>
        <time>2017-01-08T11:26:36Z</time>
      </trkpt>
      <trkpt lat="48.45997" lon="2.68023">
        <ele>95.4</ele>
        <time>2017-01-08T11:26:39Z</time>
      </trkpt>
      <trkpt lat="48.4599" lon="2.67995">
        <ele>95.4</ele>
        <time>2017-01-08T11:26:45Z</time>
      </trkpt>
      <trkpt lat="48.45985" lon="2.67967">
        <ele>95.4</ele>
        <time>2017-01-08T11:26:51Z</time>
      </trkpt>
      <trkpt lat="48.45979" lon="2.67939">
        <ele>95.4</ele>
        <time>2017-01-08T11:26:57Z</time>
      </trkpt>
      <trkpt lat="48.45975" lon="2.67907">
        <ele>95.4</ele>
        <time>2017-01-08T11:27:03Z</time>
      </trkpt>
      <trkpt lat="48.45969" lon="2.67878">
        <ele>95.8</ele>
        <time>2017-01-08T11:27:08Z</time>
      </trkpt>
      <trkpt lat="48.45967" lon="2.67872">
        <ele>96.2</ele>
        <time>2017-01-08T11:27:09Z</time>
      </trkpt>
      <trkpt lat="48.45966" lon="2.67867">
        <ele>96.6</ele>
        <time>2017-01-08T11:27:10Z</time>
      </trkpt>
      <trkpt lat="48.45965" lon="2.67861">
        <ele>97</ele>
        <time>2017-01-08T11:27:11Z</time>
      </trkpt>
      <trkpt lat="48.45964" lon="2.67855">
        <ele>97.4</ele>
        <time>2017-01-08T11:27:12Z</time>
      </trkpt>
      <trkpt lat="48.45957" lon="2.67832">
        <ele>97.4</ele>
        <time>2017-01-08T11:27:17Z</time>
      </trkpt>
      <trkpt lat="48.45952" lon="2.67829">
        <ele>97.4</ele>
        <time>2017-01-08T11:27:19Z</time>
      </trkpt>
      <trkpt lat="48.45945" lon="2.67831">
        <ele>97.4</ele>
        <time>2017-01-08T11:27:21Z</time>
      </trkpt>
      <trkpt lat="48.45938" lon="2.67833">
        <ele>97.4</ele>
        <time>2017-01-08T11:27:23Z</time>
      </trkpt>
      <trkpt lat="48.45927" lon="2.67838">
        <ele>97.4</ele>
        <time>2017-01-08T11:27:26Z</time>
      </trkpt>
      <trkpt lat="48.4591" lon="2.67846">
        <ele>97.4</ele>
        <time>2017-01-08T11:27:31Z</time>
      </trkpt>
      <trkpt lat="48.45892" lon="2.67857">
        <ele>97.4</ele>
        <time>2017-01-08T11:27:37Z</time>
      </trkpt>
      <trkpt lat="48.45887" lon="2.67854">
        <ele>97.4</ele>
        <time>2017-01-08T11:27:41Z</time>
      </trkpt>
      <trkpt lat="48.45886" lon="2.67851">
        <ele>97.4</ele>
        <time>2017-01-08T11:27:43Z</time>
      </trkpt>
      <trkpt lat="48.45885" lon="2.67837">
        <ele>97.4</ele>
        <time>2017-01-08T11:27:46Z</time>
      </trkpt>
      <trkpt lat="48.4588" lon="2.67816">
        <ele>97.4</ele>
        <time>2017-01-08T11:27:52Z</time>
      </trkpt>
      <trkpt lat="48.45878" lon="2.67797">
        <ele>97.4</ele>
        <time>2017-01-08T11:27:59Z</time>
      </trkpt>
      <trkpt lat="48.45877" lon="2.67792">
        <ele>98</ele>
        <time>2017-01-08T11:28:01Z</time>
      </trkpt>
      <trkpt lat="48.45876" lon="2.67788">
        <ele>98.4</ele>
        <time>2017-01-08T11:28:02Z</time>
      </trkpt>
      <trkpt lat="48.45875" lon="2.67785">
        <ele>98.8</ele>
        <time>2017-01-08T11:28:03Z</time>
      </trkpt>
      <trkpt lat="48.45873" lon="2.67781">
        <ele>99.2</ele>
        <time>2017-01-08T11:28:04Z</time>
      </trkpt>
      <trkpt lat="48.45872" lon="2.67779">
        <ele>99.6</ele>
        <time>2017-01-08T11:28:05Z</time>
      </trkpt>
      <trkpt lat="48.45868" lon="2.67776">
        <ele>99.6</ele>
        <time>2017-01-08T11:28:08Z</time>
      </trkpt>
      <trkpt lat="48.4586" lon="2.67759">
        <ele>103.2</ele>
        <time>2017-01-08T11:28:18Z</time>
      </trkpt>
      <trkpt lat="48.45859" lon="2.67757">
        <ele>103.6</ele>
        <time>2017-01-08T11:28:19Z</time>
      </trkpt>
      <trkpt lat="48.45859" lon="2.67754">
        <ele>104</ele>
        <time>2017-01-08T11:28:20Z</time>
      </trkpt>
      <trkpt lat="48.45858" lon="2.67748">
        <ele>104</ele>
        <time>2017-01-08T11:28:23Z</time>
      </trkpt>
      <trkpt lat="48.45859" lon="2.67744">
        <ele>104</ele>
        <time>2017-01-08T11:28:25Z</time>
      </trkpt>
      <trkpt lat="48.45865" lon="2.67736">
        <ele>104</ele>
        <time>2017-01-08T11:28:29Z</time>
      </trkpt>
      <trkpt lat="48.45867" lon="2.67734">
        <ele>104</ele>
        <time>2017-01-08T11:28:30Z</time>
      </trkpt>
      <trkpt lat="48.45876" lon="2.67719">
        <ele>104</ele>
        <time>2017-01-08T11:28:35Z</time>
      </trkpt>
      <trkpt lat="48.45879" lon="2.67709">
        <ele>104</ele>
        <time>2017-01-08T11:28:39Z</time>
      </trkpt>
      <trkpt lat="48.45878" lon="2.67706">
        <ele>104</ele>
        <time>2017-01-08T11:28:40Z</time>
      </trkpt>
      <trkpt lat="48.45873" lon="2.67691">
        <ele>104</ele>
        <time>2017-01-08T11:28:45Z</time>
      </trkpt>
      <trkpt lat="48.45868" lon="2.67685">
        <ele>104</ele>
        <time>2017-01-08T11:28:48Z</time>
      </trkpt>
      <trkpt lat="48.45867" lon="2.67683">
        <ele>104</ele>
        <time>2017-01-08T11:28:49Z</time>
      </trkpt>
      <trkpt lat="48.45864" lon="2.67675">
        <ele>104</ele>
        <time>2017-01-08T11:28:51Z</time>
      </trkpt>
      <trkpt lat="48.45858" lon="2.67653">
        <ele>104</ele>
        <time>2017-01-08T11:28:55Z</time>
      </trkpt>
      <trkpt lat="48.45857" lon="2.6765">
        <ele>104</ele>
        <time>2017-01-08T11:28:56Z</time>
      </trkpt>
      <trkpt lat="48.45857" lon="2.67643">
        <ele>104</ele>
        <time>2017-01-08T11:28:58Z</time>
      </trkpt>
      <trkpt lat="48.45857" lon="2.67632">
        <ele>103.6</ele>
        <time>2017-01-08T11:29:00Z</time>
      </trkpt>
      <trkpt lat="48.45858" lon="2.67625">
        <ele>103.2</ele>
        <time>2017-01-08T11:29:01Z</time>
      </trkpt>
      <trkpt lat="48.45859" lon="2.67619">
        <ele>102.8</ele>
        <time>2017-01-08T11:29:02Z</time>
      </trkpt>
      <trkpt lat="48.45861" lon="2.67612">
        <ele>102.4</ele>
        <time>2017-01-08T11:29:03Z</time>
      </trkpt>
      <trkpt lat="48.45863" lon="2.67604">
        <ele>101.8</ele>
        <time>2017-01-08T11:29:04Z</time>
      </trkpt>
      <trkpt lat="48.45864" lon="2.67596">
        <ele>100.8</ele>
        <time>2017-01-08T11:29:05Z</time>
      </trkpt>
      <trkpt lat="48.45865" lon="2.67588">
        <ele>100.2</ele>
        <time>2017-01-08T11:29:06Z</time>
      </trkpt>
      <trkpt lat="48.45865" lon="2.67581">
        <ele>99.8</ele>
        <time>2017-01-08T11:29:07Z</time>
      </trkpt>
      <trkpt lat="48.45866" lon="2.67575">
        <ele>99.8</ele>
        <time>2017-01-08T11:29:08Z</time>
      </trkpt>
      <trkpt lat="48.4587" lon="2.67558">
        <ele>99.8</ele>
        <time>2017-01-08T11:29:12Z</time>
      </trkpt>
      <trkpt lat="48.45877" lon="2.67537">
        <ele>99.8</ele>
        <time>2017-01-08T11:29:17Z</time>
      </trkpt>
      <trkpt lat="48.45884" lon="2.67518">
        <ele>99.8</ele>
        <time>2017-01-08T11:29:22Z</time>
      </trkpt>
      <trkpt lat="48.45889" lon="2.675">
        <ele>99.8</ele>
        <time>2017-01-08T11:29:27Z</time>
      </trkpt>
      <trkpt lat="48.45891" lon="2.67495">
        <ele>99.8</ele>
        <time>2017-01-08T11:29:29Z</time>
      </trkpt>
      <trkpt lat="48.45896" lon="2.6749">
        <ele>99.8</ele>
        <time>2017-01-08T11:29:32Z</time>
      </trkpt>
      <trkpt lat="48.45903" lon="2.67482">
        <ele>99.8</ele>
        <time>2017-01-08T11:29:35Z</time>
      </trkpt>
      <trkpt lat="48.45905" lon="2.67478">
        <ele>99.8</ele>
        <time>2017-01-08T11:29:36Z</time>
      </trkpt>
      <trkpt lat="48.45918" lon="2.67452">
        <ele>99.8</ele>
        <time>2017-01-08T11:29:41Z</time>
      </trkpt>
      <trkpt lat="48.45935" lon="2.67434">
        <ele>99.8</ele>
        <time>2017-01-08T11:29:46Z</time>
      </trkpt>
      <trkpt lat="48.45952" lon="2.67415">
        <ele>99.8</ele>
        <time>2017-01-08T11:29:52Z</time>
      </trkpt>
      <trkpt lat="48.45962" lon="2.67394">
        <ele>99.8</ele>
        <time>2017-01-08T11:29:57Z</time>
      </trkpt>
      <trkpt lat="48.4597" lon="2.67381">
        <ele>99.8</ele>
        <time>2017-01-08T11:30:01Z</time>
      </trkpt>
      <trkpt lat="48.45979" lon="2.6737">
        <ele>99.8</ele>
        <time>2017-01-08T11:30:06Z</time>
      </trkpt>
      <trkpt lat="48.45981" lon="2.67363">
        <ele>99.8</ele>
        <time>2017-01-08T11:30:08Z</time>
      </trkpt>
      <trkpt lat="48.45981" lon="2.67357">
        <ele>99.8</ele>
        <time>2017-01-08T11:30:10Z</time>
      </trkpt>
      <trkpt lat="48.4598" lon="2.67355">
        <ele>99.8</ele>
        <time>2017-01-08T11:30:11Z</time>
      </trkpt>
      <trkpt lat="48.45977" lon="2.67344">
        <ele>99.8</ele>
        <time>2017-01-08T11:30:15Z</time>
      </trkpt>
      <trkpt lat="48.45977" lon="2.67336">
        <ele>99.8</ele>
        <time>2017-01-08T11:30:17Z</time>
      </trkpt>
      <trkpt lat="48.45976" lon="2.67333">
        <ele>100.2</ele>
        <time>2017-01-08T11:30:18Z</time>
      </trkpt>
      <trkpt lat="48.45976" lon="2.67331">
        <ele>101</ele>
        <time>2017-01-08T11:30:19Z</time>
      </trkpt>
      <trkpt lat="48.45976" lon="2.67327">
        <ele>101.4</ele>
        <time>2017-01-08T11:30:20Z</time>
      </trkpt>
      <trkpt lat="48.45975" lon="2.67325">
        <ele>101.8</ele>
        <time>2017-01-08T11:30:21Z</time>
      </trkpt>
      <trkpt lat="48.45974" lon="2.67319">
        <ele>101.8</ele>
        <time>2017-01-08T11:30:24Z</time>
      </trkpt>
      <trkpt lat="48.45975" lon="2.67316">
        <ele>101.8</ele>
        <time>2017-01-08T11:30:26Z</time>
      </trkpt>
      <trkpt lat="48.45975" lon="2.67315">
        <ele>102.2</ele>
        <time>2017-01-08T11:30:27Z</time>
      </trkpt>
      <trkpt lat="48.45982" lon="2.67306">
        <ele>103.8</ele>
        <time>2017-01-08T11:30:35Z</time>
      </trkpt>
      <trkpt lat="48.45985" lon="2.67308">
        <ele>103.8</ele>
        <time>2017-01-08T11:30:37Z</time>
      </trkpt>
      <trkpt lat="48.45996" lon="2.67312">
        <ele>103.8</ele>
        <time>2017-01-08T11:30:42Z</time>
      </trkpt>
      <trkpt lat="48.45997" lon="2.67312">
        <ele>103.4</ele>
        <time>2017-01-08T11:30:43Z</time>
      </trkpt>
      <trkpt lat="48.45999" lon="2.67312">
        <ele>101.6</ele>
        <time>2017-01-08T11:31:28Z</time>
      </trkpt>
      <trkpt lat="48.46002" lon="2.67312">
        <ele>101.6</ele>
        <time>2017-01-08T11:31:29Z</time>
      </trkpt>
      <trkpt lat="48.46009" lon="2.67313">
        <ele>101.6</ele>
        <time>2017-01-08T11:31:32Z</time>
      </trkpt>
      <trkpt lat="48.46011" lon="2.67313">
        <ele>101.6</ele>
        <time>2017-01-08T11:31:33Z</time>
      </trkpt>
      <trkpt lat="48.46019" lon="2.67312">
        <ele>101.6</ele>
        <time>2017-01-08T11:31:39Z</time>
      </trkpt>
      <trkpt lat="48.46022" lon="2.67313">
        <ele>101.6</ele>
        <time>2017-01-08T11:31:41Z</time>
      </trkpt>
      <trkpt lat="48.46027" lon="2.67314">
        <ele>101.6</ele>
        <time>2017-01-08T11:31:54Z</time>
      </trkpt>
      <trkpt lat="48.46029" lon="2.67316">
        <ele>101.6</ele>
        <time>2017-01-08T11:31:55Z</time>
      </trkpt>
      <trkpt lat="48.46034" lon="2.67323">
        <ele>101.6</ele>
        <time>2017-01-08T11:32:00Z</time>
      </trkpt>
      <trkpt lat="48.46034" lon="2.67326">
        <ele>101.2</ele>
        <time>2017-01-08T11:32:01Z</time>
      </trkpt>
      <trkpt lat="48.46035" lon="2.67329">
        <ele>100.8</ele>
        <time>2017-01-08T11:32:02Z</time>
      </trkpt>
      <trkpt lat="48.46036" lon="2.67331">
        <ele>100.4</ele>
        <time>2017-01-08T11:32:03Z</time>
      </trkpt>
      <trkpt lat="48.46037" lon="2.67332">
        <ele>100</ele>
        <time>2017-01-08T11:32:04Z</time>
      </trkpt>
      <trkpt lat="48.46039" lon="2.67334">
        <ele>99.6</ele>
        <time>2017-01-08T11:32:05Z</time>
      </trkpt>
      <trkpt lat="48.46041" lon="2.67336">
        <ele>99.6</ele>
        <time>2017-01-08T11:32:07Z</time>
      </trkpt>
      <trkpt lat="48.46045" lon="2.6734">
        <ele>99.6</ele>
        <time>2017-01-08T11:32:10Z</time>
      </trkpt>
      <trkpt lat="48.46046" lon="2.67343">
        <ele>99.6</ele>
        <time>2017-01-08T11:32:12Z</time>
      </trkpt>
      <trkpt lat="48.46048" lon="2.6734">
        <ele>99.6</ele>
        <time>2017-01-08T11:32:18Z</time>
      </trkpt>
      <trkpt lat="48.46051" lon="2.67341">
        <ele>99.6</ele>
        <time>2017-01-08T11:32:20Z</time>
      </trkpt>
      <trkpt lat="48.46055" lon="2.67341">
        <ele>99.6</ele>
        <time>2017-01-08T11:32:23Z</time>
      </trkpt>
      <trkpt lat="48.46059" lon="2.6734">
        <ele>99.6</ele>
        <time>2017-01-08T11:32:25Z</time>
      </trkpt>
      <trkpt lat="48.46063" lon="2.67339">
        <ele>99.6</ele>
        <time>2017-01-08T11:32:28Z</time>
      </trkpt>
      <trkpt lat="48.46065" lon="2.67337">
        <ele>99.6</ele>
        <time>2017-01-08T11:39:22Z</time>
      </trkpt>
      <trkpt lat="48.46066" lon="2.67336">
        <ele>99.6</ele>
        <time>2017-01-08T11:39:23Z</time>
      </trkpt>
      <trkpt lat="48.46067" lon="2.67334">
        <ele>99.6</ele>
        <time>2017-01-08T11:39:24Z</time>
      </trkpt>
      <trkpt lat="48.46069" lon="2.67326">
        <ele>99.6</ele>
        <time>2017-01-08T11:39:28Z</time>
      </trkpt>
      <trkpt lat="48.4607" lon="2.67322">
        <ele>100</ele>
        <time>2017-01-08T11:39:29Z</time>
      </trkpt>
      <trkpt lat="48.4607" lon="2.67319">
        <ele>100.4</ele>
        <time>2017-01-08T11:39:30Z</time>
      </trkpt>
      <trkpt lat="48.4607" lon="2.67316">
        <ele>100.8</ele>
        <time>2017-01-08T11:39:31Z</time>
      </trkpt>
      <trkpt lat="48.4607" lon="2.67313">
        <ele>101.2</ele>
        <time>2017-01-08T11:39:32Z</time>
      </trkpt>
      <trkpt lat="48.4607" lon="2.6731">
        <ele>101.6</ele>
        <time>2017-01-08T11:39:33Z</time>
      </trkpt>
      <trkpt lat="48.46068" lon="2.673">
        <ele>101.6</ele>
        <time>2017-01-08T11:39:38Z</time>
      </trkpt>
      <trkpt lat="48.46068" lon="2.67299">
        <ele>101.6</ele>
        <time>2017-01-08T11:39:39Z</time>
      </trkpt>
      <trkpt lat="48.46061" lon="2.67289">
        <ele>104</ele>
        <time>2017-01-08T11:40:13Z</time>
      </trkpt>
      <trkpt lat="48.46058" lon="2.67281">
        <ele>104</ele>
        <time>2017-01-08T11:40:17Z</time>
      </trkpt>
      <trkpt lat="48.46054" lon="2.67267">
        <ele>104</ele>
        <time>2017-01-08T11:40:22Z</time>
      </trkpt>
      <trkpt lat="48.46053" lon="2.67264">
        <ele>104</ele>
        <time>2017-01-08T11:40:23Z</time>
      </trkpt>
      <trkpt lat="48.4605" lon="2.67261">
        <ele>104</ele>
        <time>2017-01-08T11:40:25Z</time>
      </trkpt>
      <trkpt lat="48.46049" lon="2.6726">
        <ele>104</ele>
        <time>2017-01-08T11:40:26Z</time>
      </trkpt>
      <trkpt lat="48.46044" lon="2.67258">
        <ele>104</ele>
        <time>2017-01-08T11:40:29Z</time>
      </trkpt>
      <trkpt lat="48.46042" lon="2.67259">
        <ele>104</ele>
        <time>2017-01-08T11:40:30Z</time>
      </trkpt>
      <trkpt lat="48.46037" lon="2.67264">
        <ele>104</ele>
        <time>2017-01-08T11:40:34Z</time>
      </trkpt>
      <trkpt lat="48.46035" lon="2.67264">
        <ele>104</ele>
        <time>2017-01-08T11:40:35Z</time>
      </trkpt>
      <trkpt lat="48.46029" lon="2.67259">
        <ele>104.4</ele>
        <time>2017-01-08T11:40:38Z</time>
      </trkpt>
      <trkpt lat="48.46027" lon="2.67259">
        <ele>104.8</ele>
        <time>2017-01-08T11:40:39Z</time>
      </trkpt>
      <trkpt lat="48.46025" lon="2.67259">
        <ele>105.2</ele>
        <time>2017-01-08T11:40:40Z</time>
      </trkpt>
      <trkpt lat="48.46023" lon="2.67259">
        <ele>105.6</ele>
        <time>2017-01-08T11:40:41Z</time>
      </trkpt>
      <trkpt lat="48.46021" lon="2.67259">
        <ele>106</ele>
        <time>2017-01-08T11:40:42Z</time>
      </trkpt>
      <trkpt lat="48.46016" lon="2.67258">
        <ele>106</ele>
        <time>2017-01-08T11:40:45Z</time>
      </trkpt>
      <trkpt lat="48.46013" lon="2.67257">
        <ele>106</ele>
        <time>2017-01-08T11:40:47Z</time>
      </trkpt>
      <trkpt lat="48.46011" lon="2.67256">
        <ele>106.4</ele>
        <time>2017-01-08T11:40:48Z</time>
      </trkpt>
      <trkpt lat="48.4601" lon="2.67256">
        <ele>106.8</ele>
        <time>2017-01-08T11:40:49Z</time>
      </trkpt>
      <trkpt lat="48.46009" lon="2.67256">
        <ele>107.4</ele>
        <time>2017-01-08T11:40:50Z</time>
      </trkpt>
      <trkpt lat="48.46008" lon="2.67256">
        <ele>107.8</ele>
        <time>2017-01-08T11:40:51Z</time>
      </trkpt>
      <trkpt lat="48.46004" lon="2.67255">
        <ele>108.2</ele>
        <time>2017-01-08T11:40:56Z</time>
      </trkpt>
      <trkpt lat="48.45995" lon="2.67249">
        <ele>108.2</ele>
        <time>2017-01-08T11:41:02Z</time>
      </trkpt>
      <trkpt lat="48.4599" lon="2.67245">
        <ele>108.2</ele>
        <time>2017-01-08T11:41:06Z</time>
      </trkpt>
      <trkpt lat="48.45989" lon="2.67243">
        <ele>108.2</ele>
        <time>2017-01-08T11:41:07Z</time>
      </trkpt>
      <trkpt lat="48.4598" lon="2.6723">
        <ele>108.2</ele>
        <time>2017-01-08T11:41:11Z</time>
      </trkpt>
      <trkpt lat="48.45977" lon="2.67224">
        <ele>108.2</ele>
        <time>2017-01-08T11:41:15Z</time>
      </trkpt>
      <trkpt lat="48.45977" lon="2.67223">
        <ele>108.2</ele>
        <time>2017-01-08T11:41:16Z</time>
      </trkpt>
      <trkpt lat="48.45981" lon="2.67214">
        <ele>108.2</ele>
        <time>2017-01-08T11:41:53Z</time>
      </trkpt>
      <trkpt lat="48.45981" lon="2.67209">
        <ele>107.8</ele>
        <time>2017-01-08T11:41:55Z</time>
      </trkpt>
      <trkpt lat="48.4598" lon="2.67206">
        <ele>107.4</ele>
        <time>2017-01-08T11:41:56Z</time>
      </trkpt>
      <trkpt lat="48.4598" lon="2.67204">
        <ele>107</ele>
        <time>2017-01-08T11:41:57Z</time>
      </trkpt>
      <trkpt lat="48.4598" lon="2.67202">
        <ele>106.6</ele>
        <time>2017-01-08T11:41:58Z</time>
      </trkpt>
      <trkpt lat="48.45979" lon="2.672">
        <ele>106.2</ele>
        <time>2017-01-08T11:41:59Z</time>
      </trkpt>
      <trkpt lat="48.45978" lon="2.67199">
        <ele>106.2</ele>
        <time>2017-01-08T11:42:00Z</time>
      </trkpt>
      <trkpt lat="48.45972" lon="2.67194">
        <ele>106.2</ele>
        <time>2017-01-08T11:42:03Z</time>
      </trkpt>
      <trkpt lat="48.45972" lon="2.67192">
        <ele>106.2</ele>
        <time>2017-01-08T11:42:04Z</time>
      </trkpt>
      <trkpt lat="48.45973" lon="2.67182">
        <ele>106.2</ele>
        <time>2017-01-08T11:42:07Z</time>
      </trkpt>
      <trkpt lat="48.45973" lon="2.67179">
        <ele>106.2</ele>
        <time>2017-01-08T11:42:08Z</time>
      </trkpt>
      <trkpt lat="48.45972" lon="2.67169">
        <ele>105.8</ele>
        <time>2017-01-08T11:42:11Z</time>
      </trkpt>
      <trkpt lat="48.45972" lon="2.67166">
        <ele>105.4</ele>
        <time>2017-01-08T11:42:12Z</time>
      </trkpt>
      <trkpt lat="48.45972" lon="2.67164">
        <ele>105</ele>
        <time>2017-01-08T11:42:13Z</time>
      </trkpt>
      <trkpt lat="48.45972" lon="2.67161">
        <ele>104.4</ele>
        <time>2017-01-08T11:42:14Z</time>
      </trkpt>
      <trkpt lat="48.45972" lon="2.67158">
        <ele>104</ele>
        <time>2017-01-08T11:42:15Z</time>
      </trkpt>
      <trkpt lat="48.45971" lon="2.67155">
        <ele>104</ele>
        <time>2017-01-08T11:42:17Z</time>
      </trkpt>
      <trkpt lat="48.45971" lon="2.67152">
        <ele>104</ele>
        <time>2017-01-08T11:42:18Z</time>
      </trkpt>
      <trkpt lat="48.45973" lon="2.67147">
        <ele>104</ele>
        <time>2017-01-08T11:42:19Z</time>
      </trkpt>
      <trkpt lat="48.45973" lon="2.67143">
        <ele>104</ele>
        <time>2017-01-08T11:42:20Z</time>
      </trkpt>
      <trkpt lat="48.4597" lon="2.67133">
        <ele>104</ele>
        <time>2017-01-08T11:42:23Z</time>
      </trkpt>
      <trkpt lat="48.45971" lon="2.67119">
        <ele>104</ele>
        <time>2017-01-08T11:42:27Z</time>
      </trkpt>
      <trkpt lat="48.4597" lon="2.67113">
        <ele>104</ele>
        <time>2017-01-08T11:42:29Z</time>
      </trkpt>
      <trkpt lat="48.45968" lon="2.67111">
        <ele>104</ele>
        <time>2017-01-08T11:42:31Z</time>
      </trkpt>
      <trkpt lat="48.45965" lon="2.6711">
        <ele>104</ele>
        <time>2017-01-08T11:42:33Z</time>
      </trkpt>
      <trkpt lat="48.45959" lon="2.67105">
        <ele>104</ele>
        <time>2017-01-08T11:42:37Z</time>
      </trkpt>
      <trkpt lat="48.45952" lon="2.671">
        <ele>104</ele>
        <time>2017-01-08T11:42:41Z</time>
      </trkpt>
      <trkpt lat="48.45944" lon="2.67097">
        <ele>104</ele>
        <time>2017-01-08T11:42:45Z</time>
      </trkpt>
      <trkpt lat="48.45942" lon="2.67092">
        <ele>104.6</ele>
        <time>2017-01-08T11:42:47Z</time>
      </trkpt>
      <trkpt lat="48.4594" lon="2.67091">
        <ele>105</ele>
        <time>2017-01-08T11:42:48Z</time>
      </trkpt>
      <trkpt lat="48.45938" lon="2.6709">
        <ele>105.4</ele>
        <time>2017-01-08T11:42:49Z</time>
      </trkpt>
      <trkpt lat="48.45936" lon="2.6709">
        <ele>105.8</ele>
        <time>2017-01-08T11:42:50Z</time>
      </trkpt>
      <trkpt lat="48.45934" lon="2.6709">
        <ele>106.2</ele>
        <time>2017-01-08T11:42:51Z</time>
      </trkpt>
      <trkpt lat="48.45932" lon="2.67091">
        <ele>106.2</ele>
        <time>2017-01-08T11:42:52Z</time>
      </trkpt>
      <trkpt lat="48.45927" lon="2.6709">
        <ele>106.2</ele>
        <time>2017-01-08T11:42:54Z</time>
      </trkpt>
      <trkpt lat="48.4592" lon="2.6708">
        <ele>106.2</ele>
        <time>2017-01-08T11:42:59Z</time>
      </trkpt>
      <trkpt lat="48.45913" lon="2.67073">
        <ele>106.2</ele>
        <time>2017-01-08T11:43:04Z</time>
      </trkpt>
      <trkpt lat="48.45909" lon="2.67069">
        <ele>106.2</ele>
        <time>2017-01-08T11:43:06Z</time>
      </trkpt>
      <trkpt lat="48.45905" lon="2.67063">
        <ele>106.2</ele>
        <time>2017-01-08T11:43:08Z</time>
      </trkpt>
      <trkpt lat="48.45894" lon="2.67041">
        <ele>106.2</ele>
        <time>2017-01-08T11:43:14Z</time>
      </trkpt>
      <trkpt lat="48.45888" lon="2.67027">
        <ele>106.2</ele>
        <time>2017-01-08T11:43:18Z</time>
      </trkpt>
      <trkpt lat="48.45888" lon="2.67024">
        <ele>106.2</ele>
        <time>2017-01-08T11:43:19Z</time>
      </trkpt>
      <trkpt lat="48.45888" lon="2.67012">
        <ele>106.2</ele>
        <time>2017-01-08T11:43:22Z</time>
      </trkpt>
      <trkpt lat="48.45886" lon="2.67005">
        <ele>106.2</ele>
        <time>2017-01-08T11:43:24Z</time>
      </trkpt>
      <trkpt lat="48.45881" lon="2.66979">
        <ele>106.2</ele>
        <time>2017-01-08T11:43:30Z</time>
      </trkpt>
      <trkpt lat="48.45879" lon="2.66955">
        <ele>106.2</ele>
        <time>2017-01-08T11:43:35Z</time>
      </trkpt>
      <trkpt lat="48.45878" lon="2.66948">
        <ele>106.2</ele>
        <time>2017-01-08T11:43:37Z</time>
      </trkpt>
      <trkpt lat="48.45878" lon="2.66944">
        <ele>106.2</ele>
        <time>2017-01-08T11:43:39Z</time>
      </trkpt>
      <trkpt lat="48.45873" lon="2.66932">
        <ele>106.2</ele>
        <time>2017-01-08T11:43:44Z</time>
      </trkpt>
      <trkpt lat="48.45872" lon="2.66923">
        <ele>106.2</ele>
        <time>2017-01-08T11:43:47Z</time>
      </trkpt>
      <trkpt lat="48.45876" lon="2.66907">
        <ele>106.2</ele>
        <time>2017-01-08T11:43:51Z</time>
      </trkpt>
      <trkpt lat="48.45879" lon="2.66893">
        <ele>106.2</ele>
        <time>2017-01-08T11:43:55Z</time>
      </trkpt>
      <trkpt lat="48.45879" lon="2.66884">
        <ele>106.6</ele>
        <time>2017-01-08T11:43:58Z</time>
      </trkpt>
      <trkpt lat="48.4588" lon="2.6688">
        <ele>107</ele>
        <time>2017-01-08T11:43:59Z</time>
      </trkpt>
      <trkpt lat="48.45882" lon="2.66876">
        <ele>107.4</ele>
        <time>2017-01-08T11:44:00Z</time>
      </trkpt>
      <trkpt lat="48.45883" lon="2.66873">
        <ele>107.8</ele>
        <time>2017-01-08T11:44:01Z</time>
      </trkpt>
      <trkpt lat="48.45885" lon="2.6687">
        <ele>108.2</ele>
        <time>2017-01-08T11:44:02Z</time>
      </trkpt>
      <trkpt lat="48.45887" lon="2.66863">
        <ele>108.2</ele>
        <time>2017-01-08T11:44:04Z</time>
      </trkpt>
      <trkpt lat="48.45888" lon="2.66853">
        <ele>108.2</ele>
        <time>2017-01-08T11:44:06Z</time>
      </trkpt>
      <trkpt lat="48.45887" lon="2.66849">
        <ele>108.2</ele>
        <time>2017-01-08T11:44:07Z</time>
      </trkpt>
      <trkpt lat="48.45887" lon="2.66845">
        <ele>108.2</ele>
        <time>2017-01-08T11:44:08Z</time>
      </trkpt>
      <trkpt lat="48.45886" lon="2.66836">
        <ele>108.8</ele>
        <time>2017-01-08T11:44:11Z</time>
      </trkpt>
      <trkpt lat="48.45886" lon="2.66834">
        <ele>109.2</ele>
        <time>2017-01-08T11:44:12Z</time>
      </trkpt>
      <trkpt lat="48.45887" lon="2.66832">
        <ele>109.6</ele>
        <time>2017-01-08T11:44:13Z</time>
      </trkpt>
      <trkpt lat="48.45888" lon="2.6683">
        <ele>110</ele>
        <time>2017-01-08T11:44:14Z</time>
      </trkpt>
      <trkpt lat="48.45889" lon="2.66826">
        <ele>110.4</ele>
        <time>2017-01-08T11:44:15Z</time>
      </trkpt>
      <trkpt lat="48.45891" lon="2.66819">
        <ele>110.4</ele>
        <time>2017-01-08T11:44:18Z</time>
      </trkpt>
      <trkpt lat="48.45893" lon="2.66816">
        <ele>110.4</ele>
        <time>2017-01-08T11:44:19Z</time>
      </trkpt>
      <trkpt lat="48.45896" lon="2.66809">
        <ele>110.4</ele>
        <time>2017-01-08T11:44:22Z</time>
      </trkpt>
      <trkpt lat="48.45899" lon="2.66796">
        <ele>110.4</ele>
        <time>2017-01-08T11:44:27Z</time>
      </trkpt>
      <trkpt lat="48.45903" lon="2.66784">
        <ele>110.4</ele>
        <time>2017-01-08T11:44:32Z</time>
      </trkpt>
      <trkpt lat="48.45908" lon="2.6678">
        <ele>110</ele>
        <time>2017-01-08T11:44:35Z</time>
      </trkpt>
      <trkpt lat="48.4591" lon="2.6678">
        <ele>109.6</ele>
        <time>2017-01-08T11:44:36Z</time>
      </trkpt>
      <trkpt lat="48.45912" lon="2.6678">
        <ele>109.2</ele>
        <time>2017-01-08T11:44:37Z</time>
      </trkpt>
      <trkpt lat="48.45914" lon="2.6678">
        <ele>108.8</ele>
        <time>2017-01-08T11:44:38Z</time>
      </trkpt>
      <trkpt lat="48.45916" lon="2.66777">
        <ele>108.4</ele>
        <time>2017-01-08T11:44:39Z</time>
      </trkpt>
      <trkpt lat="48.45919" lon="2.66767">
        <ele>107.8</ele>
        <time>2017-01-08T11:44:42Z</time>
      </trkpt>
      <trkpt lat="48.4592" lon="2.66763">
        <ele>107.4</ele>
        <time>2017-01-08T11:44:43Z</time>
      </trkpt>
      <trkpt lat="48.45921" lon="2.66759">
        <ele>107</ele>
        <time>2017-01-08T11:44:44Z</time>
      </trkpt>
      <trkpt lat="48.45922" lon="2.66754">
        <ele>106.6</ele>
        <time>2017-01-08T11:44:45Z</time>
      </trkpt>
      <trkpt lat="48.45923" lon="2.66751">
        <ele>106.2</ele>
        <time>2017-01-08T11:44:46Z</time>
      </trkpt>
      <trkpt lat="48.45923" lon="2.66747">
        <ele>106.2</ele>
        <time>2017-01-08T11:44:47Z</time>
      </trkpt>
      <trkpt lat="48.45923" lon="2.66744">
        <ele>106.2</ele>
        <time>2017-01-08T11:44:48Z</time>
      </trkpt>
      <trkpt lat="48.45923" lon="2.66738">
        <ele>106.2</ele>
        <time>2017-01-08T11:44:52Z</time>
      </trkpt>
      <trkpt lat="48.45922" lon="2.6673">
        <ele>106.2</ele>
        <time>2017-01-08T11:45:03Z</time>
      </trkpt>
      <trkpt lat="48.45924" lon="2.6672">
        <ele>106.2</ele>
        <time>2017-01-08T11:45:06Z</time>
      </trkpt>
      <trkpt lat="48.45926" lon="2.66709">
        <ele>106.2</ele>
        <time>2017-01-08T11:45:09Z</time>
      </trkpt>
      <trkpt lat="48.45927" lon="2.66705">
        <ele>106.2</ele>
        <time>2017-01-08T11:45:10Z</time>
      </trkpt>
      <trkpt lat="48.4593" lon="2.66695">
        <ele>106.2</ele>
        <time>2017-01-08T11:45:13Z</time>
      </trkpt>
      <trkpt lat="48.4593" lon="2.66691">
        <ele>106.2</ele>
        <time>2017-01-08T11:45:14Z</time>
      </trkpt>
      <trkpt lat="48.45931" lon="2.66681">
        <ele>106.2</ele>
        <time>2017-01-08T11:45:17Z</time>
      </trkpt>
      <trkpt lat="48.45932" lon="2.66679">
        <ele>106.2</ele>
        <time>2017-01-08T11:45:18Z</time>
      </trkpt>
      <trkpt lat="48.45932" lon="2.66673">
        <ele>106.6</ele>
        <time>2017-01-08T11:45:21Z</time>
      </trkpt>
      <trkpt lat="48.45931" lon="2.6667">
        <ele>107</ele>
        <time>2017-01-08T11:45:22Z</time>
      </trkpt>
      <trkpt lat="48.45931" lon="2.66667">
        <ele>107.4</ele>
        <time>2017-01-08T11:45:23Z</time>
      </trkpt>
      <trkpt lat="48.45931" lon="2.66664">
        <ele>107.8</ele>
        <time>2017-01-08T11:45:24Z</time>
      </trkpt>
      <trkpt lat="48.45931" lon="2.6666">
        <ele>108.2</ele>
        <time>2017-01-08T11:45:25Z</time>
      </trkpt>
      <trkpt lat="48.45931" lon="2.66653">
        <ele>108.2</ele>
        <time>2017-01-08T11:45:27Z</time>
      </trkpt>
      <trkpt lat="48.45932" lon="2.6664">
        <ele>108.2</ele>
        <time>2017-01-08T11:45:31Z</time>
      </trkpt>
      <trkpt lat="48.45934" lon="2.66625">
        <ele>108.2</ele>
        <time>2017-01-08T11:45:36Z</time>
      </trkpt>
      <trkpt lat="48.45938" lon="2.66612">
        <ele>108.2</ele>
        <time>2017-01-08T11:45:40Z</time>
      </trkpt>
      <trkpt lat="48.45938" lon="2.6661">
        <ele>108.2</ele>
        <time>2017-01-08T11:45:41Z</time>
      </trkpt>
      <trkpt lat="48.45938" lon="2.66598">
        <ele>108.2</ele>
        <time>2017-01-08T11:45:45Z</time>
      </trkpt>
      <trkpt lat="48.45935" lon="2.66575">
        <ele>108.2</ele>
        <time>2017-01-08T11:45:51Z</time>
      </trkpt>
      <trkpt lat="48.45934" lon="2.66553">
        <ele>108.2</ele>
        <time>2017-01-08T11:45:56Z</time>
      </trkpt>
      <trkpt lat="48.45936" lon="2.66534">
        <ele>108.2</ele>
        <time>2017-01-08T11:46:00Z</time>
      </trkpt>
      <trkpt lat="48.45935" lon="2.6653">
        <ele>108.2</ele>
        <time>2017-01-08T11:46:01Z</time>
      </trkpt>
      <trkpt lat="48.45934" lon="2.66517">
        <ele>108.2</ele>
        <time>2017-01-08T11:46:05Z</time>
      </trkpt>
      <trkpt lat="48.45938" lon="2.66493">
        <ele>108.2</ele>
        <time>2017-01-08T11:46:10Z</time>
      </trkpt>
      <trkpt lat="48.45939" lon="2.66489">
        <ele>108.2</ele>
        <time>2017-01-08T11:46:11Z</time>
      </trkpt>
      <trkpt lat="48.45942" lon="2.66478">
        <ele>108.2</ele>
        <time>2017-01-08T11:46:14Z</time>
      </trkpt>
      <trkpt lat="48.45946" lon="2.66468">
        <ele>107.8</ele>
        <time>2017-01-08T11:46:16Z</time>
      </trkpt>
      <trkpt lat="48.4595" lon="2.66465">
        <ele>107.4</ele>
        <time>2017-01-08T11:46:17Z</time>
      </trkpt>
      <trkpt lat="48.45953" lon="2.66463">
        <ele>107</ele>
        <time>2017-01-08T11:46:18Z</time>
      </trkpt>
      <trkpt lat="48.45957" lon="2.6646">
        <ele>106.6</ele>
        <time>2017-01-08T11:46:19Z</time>
      </trkpt>
      <trkpt lat="48.45959" lon="2.66457">
        <ele>106</ele>
        <time>2017-01-08T11:46:20Z</time>
      </trkpt>
      <trkpt lat="48.45969" lon="2.66447">
        <ele>106</ele>
        <time>2017-01-08T11:46:23Z</time>
      </trkpt>
      <trkpt lat="48.45972" lon="2.66446">
        <ele>105.6</ele>
        <time>2017-01-08T11:46:24Z</time>
      </trkpt>
      <trkpt lat="48.45975" lon="2.66444">
        <ele>105.2</ele>
        <time>2017-01-08T11:46:25Z</time>
      </trkpt>
      <trkpt lat="48.45977" lon="2.66444">
        <ele>104.8</ele>
        <time>2017-01-08T11:46:26Z</time>
      </trkpt>
      <trkpt lat="48.4598" lon="2.66443">
        <ele>104.4</ele>
        <time>2017-01-08T11:46:27Z</time>
      </trkpt>
      <trkpt lat="48.45982" lon="2.66441">
        <ele>104</ele>
        <time>2017-01-08T11:46:28Z</time>
      </trkpt>
      <trkpt lat="48.45991" lon="2.66441">
        <ele>104</ele>
        <time>2017-01-08T11:46:33Z</time>
      </trkpt>
      <trkpt lat="48.46008" lon="2.66448">
        <ele>103.6</ele>
        <time>2017-01-08T11:46:38Z</time>
      </trkpt>
      <trkpt lat="48.46013" lon="2.66452">
        <ele>103.2</ele>
        <time>2017-01-08T11:46:39Z</time>
      </trkpt>
      <trkpt lat="48.46017" lon="2.66455">
        <ele>102.8</ele>
        <time>2017-01-08T11:46:40Z</time>
      </trkpt>
      <trkpt lat="48.46022" lon="2.66456">
        <ele>102.4</ele>
        <time>2017-01-08T11:46:41Z</time>
      </trkpt>
      <trkpt lat="48.46026" lon="2.66456">
        <ele>101.8</ele>
        <time>2017-01-08T11:46:42Z</time>
      </trkpt>
      <trkpt lat="48.46036" lon="2.6646">
        <ele>101.8</ele>
        <time>2017-01-08T11:46:45Z</time>
      </trkpt>
      <trkpt lat="48.46047" lon="2.66476">
        <ele>101.8</ele>
        <time>2017-01-08T11:46:50Z</time>
      </trkpt>
      <trkpt lat="48.46063" lon="2.66497">
        <ele>101.8</ele>
        <time>2017-01-08T11:46:55Z</time>
      </trkpt>
      <trkpt lat="48.46077" lon="2.66508">
        <ele>101.8</ele>
        <time>2017-01-08T11:47:00Z</time>
      </trkpt>
      <trkpt lat="48.46084" lon="2.66516">
        <ele>101.4</ele>
        <time>2017-01-08T11:47:03Z</time>
      </trkpt>
      <trkpt lat="48.46086" lon="2.66518">
        <ele>101</ele>
        <time>2017-01-08T11:47:04Z</time>
      </trkpt>
      <trkpt lat="48.46088" lon="2.6652">
        <ele>100.6</ele>
        <time>2017-01-08T11:47:05Z</time>
      </trkpt>
      <trkpt lat="48.4609" lon="2.66521">
        <ele>100.2</ele>
        <time>2017-01-08T11:47:06Z</time>
      </trkpt>
      <trkpt lat="48.46091" lon="2.66523">
        <ele>99.8</ele>
        <time>2017-01-08T11:47:07Z</time>
      </trkpt>
      <trkpt lat="48.46095" lon="2.66525">
        <ele>99.8</ele>
        <time>2017-01-08T11:47:09Z</time>
      </trkpt>
      <trkpt lat="48.46096" lon="2.66525">
        <ele>99.8</ele>
        <time>2017-01-08T11:47:11Z</time>
      </trkpt>
      <trkpt lat="48.46105" lon="2.66524">
        <ele>99.8</ele>
        <time>2017-01-08T11:47:15Z</time>
      </trkpt>
      <trkpt lat="48.46114" lon="2.66519">
        <ele>99.8</ele>
        <time>2017-01-08T11:47:20Z</time>
      </trkpt>
      <trkpt lat="48.46124" lon="2.66518">
        <ele>99.8</ele>
        <time>2017-01-08T11:47:25Z</time>
      </trkpt>
      <trkpt lat="48.46136" lon="2.6653">
        <ele>99.8</ele>
        <time>2017-01-08T11:47:30Z</time>
      </trkpt>
      <trkpt lat="48.46139" lon="2.6653">
        <ele>99.8</ele>
        <time>2017-01-08T11:47:31Z</time>
      </trkpt>
      <trkpt lat="48.46144" lon="2.66533">
        <ele>99.8</ele>
        <time>2017-01-08T11:47:33Z</time>
      </trkpt>
      <trkpt lat="48.46156" lon="2.66537">
        <ele>99.8</ele>
        <time>2017-01-08T11:47:37Z</time>
      </trkpt>
      <trkpt lat="48.4616" lon="2.66537">
        <ele>99.8</ele>
        <time>2017-01-08T11:47:38Z</time>
      </trkpt>
      <trkpt lat="48.46168" lon="2.66538">
        <ele>99.8</ele>
        <time>2017-01-08T11:47:42Z</time>
      </trkpt>
      <trkpt lat="48.46173" lon="2.66535">
        <ele>99.8</ele>
        <time>2017-01-08T11:47:44Z</time>
      </trkpt>
      <trkpt lat="48.46178" lon="2.66535">
        <ele>99.8</ele>
        <time>2017-01-08T11:47:46Z</time>
      </trkpt>
      <trkpt lat="48.4619" lon="2.66543">
        <ele>99.8</ele>
        <time>2017-01-08T11:47:50Z</time>
      </trkpt>
      <trkpt lat="48.46201" lon="2.66548">
        <ele>99.8</ele>
        <time>2017-01-08T11:47:54Z</time>
      </trkpt>
      <trkpt lat="48.4621" lon="2.66554">
        <ele>99.8</ele>
        <time>2017-01-08T11:47:58Z</time>
      </trkpt>
      <trkpt lat="48.46222" lon="2.66559">
        <ele>99.8</ele>
        <time>2017-01-08T11:48:03Z</time>
      </trkpt>
      <trkpt lat="48.46233" lon="2.66562">
        <ele>99.8</ele>
        <time>2017-01-08T11:48:06Z</time>
      </trkpt>
      <trkpt lat="48.46241" lon="2.66564">
        <ele>99.8</ele>
        <time>2017-01-08T11:48:08Z</time>
      </trkpt>
      <trkpt lat="48.46247" lon="2.66568">
        <ele>99.4</ele>
        <time>2017-01-08T11:48:10Z</time>
      </trkpt>
      <trkpt lat="48.46251" lon="2.66568">
        <ele>99</ele>
        <time>2017-01-08T11:48:11Z</time>
      </trkpt>
      <trkpt lat="48.46254" lon="2.66569">
        <ele>98.6</ele>
        <time>2017-01-08T11:48:12Z</time>
      </trkpt>
      <trkpt lat="48.46258" lon="2.66571">
        <ele>98.2</ele>
        <time>2017-01-08T11:48:13Z</time>
      </trkpt>
      <trkpt lat="48.46262" lon="2.66572">
        <ele>97.8</ele>
        <time>2017-01-08T11:48:14Z</time>
      </trkpt>
      <trkpt lat="48.4628" lon="2.66576">
        <ele>97.8</ele>
        <time>2017-01-08T11:48:19Z</time>
      </trkpt>
      <trkpt lat="48.46293" lon="2.66567">
        <ele>97.8</ele>
        <time>2017-01-08T11:48:23Z</time>
      </trkpt>
      <trkpt lat="48.46303" lon="2.66562">
        <ele>97.8</ele>
        <time>2017-01-08T11:48:27Z</time>
      </trkpt>
      <trkpt lat="48.46305" lon="2.6656">
        <ele>97.8</ele>
        <time>2017-01-08T11:48:28Z</time>
      </trkpt>
      <trkpt lat="48.46312" lon="2.66555">
        <ele>97.8</ele>
        <time>2017-01-08T11:48:31Z</time>
      </trkpt>
      <trkpt lat="48.46313" lon="2.66554">
        <ele>97.8</ele>
        <time>2017-01-08T11:48:32Z</time>
      </trkpt>
      <trkpt lat="48.46314" lon="2.66554">
        <ele>97.8</ele>
        <time>2017-01-08T11:48:33Z</time>
      </trkpt>
      <trkpt lat="48.46316" lon="2.66554">
        <ele>97.8</ele>
        <time>2017-01-08T11:48:34Z</time>
      </trkpt>
      <trkpt lat="48.46322" lon="2.66552">
        <ele>97.8</ele>
        <time>2017-01-08T11:48:38Z</time>
      </trkpt>
      <trkpt lat="48.46322" lon="2.66552">
        <ele>97.8</ele>
        <time>2017-01-08T11:48:39Z</time>
      </trkpt>
      <trkpt lat="48.46323" lon="2.66553">
        <ele>97.8</ele>
        <time>2017-01-08T11:48:40Z</time>
      </trkpt>
    </trkseg>
  </trk>
</gpx>